<?xml version="1.0" encoding="UTF-8" standalone="no" ?>
<gpx xmlns="http://www.topografix.com/GPX/1/1" xmlns:xsi="http://www.w3.org/2001/XMLSchema-instance" xsi:schemaLocation="http://www.topografix.com/GPX/1/1 http://www.topografix.com/GPX/1/1/gpx.xsd" version="1.1" creator="VisuGPX - https://www.visugpx.com">
  <metadata>
    <name>Etape 5_Ercé_Axat_154 kms_3924 D+ </name>
  </metadata>
  <trk>
    <name><![CDATA[Etape 5_Ercé_Axat_154 kms_3924 D+ ]]></name>
    <extensions>
      <line xmlns="http://www.topografix.com/GPX/gpx_style/0/2">
        <color>0000FF</color>
        <width>4</width>
      </line>
    </extensions>
    <trkseg>
      <trkpt lat="42.84817" lon="1.28977">
        <ele>620</ele>
        <time>2021-08-20T16:08:46Z</time>
      </trkpt>
      <trkpt lat="42.84827" lon="1.29">
        <ele>621</ele>
        <time>2021-08-20T16:08:49Z</time>
      </trkpt>
      <trkpt lat="42.84824" lon="1.29002">
        <ele>621</ele>
        <time>2021-08-20T16:08:50Z</time>
      </trkpt>
      <trkpt lat="42.84819" lon="1.29005">
        <ele>621</ele>
        <time>2021-08-20T16:08:51Z</time>
      </trkpt>
      <trkpt lat="42.84772" lon="1.29037">
        <ele>622</ele>
        <time>2021-08-20T16:09:00Z</time>
      </trkpt>
      <trkpt lat="42.84708" lon="1.29085">
        <ele>625</ele>
        <time>2021-08-20T16:09:13Z</time>
      </trkpt>
      <trkpt lat="42.84674" lon="1.29106">
        <ele>627</ele>
        <time>2021-08-20T16:09:20Z</time>
      </trkpt>
      <trkpt lat="42.84655" lon="1.29119">
        <ele>627</ele>
        <time>2021-08-20T16:09:24Z</time>
      </trkpt>
      <trkpt lat="42.84539" lon="1.2922">
        <ele>631</ele>
        <time>2021-08-20T16:09:48Z</time>
      </trkpt>
      <trkpt lat="42.84419" lon="1.29316">
        <ele>638</ele>
        <time>2021-08-20T16:10:13Z</time>
      </trkpt>
      <trkpt lat="42.84403" lon="1.29323">
        <ele>637</ele>
        <time>2021-08-20T16:10:16Z</time>
      </trkpt>
      <trkpt lat="42.8439" lon="1.29325">
        <ele>637</ele>
        <time>2021-08-20T16:10:18Z</time>
      </trkpt>
      <trkpt lat="42.84378" lon="1.29321">
        <ele>636</ele>
        <time>2021-08-20T16:10:21Z</time>
      </trkpt>
      <trkpt lat="42.84361" lon="1.2931">
        <ele>636</ele>
        <time>2021-08-20T16:10:24Z</time>
      </trkpt>
      <trkpt lat="42.84349" lon="1.29307">
        <ele>635</ele>
        <time>2021-08-20T16:10:26Z</time>
      </trkpt>
      <trkpt lat="42.84255" lon="1.29323">
        <ele>635</ele>
        <time>2021-08-20T16:10:43Z</time>
      </trkpt>
      <trkpt lat="42.84224" lon="1.29332">
        <ele>634</ele>
        <time>2021-08-20T16:10:49Z</time>
      </trkpt>
      <trkpt lat="42.84197" lon="1.29349">
        <ele>634</ele>
        <time>2021-08-20T16:10:54Z</time>
      </trkpt>
      <trkpt lat="42.84141" lon="1.29403">
        <ele>635</ele>
        <time>2021-08-20T16:11:06Z</time>
      </trkpt>
      <trkpt lat="42.84086" lon="1.29448">
        <ele>640</ele>
        <time>2021-08-20T16:11:17Z</time>
      </trkpt>
      <trkpt lat="42.84021" lon="1.29497">
        <ele>646</ele>
        <time>2021-08-20T16:11:31Z</time>
      </trkpt>
      <trkpt lat="42.83972" lon="1.2955">
        <ele>652</ele>
        <time>2021-08-20T16:11:42Z</time>
      </trkpt>
      <trkpt lat="42.83876" lon="1.29639">
        <ele>650</ele>
        <time>2021-08-20T16:12:02Z</time>
      </trkpt>
      <trkpt lat="42.83862" lon="1.29648">
        <ele>650</ele>
        <time>2021-08-20T16:12:05Z</time>
      </trkpt>
      <trkpt lat="42.83833" lon="1.29664">
        <ele>648</ele>
        <time>2021-08-20T16:12:11Z</time>
      </trkpt>
      <trkpt lat="42.83812" lon="1.2968">
        <ele>646</ele>
        <time>2021-08-20T16:12:15Z</time>
      </trkpt>
      <trkpt lat="42.83787" lon="1.29713">
        <ele>645</ele>
        <time>2021-08-20T16:12:21Z</time>
      </trkpt>
      <trkpt lat="42.83772" lon="1.29727">
        <ele>644</ele>
        <time>2021-08-20T16:12:25Z</time>
      </trkpt>
      <trkpt lat="42.83757" lon="1.29738">
        <ele>644</ele>
        <time>2021-08-20T16:12:28Z</time>
      </trkpt>
      <trkpt lat="42.83691" lon="1.29776">
        <ele>645</ele>
        <time>2021-08-20T16:12:40Z</time>
      </trkpt>
      <trkpt lat="42.83677" lon="1.29782">
        <ele>646</ele>
        <time>2021-08-20T16:12:43Z</time>
      </trkpt>
      <trkpt lat="42.83662" lon="1.29785">
        <ele>646</ele>
        <time>2021-08-20T16:12:46Z</time>
      </trkpt>
      <trkpt lat="42.8365" lon="1.29784">
        <ele>647</ele>
        <time>2021-08-20T16:12:48Z</time>
      </trkpt>
      <trkpt lat="42.8364" lon="1.29779">
        <ele>648</ele>
        <time>2021-08-20T16:12:50Z</time>
      </trkpt>
      <trkpt lat="42.83629" lon="1.2977">
        <ele>648</ele>
        <time>2021-08-20T16:12:52Z</time>
      </trkpt>
      <trkpt lat="42.83591" lon="1.29727">
        <ele>649</ele>
        <time>2021-08-20T16:13:01Z</time>
      </trkpt>
      <trkpt lat="42.83569" lon="1.29705">
        <ele>648</ele>
        <time>2021-08-20T16:13:06Z</time>
      </trkpt>
      <trkpt lat="42.83546" lon="1.29687">
        <ele>648</ele>
        <time>2021-08-20T16:13:10Z</time>
      </trkpt>
      <trkpt lat="42.83518" lon="1.29671">
        <ele>648</ele>
        <time>2021-08-20T16:13:16Z</time>
      </trkpt>
      <trkpt lat="42.83462" lon="1.29655">
        <ele>648</ele>
        <time>2021-08-20T16:13:26Z</time>
      </trkpt>
      <trkpt lat="42.83318" lon="1.29641">
        <ele>652</ele>
        <time>2021-08-20T16:13:52Z</time>
      </trkpt>
      <trkpt lat="42.83285" lon="1.29641">
        <ele>653</ele>
        <time>2021-08-20T16:13:57Z</time>
      </trkpt>
      <trkpt lat="42.83267" lon="1.2965">
        <ele>654</ele>
        <time>2021-08-20T16:14:01Z</time>
      </trkpt>
      <trkpt lat="42.83201" lon="1.29741">
        <ele>664</ele>
        <time>2021-08-20T16:14:18Z</time>
      </trkpt>
      <trkpt lat="42.83173" lon="1.29775">
        <ele>667</ele>
        <time>2021-08-20T16:14:24Z</time>
      </trkpt>
      <trkpt lat="42.83137" lon="1.29812">
        <ele>675</ele>
        <time>2021-08-20T16:14:32Z</time>
      </trkpt>
      <trkpt lat="42.8311" lon="1.29816">
        <ele>676</ele>
        <time>2021-08-20T16:14:37Z</time>
      </trkpt>
      <trkpt lat="42.83079" lon="1.29815">
        <ele>676</ele>
        <time>2021-08-20T16:14:43Z</time>
      </trkpt>
      <trkpt lat="42.83056" lon="1.298">
        <ele>680</ele>
        <time>2021-08-20T16:14:47Z</time>
      </trkpt>
      <trkpt lat="42.83" lon="1.29698">
        <ele>676</ele>
        <time>2021-08-20T16:15:04Z</time>
      </trkpt>
      <trkpt lat="42.82988" lon="1.29681">
        <ele>673</ele>
        <time>2021-08-20T16:15:07Z</time>
      </trkpt>
      <trkpt lat="42.82979" lon="1.29673">
        <ele>672</ele>
        <time>2021-08-20T16:15:09Z</time>
      </trkpt>
      <trkpt lat="42.82969" lon="1.29669">
        <ele>671</ele>
        <time>2021-08-20T16:15:11Z</time>
      </trkpt>
      <trkpt lat="42.8296" lon="1.29669">
        <ele>671</ele>
        <time>2021-08-20T16:15:12Z</time>
      </trkpt>
      <trkpt lat="42.82949" lon="1.29674">
        <ele>673</ele>
        <time>2021-08-20T16:15:14Z</time>
      </trkpt>
      <trkpt lat="42.82938" lon="1.29686">
        <ele>675</ele>
        <time>2021-08-20T16:15:17Z</time>
      </trkpt>
      <trkpt lat="42.82914" lon="1.29731">
        <ele>684</ele>
        <time>2021-08-20T16:15:24Z</time>
      </trkpt>
      <trkpt lat="42.82894" lon="1.29753">
        <ele>688</ele>
        <time>2021-08-20T16:15:29Z</time>
      </trkpt>
      <trkpt lat="42.82881" lon="1.29759">
        <ele>689</ele>
        <time>2021-08-20T16:15:31Z</time>
      </trkpt>
      <trkpt lat="42.82863" lon="1.29757">
        <ele>687</ele>
        <time>2021-08-20T16:15:34Z</time>
      </trkpt>
      <trkpt lat="42.82811" lon="1.29743">
        <ele>687</ele>
        <time>2021-08-20T16:15:44Z</time>
      </trkpt>
      <trkpt lat="42.82793" lon="1.29748">
        <ele>689</ele>
        <time>2021-08-20T16:15:47Z</time>
      </trkpt>
      <trkpt lat="42.8278" lon="1.29758">
        <ele>691</ele>
        <time>2021-08-20T16:15:50Z</time>
      </trkpt>
      <trkpt lat="42.82742" lon="1.29817">
        <ele>696</ele>
        <time>2021-08-20T16:16:00Z</time>
      </trkpt>
      <trkpt lat="42.82665" lon="1.29915">
        <ele>692</ele>
        <time>2021-08-20T16:16:19Z</time>
      </trkpt>
      <trkpt lat="42.82634" lon="1.29967">
        <ele>689</ele>
        <time>2021-08-20T16:16:27Z</time>
      </trkpt>
      <trkpt lat="42.82608" lon="1.30044">
        <ele>690</ele>
        <time>2021-08-20T16:16:38Z</time>
      </trkpt>
      <trkpt lat="42.82592" lon="1.30075">
        <ele>688</ele>
        <time>2021-08-20T16:16:43Z</time>
      </trkpt>
      <trkpt lat="42.82567" lon="1.30113">
        <ele>692</ele>
        <time>2021-08-20T16:16:50Z</time>
      </trkpt>
      <trkpt lat="42.8253" lon="1.30149">
        <ele>693</ele>
        <time>2021-08-20T16:16:58Z</time>
      </trkpt>
      <trkpt lat="42.82455" lon="1.30217">
        <ele>697</ele>
        <time>2021-08-20T16:17:14Z</time>
      </trkpt>
      <trkpt lat="42.82427" lon="1.30222">
        <ele>694</ele>
        <time>2021-08-20T16:17:19Z</time>
      </trkpt>
      <trkpt lat="42.82327" lon="1.3016">
        <ele>690</ele>
        <time>2021-08-20T16:17:39Z</time>
      </trkpt>
      <trkpt lat="42.82249" lon="1.30118">
        <ele>693</ele>
        <time>2021-08-20T16:17:54Z</time>
      </trkpt>
      <trkpt lat="42.82238" lon="1.30116">
        <ele>693</ele>
        <time>2021-08-20T16:17:56Z</time>
      </trkpt>
      <trkpt lat="42.82227" lon="1.30118">
        <ele>693</ele>
        <time>2021-08-20T16:17:58Z</time>
      </trkpt>
      <trkpt lat="42.82173" lon="1.30149">
        <ele>692</ele>
        <time>2021-08-20T16:18:08Z</time>
      </trkpt>
      <trkpt lat="42.82161" lon="1.30151">
        <ele>692</ele>
        <time>2021-08-20T16:18:10Z</time>
      </trkpt>
      <trkpt lat="42.82112" lon="1.30155">
        <ele>697</ele>
        <time>2021-08-20T16:18:19Z</time>
      </trkpt>
      <trkpt lat="42.82101" lon="1.30159">
        <ele>697</ele>
        <time>2021-08-20T16:18:21Z</time>
      </trkpt>
      <trkpt lat="42.82092" lon="1.30166">
        <ele>697</ele>
        <time>2021-08-20T16:18:23Z</time>
      </trkpt>
      <trkpt lat="42.82084" lon="1.30176">
        <ele>698</ele>
        <time>2021-08-20T16:18:25Z</time>
      </trkpt>
      <trkpt lat="42.82072" lon="1.30203">
        <ele>702</ele>
        <time>2021-08-20T16:18:29Z</time>
      </trkpt>
      <trkpt lat="42.82068" lon="1.30219">
        <ele>703</ele>
        <time>2021-08-20T16:18:31Z</time>
      </trkpt>
      <trkpt lat="42.82062" lon="1.30261">
        <ele>704</ele>
        <time>2021-08-20T16:18:37Z</time>
      </trkpt>
      <trkpt lat="42.82057" lon="1.30273">
        <ele>705</ele>
        <time>2021-08-20T16:18:38Z</time>
      </trkpt>
      <trkpt lat="42.82046" lon="1.30285">
        <ele>706</ele>
        <time>2021-08-20T16:18:41Z</time>
      </trkpt>
      <trkpt lat="42.81805" lon="1.30492">
        <ele>697</ele>
        <time>2021-08-20T16:19:32Z</time>
      </trkpt>
      <trkpt lat="42.81692" lon="1.30569">
        <ele>695</ele>
        <time>2021-08-20T16:19:54Z</time>
      </trkpt>
      <trkpt lat="42.8168" lon="1.30575">
        <ele>695</ele>
        <time>2021-08-20T16:19:56Z</time>
      </trkpt>
      <trkpt lat="42.81632" lon="1.30591">
        <ele>695</ele>
        <time>2021-08-20T16:20:05Z</time>
      </trkpt>
      <trkpt lat="42.8161" lon="1.306">
        <ele>695</ele>
        <time>2021-08-20T16:20:09Z</time>
      </trkpt>
      <trkpt lat="42.81557" lon="1.30629">
        <ele>697</ele>
        <time>2021-08-20T16:20:19Z</time>
      </trkpt>
      <trkpt lat="42.81535" lon="1.30646">
        <ele>698</ele>
        <time>2021-08-20T16:20:24Z</time>
      </trkpt>
      <trkpt lat="42.81513" lon="1.3067">
        <ele>697</ele>
        <time>2021-08-20T16:20:29Z</time>
      </trkpt>
      <trkpt lat="42.81476" lon="1.3072">
        <ele>706</ele>
        <time>2021-08-20T16:20:38Z</time>
      </trkpt>
      <trkpt lat="42.81455" lon="1.30751">
        <ele>706</ele>
        <time>2021-08-20T16:20:44Z</time>
      </trkpt>
      <trkpt lat="42.81449" lon="1.30762">
        <ele>706</ele>
        <time>2021-08-20T16:20:45Z</time>
      </trkpt>
      <trkpt lat="42.81446" lon="1.30778">
        <ele>705</ele>
        <time>2021-08-20T16:20:48Z</time>
      </trkpt>
      <trkpt lat="42.81446" lon="1.30795">
        <ele>704</ele>
        <time>2021-08-20T16:20:50Z</time>
      </trkpt>
      <trkpt lat="42.81455" lon="1.30842">
        <ele>705</ele>
        <time>2021-08-20T16:20:56Z</time>
      </trkpt>
      <trkpt lat="42.81454" lon="1.30857">
        <ele>705</ele>
        <time>2021-08-20T16:20:58Z</time>
      </trkpt>
      <trkpt lat="42.81452" lon="1.30868">
        <ele>706</ele>
        <time>2021-08-20T16:21:00Z</time>
      </trkpt>
      <trkpt lat="42.81446" lon="1.30883">
        <ele>705</ele>
        <time>2021-08-20T16:21:02Z</time>
      </trkpt>
      <trkpt lat="42.81414" lon="1.30941">
        <ele>702</ele>
        <time>2021-08-20T16:21:11Z</time>
      </trkpt>
      <trkpt lat="42.81409" lon="1.30955">
        <ele>702</ele>
        <time>2021-08-20T16:21:13Z</time>
      </trkpt>
      <trkpt lat="42.81405" lon="1.30968">
        <ele>703</ele>
        <time>2021-08-20T16:21:15Z</time>
      </trkpt>
      <trkpt lat="42.81393" lon="1.31066">
        <ele>711</ele>
        <time>2021-08-20T16:21:28Z</time>
      </trkpt>
      <trkpt lat="42.81379" lon="1.31106">
        <ele>713</ele>
        <time>2021-08-20T16:21:34Z</time>
      </trkpt>
      <trkpt lat="42.81327" lon="1.31224">
        <ele>704</ele>
        <time>2021-08-20T16:21:52Z</time>
      </trkpt>
      <trkpt lat="42.81321" lon="1.31243">
        <ele>705</ele>
        <time>2021-08-20T16:21:55Z</time>
      </trkpt>
      <trkpt lat="42.81309" lon="1.31292">
        <ele>711</ele>
        <time>2021-08-20T16:22:01Z</time>
      </trkpt>
      <trkpt lat="42.81303" lon="1.31313">
        <ele>713</ele>
        <time>2021-08-20T16:22:04Z</time>
      </trkpt>
      <trkpt lat="42.81283" lon="1.31355">
        <ele>714</ele>
        <time>2021-08-20T16:22:11Z</time>
      </trkpt>
      <trkpt lat="42.81273" lon="1.31372">
        <ele>713</ele>
        <time>2021-08-20T16:22:14Z</time>
      </trkpt>
      <trkpt lat="42.81261" lon="1.31387">
        <ele>711</ele>
        <time>2021-08-20T16:22:17Z</time>
      </trkpt>
      <trkpt lat="42.81248" lon="1.31399">
        <ele>708</ele>
        <time>2021-08-20T16:22:19Z</time>
      </trkpt>
      <trkpt lat="42.81196" lon="1.31427">
        <ele>703</ele>
        <time>2021-08-20T16:22:29Z</time>
      </trkpt>
      <trkpt lat="42.81172" lon="1.31443">
        <ele>700</ele>
        <time>2021-08-20T16:22:34Z</time>
      </trkpt>
      <trkpt lat="42.81146" lon="1.31463">
        <ele>701</ele>
        <time>2021-08-20T16:22:39Z</time>
      </trkpt>
      <trkpt lat="42.81125" lon="1.31492">
        <ele>701</ele>
        <time>2021-08-20T16:22:45Z</time>
      </trkpt>
      <trkpt lat="42.80999" lon="1.31712">
        <ele>710</ele>
        <time>2021-08-20T16:23:21Z</time>
      </trkpt>
      <trkpt lat="42.80977" lon="1.31748">
        <ele>712</ele>
        <time>2021-08-20T16:23:27Z</time>
      </trkpt>
      <trkpt lat="42.80947" lon="1.31782">
        <ele>714</ele>
        <time>2021-08-20T16:23:34Z</time>
      </trkpt>
      <trkpt lat="42.80816" lon="1.31884">
        <ele>712</ele>
        <time>2021-08-20T16:24:01Z</time>
      </trkpt>
      <trkpt lat="42.80799" lon="1.3191">
        <ele>715</ele>
        <time>2021-08-20T16:24:06Z</time>
      </trkpt>
      <trkpt lat="42.80778" lon="1.31958">
        <ele>721</ele>
        <time>2021-08-20T16:24:13Z</time>
      </trkpt>
      <trkpt lat="42.80763" lon="1.31976">
        <ele>719</ele>
        <time>2021-08-20T16:24:16Z</time>
      </trkpt>
      <trkpt lat="42.80742" lon="1.31995">
        <ele>715</ele>
        <time>2021-08-20T16:24:21Z</time>
      </trkpt>
      <trkpt lat="42.80654" lon="1.32061">
        <ele>715</ele>
        <time>2021-08-20T16:24:39Z</time>
      </trkpt>
      <trkpt lat="42.80617" lon="1.32109">
        <ele>719</ele>
        <time>2021-08-20T16:24:48Z</time>
      </trkpt>
      <trkpt lat="42.80602" lon="1.32119">
        <ele>718</ele>
        <time>2021-08-20T16:24:51Z</time>
      </trkpt>
      <trkpt lat="42.80585" lon="1.32124">
        <ele>717</ele>
        <time>2021-08-20T16:24:54Z</time>
      </trkpt>
      <trkpt lat="42.80488" lon="1.32139">
        <ele>717</ele>
        <time>2021-08-20T16:25:11Z</time>
      </trkpt>
      <trkpt lat="42.80436" lon="1.32153">
        <ele>721</ele>
        <time>2021-08-20T16:25:21Z</time>
      </trkpt>
      <trkpt lat="42.80277" lon="1.32214">
        <ele>733</ele>
        <time>2021-08-20T16:25:50Z</time>
      </trkpt>
      <trkpt lat="42.80253" lon="1.32227">
        <ele>733</ele>
        <time>2021-08-20T16:25:55Z</time>
      </trkpt>
      <trkpt lat="42.80232" lon="1.32246">
        <ele>735</ele>
        <time>2021-08-20T16:25:59Z</time>
      </trkpt>
      <trkpt lat="42.80205" lon="1.32281">
        <ele>736</ele>
        <time>2021-08-20T16:26:06Z</time>
      </trkpt>
      <trkpt lat="42.80191" lon="1.32314">
        <ele>733</ele>
        <time>2021-08-20T16:26:11Z</time>
      </trkpt>
      <trkpt lat="42.80191" lon="1.32342">
        <ele>731</ele>
        <time>2021-08-20T16:26:14Z</time>
      </trkpt>
      <trkpt lat="42.80196" lon="1.32406">
        <ele>731</ele>
        <time>2021-08-20T16:26:23Z</time>
      </trkpt>
      <trkpt lat="42.80197" lon="1.32432">
        <ele>731</ele>
        <time>2021-08-20T16:26:26Z</time>
      </trkpt>
      <trkpt lat="42.80195" lon="1.32455">
        <ele>732</ele>
        <time>2021-08-20T16:26:29Z</time>
      </trkpt>
      <trkpt lat="42.80189" lon="1.32471">
        <ele>731</ele>
        <time>2021-08-20T16:26:32Z</time>
      </trkpt>
      <trkpt lat="42.80178" lon="1.32487">
        <ele>730</ele>
        <time>2021-08-20T16:26:34Z</time>
      </trkpt>
      <trkpt lat="42.80166" lon="1.325">
        <ele>728</ele>
        <time>2021-08-20T16:26:37Z</time>
      </trkpt>
      <trkpt lat="42.80124" lon="1.32517">
        <ele>726</ele>
        <time>2021-08-20T16:26:45Z</time>
      </trkpt>
      <trkpt lat="42.80113" lon="1.32527">
        <ele>726</ele>
        <time>2021-08-20T16:26:47Z</time>
      </trkpt>
      <trkpt lat="42.80077" lon="1.3258">
        <ele>725</ele>
        <time>2021-08-20T16:26:57Z</time>
      </trkpt>
      <trkpt lat="42.80031" lon="1.32637">
        <ele>728</ele>
        <time>2021-08-20T16:27:08Z</time>
      </trkpt>
      <trkpt lat="42.80004" lon="1.32673">
        <ele>728</ele>
        <time>2021-08-20T16:27:15Z</time>
      </trkpt>
      <trkpt lat="42.79962" lon="1.32748">
        <ele>737</ele>
        <time>2021-08-20T16:27:27Z</time>
      </trkpt>
      <trkpt lat="42.79943" lon="1.32773">
        <ele>740</ele>
        <time>2021-08-20T16:27:32Z</time>
      </trkpt>
      <trkpt lat="42.79874" lon="1.32833">
        <ele>739</ele>
        <time>2021-08-20T16:27:46Z</time>
      </trkpt>
      <trkpt lat="42.79868" lon="1.32837">
        <ele>740</ele>
        <time>2021-08-20T16:27:47Z</time>
      </trkpt>
      <trkpt lat="42.79861" lon="1.32844">
        <ele>741</ele>
        <time>2021-08-20T16:27:49Z</time>
      </trkpt>
      <trkpt lat="42.79761" lon="1.32922">
        <ele>736</ele>
        <time>2021-08-20T16:28:09Z</time>
      </trkpt>
      <trkpt lat="42.79704" lon="1.32975">
        <ele>741</ele>
        <time>2021-08-20T16:28:22Z</time>
      </trkpt>
      <trkpt lat="42.79645" lon="1.33022">
        <ele>743</ele>
        <time>2021-08-20T16:28:34Z</time>
      </trkpt>
      <trkpt lat="42.79592" lon="1.33052">
        <ele>740</ele>
        <time>2021-08-20T16:28:44Z</time>
      </trkpt>
      <trkpt lat="42.79571" lon="1.33072">
        <ele>740</ele>
        <time>2021-08-20T16:28:49Z</time>
      </trkpt>
      <trkpt lat="42.79527" lon="1.33125">
        <ele>742</ele>
        <time>2021-08-20T16:28:59Z</time>
      </trkpt>
      <trkpt lat="42.79427" lon="1.3321">
        <ele>737</ele>
        <time>2021-08-20T16:29:20Z</time>
      </trkpt>
      <trkpt lat="42.79348" lon="1.33276">
        <ele>737</ele>
        <time>2021-08-20T16:29:36Z</time>
      </trkpt>
      <trkpt lat="42.7932" lon="1.333">
        <ele>737</ele>
        <time>2021-08-20T16:29:42Z</time>
      </trkpt>
      <trkpt lat="42.79308" lon="1.33309">
        <ele>737</ele>
        <time>2021-08-20T16:29:45Z</time>
      </trkpt>
      <trkpt lat="42.79229" lon="1.33376">
        <ele>737</ele>
        <time>2021-08-20T16:30:01Z</time>
      </trkpt>
      <trkpt lat="42.79093" lon="1.33491">
        <ele>740</ele>
        <time>2021-08-20T16:30:30Z</time>
      </trkpt>
      <trkpt lat="42.79069" lon="1.33523">
        <ele>740</ele>
        <time>2021-08-20T16:30:36Z</time>
      </trkpt>
      <trkpt lat="42.79052" lon="1.33549">
        <ele>741</ele>
        <time>2021-08-20T16:30:40Z</time>
      </trkpt>
      <trkpt lat="42.7904" lon="1.33568">
        <ele>741</ele>
        <time>2021-08-20T16:30:44Z</time>
      </trkpt>
      <trkpt lat="42.79033" lon="1.33578">
        <ele>742</ele>
        <time>2021-08-20T16:30:45Z</time>
      </trkpt>
      <trkpt lat="42.7902" lon="1.33596">
        <ele>742</ele>
        <time>2021-08-20T16:30:49Z</time>
      </trkpt>
      <trkpt lat="42.79012" lon="1.33613">
        <ele>743</ele>
        <time>2021-08-20T16:30:51Z</time>
      </trkpt>
      <trkpt lat="42.79008" lon="1.33626">
        <ele>743</ele>
        <time>2021-08-20T16:30:53Z</time>
      </trkpt>
      <trkpt lat="42.79006" lon="1.33624">
        <ele>743</ele>
        <time>2021-08-20T16:30:54Z</time>
      </trkpt>
      <trkpt lat="42.78993" lon="1.33626">
        <ele>744</ele>
        <time>2021-08-20T16:30:56Z</time>
      </trkpt>
      <trkpt lat="42.78991" lon="1.33628">
        <ele>744</ele>
        <time>2021-08-20T16:30:56Z</time>
      </trkpt>
      <trkpt lat="42.7899" lon="1.33633">
        <ele>745</ele>
        <time>2021-08-20T16:30:57Z</time>
      </trkpt>
      <trkpt lat="42.7899" lon="1.33637">
        <ele>745</ele>
        <time>2021-08-20T16:30:58Z</time>
      </trkpt>
      <trkpt lat="42.78991" lon="1.3364">
        <ele>745</ele>
        <time>2021-08-20T16:30:58Z</time>
      </trkpt>
      <trkpt lat="42.78979" lon="1.33644">
        <ele>746</ele>
        <time>2021-08-20T16:31:00Z</time>
      </trkpt>
      <trkpt lat="42.78959" lon="1.33669">
        <ele>747</ele>
        <time>2021-08-20T16:31:05Z</time>
      </trkpt>
      <trkpt lat="42.7895" lon="1.33681">
        <ele>748</ele>
        <time>2021-08-20T16:31:07Z</time>
      </trkpt>
      <trkpt lat="42.78942" lon="1.33695">
        <ele>749</ele>
        <time>2021-08-20T16:31:10Z</time>
      </trkpt>
      <trkpt lat="42.78929" lon="1.33717">
        <ele>749</ele>
        <time>2021-08-20T16:31:13Z</time>
      </trkpt>
      <trkpt lat="42.78917" lon="1.33759">
        <ele>749</ele>
        <time>2021-08-20T16:31:19Z</time>
      </trkpt>
      <trkpt lat="42.78898" lon="1.33833">
        <ele>749</ele>
        <time>2021-08-20T16:31:29Z</time>
      </trkpt>
      <trkpt lat="42.78893" lon="1.33876">
        <ele>750</ele>
        <time>2021-08-20T16:31:35Z</time>
      </trkpt>
      <trkpt lat="42.78892" lon="1.33885">
        <ele>750</ele>
        <time>2021-08-20T16:31:36Z</time>
      </trkpt>
      <trkpt lat="42.78892" lon="1.33912">
        <ele>751</ele>
        <time>2021-08-20T16:31:40Z</time>
      </trkpt>
      <trkpt lat="42.78902" lon="1.33956">
        <ele>753</ele>
        <time>2021-08-20T16:31:46Z</time>
      </trkpt>
      <trkpt lat="42.78903" lon="1.33971">
        <ele>753</ele>
        <time>2021-08-20T16:31:48Z</time>
      </trkpt>
      <trkpt lat="42.789" lon="1.34033">
        <ele>755</ele>
        <time>2021-08-20T16:31:56Z</time>
      </trkpt>
      <trkpt lat="42.78902" lon="1.34048">
        <ele>756</ele>
        <time>2021-08-20T16:31:58Z</time>
      </trkpt>
      <trkpt lat="42.78905" lon="1.34063">
        <ele>757</ele>
        <time>2021-08-20T16:32:00Z</time>
      </trkpt>
      <trkpt lat="42.78913" lon="1.3408">
        <ele>758</ele>
        <time>2021-08-20T16:32:03Z</time>
      </trkpt>
      <trkpt lat="42.78955" lon="1.34132">
        <ele>762</ele>
        <time>2021-08-20T16:32:13Z</time>
      </trkpt>
      <trkpt lat="42.78978" lon="1.34164">
        <ele>766</ele>
        <time>2021-08-20T16:32:19Z</time>
      </trkpt>
      <trkpt lat="42.78983" lon="1.34177">
        <ele>767</ele>
        <time>2021-08-20T16:32:20Z</time>
      </trkpt>
      <trkpt lat="42.78986" lon="1.34189">
        <ele>768</ele>
        <time>2021-08-20T16:32:22Z</time>
      </trkpt>
      <trkpt lat="42.78986" lon="1.34196">
        <ele>769</ele>
        <time>2021-08-20T16:32:23Z</time>
      </trkpt>
      <trkpt lat="42.78985" lon="1.34199">
        <ele>769</ele>
        <time>2021-08-20T16:32:23Z</time>
      </trkpt>
      <trkpt lat="42.78983" lon="1.34208">
        <ele>770</ele>
        <time>2021-08-20T16:32:25Z</time>
      </trkpt>
      <trkpt lat="42.78967" lon="1.34243">
        <ele>771</ele>
        <time>2021-08-20T16:32:30Z</time>
      </trkpt>
      <trkpt lat="42.78953" lon="1.34273">
        <ele>773</ele>
        <time>2021-08-20T16:32:35Z</time>
      </trkpt>
      <trkpt lat="42.78943" lon="1.34299">
        <ele>774</ele>
        <time>2021-08-20T16:32:39Z</time>
      </trkpt>
      <trkpt lat="42.78936" lon="1.34327">
        <ele>776</ele>
        <time>2021-08-20T16:32:42Z</time>
      </trkpt>
      <trkpt lat="42.78928" lon="1.34368">
        <ele>779</ele>
        <time>2021-08-20T16:32:48Z</time>
      </trkpt>
      <trkpt lat="42.78924" lon="1.34409">
        <ele>784</ele>
        <time>2021-08-20T16:32:53Z</time>
      </trkpt>
      <trkpt lat="42.78924" lon="1.34443">
        <ele>787</ele>
        <time>2021-08-20T16:32:58Z</time>
      </trkpt>
      <trkpt lat="42.78926" lon="1.34476">
        <ele>791</ele>
        <time>2021-08-20T16:33:02Z</time>
      </trkpt>
      <trkpt lat="42.78939" lon="1.34595">
        <ele>801</ele>
        <time>2021-08-20T16:33:18Z</time>
      </trkpt>
      <trkpt lat="42.78942" lon="1.34621">
        <ele>804</ele>
        <time>2021-08-20T16:33:21Z</time>
      </trkpt>
      <trkpt lat="42.78945" lon="1.34632">
        <ele>806</ele>
        <time>2021-08-20T16:33:23Z</time>
      </trkpt>
      <trkpt lat="42.78952" lon="1.34663">
        <ele>810</ele>
        <time>2021-08-20T16:33:27Z</time>
      </trkpt>
      <trkpt lat="42.78951" lon="1.34686">
        <ele>813</ele>
        <time>2021-08-20T16:33:30Z</time>
      </trkpt>
      <trkpt lat="42.78933" lon="1.34763">
        <ele>823</ele>
        <time>2021-08-20T16:33:41Z</time>
      </trkpt>
      <trkpt lat="42.78926" lon="1.34784">
        <ele>825</ele>
        <time>2021-08-20T16:33:44Z</time>
      </trkpt>
      <trkpt lat="42.78913" lon="1.34811">
        <ele>827</ele>
        <time>2021-08-20T16:33:48Z</time>
      </trkpt>
      <trkpt lat="42.78903" lon="1.34826">
        <ele>828</ele>
        <time>2021-08-20T16:33:50Z</time>
      </trkpt>
      <trkpt lat="42.78894" lon="1.34835">
        <ele>829</ele>
        <time>2021-08-20T16:33:52Z</time>
      </trkpt>
      <trkpt lat="42.78843" lon="1.34884">
        <ele>832</ele>
        <time>2021-08-20T16:34:04Z</time>
      </trkpt>
      <trkpt lat="42.78827" lon="1.34903">
        <ele>834</ele>
        <time>2021-08-20T16:34:07Z</time>
      </trkpt>
      <trkpt lat="42.78809" lon="1.34931">
        <ele>837</ele>
        <time>2021-08-20T16:34:12Z</time>
      </trkpt>
      <trkpt lat="42.78793" lon="1.34961">
        <ele>840</ele>
        <time>2021-08-20T16:34:17Z</time>
      </trkpt>
      <trkpt lat="42.78778" lon="1.34993">
        <ele>843</ele>
        <time>2021-08-20T16:34:22Z</time>
      </trkpt>
      <trkpt lat="42.78773" lon="1.35013">
        <ele>844</ele>
        <time>2021-08-20T16:34:25Z</time>
      </trkpt>
      <trkpt lat="42.78771" lon="1.35031">
        <ele>845</ele>
        <time>2021-08-20T16:34:27Z</time>
      </trkpt>
      <trkpt lat="42.78772" lon="1.3508">
        <ele>850</ele>
        <time>2021-08-20T16:34:34Z</time>
      </trkpt>
      <trkpt lat="42.7877" lon="1.35111">
        <ele>854</ele>
        <time>2021-08-20T16:34:38Z</time>
      </trkpt>
      <trkpt lat="42.78766" lon="1.35134">
        <ele>856</ele>
        <time>2021-08-20T16:34:41Z</time>
      </trkpt>
      <trkpt lat="42.78759" lon="1.35154">
        <ele>857</ele>
        <time>2021-08-20T16:34:44Z</time>
      </trkpt>
      <trkpt lat="42.78724" lon="1.35207">
        <ele>861</ele>
        <time>2021-08-20T16:34:53Z</time>
      </trkpt>
      <trkpt lat="42.78697" lon="1.35268">
        <ele>868</ele>
        <time>2021-08-20T16:35:02Z</time>
      </trkpt>
      <trkpt lat="42.78686" lon="1.35306">
        <ele>874</ele>
        <time>2021-08-20T16:35:08Z</time>
      </trkpt>
      <trkpt lat="42.78657" lon="1.35363">
        <ele>880</ele>
        <time>2021-08-20T16:35:17Z</time>
      </trkpt>
      <trkpt lat="42.7861" lon="1.35424">
        <ele>883</ele>
        <time>2021-08-20T16:35:28Z</time>
      </trkpt>
      <trkpt lat="42.78588" lon="1.35463">
        <ele>886</ele>
        <time>2021-08-20T16:35:35Z</time>
      </trkpt>
      <trkpt lat="42.78559" lon="1.35523">
        <ele>893</ele>
        <time>2021-08-20T16:35:44Z</time>
      </trkpt>
      <trkpt lat="42.78533" lon="1.35596">
        <ele>902</ele>
        <time>2021-08-20T16:35:55Z</time>
      </trkpt>
      <trkpt lat="42.78469" lon="1.35708">
        <ele>910</ele>
        <time>2021-08-20T16:36:13Z</time>
      </trkpt>
      <trkpt lat="42.78446" lon="1.35769">
        <ele>915</ele>
        <time>2021-08-20T16:36:22Z</time>
      </trkpt>
      <trkpt lat="42.78419" lon="1.35826">
        <ele>917</ele>
        <time>2021-08-20T16:36:31Z</time>
      </trkpt>
      <trkpt lat="42.78413" lon="1.35842">
        <ele>919</ele>
        <time>2021-08-20T16:36:33Z</time>
      </trkpt>
      <trkpt lat="42.78408" lon="1.35874">
        <ele>922</ele>
        <time>2021-08-20T16:36:38Z</time>
      </trkpt>
      <trkpt lat="42.78407" lon="1.35889">
        <ele>924</ele>
        <time>2021-08-20T16:36:39Z</time>
      </trkpt>
      <trkpt lat="42.78408" lon="1.35905">
        <ele>926</ele>
        <time>2021-08-20T16:36:42Z</time>
      </trkpt>
      <trkpt lat="42.7841" lon="1.35918">
        <ele>928</ele>
        <time>2021-08-20T16:36:43Z</time>
      </trkpt>
      <trkpt lat="42.7843" lon="1.35974">
        <ele>937</ele>
        <time>2021-08-20T16:36:51Z</time>
      </trkpt>
      <trkpt lat="42.78433" lon="1.35987">
        <ele>939</ele>
        <time>2021-08-20T16:36:53Z</time>
      </trkpt>
      <trkpt lat="42.78435" lon="1.36013">
        <ele>942</ele>
        <time>2021-08-20T16:36:57Z</time>
      </trkpt>
      <trkpt lat="42.78427" lon="1.36084">
        <ele>949</ele>
        <time>2021-08-20T16:37:06Z</time>
      </trkpt>
      <trkpt lat="42.78411" lon="1.36152">
        <ele>955</ele>
        <time>2021-08-20T16:37:15Z</time>
      </trkpt>
      <trkpt lat="42.7841" lon="1.36176">
        <ele>957</ele>
        <time>2021-08-20T16:37:18Z</time>
      </trkpt>
      <trkpt lat="42.7842" lon="1.36286">
        <ele>970</ele>
        <time>2021-08-20T16:37:33Z</time>
      </trkpt>
      <trkpt lat="42.78418" lon="1.36307">
        <ele>971</ele>
        <time>2021-08-20T16:37:36Z</time>
      </trkpt>
      <trkpt lat="42.78406" lon="1.36347">
        <ele>971</ele>
        <time>2021-08-20T16:37:41Z</time>
      </trkpt>
      <trkpt lat="42.78403" lon="1.36376">
        <ele>974</ele>
        <time>2021-08-20T16:37:45Z</time>
      </trkpt>
      <trkpt lat="42.78405" lon="1.36426">
        <ele>980</ele>
        <time>2021-08-20T16:37:52Z</time>
      </trkpt>
      <trkpt lat="42.78413" lon="1.36527">
        <ele>994</ele>
        <time>2021-08-20T16:38:05Z</time>
      </trkpt>
      <trkpt lat="42.78411" lon="1.36564">
        <ele>998</ele>
        <time>2021-08-20T16:38:10Z</time>
      </trkpt>
      <trkpt lat="42.78394" lon="1.36681">
        <ele>1005</ele>
        <time>2021-08-20T16:38:25Z</time>
      </trkpt>
      <trkpt lat="42.78391" lon="1.36748">
        <ele>1012</ele>
        <time>2021-08-20T16:38:34Z</time>
      </trkpt>
      <trkpt lat="42.78381" lon="1.36832">
        <ele>1018</ele>
        <time>2021-08-20T16:38:45Z</time>
      </trkpt>
      <trkpt lat="42.78382" lon="1.36892">
        <ele>1025</ele>
        <time>2021-08-20T16:38:53Z</time>
      </trkpt>
      <trkpt lat="42.78373" lon="1.36958">
        <ele>1030</ele>
        <time>2021-08-20T16:39:02Z</time>
      </trkpt>
      <trkpt lat="42.78362" lon="1.37014">
        <ele>1034</ele>
        <time>2021-08-20T16:39:09Z</time>
      </trkpt>
      <trkpt lat="42.78351" lon="1.37052">
        <ele>1038</ele>
        <time>2021-08-20T16:39:15Z</time>
      </trkpt>
      <trkpt lat="42.78335" lon="1.37081">
        <ele>1036</ele>
        <time>2021-08-20T16:39:20Z</time>
      </trkpt>
      <trkpt lat="42.78313" lon="1.37108">
        <ele>1037</ele>
        <time>2021-08-20T16:39:25Z</time>
      </trkpt>
      <trkpt lat="42.78222" lon="1.37284">
        <ele>1053</ele>
        <time>2021-08-20T16:39:53Z</time>
      </trkpt>
      <trkpt lat="42.78217" lon="1.37289">
        <ele>1053</ele>
        <time>2021-08-20T16:39:54Z</time>
      </trkpt>
      <trkpt lat="42.78203" lon="1.37298">
        <ele>1053</ele>
        <time>2021-08-20T16:39:57Z</time>
      </trkpt>
      <trkpt lat="42.78182" lon="1.37303">
        <ele>1050</ele>
        <time>2021-08-20T16:40:01Z</time>
      </trkpt>
      <trkpt lat="42.7817" lon="1.37307">
        <ele>1049</ele>
        <time>2021-08-20T16:40:03Z</time>
      </trkpt>
      <trkpt lat="42.78162" lon="1.37311">
        <ele>1049</ele>
        <time>2021-08-20T16:40:04Z</time>
      </trkpt>
      <trkpt lat="42.78155" lon="1.37317">
        <ele>1049</ele>
        <time>2021-08-20T16:40:06Z</time>
      </trkpt>
      <trkpt lat="42.7814" lon="1.37336">
        <ele>1051</ele>
        <time>2021-08-20T16:40:09Z</time>
      </trkpt>
      <trkpt lat="42.78114" lon="1.37379">
        <ele>1060</ele>
        <time>2021-08-20T16:40:17Z</time>
      </trkpt>
      <trkpt lat="42.78102" lon="1.37393">
        <ele>1061</ele>
        <time>2021-08-20T16:40:19Z</time>
      </trkpt>
      <trkpt lat="42.78091" lon="1.374">
        <ele>1061</ele>
        <time>2021-08-20T16:40:22Z</time>
      </trkpt>
      <trkpt lat="42.78081" lon="1.37402">
        <ele>1059</ele>
        <time>2021-08-20T16:40:23Z</time>
      </trkpt>
      <trkpt lat="42.78061" lon="1.374">
        <ele>1054</ele>
        <time>2021-08-20T16:40:27Z</time>
      </trkpt>
      <trkpt lat="42.78055" lon="1.37402">
        <ele>1054</ele>
        <time>2021-08-20T16:40:28Z</time>
      </trkpt>
      <trkpt lat="42.7805" lon="1.37407">
        <ele>1054</ele>
        <time>2021-08-20T16:40:29Z</time>
      </trkpt>
      <trkpt lat="42.78045" lon="1.37415">
        <ele>1055</ele>
        <time>2021-08-20T16:40:31Z</time>
      </trkpt>
      <trkpt lat="42.78001" lon="1.37519">
        <ele>1079</ele>
        <time>2021-08-20T16:40:46Z</time>
      </trkpt>
      <trkpt lat="42.77988" lon="1.37541">
        <ele>1086</ele>
        <time>2021-08-20T16:40:50Z</time>
      </trkpt>
      <trkpt lat="42.77983" lon="1.37547">
        <ele>1088</ele>
        <time>2021-08-20T16:40:51Z</time>
      </trkpt>
      <trkpt lat="42.77932" lon="1.37574">
        <ele>1087</ele>
        <time>2021-08-20T16:41:01Z</time>
      </trkpt>
      <trkpt lat="42.7792" lon="1.37578">
        <ele>1085</ele>
        <time>2021-08-20T16:41:03Z</time>
      </trkpt>
      <trkpt lat="42.77864" lon="1.3758">
        <ele>1090</ele>
        <time>2021-08-20T16:41:13Z</time>
      </trkpt>
      <trkpt lat="42.77821" lon="1.3759">
        <ele>1097</ele>
        <time>2021-08-20T16:41:21Z</time>
      </trkpt>
      <trkpt lat="42.77759" lon="1.37618">
        <ele>1108</ele>
        <time>2021-08-20T16:41:32Z</time>
      </trkpt>
      <trkpt lat="42.77735" lon="1.3764">
        <ele>1112</ele>
        <time>2021-08-20T16:41:38Z</time>
      </trkpt>
      <trkpt lat="42.77714" lon="1.37656">
        <ele>1111</ele>
        <time>2021-08-20T16:41:42Z</time>
      </trkpt>
      <trkpt lat="42.77687" lon="1.37666">
        <ele>1107</ele>
        <time>2021-08-20T16:41:47Z</time>
      </trkpt>
      <trkpt lat="42.77676" lon="1.37673">
        <ele>1106</ele>
        <time>2021-08-20T16:41:49Z</time>
      </trkpt>
      <trkpt lat="42.77672" lon="1.37677">
        <ele>1107</ele>
        <time>2021-08-20T16:41:50Z</time>
      </trkpt>
      <trkpt lat="42.77668" lon="1.37686">
        <ele>1108</ele>
        <time>2021-08-20T16:41:51Z</time>
      </trkpt>
      <trkpt lat="42.77653" lon="1.3773">
        <ele>1118</ele>
        <time>2021-08-20T16:41:58Z</time>
      </trkpt>
      <trkpt lat="42.77605" lon="1.37837">
        <ele>1126</ele>
        <time>2021-08-20T16:42:14Z</time>
      </trkpt>
      <trkpt lat="42.77586" lon="1.37863">
        <ele>1128</ele>
        <time>2021-08-20T16:42:19Z</time>
      </trkpt>
      <trkpt lat="42.77544" lon="1.37904">
        <ele>1130</ele>
        <time>2021-08-20T16:42:28Z</time>
      </trkpt>
      <trkpt lat="42.77532" lon="1.37925">
        <ele>1132</ele>
        <time>2021-08-20T16:42:31Z</time>
      </trkpt>
      <trkpt lat="42.77515" lon="1.37978">
        <ele>1143</ele>
        <time>2021-08-20T16:42:39Z</time>
      </trkpt>
      <trkpt lat="42.77502" lon="1.38">
        <ele>1144</ele>
        <time>2021-08-20T16:42:43Z</time>
      </trkpt>
      <trkpt lat="42.77483" lon="1.38024">
        <ele>1151</ele>
        <time>2021-08-20T16:42:47Z</time>
      </trkpt>
      <trkpt lat="42.77472" lon="1.38032">
        <ele>1152</ele>
        <time>2021-08-20T16:42:49Z</time>
      </trkpt>
      <trkpt lat="42.7746" lon="1.38039">
        <ele>1152</ele>
        <time>2021-08-20T16:42:52Z</time>
      </trkpt>
      <trkpt lat="42.77425" lon="1.3805">
        <ele>1148</ele>
        <time>2021-08-20T16:42:58Z</time>
      </trkpt>
      <trkpt lat="42.77421" lon="1.38052">
        <ele>1148</ele>
        <time>2021-08-20T16:42:59Z</time>
      </trkpt>
      <trkpt lat="42.77418" lon="1.3806">
        <ele>1150</ele>
        <time>2021-08-20T16:43:00Z</time>
      </trkpt>
      <trkpt lat="42.77418" lon="1.38065">
        <ele>1152</ele>
        <time>2021-08-20T16:43:01Z</time>
      </trkpt>
      <trkpt lat="42.77421" lon="1.38072">
        <ele>1155</ele>
        <time>2021-08-20T16:43:02Z</time>
      </trkpt>
      <trkpt lat="42.77427" lon="1.38075">
        <ele>1158</ele>
        <time>2021-08-20T16:43:03Z</time>
      </trkpt>
      <trkpt lat="42.77437" lon="1.38074">
        <ele>1161</ele>
        <time>2021-08-20T16:43:05Z</time>
      </trkpt>
      <trkpt lat="42.77488" lon="1.38048">
        <ele>1163</ele>
        <time>2021-08-20T16:43:14Z</time>
      </trkpt>
      <trkpt lat="42.77512" lon="1.38032">
        <ele>1165</ele>
        <time>2021-08-20T16:43:19Z</time>
      </trkpt>
      <trkpt lat="42.7753" lon="1.38014">
        <ele>1165</ele>
        <time>2021-08-20T16:43:23Z</time>
      </trkpt>
      <trkpt lat="42.77555" lon="1.3797">
        <ele>1158</ele>
        <time>2021-08-20T16:43:30Z</time>
      </trkpt>
      <trkpt lat="42.77569" lon="1.37953">
        <ele>1157</ele>
        <time>2021-08-20T16:43:34Z</time>
      </trkpt>
      <trkpt lat="42.77651" lon="1.3789">
        <ele>1172</ele>
        <time>2021-08-20T16:43:51Z</time>
      </trkpt>
      <trkpt lat="42.77694" lon="1.37834">
        <ele>1165</ele>
        <time>2021-08-20T16:44:01Z</time>
      </trkpt>
      <trkpt lat="42.7771" lon="1.37801">
        <ele>1163</ele>
        <time>2021-08-20T16:44:06Z</time>
      </trkpt>
      <trkpt lat="42.77716" lon="1.37793">
        <ele>1163</ele>
        <time>2021-08-20T16:44:08Z</time>
      </trkpt>
      <trkpt lat="42.77725" lon="1.3779">
        <ele>1166</ele>
        <time>2021-08-20T16:44:09Z</time>
      </trkpt>
      <trkpt lat="42.77757" lon="1.37788">
        <ele>1179</ele>
        <time>2021-08-20T16:44:15Z</time>
      </trkpt>
      <trkpt lat="42.7777" lon="1.37782">
        <ele>1180</ele>
        <time>2021-08-20T16:44:18Z</time>
      </trkpt>
      <trkpt lat="42.77792" lon="1.37761">
        <ele>1175</ele>
        <time>2021-08-20T16:44:22Z</time>
      </trkpt>
      <trkpt lat="42.77805" lon="1.37756">
        <ele>1175</ele>
        <time>2021-08-20T16:44:25Z</time>
      </trkpt>
      <trkpt lat="42.77816" lon="1.37758">
        <ele>1179</ele>
        <time>2021-08-20T16:44:27Z</time>
      </trkpt>
      <trkpt lat="42.77833" lon="1.3777">
        <ele>1189</ele>
        <time>2021-08-20T16:44:30Z</time>
      </trkpt>
      <trkpt lat="42.77848" lon="1.37769">
        <ele>1191</ele>
        <time>2021-08-20T16:44:33Z</time>
      </trkpt>
      <trkpt lat="42.77892" lon="1.37759">
        <ele>1192</ele>
        <time>2021-08-20T16:44:41Z</time>
      </trkpt>
      <trkpt lat="42.77903" lon="1.37758">
        <ele>1194</ele>
        <time>2021-08-20T16:44:43Z</time>
      </trkpt>
      <trkpt lat="42.77911" lon="1.37761">
        <ele>1196</ele>
        <time>2021-08-20T16:44:44Z</time>
      </trkpt>
      <trkpt lat="42.77914" lon="1.37766">
        <ele>1199</ele>
        <time>2021-08-20T16:44:45Z</time>
      </trkpt>
      <trkpt lat="42.77913" lon="1.37777">
        <ele>1204</ele>
        <time>2021-08-20T16:44:46Z</time>
      </trkpt>
      <trkpt lat="42.77908" lon="1.3778">
        <ele>1205</ele>
        <time>2021-08-20T16:44:47Z</time>
      </trkpt>
      <trkpt lat="42.77889" lon="1.37778">
        <ele>1202</ele>
        <time>2021-08-20T16:44:51Z</time>
      </trkpt>
      <trkpt lat="42.77879" lon="1.37779">
        <ele>1201</ele>
        <time>2021-08-20T16:44:53Z</time>
      </trkpt>
      <trkpt lat="42.77812" lon="1.37809">
        <ele>1205</ele>
        <time>2021-08-20T16:45:05Z</time>
      </trkpt>
      <trkpt lat="42.77783" lon="1.3783">
        <ele>1206</ele>
        <time>2021-08-20T16:45:11Z</time>
      </trkpt>
      <trkpt lat="42.77755" lon="1.37842">
        <ele>1203</ele>
        <time>2021-08-20T16:45:16Z</time>
      </trkpt>
      <trkpt lat="42.77751" lon="1.37847">
        <ele>1204</ele>
        <time>2021-08-20T16:45:17Z</time>
      </trkpt>
      <trkpt lat="42.77751" lon="1.37853">
        <ele>1207</ele>
        <time>2021-08-20T16:45:18Z</time>
      </trkpt>
      <trkpt lat="42.77752" lon="1.37859">
        <ele>1211</ele>
        <time>2021-08-20T16:45:19Z</time>
      </trkpt>
      <trkpt lat="42.77755" lon="1.37863">
        <ele>1214</ele>
        <time>2021-08-20T16:45:20Z</time>
      </trkpt>
      <trkpt lat="42.77764" lon="1.37863">
        <ele>1217</ele>
        <time>2021-08-20T16:45:21Z</time>
      </trkpt>
      <trkpt lat="42.77811" lon="1.37839">
        <ele>1220</ele>
        <time>2021-08-20T16:45:30Z</time>
      </trkpt>
      <trkpt lat="42.77837" lon="1.3783">
        <ele>1223</ele>
        <time>2021-08-20T16:45:35Z</time>
      </trkpt>
      <trkpt lat="42.77854" lon="1.37827">
        <ele>1223</ele>
        <time>2021-08-20T16:45:38Z</time>
      </trkpt>
      <trkpt lat="42.77864" lon="1.37828">
        <ele>1225</ele>
        <time>2021-08-20T16:45:40Z</time>
      </trkpt>
      <trkpt lat="42.779" lon="1.37839">
        <ele>1233</ele>
        <time>2021-08-20T16:45:46Z</time>
      </trkpt>
      <trkpt lat="42.77909" lon="1.37839">
        <ele>1234</ele>
        <time>2021-08-20T16:45:48Z</time>
      </trkpt>
      <trkpt lat="42.77938" lon="1.37823">
        <ele>1230</ele>
        <time>2021-08-20T16:45:53Z</time>
      </trkpt>
      <trkpt lat="42.77962" lon="1.37817">
        <ele>1230</ele>
        <time>2021-08-20T16:45:58Z</time>
      </trkpt>
      <trkpt lat="42.77979" lon="1.37817">
        <ele>1232</ele>
        <time>2021-08-20T16:46:01Z</time>
      </trkpt>
      <trkpt lat="42.77988" lon="1.37822">
        <ele>1236</ele>
        <time>2021-08-20T16:46:02Z</time>
      </trkpt>
      <trkpt lat="42.77989" lon="1.37826">
        <ele>1238</ele>
        <time>2021-08-20T16:46:03Z</time>
      </trkpt>
      <trkpt lat="42.77989" lon="1.37831">
        <ele>1240</ele>
        <time>2021-08-20T16:46:04Z</time>
      </trkpt>
      <trkpt lat="42.77986" lon="1.37836">
        <ele>1242</ele>
        <time>2021-08-20T16:46:05Z</time>
      </trkpt>
      <trkpt lat="42.77982" lon="1.3784">
        <ele>1243</ele>
        <time>2021-08-20T16:46:05Z</time>
      </trkpt>
      <trkpt lat="42.77956" lon="1.3784">
        <ele>1240</ele>
        <time>2021-08-20T16:46:10Z</time>
      </trkpt>
      <trkpt lat="42.77946" lon="1.37842">
        <ele>1239</ele>
        <time>2021-08-20T16:46:12Z</time>
      </trkpt>
      <trkpt lat="42.77942" lon="1.37845">
        <ele>1240</ele>
        <time>2021-08-20T16:46:13Z</time>
      </trkpt>
      <trkpt lat="42.77929" lon="1.37864">
        <ele>1246</ele>
        <time>2021-08-20T16:46:16Z</time>
      </trkpt>
      <trkpt lat="42.77922" lon="1.37877">
        <ele>1250</ele>
        <time>2021-08-20T16:46:18Z</time>
      </trkpt>
      <trkpt lat="42.77909" lon="1.37892">
        <ele>1255</ele>
        <time>2021-08-20T16:46:21Z</time>
      </trkpt>
      <trkpt lat="42.77889" lon="1.37904">
        <ele>1257</ele>
        <time>2021-08-20T16:46:25Z</time>
      </trkpt>
      <trkpt lat="42.7787" lon="1.37903">
        <ele>1255</ele>
        <time>2021-08-20T16:46:28Z</time>
      </trkpt>
      <trkpt lat="42.77844" lon="1.37895">
        <ele>1250</ele>
        <time>2021-08-20T16:46:33Z</time>
      </trkpt>
      <trkpt lat="42.77829" lon="1.37894">
        <ele>1247</ele>
        <time>2021-08-20T16:46:36Z</time>
      </trkpt>
      <trkpt lat="42.77824" lon="1.37901">
        <ele>1249</ele>
        <time>2021-08-20T16:46:37Z</time>
      </trkpt>
      <trkpt lat="42.77824" lon="1.37906">
        <ele>1251</ele>
        <time>2021-08-20T16:46:38Z</time>
      </trkpt>
      <trkpt lat="42.77828" lon="1.37915">
        <ele>1255</ele>
        <time>2021-08-20T16:46:39Z</time>
      </trkpt>
      <trkpt lat="42.77833" lon="1.37917">
        <ele>1257</ele>
        <time>2021-08-20T16:46:40Z</time>
      </trkpt>
      <trkpt lat="42.77851" lon="1.37921">
        <ele>1261</ele>
        <time>2021-08-20T16:46:43Z</time>
      </trkpt>
      <trkpt lat="42.77889" lon="1.37935">
        <ele>1270</ele>
        <time>2021-08-20T16:46:50Z</time>
      </trkpt>
      <trkpt lat="42.77917" lon="1.37933">
        <ele>1272</ele>
        <time>2021-08-20T16:46:55Z</time>
      </trkpt>
      <trkpt lat="42.77937" lon="1.37926">
        <ele>1272</ele>
        <time>2021-08-20T16:46:59Z</time>
      </trkpt>
      <trkpt lat="42.77948" lon="1.37918">
        <ele>1270</ele>
        <time>2021-08-20T16:47:01Z</time>
      </trkpt>
      <trkpt lat="42.77971" lon="1.37896">
        <ele>1265</ele>
        <time>2021-08-20T16:47:06Z</time>
      </trkpt>
      <trkpt lat="42.7798" lon="1.3789">
        <ele>1264</ele>
        <time>2021-08-20T16:47:08Z</time>
      </trkpt>
      <trkpt lat="42.77988" lon="1.37889">
        <ele>1265</ele>
        <time>2021-08-20T16:47:09Z</time>
      </trkpt>
      <trkpt lat="42.78001" lon="1.37893">
        <ele>1268</ele>
        <time>2021-08-20T16:47:12Z</time>
      </trkpt>
      <trkpt lat="42.78029" lon="1.37928">
        <ele>1283</ele>
        <time>2021-08-20T16:47:19Z</time>
      </trkpt>
      <trkpt lat="42.7804" lon="1.37934">
        <ele>1286</ele>
        <time>2021-08-20T16:47:21Z</time>
      </trkpt>
      <trkpt lat="42.78046" lon="1.37934">
        <ele>1286</ele>
        <time>2021-08-20T16:47:22Z</time>
      </trkpt>
      <trkpt lat="42.78053" lon="1.37932">
        <ele>1286</ele>
        <time>2021-08-20T16:47:23Z</time>
      </trkpt>
      <trkpt lat="42.78114" lon="1.37899">
        <ele>1275</ele>
        <time>2021-08-20T16:47:35Z</time>
      </trkpt>
      <trkpt lat="42.78135" lon="1.37895">
        <ele>1275</ele>
        <time>2021-08-20T16:47:38Z</time>
      </trkpt>
      <trkpt lat="42.78154" lon="1.37898">
        <ele>1277</ele>
        <time>2021-08-20T16:47:42Z</time>
      </trkpt>
      <trkpt lat="42.78157" lon="1.37902">
        <ele>1279</ele>
        <time>2021-08-20T16:47:43Z</time>
      </trkpt>
      <trkpt lat="42.78158" lon="1.37906">
        <ele>1281</ele>
        <time>2021-08-20T16:47:43Z</time>
      </trkpt>
      <trkpt lat="42.78156" lon="1.37914">
        <ele>1283</ele>
        <time>2021-08-20T16:47:44Z</time>
      </trkpt>
      <trkpt lat="42.78153" lon="1.37917">
        <ele>1284</ele>
        <time>2021-08-20T16:47:45Z</time>
      </trkpt>
      <trkpt lat="42.78148" lon="1.37918">
        <ele>1284</ele>
        <time>2021-08-20T16:47:46Z</time>
      </trkpt>
      <trkpt lat="42.78131" lon="1.37912">
        <ele>1281</ele>
        <time>2021-08-20T16:47:49Z</time>
      </trkpt>
      <trkpt lat="42.78115" lon="1.37915">
        <ele>1281</ele>
        <time>2021-08-20T16:47:52Z</time>
      </trkpt>
      <trkpt lat="42.78098" lon="1.37928">
        <ele>1285</ele>
        <time>2021-08-20T16:47:55Z</time>
      </trkpt>
      <trkpt lat="42.78059" lon="1.37971">
        <ele>1305</ele>
        <time>2021-08-20T16:48:04Z</time>
      </trkpt>
      <trkpt lat="42.78046" lon="1.37981">
        <ele>1308</ele>
        <time>2021-08-20T16:48:07Z</time>
      </trkpt>
      <trkpt lat="42.78009" lon="1.37995">
        <ele>1309</ele>
        <time>2021-08-20T16:48:14Z</time>
      </trkpt>
      <trkpt lat="42.77995" lon="1.38003">
        <ele>1311</ele>
        <time>2021-08-20T16:48:16Z</time>
      </trkpt>
      <trkpt lat="42.77953" lon="1.38033">
        <ele>1317</ele>
        <time>2021-08-20T16:48:25Z</time>
      </trkpt>
      <trkpt lat="42.77887" lon="1.38065">
        <ele>1325</ele>
        <time>2021-08-20T16:48:37Z</time>
      </trkpt>
      <trkpt lat="42.77875" lon="1.3807">
        <ele>1327</ele>
        <time>2021-08-20T16:48:40Z</time>
      </trkpt>
      <trkpt lat="42.77865" lon="1.38072">
        <ele>1328</ele>
        <time>2021-08-20T16:48:41Z</time>
      </trkpt>
      <trkpt lat="42.77833" lon="1.38072">
        <ele>1327</ele>
        <time>2021-08-20T16:48:47Z</time>
      </trkpt>
      <trkpt lat="42.77828" lon="1.38074">
        <ele>1327</ele>
        <time>2021-08-20T16:48:48Z</time>
      </trkpt>
      <trkpt lat="42.77826" lon="1.38079">
        <ele>1329</ele>
        <time>2021-08-20T16:48:49Z</time>
      </trkpt>
      <trkpt lat="42.77826" lon="1.38084">
        <ele>1332</ele>
        <time>2021-08-20T16:48:49Z</time>
      </trkpt>
      <trkpt lat="42.77827" lon="1.38089">
        <ele>1335</ele>
        <time>2021-08-20T16:48:50Z</time>
      </trkpt>
      <trkpt lat="42.7783" lon="1.38093">
        <ele>1337</ele>
        <time>2021-08-20T16:48:51Z</time>
      </trkpt>
      <trkpt lat="42.77837" lon="1.38095">
        <ele>1339</ele>
        <time>2021-08-20T16:48:52Z</time>
      </trkpt>
      <trkpt lat="42.77848" lon="1.38096">
        <ele>1340</ele>
        <time>2021-08-20T16:48:54Z</time>
      </trkpt>
      <trkpt lat="42.77875" lon="1.38092">
        <ele>1338</ele>
        <time>2021-08-20T16:48:59Z</time>
      </trkpt>
      <trkpt lat="42.77904" lon="1.38081">
        <ele>1333</ele>
        <time>2021-08-20T16:49:04Z</time>
      </trkpt>
      <trkpt lat="42.77912" lon="1.38081">
        <ele>1333</ele>
        <time>2021-08-20T16:49:06Z</time>
      </trkpt>
      <trkpt lat="42.77934" lon="1.38091">
        <ele>1340</ele>
        <time>2021-08-20T16:49:10Z</time>
      </trkpt>
      <trkpt lat="42.77957" lon="1.38095">
        <ele>1345</ele>
        <time>2021-08-20T16:49:14Z</time>
      </trkpt>
      <trkpt lat="42.7797" lon="1.38092">
        <ele>1345</ele>
        <time>2021-08-20T16:49:16Z</time>
      </trkpt>
      <trkpt lat="42.78015" lon="1.38073">
        <ele>1341</ele>
        <time>2021-08-20T16:49:25Z</time>
      </trkpt>
      <trkpt lat="42.78039" lon="1.38068">
        <ele>1341</ele>
        <time>2021-08-20T16:49:29Z</time>
      </trkpt>
      <trkpt lat="42.78071" lon="1.38068">
        <ele>1344</ele>
        <time>2021-08-20T16:49:35Z</time>
      </trkpt>
      <trkpt lat="42.7808" lon="1.38071">
        <ele>1346</ele>
        <time>2021-08-20T16:49:36Z</time>
      </trkpt>
      <trkpt lat="42.78087" lon="1.3808">
        <ele>1349</ele>
        <time>2021-08-20T16:49:38Z</time>
      </trkpt>
      <trkpt lat="42.78092" lon="1.38097">
        <ele>1351</ele>
        <time>2021-08-20T16:49:40Z</time>
      </trkpt>
      <trkpt lat="42.78105" lon="1.38179">
        <ele>1364</ele>
        <time>2021-08-20T16:49:51Z</time>
      </trkpt>
      <trkpt lat="42.78104" lon="1.38199">
        <ele>1366</ele>
        <time>2021-08-20T16:49:54Z</time>
      </trkpt>
      <trkpt lat="42.78096" lon="1.38267">
        <ele>1374</ele>
        <time>2021-08-20T16:50:03Z</time>
      </trkpt>
      <trkpt lat="42.78095" lon="1.38282">
        <ele>1376</ele>
        <time>2021-08-20T16:50:05Z</time>
      </trkpt>
      <trkpt lat="42.78098" lon="1.38299">
        <ele>1377</ele>
        <time>2021-08-20T16:50:07Z</time>
      </trkpt>
      <trkpt lat="42.78103" lon="1.38305">
        <ele>1378</ele>
        <time>2021-08-20T16:50:08Z</time>
      </trkpt>
      <trkpt lat="42.78112" lon="1.38308">
        <ele>1378</ele>
        <time>2021-08-20T16:50:10Z</time>
      </trkpt>
      <trkpt lat="42.78137" lon="1.38296">
        <ele>1375</ele>
        <time>2021-08-20T16:50:15Z</time>
      </trkpt>
      <trkpt lat="42.78155" lon="1.38294">
        <ele>1374</ele>
        <time>2021-08-20T16:50:18Z</time>
      </trkpt>
      <trkpt lat="42.78171" lon="1.383">
        <ele>1374</ele>
        <time>2021-08-20T16:50:21Z</time>
      </trkpt>
      <trkpt lat="42.78179" lon="1.38307">
        <ele>1376</ele>
        <time>2021-08-20T16:50:23Z</time>
      </trkpt>
      <trkpt lat="42.78186" lon="1.38318">
        <ele>1378</ele>
        <time>2021-08-20T16:50:25Z</time>
      </trkpt>
      <trkpt lat="42.7821" lon="1.38385">
        <ele>1388</ele>
        <time>2021-08-20T16:50:34Z</time>
      </trkpt>
      <trkpt lat="42.78231" lon="1.3843">
        <ele>1392</ele>
        <time>2021-08-20T16:50:41Z</time>
      </trkpt>
      <trkpt lat="42.78237" lon="1.38447">
        <ele>1393</ele>
        <time>2021-08-20T16:50:44Z</time>
      </trkpt>
      <trkpt lat="42.78265" lon="1.38554">
        <ele>1396</ele>
        <time>2021-08-20T16:50:59Z</time>
      </trkpt>
      <trkpt lat="42.78277" lon="1.38582">
        <ele>1398</ele>
        <time>2021-08-20T16:51:03Z</time>
      </trkpt>
      <trkpt lat="42.78312" lon="1.38648">
        <ele>1402</ele>
        <time>2021-08-20T16:51:13Z</time>
      </trkpt>
      <trkpt lat="42.78328" lon="1.38686">
        <ele>1405</ele>
        <time>2021-08-20T16:51:19Z</time>
      </trkpt>
      <trkpt lat="42.78331" lon="1.38702">
        <ele>1406</ele>
        <time>2021-08-20T16:51:21Z</time>
      </trkpt>
      <trkpt lat="42.78331" lon="1.38721">
        <ele>1407</ele>
        <time>2021-08-20T16:51:24Z</time>
      </trkpt>
      <trkpt lat="42.78327" lon="1.3874">
        <ele>1408</ele>
        <time>2021-08-20T16:51:26Z</time>
      </trkpt>
      <trkpt lat="42.78306" lon="1.38803">
        <ele>1413</ele>
        <time>2021-08-20T16:51:35Z</time>
      </trkpt>
      <trkpt lat="42.78299" lon="1.38833">
        <ele>1415</ele>
        <time>2021-08-20T16:51:39Z</time>
      </trkpt>
      <trkpt lat="42.78297" lon="1.38855">
        <ele>1417</ele>
        <time>2021-08-20T16:51:42Z</time>
      </trkpt>
      <trkpt lat="42.78298" lon="1.38877">
        <ele>1419</ele>
        <time>2021-08-20T16:51:45Z</time>
      </trkpt>
      <trkpt lat="42.78308" lon="1.38931">
        <ele>1423</ele>
        <time>2021-08-20T16:51:53Z</time>
      </trkpt>
      <trkpt lat="42.78314" lon="1.38947">
        <ele>1424</ele>
        <time>2021-08-20T16:51:55Z</time>
      </trkpt>
      <trkpt lat="42.78322" lon="1.38959">
        <ele>1425</ele>
        <time>2021-08-20T16:51:57Z</time>
      </trkpt>
      <trkpt lat="42.78329" lon="1.38965">
        <ele>1425</ele>
        <time>2021-08-20T16:51:58Z</time>
      </trkpt>
      <trkpt lat="42.78344" lon="1.38971">
        <ele>1429</ele>
        <time>2021-08-20T16:52:01Z</time>
      </trkpt>
      <trkpt lat="42.7835" lon="1.3897">
        <ele>1432</ele>
        <time>2021-08-20T16:52:02Z</time>
      </trkpt>
      <trkpt lat="42.78363" lon="1.38961">
        <ele>1435</ele>
        <time>2021-08-20T16:52:05Z</time>
      </trkpt>
      <trkpt lat="42.78376" lon="1.38946">
        <ele>1438</ele>
        <time>2021-08-20T16:52:08Z</time>
      </trkpt>
      <trkpt lat="42.78383" lon="1.38934">
        <ele>1438</ele>
        <time>2021-08-20T16:52:10Z</time>
      </trkpt>
      <trkpt lat="42.78387" lon="1.38915">
        <ele>1437</ele>
        <time>2021-08-20T16:52:13Z</time>
      </trkpt>
      <trkpt lat="42.78394" lon="1.38878">
        <ele>1431</ele>
        <time>2021-08-20T16:52:18Z</time>
      </trkpt>
      <trkpt lat="42.78402" lon="1.38856">
        <ele>1427</ele>
        <time>2021-08-20T16:52:21Z</time>
      </trkpt>
      <trkpt lat="42.78412" lon="1.3884">
        <ele>1425</ele>
        <time>2021-08-20T16:52:23Z</time>
      </trkpt>
      <trkpt lat="42.78436" lon="1.38809">
        <ele>1428</ele>
        <time>2021-08-20T16:52:29Z</time>
      </trkpt>
      <trkpt lat="42.7847" lon="1.38757">
        <ele>1429</ele>
        <time>2021-08-20T16:52:38Z</time>
      </trkpt>
      <trkpt lat="42.78484" lon="1.3873">
        <ele>1430</ele>
        <time>2021-08-20T16:52:43Z</time>
      </trkpt>
      <trkpt lat="42.78489" lon="1.38712">
        <ele>1430</ele>
        <time>2021-08-20T16:52:45Z</time>
      </trkpt>
      <trkpt lat="42.78493" lon="1.38664">
        <ele>1425</ele>
        <time>2021-08-20T16:52:52Z</time>
      </trkpt>
      <trkpt lat="42.78497" lon="1.38648">
        <ele>1425</ele>
        <time>2021-08-20T16:52:54Z</time>
      </trkpt>
      <trkpt lat="42.78539" lon="1.38555">
        <ele>1430</ele>
        <time>2021-08-20T16:53:08Z</time>
      </trkpt>
      <trkpt lat="42.78547" lon="1.38538">
        <ele>1430</ele>
        <time>2021-08-20T16:53:11Z</time>
      </trkpt>
      <trkpt lat="42.78557" lon="1.38524">
        <ele>1432</ele>
        <time>2021-08-20T16:53:13Z</time>
      </trkpt>
      <trkpt lat="42.78587" lon="1.3849">
        <ele>1435</ele>
        <time>2021-08-20T16:53:20Z</time>
      </trkpt>
      <trkpt lat="42.78599" lon="1.38482">
        <ele>1434</ele>
        <time>2021-08-20T16:53:23Z</time>
      </trkpt>
      <trkpt lat="42.78612" lon="1.38478">
        <ele>1436</ele>
        <time>2021-08-20T16:53:25Z</time>
      </trkpt>
      <trkpt lat="42.78631" lon="1.3848">
        <ele>1441</ele>
        <time>2021-08-20T16:53:28Z</time>
      </trkpt>
      <trkpt lat="42.78671" lon="1.38487">
        <ele>1452</ele>
        <time>2021-08-20T16:53:35Z</time>
      </trkpt>
      <trkpt lat="42.78686" lon="1.38487">
        <ele>1455</ele>
        <time>2021-08-20T16:53:38Z</time>
      </trkpt>
      <trkpt lat="42.78699" lon="1.38484">
        <ele>1457</ele>
        <time>2021-08-20T16:53:41Z</time>
      </trkpt>
      <trkpt lat="42.78718" lon="1.38474">
        <ele>1458</ele>
        <time>2021-08-20T16:53:44Z</time>
      </trkpt>
      <trkpt lat="42.78819" lon="1.38415">
        <ele>1468</ele>
        <time>2021-08-20T16:54:04Z</time>
      </trkpt>
      <trkpt lat="42.78829" lon="1.38408">
        <ele>1469</ele>
        <time>2021-08-20T16:54:06Z</time>
      </trkpt>
      <trkpt lat="42.78836" lon="1.384">
        <ele>1469</ele>
        <time>2021-08-20T16:54:07Z</time>
      </trkpt>
      <trkpt lat="42.78863" lon="1.3835">
        <ele>1463</ele>
        <time>2021-08-20T16:54:15Z</time>
      </trkpt>
      <trkpt lat="42.7889" lon="1.3831">
        <ele>1465</ele>
        <time>2021-08-20T16:54:23Z</time>
      </trkpt>
      <trkpt lat="42.78912" lon="1.3829">
        <ele>1471</ele>
        <time>2021-08-20T16:54:27Z</time>
      </trkpt>
      <trkpt lat="42.78922" lon="1.38277">
        <ele>1474</ele>
        <time>2021-08-20T16:54:30Z</time>
      </trkpt>
      <trkpt lat="42.78931" lon="1.38264">
        <ele>1476</ele>
        <time>2021-08-20T16:54:32Z</time>
      </trkpt>
      <trkpt lat="42.7895" lon="1.38225">
        <ele>1478</ele>
        <time>2021-08-20T16:54:38Z</time>
      </trkpt>
      <trkpt lat="42.78983" lon="1.38183">
        <ele>1486</ele>
        <time>2021-08-20T16:54:46Z</time>
      </trkpt>
      <trkpt lat="42.78994" lon="1.38161">
        <ele>1487</ele>
        <time>2021-08-20T16:54:50Z</time>
      </trkpt>
      <trkpt lat="42.79002" lon="1.38134">
        <ele>1492</ele>
        <time>2021-08-20T16:54:53Z</time>
      </trkpt>
      <trkpt lat="42.79003" lon="1.38118">
        <ele>1492</ele>
        <time>2021-08-20T16:54:56Z</time>
      </trkpt>
      <trkpt lat="42.79002" lon="1.38087">
        <ele>1490</ele>
        <time>2021-08-20T16:55:00Z</time>
      </trkpt>
      <trkpt lat="42.78998" lon="1.38037">
        <ele>1486</ele>
        <time>2021-08-20T16:55:06Z</time>
      </trkpt>
      <trkpt lat="42.78998" lon="1.38018">
        <ele>1485</ele>
        <time>2021-08-20T16:55:09Z</time>
      </trkpt>
      <trkpt lat="42.79001" lon="1.38008">
        <ele>1487</ele>
        <time>2021-08-20T16:55:10Z</time>
      </trkpt>
      <trkpt lat="42.79007" lon="1.37999">
        <ele>1490</ele>
        <time>2021-08-20T16:55:12Z</time>
      </trkpt>
      <trkpt lat="42.79033" lon="1.37975">
        <ele>1500</ele>
        <time>2021-08-20T16:55:17Z</time>
      </trkpt>
      <trkpt lat="42.79069" lon="1.37903">
        <ele>1501</ele>
        <time>2021-08-20T16:55:29Z</time>
      </trkpt>
      <trkpt lat="42.79085" lon="1.37881">
        <ele>1501</ele>
        <time>2021-08-20T16:55:33Z</time>
      </trkpt>
      <trkpt lat="42.79097" lon="1.37871">
        <ele>1503</ele>
        <time>2021-08-20T16:55:35Z</time>
      </trkpt>
      <trkpt lat="42.7914" lon="1.37845">
        <ele>1510</ele>
        <time>2021-08-20T16:55:44Z</time>
      </trkpt>
      <trkpt lat="42.79188" lon="1.37813">
        <ele>1518</ele>
        <time>2021-08-20T16:55:53Z</time>
      </trkpt>
      <trkpt lat="42.79213" lon="1.37792">
        <ele>1522</ele>
        <time>2021-08-20T16:55:58Z</time>
      </trkpt>
      <trkpt lat="42.79227" lon="1.37775">
        <ele>1523</ele>
        <time>2021-08-20T16:56:02Z</time>
      </trkpt>
      <trkpt lat="42.79233" lon="1.37762">
        <ele>1522</ele>
        <time>2021-08-20T16:56:04Z</time>
      </trkpt>
      <trkpt lat="42.79257" lon="1.37693">
        <ele>1525</ele>
        <time>2021-08-20T16:56:14Z</time>
      </trkpt>
      <trkpt lat="42.79263" lon="1.37671">
        <ele>1526</ele>
        <time>2021-08-20T16:56:17Z</time>
      </trkpt>
      <trkpt lat="42.79277" lon="1.37608">
        <ele>1534</ele>
        <time>2021-08-20T16:56:25Z</time>
      </trkpt>
      <trkpt lat="42.79279" lon="1.37599">
        <ele>1535</ele>
        <time>2021-08-20T16:56:26Z</time>
      </trkpt>
      <trkpt lat="42.79284" lon="1.37591">
        <ele>1536</ele>
        <time>2021-08-20T16:56:28Z</time>
      </trkpt>
      <trkpt lat="42.7929" lon="1.37589">
        <ele>1538</ele>
        <time>2021-08-20T16:56:29Z</time>
      </trkpt>
      <trkpt lat="42.79295" lon="1.37593">
        <ele>1539</ele>
        <time>2021-08-20T16:56:30Z</time>
      </trkpt>
      <trkpt lat="42.79297" lon="1.37601">
        <ele>1539</ele>
        <time>2021-08-20T16:56:31Z</time>
      </trkpt>
      <trkpt lat="42.79286" lon="1.37638">
        <ele>1535</ele>
        <time>2021-08-20T16:56:36Z</time>
      </trkpt>
      <trkpt lat="42.79269" lon="1.37722">
        <ele>1533</ele>
        <time>2021-08-20T16:56:48Z</time>
      </trkpt>
      <trkpt lat="42.79269" lon="1.37775">
        <ele>1542</ele>
        <time>2021-08-20T16:56:55Z</time>
      </trkpt>
      <trkpt lat="42.79267" lon="1.37789">
        <ele>1545</ele>
        <time>2021-08-20T16:56:56Z</time>
      </trkpt>
      <trkpt lat="42.79264" lon="1.37798">
        <ele>1546</ele>
        <time>2021-08-20T16:56:58Z</time>
      </trkpt>
      <trkpt lat="42.79256" lon="1.37813">
        <ele>1547</ele>
        <time>2021-08-20T16:57:00Z</time>
      </trkpt>
      <trkpt lat="42.79253" lon="1.37823">
        <ele>1548</ele>
        <time>2021-08-20T16:57:02Z</time>
      </trkpt>
      <trkpt lat="42.79254" lon="1.37831">
        <ele>1551</ele>
        <time>2021-08-20T16:57:03Z</time>
      </trkpt>
      <trkpt lat="42.79258" lon="1.37834">
        <ele>1553</ele>
        <time>2021-08-20T16:57:03Z</time>
      </trkpt>
      <trkpt lat="42.79262" lon="1.37833">
        <ele>1554</ele>
        <time>2021-08-20T16:57:04Z</time>
      </trkpt>
      <trkpt lat="42.79268" lon="1.37828">
        <ele>1555</ele>
        <time>2021-08-20T16:57:05Z</time>
      </trkpt>
      <trkpt lat="42.79272" lon="1.37822">
        <ele>1555</ele>
        <time>2021-08-20T16:57:06Z</time>
      </trkpt>
      <trkpt lat="42.79283" lon="1.37786">
        <ele>1550</ele>
        <time>2021-08-20T16:57:12Z</time>
      </trkpt>
      <trkpt lat="42.7929" lon="1.3776">
        <ele>1547</ele>
        <time>2021-08-20T16:57:15Z</time>
      </trkpt>
      <trkpt lat="42.79295" lon="1.37717">
        <ele>1544</ele>
        <time>2021-08-20T16:57:21Z</time>
      </trkpt>
      <trkpt lat="42.79299" lon="1.37699">
        <ele>1544</ele>
        <time>2021-08-20T16:57:23Z</time>
      </trkpt>
      <trkpt lat="42.79305" lon="1.37686">
        <ele>1545</ele>
        <time>2021-08-20T16:57:25Z</time>
      </trkpt>
      <trkpt lat="42.79314" lon="1.37677">
        <ele>1547</ele>
        <time>2021-08-20T16:57:27Z</time>
      </trkpt>
      <trkpt lat="42.79339" lon="1.37657">
        <ele>1555</ele>
        <time>2021-08-20T16:57:32Z</time>
      </trkpt>
      <trkpt lat="42.79355" lon="1.37638">
        <ele>1559</ele>
        <time>2021-08-20T16:57:36Z</time>
      </trkpt>
      <trkpt lat="42.79361" lon="1.37626">
        <ele>1560</ele>
        <time>2021-08-20T16:57:38Z</time>
      </trkpt>
      <trkpt lat="42.79376" lon="1.37585">
        <ele>1562</ele>
        <time>2021-08-20T16:57:44Z</time>
      </trkpt>
      <trkpt lat="42.79382" lon="1.3756">
        <ele>1564</ele>
        <time>2021-08-20T16:57:48Z</time>
      </trkpt>
      <trkpt lat="42.79391" lon="1.37519">
        <ele>1568</ele>
        <time>2021-08-20T16:57:53Z</time>
      </trkpt>
      <trkpt lat="42.79392" lon="1.37501">
        <ele>1568</ele>
        <time>2021-08-20T16:57:55Z</time>
      </trkpt>
      <trkpt lat="42.79392" lon="1.37435">
        <ele>1568</ele>
        <time>2021-08-20T16:58:04Z</time>
      </trkpt>
      <trkpt lat="42.79397" lon="1.37416">
        <ele>1568</ele>
        <time>2021-08-20T16:58:07Z</time>
      </trkpt>
      <trkpt lat="42.79405" lon="1.37397">
        <ele>1566</ele>
        <time>2021-08-20T16:58:10Z</time>
      </trkpt>
      <trkpt lat="42.79417" lon="1.3738">
        <ele>1564</ele>
        <time>2021-08-20T16:58:13Z</time>
      </trkpt>
      <trkpt lat="42.79427" lon="1.37369">
        <ele>1565</ele>
        <time>2021-08-20T16:58:15Z</time>
      </trkpt>
      <trkpt lat="42.7944" lon="1.37361">
        <ele>1566</ele>
        <time>2021-08-20T16:58:17Z</time>
      </trkpt>
      <trkpt lat="42.79466" lon="1.37349">
        <ele>1566</ele>
        <time>2021-08-20T16:58:22Z</time>
      </trkpt>
      <trkpt lat="42.79491" lon="1.37341">
        <ele>1566</ele>
        <time>2021-08-20T16:58:27Z</time>
      </trkpt>
      <trkpt lat="42.79516" lon="1.37338">
        <ele>1567</ele>
        <time>2021-08-20T16:58:31Z</time>
      </trkpt>
      <trkpt lat="42.79522" lon="1.37335">
        <ele>1567</ele>
        <time>2021-08-20T16:58:33Z</time>
      </trkpt>
      <trkpt lat="42.79528" lon="1.37327">
        <ele>1566</ele>
        <time>2021-08-20T16:58:34Z</time>
      </trkpt>
      <trkpt lat="42.79532" lon="1.37317">
        <ele>1564</ele>
        <time>2021-08-20T16:58:36Z</time>
      </trkpt>
      <trkpt lat="42.79532" lon="1.37306">
        <ele>1561</ele>
        <time>2021-08-20T16:58:37Z</time>
      </trkpt>
      <trkpt lat="42.79527" lon="1.37298">
        <ele>1559</ele>
        <time>2021-08-20T16:58:38Z</time>
      </trkpt>
      <trkpt lat="42.79519" lon="1.37295">
        <ele>1558</ele>
        <time>2021-08-20T16:58:40Z</time>
      </trkpt>
      <trkpt lat="42.79497" lon="1.37295">
        <ele>1558</ele>
        <time>2021-08-20T16:58:44Z</time>
      </trkpt>
      <trkpt lat="42.79483" lon="1.37299">
        <ele>1560</ele>
        <time>2021-08-20T16:58:46Z</time>
      </trkpt>
      <trkpt lat="42.79468" lon="1.37295">
        <ele>1561</ele>
        <time>2021-08-20T16:58:49Z</time>
      </trkpt>
      <trkpt lat="42.7946" lon="1.37285">
        <ele>1562</ele>
        <time>2021-08-20T16:58:51Z</time>
      </trkpt>
      <trkpt lat="42.79456" lon="1.37271">
        <ele>1562</ele>
        <time>2021-08-20T16:58:53Z</time>
      </trkpt>
      <trkpt lat="42.79455" lon="1.37259">
        <ele>1562</ele>
        <time>2021-08-20T16:58:54Z</time>
      </trkpt>
      <trkpt lat="42.79458" lon="1.3723">
        <ele>1557</ele>
        <time>2021-08-20T16:58:58Z</time>
      </trkpt>
      <trkpt lat="42.79457" lon="1.37204">
        <ele>1553</ele>
        <time>2021-08-20T16:59:02Z</time>
      </trkpt>
      <trkpt lat="42.79451" lon="1.37147">
        <ele>1553</ele>
        <time>2021-08-20T16:59:09Z</time>
      </trkpt>
      <trkpt lat="42.79449" lon="1.37099">
        <ele>1561</ele>
        <time>2021-08-20T16:59:15Z</time>
      </trkpt>
      <trkpt lat="42.79463" lon="1.3703">
        <ele>1560</ele>
        <time>2021-08-20T16:59:25Z</time>
      </trkpt>
      <trkpt lat="42.79485" lon="1.36983">
        <ele>1563</ele>
        <time>2021-08-20T16:59:32Z</time>
      </trkpt>
      <trkpt lat="42.79499" lon="1.36966">
        <ele>1566</ele>
        <time>2021-08-20T16:59:35Z</time>
      </trkpt>
      <trkpt lat="42.79523" lon="1.36946">
        <ele>1560</ele>
        <time>2021-08-20T16:59:40Z</time>
      </trkpt>
      <trkpt lat="42.79544" lon="1.36938">
        <ele>1553</ele>
        <time>2021-08-20T16:59:44Z</time>
      </trkpt>
      <trkpt lat="42.79564" lon="1.36938">
        <ele>1544</ele>
        <time>2021-08-20T16:59:48Z</time>
      </trkpt>
      <trkpt lat="42.79611" lon="1.36933">
        <ele>1526</ele>
        <time>2021-08-20T16:59:56Z</time>
      </trkpt>
      <trkpt lat="42.79628" lon="1.36923">
        <ele>1523</ele>
        <time>2021-08-20T17:00:00Z</time>
      </trkpt>
      <trkpt lat="42.79651" lon="1.36905">
        <ele>1520</ele>
        <time>2021-08-20T17:00:04Z</time>
      </trkpt>
      <trkpt lat="42.79669" lon="1.36886">
        <ele>1518</ele>
        <time>2021-08-20T17:00:08Z</time>
      </trkpt>
      <trkpt lat="42.7968" lon="1.36861">
        <ele>1520</ele>
        <time>2021-08-20T17:00:12Z</time>
      </trkpt>
      <trkpt lat="42.79686" lon="1.36797">
        <ele>1534</ele>
        <time>2021-08-20T17:00:21Z</time>
      </trkpt>
      <trkpt lat="42.79691" lon="1.3678">
        <ele>1536</ele>
        <time>2021-08-20T17:00:23Z</time>
      </trkpt>
      <trkpt lat="42.79698" lon="1.36767">
        <ele>1536</ele>
        <time>2021-08-20T17:00:25Z</time>
      </trkpt>
      <trkpt lat="42.79707" lon="1.36755">
        <ele>1534</ele>
        <time>2021-08-20T17:00:27Z</time>
      </trkpt>
      <trkpt lat="42.79715" lon="1.36751">
        <ele>1531</ele>
        <time>2021-08-20T17:00:29Z</time>
      </trkpt>
      <trkpt lat="42.79726" lon="1.36749">
        <ele>1526</ele>
        <time>2021-08-20T17:00:31Z</time>
      </trkpt>
      <trkpt lat="42.79736" lon="1.36756">
        <ele>1519</ele>
        <time>2021-08-20T17:00:33Z</time>
      </trkpt>
      <trkpt lat="42.79762" lon="1.36787">
        <ele>1508</ele>
        <time>2021-08-20T17:00:39Z</time>
      </trkpt>
      <trkpt lat="42.79869" lon="1.36897">
        <ele>1499</ele>
        <time>2021-08-20T17:01:03Z</time>
      </trkpt>
      <trkpt lat="42.79891" lon="1.3691">
        <ele>1499</ele>
        <time>2021-08-20T17:01:07Z</time>
      </trkpt>
      <trkpt lat="42.79916" lon="1.36917">
        <ele>1501</ele>
        <time>2021-08-20T17:01:12Z</time>
      </trkpt>
      <trkpt lat="42.79932" lon="1.36919">
        <ele>1498</ele>
        <time>2021-08-20T17:01:14Z</time>
      </trkpt>
      <trkpt lat="42.79964" lon="1.36916">
        <ele>1494</ele>
        <time>2021-08-20T17:01:20Z</time>
      </trkpt>
      <trkpt lat="42.79972" lon="1.36918">
        <ele>1492</ele>
        <time>2021-08-20T17:01:22Z</time>
      </trkpt>
      <trkpt lat="42.79976" lon="1.36924">
        <ele>1489</ele>
        <time>2021-08-20T17:01:23Z</time>
      </trkpt>
      <trkpt lat="42.79978" lon="1.36933">
        <ele>1486</ele>
        <time>2021-08-20T17:01:24Z</time>
      </trkpt>
      <trkpt lat="42.79975" lon="1.36943">
        <ele>1483</ele>
        <time>2021-08-20T17:01:25Z</time>
      </trkpt>
      <trkpt lat="42.79969" lon="1.36951">
        <ele>1481</ele>
        <time>2021-08-20T17:01:27Z</time>
      </trkpt>
      <trkpt lat="42.79932" lon="1.36971">
        <ele>1477</ele>
        <time>2021-08-20T17:01:34Z</time>
      </trkpt>
      <trkpt lat="42.79917" lon="1.36976">
        <ele>1476</ele>
        <time>2021-08-20T17:01:37Z</time>
      </trkpt>
      <trkpt lat="42.79907" lon="1.36977">
        <ele>1475</ele>
        <time>2021-08-20T17:01:38Z</time>
      </trkpt>
      <trkpt lat="42.79895" lon="1.36972">
        <ele>1475</ele>
        <time>2021-08-20T17:01:41Z</time>
      </trkpt>
      <trkpt lat="42.79878" lon="1.36961">
        <ele>1478</ele>
        <time>2021-08-20T17:01:44Z</time>
      </trkpt>
      <trkpt lat="42.79849" lon="1.36949">
        <ele>1478</ele>
        <time>2021-08-20T17:01:49Z</time>
      </trkpt>
      <trkpt lat="42.7983" lon="1.36945">
        <ele>1477</ele>
        <time>2021-08-20T17:01:53Z</time>
      </trkpt>
      <trkpt lat="42.79817" lon="1.36946">
        <ele>1476</ele>
        <time>2021-08-20T17:01:55Z</time>
      </trkpt>
      <trkpt lat="42.7981" lon="1.36949">
        <ele>1475</ele>
        <time>2021-08-20T17:01:56Z</time>
      </trkpt>
      <trkpt lat="42.79805" lon="1.36953">
        <ele>1474</ele>
        <time>2021-08-20T17:01:57Z</time>
      </trkpt>
      <trkpt lat="42.79796" lon="1.36967">
        <ele>1471</ele>
        <time>2021-08-20T17:02:00Z</time>
      </trkpt>
      <trkpt lat="42.79791" lon="1.36984">
        <ele>1467</ele>
        <time>2021-08-20T17:02:02Z</time>
      </trkpt>
      <trkpt lat="42.7979" lon="1.36998">
        <ele>1465</ele>
        <time>2021-08-20T17:02:04Z</time>
      </trkpt>
      <trkpt lat="42.79794" lon="1.37032">
        <ele>1460</ele>
        <time>2021-08-20T17:02:09Z</time>
      </trkpt>
      <trkpt lat="42.79795" lon="1.37069">
        <ele>1455</ele>
        <time>2021-08-20T17:02:13Z</time>
      </trkpt>
      <trkpt lat="42.79792" lon="1.37127">
        <ele>1451</ele>
        <time>2021-08-20T17:02:21Z</time>
      </trkpt>
      <trkpt lat="42.79795" lon="1.37166">
        <ele>1448</ele>
        <time>2021-08-20T17:02:26Z</time>
      </trkpt>
      <trkpt lat="42.79801" lon="1.372">
        <ele>1452</ele>
        <time>2021-08-20T17:02:31Z</time>
      </trkpt>
      <trkpt lat="42.79809" lon="1.3722">
        <ele>1453</ele>
        <time>2021-08-20T17:02:34Z</time>
      </trkpt>
      <trkpt lat="42.79819" lon="1.37234">
        <ele>1452</ele>
        <time>2021-08-20T17:02:36Z</time>
      </trkpt>
      <trkpt lat="42.79837" lon="1.37248">
        <ele>1448</ele>
        <time>2021-08-20T17:02:40Z</time>
      </trkpt>
      <trkpt lat="42.7986" lon="1.37258">
        <ele>1448</ele>
        <time>2021-08-20T17:02:44Z</time>
      </trkpt>
      <trkpt lat="42.79908" lon="1.3727">
        <ele>1444</ele>
        <time>2021-08-20T17:02:53Z</time>
      </trkpt>
      <trkpt lat="42.80059" lon="1.373">
        <ele>1423</ele>
        <time>2021-08-20T17:03:20Z</time>
      </trkpt>
      <trkpt lat="42.80092" lon="1.37312">
        <ele>1417</ele>
        <time>2021-08-20T17:03:26Z</time>
      </trkpt>
      <trkpt lat="42.80107" lon="1.3732">
        <ele>1414</ele>
        <time>2021-08-20T17:03:29Z</time>
      </trkpt>
      <trkpt lat="42.80139" lon="1.3735">
        <ele>1409</ele>
        <time>2021-08-20T17:03:36Z</time>
      </trkpt>
      <trkpt lat="42.8018" lon="1.37405">
        <ele>1402</ele>
        <time>2021-08-20T17:03:46Z</time>
      </trkpt>
      <trkpt lat="42.80232" lon="1.37483">
        <ele>1399</ele>
        <time>2021-08-20T17:04:00Z</time>
      </trkpt>
      <trkpt lat="42.80245" lon="1.37514">
        <ele>1397</ele>
        <time>2021-08-20T17:04:05Z</time>
      </trkpt>
      <trkpt lat="42.80263" lon="1.37568">
        <ele>1396</ele>
        <time>2021-08-20T17:04:12Z</time>
      </trkpt>
      <trkpt lat="42.80273" lon="1.37609">
        <ele>1399</ele>
        <time>2021-08-20T17:04:18Z</time>
      </trkpt>
      <trkpt lat="42.8028" lon="1.37621">
        <ele>1400</ele>
        <time>2021-08-20T17:04:20Z</time>
      </trkpt>
      <trkpt lat="42.80292" lon="1.37626">
        <ele>1399</ele>
        <time>2021-08-20T17:04:22Z</time>
      </trkpt>
      <trkpt lat="42.80304" lon="1.37622">
        <ele>1397</ele>
        <time>2021-08-20T17:04:24Z</time>
      </trkpt>
      <trkpt lat="42.80313" lon="1.37609">
        <ele>1394</ele>
        <time>2021-08-20T17:04:27Z</time>
      </trkpt>
      <trkpt lat="42.80352" lon="1.37509">
        <ele>1380</ele>
        <time>2021-08-20T17:04:42Z</time>
      </trkpt>
      <trkpt lat="42.80361" lon="1.37492">
        <ele>1378</ele>
        <time>2021-08-20T17:04:44Z</time>
      </trkpt>
      <trkpt lat="42.80371" lon="1.37484">
        <ele>1376</ele>
        <time>2021-08-20T17:04:46Z</time>
      </trkpt>
      <trkpt lat="42.80383" lon="1.37485">
        <ele>1376</ele>
        <time>2021-08-20T17:04:48Z</time>
      </trkpt>
      <trkpt lat="42.80425" lon="1.37517">
        <ele>1381</ele>
        <time>2021-08-20T17:04:57Z</time>
      </trkpt>
      <trkpt lat="42.80437" lon="1.37518">
        <ele>1380</ele>
        <time>2021-08-20T17:04:59Z</time>
      </trkpt>
      <trkpt lat="42.80446" lon="1.37514">
        <ele>1378</ele>
        <time>2021-08-20T17:05:01Z</time>
      </trkpt>
      <trkpt lat="42.80451" lon="1.37507">
        <ele>1376</ele>
        <time>2021-08-20T17:05:02Z</time>
      </trkpt>
      <trkpt lat="42.80451" lon="1.37499">
        <ele>1375</ele>
        <time>2021-08-20T17:05:03Z</time>
      </trkpt>
      <trkpt lat="42.80447" lon="1.37488">
        <ele>1373</ele>
        <time>2021-08-20T17:05:05Z</time>
      </trkpt>
      <trkpt lat="42.80387" lon="1.37427">
        <ele>1364</ele>
        <time>2021-08-20T17:05:18Z</time>
      </trkpt>
      <trkpt lat="42.80372" lon="1.3742">
        <ele>1363</ele>
        <time>2021-08-20T17:05:21Z</time>
      </trkpt>
      <trkpt lat="42.80324" lon="1.37411">
        <ele>1366</ele>
        <time>2021-08-20T17:05:30Z</time>
      </trkpt>
      <trkpt lat="42.80303" lon="1.37397">
        <ele>1369</ele>
        <time>2021-08-20T17:05:34Z</time>
      </trkpt>
      <trkpt lat="42.80258" lon="1.37358">
        <ele>1372</ele>
        <time>2021-08-20T17:05:43Z</time>
      </trkpt>
      <trkpt lat="42.80244" lon="1.37337">
        <ele>1371</ele>
        <time>2021-08-20T17:05:47Z</time>
      </trkpt>
      <trkpt lat="42.8024" lon="1.37308">
        <ele>1372</ele>
        <time>2021-08-20T17:05:51Z</time>
      </trkpt>
      <trkpt lat="42.80238" lon="1.37281">
        <ele>1372</ele>
        <time>2021-08-20T17:05:54Z</time>
      </trkpt>
      <trkpt lat="42.80246" lon="1.37256">
        <ele>1368</ele>
        <time>2021-08-20T17:05:58Z</time>
      </trkpt>
      <trkpt lat="42.80262" lon="1.37234">
        <ele>1365</ele>
        <time>2021-08-20T17:06:02Z</time>
      </trkpt>
      <trkpt lat="42.80316" lon="1.37194">
        <ele>1356</ele>
        <time>2021-08-20T17:06:13Z</time>
      </trkpt>
      <trkpt lat="42.80336" lon="1.37184">
        <ele>1352</ele>
        <time>2021-08-20T17:06:17Z</time>
      </trkpt>
      <trkpt lat="42.80369" lon="1.37179">
        <ele>1345</ele>
        <time>2021-08-20T17:06:23Z</time>
      </trkpt>
      <trkpt lat="42.80387" lon="1.3717">
        <ele>1342</ele>
        <time>2021-08-20T17:06:26Z</time>
      </trkpt>
      <trkpt lat="42.80401" lon="1.3716">
        <ele>1341</ele>
        <time>2021-08-20T17:06:29Z</time>
      </trkpt>
      <trkpt lat="42.8046" lon="1.3711">
        <ele>1344</ele>
        <time>2021-08-20T17:06:41Z</time>
      </trkpt>
      <trkpt lat="42.80475" lon="1.37101">
        <ele>1343</ele>
        <time>2021-08-20T17:06:44Z</time>
      </trkpt>
      <trkpt lat="42.80496" lon="1.37098">
        <ele>1339</ele>
        <time>2021-08-20T17:06:48Z</time>
      </trkpt>
      <trkpt lat="42.80515" lon="1.37106">
        <ele>1335</ele>
        <time>2021-08-20T17:06:51Z</time>
      </trkpt>
      <trkpt lat="42.80566" lon="1.37133">
        <ele>1326</ele>
        <time>2021-08-20T17:07:01Z</time>
      </trkpt>
      <trkpt lat="42.80579" lon="1.37134">
        <ele>1325</ele>
        <time>2021-08-20T17:07:03Z</time>
      </trkpt>
      <trkpt lat="42.80629" lon="1.37108">
        <ele>1326</ele>
        <time>2021-08-20T17:07:13Z</time>
      </trkpt>
      <trkpt lat="42.80654" lon="1.37108">
        <ele>1324</ele>
        <time>2021-08-20T17:07:17Z</time>
      </trkpt>
      <trkpt lat="42.80708" lon="1.37112">
        <ele>1319</ele>
        <time>2021-08-20T17:07:27Z</time>
      </trkpt>
      <trkpt lat="42.80774" lon="1.37129">
        <ele>1309</ele>
        <time>2021-08-20T17:07:39Z</time>
      </trkpt>
      <trkpt lat="42.80782" lon="1.37134">
        <ele>1306</ele>
        <time>2021-08-20T17:07:40Z</time>
      </trkpt>
      <trkpt lat="42.80788" lon="1.37141">
        <ele>1304</ele>
        <time>2021-08-20T17:07:42Z</time>
      </trkpt>
      <trkpt lat="42.80791" lon="1.37156">
        <ele>1299</ele>
        <time>2021-08-20T17:07:44Z</time>
      </trkpt>
      <trkpt lat="42.80785" lon="1.3717">
        <ele>1297</ele>
        <time>2021-08-20T17:07:46Z</time>
      </trkpt>
      <trkpt lat="42.80737" lon="1.37208">
        <ele>1295</ele>
        <time>2021-08-20T17:07:56Z</time>
      </trkpt>
      <trkpt lat="42.80718" lon="1.37232">
        <ele>1294</ele>
        <time>2021-08-20T17:08:00Z</time>
      </trkpt>
      <trkpt lat="42.80714" lon="1.37254">
        <ele>1292</ele>
        <time>2021-08-20T17:08:03Z</time>
      </trkpt>
      <trkpt lat="42.80712" lon="1.37286">
        <ele>1291</ele>
        <time>2021-08-20T17:08:08Z</time>
      </trkpt>
      <trkpt lat="42.80713" lon="1.37315">
        <ele>1290</ele>
        <time>2021-08-20T17:08:11Z</time>
      </trkpt>
      <trkpt lat="42.80717" lon="1.37339">
        <ele>1288</ele>
        <time>2021-08-20T17:08:15Z</time>
      </trkpt>
      <trkpt lat="42.80725" lon="1.37358">
        <ele>1286</ele>
        <time>2021-08-20T17:08:18Z</time>
      </trkpt>
      <trkpt lat="42.80739" lon="1.37375">
        <ele>1283</ele>
        <time>2021-08-20T17:08:21Z</time>
      </trkpt>
      <trkpt lat="42.80758" lon="1.37389">
        <ele>1280</ele>
        <time>2021-08-20T17:08:25Z</time>
      </trkpt>
      <trkpt lat="42.808" lon="1.37408">
        <ele>1275</ele>
        <time>2021-08-20T17:08:33Z</time>
      </trkpt>
      <trkpt lat="42.80835" lon="1.3742">
        <ele>1270</ele>
        <time>2021-08-20T17:08:39Z</time>
      </trkpt>
      <trkpt lat="42.8087" lon="1.37428">
        <ele>1269</ele>
        <time>2021-08-20T17:08:45Z</time>
      </trkpt>
      <trkpt lat="42.80897" lon="1.37441">
        <ele>1269</ele>
        <time>2021-08-20T17:08:50Z</time>
      </trkpt>
      <trkpt lat="42.80908" lon="1.37446">
        <ele>1269</ele>
        <time>2021-08-20T17:08:52Z</time>
      </trkpt>
      <trkpt lat="42.80934" lon="1.37474">
        <ele>1272</ele>
        <time>2021-08-20T17:08:58Z</time>
      </trkpt>
      <trkpt lat="42.8095" lon="1.37508">
        <ele>1277</ele>
        <time>2021-08-20T17:09:04Z</time>
      </trkpt>
      <trkpt lat="42.80966" lon="1.37685">
        <ele>1275</ele>
        <time>2021-08-20T17:09:27Z</time>
      </trkpt>
      <trkpt lat="42.80962" lon="1.37704">
        <ele>1275</ele>
        <time>2021-08-20T17:09:29Z</time>
      </trkpt>
      <trkpt lat="42.80955" lon="1.37717">
        <ele>1276</ele>
        <time>2021-08-20T17:09:32Z</time>
      </trkpt>
      <trkpt lat="42.80933" lon="1.37745">
        <ele>1278</ele>
        <time>2021-08-20T17:09:37Z</time>
      </trkpt>
      <trkpt lat="42.8091" lon="1.37787">
        <ele>1279</ele>
        <time>2021-08-20T17:09:44Z</time>
      </trkpt>
      <trkpt lat="42.8089" lon="1.37835">
        <ele>1278</ele>
        <time>2021-08-20T17:09:51Z</time>
      </trkpt>
      <trkpt lat="42.80885" lon="1.37854">
        <ele>1279</ele>
        <time>2021-08-20T17:09:54Z</time>
      </trkpt>
      <trkpt lat="42.80883" lon="1.37884">
        <ele>1280</ele>
        <time>2021-08-20T17:09:58Z</time>
      </trkpt>
      <trkpt lat="42.80883" lon="1.37917">
        <ele>1281</ele>
        <time>2021-08-20T17:10:02Z</time>
      </trkpt>
      <trkpt lat="42.8089" lon="1.38013">
        <ele>1292</ele>
        <time>2021-08-20T17:10:14Z</time>
      </trkpt>
      <trkpt lat="42.8089" lon="1.3803">
        <ele>1294</ele>
        <time>2021-08-20T17:10:17Z</time>
      </trkpt>
      <trkpt lat="42.80887" lon="1.38047">
        <ele>1297</ele>
        <time>2021-08-20T17:10:19Z</time>
      </trkpt>
      <trkpt lat="42.80879" lon="1.38065">
        <ele>1300</ele>
        <time>2021-08-20T17:10:22Z</time>
      </trkpt>
      <trkpt lat="42.80855" lon="1.38105">
        <ele>1302</ele>
        <time>2021-08-20T17:10:28Z</time>
      </trkpt>
      <trkpt lat="42.80847" lon="1.38122">
        <ele>1302</ele>
        <time>2021-08-20T17:10:31Z</time>
      </trkpt>
      <trkpt lat="42.80838" lon="1.38157">
        <ele>1303</ele>
        <time>2021-08-20T17:10:36Z</time>
      </trkpt>
      <trkpt lat="42.80823" lon="1.3823">
        <ele>1303</ele>
        <time>2021-08-20T17:10:46Z</time>
      </trkpt>
      <trkpt lat="42.80819" lon="1.38268">
        <ele>1303</ele>
        <time>2021-08-20T17:10:51Z</time>
      </trkpt>
      <trkpt lat="42.80821" lon="1.38322">
        <ele>1301</ele>
        <time>2021-08-20T17:10:58Z</time>
      </trkpt>
      <trkpt lat="42.80824" lon="1.38336">
        <ele>1301</ele>
        <time>2021-08-20T17:11:00Z</time>
      </trkpt>
      <trkpt lat="42.80793" lon="1.3838">
        <ele>1299</ele>
        <time>2021-08-20T17:11:08Z</time>
      </trkpt>
      <trkpt lat="42.80781" lon="1.38394">
        <ele>1299</ele>
        <time>2021-08-20T17:11:11Z</time>
      </trkpt>
      <trkpt lat="42.80771" lon="1.38403">
        <ele>1300</ele>
        <time>2021-08-20T17:11:13Z</time>
      </trkpt>
      <trkpt lat="42.80731" lon="1.38423">
        <ele>1305</ele>
        <time>2021-08-20T17:11:20Z</time>
      </trkpt>
      <trkpt lat="42.80712" lon="1.38438">
        <ele>1310</ele>
        <time>2021-08-20T17:11:24Z</time>
      </trkpt>
      <trkpt lat="42.80705" lon="1.38448">
        <ele>1313</ele>
        <time>2021-08-20T17:11:26Z</time>
      </trkpt>
      <trkpt lat="42.80701" lon="1.38463">
        <ele>1316</ele>
        <time>2021-08-20T17:11:28Z</time>
      </trkpt>
      <trkpt lat="42.80702" lon="1.3847">
        <ele>1317</ele>
        <time>2021-08-20T17:11:29Z</time>
      </trkpt>
      <trkpt lat="42.80758" lon="1.38561">
        <ele>1314</ele>
        <time>2021-08-20T17:11:45Z</time>
      </trkpt>
      <trkpt lat="42.80758" lon="1.38572">
        <ele>1315</ele>
        <time>2021-08-20T17:11:46Z</time>
      </trkpt>
      <trkpt lat="42.80753" lon="1.38593">
        <ele>1318</ele>
        <time>2021-08-20T17:11:49Z</time>
      </trkpt>
      <trkpt lat="42.80752" lon="1.38611">
        <ele>1322</ele>
        <time>2021-08-20T17:11:51Z</time>
      </trkpt>
      <trkpt lat="42.80754" lon="1.38625">
        <ele>1324</ele>
        <time>2021-08-20T17:11:53Z</time>
      </trkpt>
      <trkpt lat="42.80767" lon="1.38656">
        <ele>1328</ele>
        <time>2021-08-20T17:11:58Z</time>
      </trkpt>
      <trkpt lat="42.80777" lon="1.38667">
        <ele>1329</ele>
        <time>2021-08-20T17:12:00Z</time>
      </trkpt>
      <trkpt lat="42.80811" lon="1.38689">
        <ele>1325</ele>
        <time>2021-08-20T17:12:07Z</time>
      </trkpt>
      <trkpt lat="42.80824" lon="1.38703">
        <ele>1324</ele>
        <time>2021-08-20T17:12:10Z</time>
      </trkpt>
      <trkpt lat="42.80826" lon="1.38714">
        <ele>1325</ele>
        <time>2021-08-20T17:12:11Z</time>
      </trkpt>
      <trkpt lat="42.80825" lon="1.38728">
        <ele>1326</ele>
        <time>2021-08-20T17:12:13Z</time>
      </trkpt>
      <trkpt lat="42.80823" lon="1.3874">
        <ele>1328</ele>
        <time>2021-08-20T17:12:15Z</time>
      </trkpt>
      <trkpt lat="42.80815" lon="1.38758">
        <ele>1330</ele>
        <time>2021-08-20T17:12:17Z</time>
      </trkpt>
      <trkpt lat="42.80797" lon="1.38777">
        <ele>1335</ele>
        <time>2021-08-20T17:12:21Z</time>
      </trkpt>
      <trkpt lat="42.8078" lon="1.38802">
        <ele>1339</ele>
        <time>2021-08-20T17:12:26Z</time>
      </trkpt>
      <trkpt lat="42.80774" lon="1.3882">
        <ele>1341</ele>
        <time>2021-08-20T17:12:28Z</time>
      </trkpt>
      <trkpt lat="42.80768" lon="1.38867">
        <ele>1342</ele>
        <time>2021-08-20T17:12:35Z</time>
      </trkpt>
      <trkpt lat="42.80766" lon="1.38872">
        <ele>1343</ele>
        <time>2021-08-20T17:12:35Z</time>
      </trkpt>
      <trkpt lat="42.80763" lon="1.38878">
        <ele>1344</ele>
        <time>2021-08-20T17:12:36Z</time>
      </trkpt>
      <trkpt lat="42.80748" lon="1.38894">
        <ele>1349</ele>
        <time>2021-08-20T17:12:40Z</time>
      </trkpt>
      <trkpt lat="42.80735" lon="1.38918">
        <ele>1355</ele>
        <time>2021-08-20T17:12:44Z</time>
      </trkpt>
      <trkpt lat="42.80726" lon="1.38949">
        <ele>1360</ele>
        <time>2021-08-20T17:12:48Z</time>
      </trkpt>
      <trkpt lat="42.80723" lon="1.38984">
        <ele>1362</ele>
        <time>2021-08-20T17:12:53Z</time>
      </trkpt>
      <trkpt lat="42.80726" lon="1.39013">
        <ele>1361</ele>
        <time>2021-08-20T17:12:56Z</time>
      </trkpt>
      <trkpt lat="42.80725" lon="1.39026">
        <ele>1361</ele>
        <time>2021-08-20T17:12:58Z</time>
      </trkpt>
      <trkpt lat="42.80718" lon="1.39047">
        <ele>1366</ele>
        <time>2021-08-20T17:13:01Z</time>
      </trkpt>
      <trkpt lat="42.80692" lon="1.39089">
        <ele>1382</ele>
        <time>2021-08-20T17:13:08Z</time>
      </trkpt>
      <trkpt lat="42.80686" lon="1.39114">
        <ele>1383</ele>
        <time>2021-08-20T17:13:12Z</time>
      </trkpt>
      <trkpt lat="42.80683" lon="1.39162">
        <ele>1380</ele>
        <time>2021-08-20T17:13:18Z</time>
      </trkpt>
      <trkpt lat="42.80685" lon="1.39174">
        <ele>1379</ele>
        <time>2021-08-20T17:13:20Z</time>
      </trkpt>
      <trkpt lat="42.80695" lon="1.39193">
        <ele>1376</ele>
        <time>2021-08-20T17:13:23Z</time>
      </trkpt>
      <trkpt lat="42.80736" lon="1.39253">
        <ele>1374</ele>
        <time>2021-08-20T17:13:33Z</time>
      </trkpt>
      <trkpt lat="42.80756" lon="1.3927">
        <ele>1375</ele>
        <time>2021-08-20T17:13:38Z</time>
      </trkpt>
      <trkpt lat="42.80815" lon="1.39311">
        <ele>1378</ele>
        <time>2021-08-20T17:13:49Z</time>
      </trkpt>
      <trkpt lat="42.80827" lon="1.39315">
        <ele>1377</ele>
        <time>2021-08-20T17:13:52Z</time>
      </trkpt>
      <trkpt lat="42.8084" lon="1.39312">
        <ele>1377</ele>
        <time>2021-08-20T17:13:54Z</time>
      </trkpt>
      <trkpt lat="42.8086" lon="1.39297">
        <ele>1378</ele>
        <time>2021-08-20T17:13:58Z</time>
      </trkpt>
      <trkpt lat="42.80869" lon="1.39293">
        <ele>1378</ele>
        <time>2021-08-20T17:14:00Z</time>
      </trkpt>
      <trkpt lat="42.80878" lon="1.39292">
        <ele>1380</ele>
        <time>2021-08-20T17:14:01Z</time>
      </trkpt>
      <trkpt lat="42.80899" lon="1.39295">
        <ele>1383</ele>
        <time>2021-08-20T17:14:05Z</time>
      </trkpt>
      <trkpt lat="42.80917" lon="1.39293">
        <ele>1386</ele>
        <time>2021-08-20T17:14:08Z</time>
      </trkpt>
      <trkpt lat="42.80926" lon="1.39289">
        <ele>1388</ele>
        <time>2021-08-20T17:14:10Z</time>
      </trkpt>
      <trkpt lat="42.80936" lon="1.39281">
        <ele>1389</ele>
        <time>2021-08-20T17:14:12Z</time>
      </trkpt>
      <trkpt lat="42.80972" lon="1.39237">
        <ele>1393</ele>
        <time>2021-08-20T17:14:21Z</time>
      </trkpt>
      <trkpt lat="42.81009" lon="1.39177">
        <ele>1392</ele>
        <time>2021-08-20T17:14:31Z</time>
      </trkpt>
      <trkpt lat="42.81055" lon="1.39107">
        <ele>1389</ele>
        <time>2021-08-20T17:14:43Z</time>
      </trkpt>
      <trkpt lat="42.81069" lon="1.39093">
        <ele>1391</ele>
        <time>2021-08-20T17:14:46Z</time>
      </trkpt>
      <trkpt lat="42.8109" lon="1.39077">
        <ele>1391</ele>
        <time>2021-08-20T17:14:50Z</time>
      </trkpt>
      <trkpt lat="42.81104" lon="1.39069">
        <ele>1387</ele>
        <time>2021-08-20T17:14:53Z</time>
      </trkpt>
      <trkpt lat="42.81109" lon="1.39069">
        <ele>1387</ele>
        <time>2021-08-20T17:14:54Z</time>
      </trkpt>
      <trkpt lat="42.81119" lon="1.39073">
        <ele>1387</ele>
        <time>2021-08-20T17:14:56Z</time>
      </trkpt>
      <trkpt lat="42.81123" lon="1.39079">
        <ele>1389</ele>
        <time>2021-08-20T17:14:57Z</time>
      </trkpt>
      <trkpt lat="42.81126" lon="1.39087">
        <ele>1390</ele>
        <time>2021-08-20T17:14:58Z</time>
      </trkpt>
      <trkpt lat="42.8113" lon="1.39112">
        <ele>1394</ele>
        <time>2021-08-20T17:15:01Z</time>
      </trkpt>
      <trkpt lat="42.81133" lon="1.39185">
        <ele>1405</ele>
        <time>2021-08-20T17:15:11Z</time>
      </trkpt>
      <trkpt lat="42.81127" lon="1.39227">
        <ele>1412</ele>
        <time>2021-08-20T17:15:17Z</time>
      </trkpt>
      <trkpt lat="42.81127" lon="1.39239">
        <ele>1413</ele>
        <time>2021-08-20T17:15:18Z</time>
      </trkpt>
      <trkpt lat="42.81128" lon="1.3925">
        <ele>1415</ele>
        <time>2021-08-20T17:15:20Z</time>
      </trkpt>
      <trkpt lat="42.81133" lon="1.39258">
        <ele>1416</ele>
        <time>2021-08-20T17:15:21Z</time>
      </trkpt>
      <trkpt lat="42.81139" lon="1.39264">
        <ele>1416</ele>
        <time>2021-08-20T17:15:22Z</time>
      </trkpt>
      <trkpt lat="42.81148" lon="1.39268">
        <ele>1416</ele>
        <time>2021-08-20T17:15:24Z</time>
      </trkpt>
      <trkpt lat="42.81185" lon="1.39267">
        <ele>1413</ele>
        <time>2021-08-20T17:15:31Z</time>
      </trkpt>
      <trkpt lat="42.81196" lon="1.39272">
        <ele>1412</ele>
        <time>2021-08-20T17:15:33Z</time>
      </trkpt>
      <trkpt lat="42.81217" lon="1.39304">
        <ele>1413</ele>
        <time>2021-08-20T17:15:38Z</time>
      </trkpt>
      <trkpt lat="42.81224" lon="1.39321">
        <ele>1415</ele>
        <time>2021-08-20T17:15:41Z</time>
      </trkpt>
      <trkpt lat="42.81225" lon="1.39342">
        <ele>1416</ele>
        <time>2021-08-20T17:15:43Z</time>
      </trkpt>
      <trkpt lat="42.81223" lon="1.39352">
        <ele>1416</ele>
        <time>2021-08-20T17:15:45Z</time>
      </trkpt>
      <trkpt lat="42.81219" lon="1.39361">
        <ele>1417</ele>
        <time>2021-08-20T17:15:46Z</time>
      </trkpt>
      <trkpt lat="42.81212" lon="1.39372">
        <ele>1418</ele>
        <time>2021-08-20T17:15:48Z</time>
      </trkpt>
      <trkpt lat="42.81182" lon="1.39403">
        <ele>1421</ele>
        <time>2021-08-20T17:15:55Z</time>
      </trkpt>
      <trkpt lat="42.81165" lon="1.39416">
        <ele>1422</ele>
        <time>2021-08-20T17:15:58Z</time>
      </trkpt>
      <trkpt lat="42.81144" lon="1.39427">
        <ele>1421</ele>
        <time>2021-08-20T17:16:02Z</time>
      </trkpt>
      <trkpt lat="42.8112" lon="1.39432">
        <ele>1422</ele>
        <time>2021-08-20T17:16:07Z</time>
      </trkpt>
      <trkpt lat="42.81103" lon="1.39433">
        <ele>1423</ele>
        <time>2021-08-20T17:16:10Z</time>
      </trkpt>
      <trkpt lat="42.8109" lon="1.39444">
        <ele>1423</ele>
        <time>2021-08-20T17:16:12Z</time>
      </trkpt>
      <trkpt lat="42.81085" lon="1.39451">
        <ele>1423</ele>
        <time>2021-08-20T17:16:14Z</time>
      </trkpt>
      <trkpt lat="42.81073" lon="1.39479">
        <ele>1423</ele>
        <time>2021-08-20T17:16:18Z</time>
      </trkpt>
      <trkpt lat="42.81046" lon="1.39527">
        <ele>1424</ele>
        <time>2021-08-20T17:16:26Z</time>
      </trkpt>
      <trkpt lat="42.81003" lon="1.39596">
        <ele>1427</ele>
        <time>2021-08-20T17:16:38Z</time>
      </trkpt>
      <trkpt lat="42.80991" lon="1.3962">
        <ele>1426</ele>
        <time>2021-08-20T17:16:41Z</time>
      </trkpt>
      <trkpt lat="42.80969" lon="1.39679">
        <ele>1426</ele>
        <time>2021-08-20T17:16:50Z</time>
      </trkpt>
      <trkpt lat="42.80956" lon="1.39706">
        <ele>1426</ele>
        <time>2021-08-20T17:16:54Z</time>
      </trkpt>
      <trkpt lat="42.80928" lon="1.39746">
        <ele>1427</ele>
        <time>2021-08-20T17:17:01Z</time>
      </trkpt>
      <trkpt lat="42.80898" lon="1.39782">
        <ele>1427</ele>
        <time>2021-08-20T17:17:09Z</time>
      </trkpt>
      <trkpt lat="42.80863" lon="1.39815">
        <ele>1429</ele>
        <time>2021-08-20T17:17:16Z</time>
      </trkpt>
      <trkpt lat="42.80778" lon="1.39881">
        <ele>1427</ele>
        <time>2021-08-20T17:17:34Z</time>
      </trkpt>
      <trkpt lat="42.80759" lon="1.3989">
        <ele>1427</ele>
        <time>2021-08-20T17:17:37Z</time>
      </trkpt>
      <trkpt lat="42.80691" lon="1.39906">
        <ele>1428</ele>
        <time>2021-08-20T17:17:49Z</time>
      </trkpt>
      <trkpt lat="42.80674" lon="1.39908">
        <ele>1428</ele>
        <time>2021-08-20T17:17:52Z</time>
      </trkpt>
      <trkpt lat="42.80654" lon="1.399">
        <ele>1431</ele>
        <time>2021-08-20T17:17:56Z</time>
      </trkpt>
      <trkpt lat="42.80629" lon="1.39882">
        <ele>1435</ele>
        <time>2021-08-20T17:18:01Z</time>
      </trkpt>
      <trkpt lat="42.80614" lon="1.39877">
        <ele>1437</ele>
        <time>2021-08-20T17:18:04Z</time>
      </trkpt>
      <trkpt lat="42.80607" lon="1.39878">
        <ele>1437</ele>
        <time>2021-08-20T17:18:05Z</time>
      </trkpt>
      <trkpt lat="42.806" lon="1.39882">
        <ele>1437</ele>
        <time>2021-08-20T17:18:07Z</time>
      </trkpt>
      <trkpt lat="42.80587" lon="1.39894">
        <ele>1436</ele>
        <time>2021-08-20T17:18:09Z</time>
      </trkpt>
      <trkpt lat="42.80562" lon="1.39928">
        <ele>1443</ele>
        <time>2021-08-20T17:18:16Z</time>
      </trkpt>
      <trkpt lat="42.80556" lon="1.39943">
        <ele>1446</ele>
        <time>2021-08-20T17:18:18Z</time>
      </trkpt>
      <trkpt lat="42.80546" lon="1.39993">
        <ele>1451</ele>
        <time>2021-08-20T17:18:25Z</time>
      </trkpt>
      <trkpt lat="42.80545" lon="1.40029">
        <ele>1455</ele>
        <time>2021-08-20T17:18:29Z</time>
      </trkpt>
      <trkpt lat="42.80548" lon="1.40074">
        <ele>1458</ele>
        <time>2021-08-20T17:18:35Z</time>
      </trkpt>
      <trkpt lat="42.80562" lon="1.40148">
        <ele>1461</ele>
        <time>2021-08-20T17:18:45Z</time>
      </trkpt>
      <trkpt lat="42.80576" lon="1.40192">
        <ele>1458</ele>
        <time>2021-08-20T17:18:51Z</time>
      </trkpt>
      <trkpt lat="42.8058" lon="1.40217">
        <ele>1458</ele>
        <time>2021-08-20T17:18:55Z</time>
      </trkpt>
      <trkpt lat="42.80581" lon="1.40236">
        <ele>1459</ele>
        <time>2021-08-20T17:18:57Z</time>
      </trkpt>
      <trkpt lat="42.80574" lon="1.40362">
        <ele>1469</ele>
        <time>2021-08-20T17:19:14Z</time>
      </trkpt>
      <trkpt lat="42.80576" lon="1.40387">
        <ele>1469</ele>
        <time>2021-08-20T17:19:17Z</time>
      </trkpt>
      <trkpt lat="42.80588" lon="1.40426">
        <ele>1467</ele>
        <time>2021-08-20T17:19:23Z</time>
      </trkpt>
      <trkpt lat="42.8059" lon="1.40456">
        <ele>1468</ele>
        <time>2021-08-20T17:19:26Z</time>
      </trkpt>
      <trkpt lat="42.80588" lon="1.4048">
        <ele>1470</ele>
        <time>2021-08-20T17:19:30Z</time>
      </trkpt>
      <trkpt lat="42.80567" lon="1.40579">
        <ele>1480</ele>
        <time>2021-08-20T17:19:43Z</time>
      </trkpt>
      <trkpt lat="42.8056" lon="1.40619">
        <ele>1485</ele>
        <time>2021-08-20T17:19:48Z</time>
      </trkpt>
      <trkpt lat="42.80561" lon="1.40659">
        <ele>1488</ele>
        <time>2021-08-20T17:19:54Z</time>
      </trkpt>
      <trkpt lat="42.80572" lon="1.40699">
        <ele>1489</ele>
        <time>2021-08-20T17:19:59Z</time>
      </trkpt>
      <trkpt lat="42.80576" lon="1.40725">
        <ele>1490</ele>
        <time>2021-08-20T17:20:03Z</time>
      </trkpt>
      <trkpt lat="42.80584" lon="1.40743">
        <ele>1491</ele>
        <time>2021-08-20T17:20:05Z</time>
      </trkpt>
      <trkpt lat="42.806" lon="1.40769">
        <ele>1493</ele>
        <time>2021-08-20T17:20:10Z</time>
      </trkpt>
      <trkpt lat="42.80605" lon="1.40792">
        <ele>1494</ele>
        <time>2021-08-20T17:20:13Z</time>
      </trkpt>
      <trkpt lat="42.80594" lon="1.40892">
        <ele>1500</ele>
        <time>2021-08-20T17:20:26Z</time>
      </trkpt>
      <trkpt lat="42.80598" lon="1.40913">
        <ele>1502</ele>
        <time>2021-08-20T17:20:29Z</time>
      </trkpt>
      <trkpt lat="42.80605" lon="1.40933">
        <ele>1504</ele>
        <time>2021-08-20T17:20:32Z</time>
      </trkpt>
      <trkpt lat="42.80617" lon="1.40948">
        <ele>1506</ele>
        <time>2021-08-20T17:20:35Z</time>
      </trkpt>
      <trkpt lat="42.80657" lon="1.40977">
        <ele>1508</ele>
        <time>2021-08-20T17:20:43Z</time>
      </trkpt>
      <trkpt lat="42.80664" lon="1.40986">
        <ele>1509</ele>
        <time>2021-08-20T17:20:45Z</time>
      </trkpt>
      <trkpt lat="42.80668" lon="1.40996">
        <ele>1510</ele>
        <time>2021-08-20T17:20:46Z</time>
      </trkpt>
      <trkpt lat="42.80671" lon="1.41011">
        <ele>1511</ele>
        <time>2021-08-20T17:20:48Z</time>
      </trkpt>
      <trkpt lat="42.80669" lon="1.41036">
        <ele>1512</ele>
        <time>2021-08-20T17:20:51Z</time>
      </trkpt>
      <trkpt lat="42.80663" lon="1.41065">
        <ele>1514</ele>
        <time>2021-08-20T17:20:55Z</time>
      </trkpt>
      <trkpt lat="42.80647" lon="1.41123">
        <ele>1517</ele>
        <time>2021-08-20T17:21:03Z</time>
      </trkpt>
      <trkpt lat="42.80641" lon="1.41159">
        <ele>1518</ele>
        <time>2021-08-20T17:21:08Z</time>
      </trkpt>
      <trkpt lat="42.80636" lon="1.41224">
        <ele>1517</ele>
        <time>2021-08-20T17:21:17Z</time>
      </trkpt>
      <trkpt lat="42.80637" lon="1.41255">
        <ele>1516</ele>
        <time>2021-08-20T17:21:21Z</time>
      </trkpt>
      <trkpt lat="42.80651" lon="1.41352">
        <ele>1510</ele>
        <time>2021-08-20T17:21:34Z</time>
      </trkpt>
      <trkpt lat="42.80673" lon="1.41482">
        <ele>1503</ele>
        <time>2021-08-20T17:21:51Z</time>
      </trkpt>
      <trkpt lat="42.80686" lon="1.41527">
        <ele>1502</ele>
        <time>2021-08-20T17:21:57Z</time>
      </trkpt>
      <trkpt lat="42.80701" lon="1.41563">
        <ele>1503</ele>
        <time>2021-08-20T17:22:03Z</time>
      </trkpt>
      <trkpt lat="42.80707" lon="1.4161">
        <ele>1499</ele>
        <time>2021-08-20T17:22:09Z</time>
      </trkpt>
      <trkpt lat="42.80709" lon="1.41639">
        <ele>1496</ele>
        <time>2021-08-20T17:22:13Z</time>
      </trkpt>
      <trkpt lat="42.80716" lon="1.41662">
        <ele>1496</ele>
        <time>2021-08-20T17:22:16Z</time>
      </trkpt>
      <trkpt lat="42.80732" lon="1.41689">
        <ele>1500</ele>
        <time>2021-08-20T17:22:21Z</time>
      </trkpt>
      <trkpt lat="42.80739" lon="1.41706">
        <ele>1501</ele>
        <time>2021-08-20T17:22:23Z</time>
      </trkpt>
      <trkpt lat="42.80744" lon="1.4173">
        <ele>1499</ele>
        <time>2021-08-20T17:22:26Z</time>
      </trkpt>
      <trkpt lat="42.80745" lon="1.41763">
        <ele>1496</ele>
        <time>2021-08-20T17:22:31Z</time>
      </trkpt>
      <trkpt lat="42.80741" lon="1.41799">
        <ele>1493</ele>
        <time>2021-08-20T17:22:36Z</time>
      </trkpt>
      <trkpt lat="42.80739" lon="1.41839">
        <ele>1490</ele>
        <time>2021-08-20T17:22:41Z</time>
      </trkpt>
      <trkpt lat="42.80734" lon="1.4191">
        <ele>1486</ele>
        <time>2021-08-20T17:22:50Z</time>
      </trkpt>
      <trkpt lat="42.80733" lon="1.41969">
        <ele>1483</ele>
        <time>2021-08-20T17:22:58Z</time>
      </trkpt>
      <trkpt lat="42.80735" lon="1.42005">
        <ele>1480</ele>
        <time>2021-08-20T17:23:03Z</time>
      </trkpt>
      <trkpt lat="42.80733" lon="1.42014">
        <ele>1477</ele>
        <time>2021-08-20T17:23:04Z</time>
      </trkpt>
      <trkpt lat="42.80727" lon="1.42021">
        <ele>1472</ele>
        <time>2021-08-20T17:23:05Z</time>
      </trkpt>
      <trkpt lat="42.8072" lon="1.42022">
        <ele>1468</ele>
        <time>2021-08-20T17:23:06Z</time>
      </trkpt>
      <trkpt lat="42.80713" lon="1.42014">
        <ele>1467</ele>
        <time>2021-08-20T17:23:08Z</time>
      </trkpt>
      <trkpt lat="42.80712" lon="1.42001">
        <ele>1470</ele>
        <time>2021-08-20T17:23:10Z</time>
      </trkpt>
      <trkpt lat="42.80718" lon="1.41938">
        <ele>1477</ele>
        <time>2021-08-20T17:23:18Z</time>
      </trkpt>
      <trkpt lat="42.80711" lon="1.41888">
        <ele>1476</ele>
        <time>2021-08-20T17:23:25Z</time>
      </trkpt>
      <trkpt lat="42.80701" lon="1.41842">
        <ele>1472</ele>
        <time>2021-08-20T17:23:31Z</time>
      </trkpt>
      <trkpt lat="42.80696" lon="1.41806">
        <ele>1472</ele>
        <time>2021-08-20T17:23:36Z</time>
      </trkpt>
      <trkpt lat="42.8069" lon="1.41778">
        <ele>1472</ele>
        <time>2021-08-20T17:23:40Z</time>
      </trkpt>
      <trkpt lat="42.80669" lon="1.41726">
        <ele>1468</ele>
        <time>2021-08-20T17:23:47Z</time>
      </trkpt>
      <trkpt lat="42.80656" lon="1.41697">
        <ele>1466</ele>
        <time>2021-08-20T17:23:52Z</time>
      </trkpt>
      <trkpt lat="42.80637" lon="1.41661">
        <ele>1465</ele>
        <time>2021-08-20T17:23:58Z</time>
      </trkpt>
      <trkpt lat="42.80613" lon="1.41628">
        <ele>1462</ele>
        <time>2021-08-20T17:24:04Z</time>
      </trkpt>
      <trkpt lat="42.80582" lon="1.41597">
        <ele>1458</ele>
        <time>2021-08-20T17:24:10Z</time>
      </trkpt>
      <trkpt lat="42.80568" lon="1.41593">
        <ele>1456</ele>
        <time>2021-08-20T17:24:13Z</time>
      </trkpt>
      <trkpt lat="42.80552" lon="1.41593">
        <ele>1454</ele>
        <time>2021-08-20T17:24:16Z</time>
      </trkpt>
      <trkpt lat="42.80544" lon="1.41597">
        <ele>1453</ele>
        <time>2021-08-20T17:24:17Z</time>
      </trkpt>
      <trkpt lat="42.8054" lon="1.41611">
        <ele>1450</ele>
        <time>2021-08-20T17:24:19Z</time>
      </trkpt>
      <trkpt lat="42.80544" lon="1.41623">
        <ele>1449</ele>
        <time>2021-08-20T17:24:21Z</time>
      </trkpt>
      <trkpt lat="42.80551" lon="1.41631">
        <ele>1449</ele>
        <time>2021-08-20T17:24:23Z</time>
      </trkpt>
      <trkpt lat="42.80579" lon="1.41639">
        <ele>1451</ele>
        <time>2021-08-20T17:24:28Z</time>
      </trkpt>
      <trkpt lat="42.80593" lon="1.41649">
        <ele>1453</ele>
        <time>2021-08-20T17:24:31Z</time>
      </trkpt>
      <trkpt lat="42.80595" lon="1.4166">
        <ele>1452</ele>
        <time>2021-08-20T17:24:32Z</time>
      </trkpt>
      <trkpt lat="42.80598" lon="1.41677">
        <ele>1451</ele>
        <time>2021-08-20T17:24:34Z</time>
      </trkpt>
      <trkpt lat="42.80595" lon="1.41742">
        <ele>1441</ele>
        <time>2021-08-20T17:24:43Z</time>
      </trkpt>
      <trkpt lat="42.80587" lon="1.41858">
        <ele>1429</ele>
        <time>2021-08-20T17:24:58Z</time>
      </trkpt>
      <trkpt lat="42.80587" lon="1.41885">
        <ele>1428</ele>
        <time>2021-08-20T17:25:02Z</time>
      </trkpt>
      <trkpt lat="42.80593" lon="1.41915">
        <ele>1428</ele>
        <time>2021-08-20T17:25:06Z</time>
      </trkpt>
      <trkpt lat="42.8061" lon="1.4198">
        <ele>1427</ele>
        <time>2021-08-20T17:25:15Z</time>
      </trkpt>
      <trkpt lat="42.80614" lon="1.42012">
        <ele>1424</ele>
        <time>2021-08-20T17:25:19Z</time>
      </trkpt>
      <trkpt lat="42.8062" lon="1.42025">
        <ele>1424</ele>
        <time>2021-08-20T17:25:21Z</time>
      </trkpt>
      <trkpt lat="42.8064" lon="1.42036">
        <ele>1430</ele>
        <time>2021-08-20T17:25:25Z</time>
      </trkpt>
      <trkpt lat="42.80644" lon="1.42042">
        <ele>1430</ele>
        <time>2021-08-20T17:25:26Z</time>
      </trkpt>
      <trkpt lat="42.80646" lon="1.42052">
        <ele>1429</ele>
        <time>2021-08-20T17:25:27Z</time>
      </trkpt>
      <trkpt lat="42.80641" lon="1.42058">
        <ele>1426</ele>
        <time>2021-08-20T17:25:28Z</time>
      </trkpt>
      <trkpt lat="42.80608" lon="1.42051">
        <ele>1414</ele>
        <time>2021-08-20T17:25:34Z</time>
      </trkpt>
      <trkpt lat="42.806" lon="1.42047">
        <ele>1412</ele>
        <time>2021-08-20T17:25:36Z</time>
      </trkpt>
      <trkpt lat="42.80588" lon="1.42027">
        <ele>1411</ele>
        <time>2021-08-20T17:25:39Z</time>
      </trkpt>
      <trkpt lat="42.80581" lon="1.42019">
        <ele>1410</ele>
        <time>2021-08-20T17:25:41Z</time>
      </trkpt>
      <trkpt lat="42.80573" lon="1.42018">
        <ele>1410</ele>
        <time>2021-08-20T17:25:42Z</time>
      </trkpt>
      <trkpt lat="42.80567" lon="1.42023">
        <ele>1410</ele>
        <time>2021-08-20T17:25:43Z</time>
      </trkpt>
      <trkpt lat="42.80562" lon="1.42031">
        <ele>1409</ele>
        <time>2021-08-20T17:25:45Z</time>
      </trkpt>
      <trkpt lat="42.80559" lon="1.42042">
        <ele>1408</ele>
        <time>2021-08-20T17:25:46Z</time>
      </trkpt>
      <trkpt lat="42.80564" lon="1.42089">
        <ele>1402</ele>
        <time>2021-08-20T17:25:53Z</time>
      </trkpt>
      <trkpt lat="42.80564" lon="1.42116">
        <ele>1400</ele>
        <time>2021-08-20T17:25:56Z</time>
      </trkpt>
      <trkpt lat="42.80559" lon="1.42197">
        <ele>1394</ele>
        <time>2021-08-20T17:26:07Z</time>
      </trkpt>
      <trkpt lat="42.80558" lon="1.42229">
        <ele>1392</ele>
        <time>2021-08-20T17:26:11Z</time>
      </trkpt>
      <trkpt lat="42.80565" lon="1.42303">
        <ele>1383</ele>
        <time>2021-08-20T17:26:21Z</time>
      </trkpt>
      <trkpt lat="42.80564" lon="1.4232">
        <ele>1381</ele>
        <time>2021-08-20T17:26:23Z</time>
      </trkpt>
      <trkpt lat="42.8055" lon="1.42397">
        <ele>1373</ele>
        <time>2021-08-20T17:26:33Z</time>
      </trkpt>
      <trkpt lat="42.80545" lon="1.42413">
        <ele>1371</ele>
        <time>2021-08-20T17:26:35Z</time>
      </trkpt>
      <trkpt lat="42.80533" lon="1.42437">
        <ele>1367</ele>
        <time>2021-08-20T17:26:39Z</time>
      </trkpt>
      <trkpt lat="42.80522" lon="1.4247">
        <ele>1362</ele>
        <time>2021-08-20T17:26:44Z</time>
      </trkpt>
      <trkpt lat="42.80521" lon="1.42488">
        <ele>1358</ele>
        <time>2021-08-20T17:26:46Z</time>
      </trkpt>
      <trkpt lat="42.80523" lon="1.425">
        <ele>1356</ele>
        <time>2021-08-20T17:26:48Z</time>
      </trkpt>
      <trkpt lat="42.80531" lon="1.42508">
        <ele>1352</ele>
        <time>2021-08-20T17:26:50Z</time>
      </trkpt>
      <trkpt lat="42.80538" lon="1.4251">
        <ele>1350</ele>
        <time>2021-08-20T17:26:51Z</time>
      </trkpt>
      <trkpt lat="42.80545" lon="1.42509">
        <ele>1350</ele>
        <time>2021-08-20T17:26:52Z</time>
      </trkpt>
      <trkpt lat="42.80553" lon="1.42498">
        <ele>1352</ele>
        <time>2021-08-20T17:26:54Z</time>
      </trkpt>
      <trkpt lat="42.80571" lon="1.42451">
        <ele>1362</ele>
        <time>2021-08-20T17:27:01Z</time>
      </trkpt>
      <trkpt lat="42.80583" lon="1.42401">
        <ele>1371</ele>
        <time>2021-08-20T17:27:08Z</time>
      </trkpt>
      <trkpt lat="42.80591" lon="1.4238">
        <ele>1372</ele>
        <time>2021-08-20T17:27:11Z</time>
      </trkpt>
      <trkpt lat="42.80625" lon="1.42313">
        <ele>1376</ele>
        <time>2021-08-20T17:27:22Z</time>
      </trkpt>
      <trkpt lat="42.80631" lon="1.42307">
        <ele>1376</ele>
        <time>2021-08-20T17:27:23Z</time>
      </trkpt>
      <trkpt lat="42.80634" lon="1.42306">
        <ele>1376</ele>
        <time>2021-08-20T17:27:24Z</time>
      </trkpt>
      <trkpt lat="42.80639" lon="1.42308">
        <ele>1376</ele>
        <time>2021-08-20T17:27:25Z</time>
      </trkpt>
      <trkpt lat="42.80641" lon="1.42313">
        <ele>1375</ele>
        <time>2021-08-20T17:27:25Z</time>
      </trkpt>
      <trkpt lat="42.80639" lon="1.42323">
        <ele>1373</ele>
        <time>2021-08-20T17:27:27Z</time>
      </trkpt>
      <trkpt lat="42.8063" lon="1.42339">
        <ele>1372</ele>
        <time>2021-08-20T17:27:29Z</time>
      </trkpt>
      <trkpt lat="42.80614" lon="1.42387">
        <ele>1367</ele>
        <time>2021-08-20T17:27:36Z</time>
      </trkpt>
      <trkpt lat="42.80606" lon="1.42423">
        <ele>1363</ele>
        <time>2021-08-20T17:27:41Z</time>
      </trkpt>
      <trkpt lat="42.80593" lon="1.42455">
        <ele>1358</ele>
        <time>2021-08-20T17:27:46Z</time>
      </trkpt>
      <trkpt lat="42.80593" lon="1.4246">
        <ele>1357</ele>
        <time>2021-08-20T17:27:46Z</time>
      </trkpt>
      <trkpt lat="42.80594" lon="1.42463">
        <ele>1356</ele>
        <time>2021-08-20T17:27:47Z</time>
      </trkpt>
      <trkpt lat="42.80599" lon="1.42465">
        <ele>1354</ele>
        <time>2021-08-20T17:27:48Z</time>
      </trkpt>
      <trkpt lat="42.80601" lon="1.42464">
        <ele>1354</ele>
        <time>2021-08-20T17:27:48Z</time>
      </trkpt>
      <trkpt lat="42.80605" lon="1.42458">
        <ele>1355</ele>
        <time>2021-08-20T17:27:49Z</time>
      </trkpt>
      <trkpt lat="42.80614" lon="1.42434">
        <ele>1359</ele>
        <time>2021-08-20T17:27:53Z</time>
      </trkpt>
      <trkpt lat="42.80628" lon="1.42411">
        <ele>1360</ele>
        <time>2021-08-20T17:27:57Z</time>
      </trkpt>
      <trkpt lat="42.80647" lon="1.42399">
        <ele>1358</ele>
        <time>2021-08-20T17:28:00Z</time>
      </trkpt>
      <trkpt lat="42.80665" lon="1.42401">
        <ele>1354</ele>
        <time>2021-08-20T17:28:04Z</time>
      </trkpt>
      <trkpt lat="42.80677" lon="1.42412">
        <ele>1355</ele>
        <time>2021-08-20T17:28:06Z</time>
      </trkpt>
      <trkpt lat="42.80684" lon="1.42428">
        <ele>1354</ele>
        <time>2021-08-20T17:28:09Z</time>
      </trkpt>
      <trkpt lat="42.80687" lon="1.42447">
        <ele>1352</ele>
        <time>2021-08-20T17:28:11Z</time>
      </trkpt>
      <trkpt lat="42.80688" lon="1.42482">
        <ele>1347</ele>
        <time>2021-08-20T17:28:16Z</time>
      </trkpt>
      <trkpt lat="42.80685" lon="1.42532">
        <ele>1341</ele>
        <time>2021-08-20T17:28:22Z</time>
      </trkpt>
      <trkpt lat="42.80678" lon="1.42591">
        <ele>1334</ele>
        <time>2021-08-20T17:28:30Z</time>
      </trkpt>
      <trkpt lat="42.80675" lon="1.42612">
        <ele>1332</ele>
        <time>2021-08-20T17:28:33Z</time>
      </trkpt>
      <trkpt lat="42.8065" lon="1.42699">
        <ele>1319</ele>
        <time>2021-08-20T17:28:45Z</time>
      </trkpt>
      <trkpt lat="42.80646" lon="1.42726">
        <ele>1316</ele>
        <time>2021-08-20T17:28:49Z</time>
      </trkpt>
      <trkpt lat="42.80645" lon="1.42773">
        <ele>1312</ele>
        <time>2021-08-20T17:28:55Z</time>
      </trkpt>
      <trkpt lat="42.80649" lon="1.42799">
        <ele>1311</ele>
        <time>2021-08-20T17:28:58Z</time>
      </trkpt>
      <trkpt lat="42.80675" lon="1.42877">
        <ele>1310</ele>
        <time>2021-08-20T17:29:09Z</time>
      </trkpt>
      <trkpt lat="42.80688" lon="1.4291">
        <ele>1307</ele>
        <time>2021-08-20T17:29:14Z</time>
      </trkpt>
      <trkpt lat="42.80697" lon="1.42938">
        <ele>1303</ele>
        <time>2021-08-20T17:29:18Z</time>
      </trkpt>
      <trkpt lat="42.80709" lon="1.42986">
        <ele>1291</ele>
        <time>2021-08-20T17:29:25Z</time>
      </trkpt>
      <trkpt lat="42.80711" lon="1.42988">
        <ele>1291</ele>
        <time>2021-08-20T17:29:25Z</time>
      </trkpt>
      <trkpt lat="42.80732" lon="1.42994">
        <ele>1296</ele>
        <time>2021-08-20T17:29:29Z</time>
      </trkpt>
      <trkpt lat="42.80756" lon="1.42997">
        <ele>1301</ele>
        <time>2021-08-20T17:29:34Z</time>
      </trkpt>
      <trkpt lat="42.8077" lon="1.43002">
        <ele>1301</ele>
        <time>2021-08-20T17:29:36Z</time>
      </trkpt>
      <trkpt lat="42.80803" lon="1.43027">
        <ele>1296</ele>
        <time>2021-08-20T17:29:43Z</time>
      </trkpt>
      <trkpt lat="42.80821" lon="1.43037">
        <ele>1295</ele>
        <time>2021-08-20T17:29:46Z</time>
      </trkpt>
      <trkpt lat="42.80833" lon="1.43046">
        <ele>1293</ele>
        <time>2021-08-20T17:29:49Z</time>
      </trkpt>
      <trkpt lat="42.80839" lon="1.43057">
        <ele>1291</ele>
        <time>2021-08-20T17:29:50Z</time>
      </trkpt>
      <trkpt lat="42.80842" lon="1.43065">
        <ele>1289</ele>
        <time>2021-08-20T17:29:52Z</time>
      </trkpt>
      <trkpt lat="42.8087" lon="1.43149">
        <ele>1281</ele>
        <time>2021-08-20T17:30:04Z</time>
      </trkpt>
      <trkpt lat="42.80873" lon="1.43162">
        <ele>1280</ele>
        <time>2021-08-20T17:30:05Z</time>
      </trkpt>
      <trkpt lat="42.80872" lon="1.43177">
        <ele>1278</ele>
        <time>2021-08-20T17:30:07Z</time>
      </trkpt>
      <trkpt lat="42.8087" lon="1.43193">
        <ele>1276</ele>
        <time>2021-08-20T17:30:10Z</time>
      </trkpt>
      <trkpt lat="42.80863" lon="1.43229">
        <ele>1270</ele>
        <time>2021-08-20T17:30:14Z</time>
      </trkpt>
      <trkpt lat="42.80854" lon="1.43306">
        <ele>1269</ele>
        <time>2021-08-20T17:30:25Z</time>
      </trkpt>
      <trkpt lat="42.80843" lon="1.43324">
        <ele>1266</ele>
        <time>2021-08-20T17:30:28Z</time>
      </trkpt>
      <trkpt lat="42.80825" lon="1.43344">
        <ele>1263</ele>
        <time>2021-08-20T17:30:32Z</time>
      </trkpt>
      <trkpt lat="42.80805" lon="1.43355">
        <ele>1262</ele>
        <time>2021-08-20T17:30:36Z</time>
      </trkpt>
      <trkpt lat="42.80732" lon="1.43378">
        <ele>1249</ele>
        <time>2021-08-20T17:30:49Z</time>
      </trkpt>
      <trkpt lat="42.80718" lon="1.43392">
        <ele>1248</ele>
        <time>2021-08-20T17:30:52Z</time>
      </trkpt>
      <trkpt lat="42.80699" lon="1.43414">
        <ele>1247</ele>
        <time>2021-08-20T17:30:56Z</time>
      </trkpt>
      <trkpt lat="42.80678" lon="1.43434">
        <ele>1246</ele>
        <time>2021-08-20T17:31:01Z</time>
      </trkpt>
      <trkpt lat="42.80634" lon="1.43463">
        <ele>1240</ele>
        <time>2021-08-20T17:31:10Z</time>
      </trkpt>
      <trkpt lat="42.80617" lon="1.43486">
        <ele>1239</ele>
        <time>2021-08-20T17:31:14Z</time>
      </trkpt>
      <trkpt lat="42.80608" lon="1.43505">
        <ele>1239</ele>
        <time>2021-08-20T17:31:17Z</time>
      </trkpt>
      <trkpt lat="42.80577" lon="1.43545">
        <ele>1237</ele>
        <time>2021-08-20T17:31:25Z</time>
      </trkpt>
      <trkpt lat="42.80564" lon="1.43564">
        <ele>1236</ele>
        <time>2021-08-20T17:31:28Z</time>
      </trkpt>
      <trkpt lat="42.80544" lon="1.436">
        <ele>1235</ele>
        <time>2021-08-20T17:31:34Z</time>
      </trkpt>
      <trkpt lat="42.80524" lon="1.43616">
        <ele>1231</ele>
        <time>2021-08-20T17:31:38Z</time>
      </trkpt>
      <trkpt lat="42.80497" lon="1.43643">
        <ele>1225</ele>
        <time>2021-08-20T17:31:44Z</time>
      </trkpt>
      <trkpt lat="42.80458" lon="1.43695">
        <ele>1218</ele>
        <time>2021-08-20T17:31:54Z</time>
      </trkpt>
      <trkpt lat="42.80442" lon="1.43721">
        <ele>1216</ele>
        <time>2021-08-20T17:31:58Z</time>
      </trkpt>
      <trkpt lat="42.80425" lon="1.43801">
        <ele>1218</ele>
        <time>2021-08-20T17:32:09Z</time>
      </trkpt>
      <trkpt lat="42.80389" lon="1.43879">
        <ele>1211</ele>
        <time>2021-08-20T17:32:21Z</time>
      </trkpt>
      <trkpt lat="42.80373" lon="1.43904">
        <ele>1206</ele>
        <time>2021-08-20T17:32:25Z</time>
      </trkpt>
      <trkpt lat="42.80359" lon="1.43941">
        <ele>1202</ele>
        <time>2021-08-20T17:32:31Z</time>
      </trkpt>
      <trkpt lat="42.80351" lon="1.43971">
        <ele>1201</ele>
        <time>2021-08-20T17:32:35Z</time>
      </trkpt>
      <trkpt lat="42.80318" lon="1.44063">
        <ele>1190</ele>
        <time>2021-08-20T17:32:48Z</time>
      </trkpt>
      <trkpt lat="42.8031" lon="1.44093">
        <ele>1187</ele>
        <time>2021-08-20T17:32:52Z</time>
      </trkpt>
      <trkpt lat="42.8032" lon="1.44139">
        <ele>1194</ele>
        <time>2021-08-20T17:32:59Z</time>
      </trkpt>
      <trkpt lat="42.80319" lon="1.4416">
        <ele>1195</ele>
        <time>2021-08-20T17:33:01Z</time>
      </trkpt>
      <trkpt lat="42.80315" lon="1.44184">
        <ele>1194</ele>
        <time>2021-08-20T17:33:05Z</time>
      </trkpt>
      <trkpt lat="42.80316" lon="1.44198">
        <ele>1196</ele>
        <time>2021-08-20T17:33:07Z</time>
      </trkpt>
      <trkpt lat="42.8032" lon="1.44214">
        <ele>1199</ele>
        <time>2021-08-20T17:33:09Z</time>
      </trkpt>
      <trkpt lat="42.80316" lon="1.44247">
        <ele>1199</ele>
        <time>2021-08-20T17:33:13Z</time>
      </trkpt>
      <trkpt lat="42.80308" lon="1.44279">
        <ele>1198</ele>
        <time>2021-08-20T17:33:17Z</time>
      </trkpt>
      <trkpt lat="42.80287" lon="1.44326">
        <ele>1191</ele>
        <time>2021-08-20T17:33:25Z</time>
      </trkpt>
      <trkpt lat="42.80281" lon="1.44347">
        <ele>1191</ele>
        <time>2021-08-20T17:33:28Z</time>
      </trkpt>
      <trkpt lat="42.80265" lon="1.44381">
        <ele>1186</ele>
        <time>2021-08-20T17:33:33Z</time>
      </trkpt>
      <trkpt lat="42.80252" lon="1.44397">
        <ele>1181</ele>
        <time>2021-08-20T17:33:36Z</time>
      </trkpt>
      <trkpt lat="42.80221" lon="1.44459">
        <ele>1179</ele>
        <time>2021-08-20T17:33:46Z</time>
      </trkpt>
      <trkpt lat="42.802" lon="1.44506">
        <ele>1180</ele>
        <time>2021-08-20T17:33:53Z</time>
      </trkpt>
      <trkpt lat="42.80179" lon="1.44544">
        <ele>1178</ele>
        <time>2021-08-20T17:33:59Z</time>
      </trkpt>
      <trkpt lat="42.80138" lon="1.44599">
        <ele>1173</ele>
        <time>2021-08-20T17:34:09Z</time>
      </trkpt>
      <trkpt lat="42.8012" lon="1.44614">
        <ele>1168</ele>
        <time>2021-08-20T17:34:13Z</time>
      </trkpt>
      <trkpt lat="42.80095" lon="1.44627">
        <ele>1160</ele>
        <time>2021-08-20T17:34:18Z</time>
      </trkpt>
      <trkpt lat="42.80054" lon="1.44664">
        <ele>1156</ele>
        <time>2021-08-20T17:34:27Z</time>
      </trkpt>
      <trkpt lat="42.80037" lon="1.44672">
        <ele>1154</ele>
        <time>2021-08-20T17:34:30Z</time>
      </trkpt>
      <trkpt lat="42.80021" lon="1.44674">
        <ele>1150</ele>
        <time>2021-08-20T17:34:33Z</time>
      </trkpt>
      <trkpt lat="42.79989" lon="1.44674">
        <ele>1142</ele>
        <time>2021-08-20T17:34:38Z</time>
      </trkpt>
      <trkpt lat="42.79968" lon="1.44679">
        <ele>1139</ele>
        <time>2021-08-20T17:34:42Z</time>
      </trkpt>
      <trkpt lat="42.79949" lon="1.44688">
        <ele>1136</ele>
        <time>2021-08-20T17:34:46Z</time>
      </trkpt>
      <trkpt lat="42.79944" lon="1.44688">
        <ele>1135</ele>
        <time>2021-08-20T17:34:47Z</time>
      </trkpt>
      <trkpt lat="42.79938" lon="1.44683">
        <ele>1132</ele>
        <time>2021-08-20T17:34:48Z</time>
      </trkpt>
      <trkpt lat="42.79938" lon="1.44677">
        <ele>1131</ele>
        <time>2021-08-20T17:34:49Z</time>
      </trkpt>
      <trkpt lat="42.7994" lon="1.44668">
        <ele>1129</ele>
        <time>2021-08-20T17:34:50Z</time>
      </trkpt>
      <trkpt lat="42.79974" lon="1.44642">
        <ele>1132</ele>
        <time>2021-08-20T17:34:57Z</time>
      </trkpt>
      <trkpt lat="42.79998" lon="1.4462">
        <ele>1132</ele>
        <time>2021-08-20T17:35:02Z</time>
      </trkpt>
      <trkpt lat="42.80013" lon="1.44602">
        <ele>1132</ele>
        <time>2021-08-20T17:35:06Z</time>
      </trkpt>
      <trkpt lat="42.80027" lon="1.44581">
        <ele>1131</ele>
        <time>2021-08-20T17:35:09Z</time>
      </trkpt>
      <trkpt lat="42.80052" lon="1.44522">
        <ele>1128</ele>
        <time>2021-08-20T17:35:18Z</time>
      </trkpt>
      <trkpt lat="42.80097" lon="1.44443">
        <ele>1126</ele>
        <time>2021-08-20T17:35:31Z</time>
      </trkpt>
      <trkpt lat="42.80098" lon="1.44418">
        <ele>1122</ele>
        <time>2021-08-20T17:35:35Z</time>
      </trkpt>
      <trkpt lat="42.80096" lon="1.4437">
        <ele>1119</ele>
        <time>2021-08-20T17:35:41Z</time>
      </trkpt>
      <trkpt lat="42.80097" lon="1.44317">
        <ele>1116</ele>
        <time>2021-08-20T17:35:48Z</time>
      </trkpt>
      <trkpt lat="42.80115" lon="1.44256">
        <ele>1117</ele>
        <time>2021-08-20T17:35:56Z</time>
      </trkpt>
      <trkpt lat="42.80115" lon="1.44246">
        <ele>1116</ele>
        <time>2021-08-20T17:35:58Z</time>
      </trkpt>
      <trkpt lat="42.80108" lon="1.44234">
        <ele>1115</ele>
        <time>2021-08-20T17:36:00Z</time>
      </trkpt>
      <trkpt lat="42.80099" lon="1.44229">
        <ele>1113</ele>
        <time>2021-08-20T17:36:01Z</time>
      </trkpt>
      <trkpt lat="42.8009" lon="1.4423">
        <ele>1111</ele>
        <time>2021-08-20T17:36:03Z</time>
      </trkpt>
      <trkpt lat="42.80084" lon="1.44237">
        <ele>1110</ele>
        <time>2021-08-20T17:36:04Z</time>
      </trkpt>
      <trkpt lat="42.80076" lon="1.44252">
        <ele>1109</ele>
        <time>2021-08-20T17:36:07Z</time>
      </trkpt>
      <trkpt lat="42.80047" lon="1.44342">
        <ele>1108</ele>
        <time>2021-08-20T17:36:20Z</time>
      </trkpt>
      <trkpt lat="42.80027" lon="1.44394">
        <ele>1107</ele>
        <time>2021-08-20T17:36:27Z</time>
      </trkpt>
      <trkpt lat="42.8001" lon="1.44427">
        <ele>1107</ele>
        <time>2021-08-20T17:36:33Z</time>
      </trkpt>
      <trkpt lat="42.79965" lon="1.44464">
        <ele>1104</ele>
        <time>2021-08-20T17:36:42Z</time>
      </trkpt>
      <trkpt lat="42.79945" lon="1.44477">
        <ele>1103</ele>
        <time>2021-08-20T17:36:46Z</time>
      </trkpt>
      <trkpt lat="42.79908" lon="1.44491">
        <ele>1099</ele>
        <time>2021-08-20T17:36:53Z</time>
      </trkpt>
      <trkpt lat="42.79879" lon="1.44499">
        <ele>1095</ele>
        <time>2021-08-20T17:36:58Z</time>
      </trkpt>
      <trkpt lat="42.79843" lon="1.44515">
        <ele>1090</ele>
        <time>2021-08-20T17:37:05Z</time>
      </trkpt>
      <trkpt lat="42.7981" lon="1.44516">
        <ele>1085</ele>
        <time>2021-08-20T17:37:11Z</time>
      </trkpt>
      <trkpt lat="42.79768" lon="1.44546">
        <ele>1079</ele>
        <time>2021-08-20T17:37:19Z</time>
      </trkpt>
      <trkpt lat="42.79739" lon="1.44571">
        <ele>1076</ele>
        <time>2021-08-20T17:37:25Z</time>
      </trkpt>
      <trkpt lat="42.7967" lon="1.44663">
        <ele>1067</ele>
        <time>2021-08-20T17:37:42Z</time>
      </trkpt>
      <trkpt lat="42.79656" lon="1.44683">
        <ele>1065</ele>
        <time>2021-08-20T17:37:46Z</time>
      </trkpt>
      <trkpt lat="42.79642" lon="1.44714">
        <ele>1064</ele>
        <time>2021-08-20T17:37:51Z</time>
      </trkpt>
      <trkpt lat="42.79623" lon="1.44767">
        <ele>1064</ele>
        <time>2021-08-20T17:37:58Z</time>
      </trkpt>
      <trkpt lat="42.79611" lon="1.44785">
        <ele>1064</ele>
        <time>2021-08-20T17:38:02Z</time>
      </trkpt>
      <trkpt lat="42.79592" lon="1.44804">
        <ele>1063</ele>
        <time>2021-08-20T17:38:06Z</time>
      </trkpt>
      <trkpt lat="42.7957" lon="1.44818">
        <ele>1060</ele>
        <time>2021-08-20T17:38:10Z</time>
      </trkpt>
      <trkpt lat="42.79542" lon="1.44843">
        <ele>1057</ele>
        <time>2021-08-20T17:38:16Z</time>
      </trkpt>
      <trkpt lat="42.79521" lon="1.44865">
        <ele>1056</ele>
        <time>2021-08-20T17:38:21Z</time>
      </trkpt>
      <trkpt lat="42.79478" lon="1.44916">
        <ele>1052</ele>
        <time>2021-08-20T17:38:31Z</time>
      </trkpt>
      <trkpt lat="42.79444" lon="1.44949">
        <ele>1050</ele>
        <time>2021-08-20T17:38:38Z</time>
      </trkpt>
      <trkpt lat="42.79417" lon="1.44969">
        <ele>1044</ele>
        <time>2021-08-20T17:38:44Z</time>
      </trkpt>
      <trkpt lat="42.79373" lon="1.44997">
        <ele>1038</ele>
        <time>2021-08-20T17:38:52Z</time>
      </trkpt>
      <trkpt lat="42.79354" lon="1.45012">
        <ele>1036</ele>
        <time>2021-08-20T17:38:56Z</time>
      </trkpt>
      <trkpt lat="42.79329" lon="1.45055">
        <ele>1036</ele>
        <time>2021-08-20T17:39:03Z</time>
      </trkpt>
      <trkpt lat="42.79304" lon="1.45084">
        <ele>1033</ele>
        <time>2021-08-20T17:39:09Z</time>
      </trkpt>
      <trkpt lat="42.79237" lon="1.45147">
        <ele>1029</ele>
        <time>2021-08-20T17:39:24Z</time>
      </trkpt>
      <trkpt lat="42.79218" lon="1.45186">
        <ele>1032</ele>
        <time>2021-08-20T17:39:30Z</time>
      </trkpt>
      <trkpt lat="42.79203" lon="1.45207">
        <ele>1032</ele>
        <time>2021-08-20T17:39:34Z</time>
      </trkpt>
      <trkpt lat="42.7918" lon="1.45229">
        <ele>1028</ele>
        <time>2021-08-20T17:39:39Z</time>
      </trkpt>
      <trkpt lat="42.79124" lon="1.4526">
        <ele>1019</ele>
        <time>2021-08-20T17:39:49Z</time>
      </trkpt>
      <trkpt lat="42.79072" lon="1.45306">
        <ele>1013</ele>
        <time>2021-08-20T17:40:00Z</time>
      </trkpt>
      <trkpt lat="42.79046" lon="1.45332">
        <ele>1009</ele>
        <time>2021-08-20T17:40:06Z</time>
      </trkpt>
      <trkpt lat="42.79015" lon="1.45374">
        <ele>1006</ele>
        <time>2021-08-20T17:40:14Z</time>
      </trkpt>
      <trkpt lat="42.78991" lon="1.45401">
        <ele>1004</ele>
        <time>2021-08-20T17:40:20Z</time>
      </trkpt>
      <trkpt lat="42.78976" lon="1.45429">
        <ele>1003</ele>
        <time>2021-08-20T17:40:24Z</time>
      </trkpt>
      <trkpt lat="42.7896" lon="1.45499">
        <ele>1000</ele>
        <time>2021-08-20T17:40:34Z</time>
      </trkpt>
      <trkpt lat="42.78951" lon="1.4552">
        <ele>999</ele>
        <time>2021-08-20T17:40:37Z</time>
      </trkpt>
      <trkpt lat="42.78938" lon="1.45542">
        <ele>996</ele>
        <time>2021-08-20T17:40:40Z</time>
      </trkpt>
      <trkpt lat="42.7893" lon="1.45561">
        <ele>995</ele>
        <time>2021-08-20T17:40:43Z</time>
      </trkpt>
      <trkpt lat="42.78925" lon="1.4558">
        <ele>994</ele>
        <time>2021-08-20T17:40:46Z</time>
      </trkpt>
      <trkpt lat="42.78919" lon="1.4567">
        <ele>991</ele>
        <time>2021-08-20T17:40:58Z</time>
      </trkpt>
      <trkpt lat="42.7891" lon="1.45693">
        <ele>991</ele>
        <time>2021-08-20T17:41:01Z</time>
      </trkpt>
      <trkpt lat="42.78888" lon="1.45731">
        <ele>989</ele>
        <time>2021-08-20T17:41:08Z</time>
      </trkpt>
      <trkpt lat="42.78867" lon="1.45761">
        <ele>985</ele>
        <time>2021-08-20T17:41:13Z</time>
      </trkpt>
      <trkpt lat="42.7878" lon="1.45871">
        <ele>975</ele>
        <time>2021-08-20T17:41:34Z</time>
      </trkpt>
      <trkpt lat="42.78762" lon="1.45895">
        <ele>972</ele>
        <time>2021-08-20T17:41:39Z</time>
      </trkpt>
      <trkpt lat="42.78752" lon="1.45917">
        <ele>971</ele>
        <time>2021-08-20T17:41:42Z</time>
      </trkpt>
      <trkpt lat="42.78733" lon="1.46023">
        <ele>972</ele>
        <time>2021-08-20T17:41:56Z</time>
      </trkpt>
      <trkpt lat="42.78715" lon="1.46063">
        <ele>970</ele>
        <time>2021-08-20T17:42:02Z</time>
      </trkpt>
      <trkpt lat="42.78697" lon="1.46086">
        <ele>967</ele>
        <time>2021-08-20T17:42:07Z</time>
      </trkpt>
      <trkpt lat="42.78678" lon="1.46123">
        <ele>964</ele>
        <time>2021-08-20T17:42:13Z</time>
      </trkpt>
      <trkpt lat="42.78659" lon="1.46183">
        <ele>963</ele>
        <time>2021-08-20T17:42:21Z</time>
      </trkpt>
      <trkpt lat="42.7865" lon="1.46204">
        <ele>961</ele>
        <time>2021-08-20T17:42:24Z</time>
      </trkpt>
      <trkpt lat="42.78632" lon="1.46238">
        <ele>958</ele>
        <time>2021-08-20T17:42:30Z</time>
      </trkpt>
      <trkpt lat="42.78628" lon="1.46259">
        <ele>958</ele>
        <time>2021-08-20T17:42:33Z</time>
      </trkpt>
      <trkpt lat="42.78629" lon="1.46289">
        <ele>961</ele>
        <time>2021-08-20T17:42:37Z</time>
      </trkpt>
      <trkpt lat="42.78628" lon="1.46303">
        <ele>962</ele>
        <time>2021-08-20T17:42:38Z</time>
      </trkpt>
      <trkpt lat="42.78623" lon="1.46317">
        <ele>962</ele>
        <time>2021-08-20T17:42:40Z</time>
      </trkpt>
      <trkpt lat="42.78616" lon="1.46329">
        <ele>961</ele>
        <time>2021-08-20T17:42:42Z</time>
      </trkpt>
      <trkpt lat="42.78582" lon="1.4636">
        <ele>957</ele>
        <time>2021-08-20T17:42:50Z</time>
      </trkpt>
      <trkpt lat="42.78569" lon="1.46375">
        <ele>956</ele>
        <time>2021-08-20T17:42:53Z</time>
      </trkpt>
      <trkpt lat="42.78539" lon="1.46459">
        <ele>962</ele>
        <time>2021-08-20T17:43:05Z</time>
      </trkpt>
      <trkpt lat="42.78522" lon="1.46485">
        <ele>962</ele>
        <time>2021-08-20T17:43:09Z</time>
      </trkpt>
      <trkpt lat="42.78488" lon="1.46525">
        <ele>961</ele>
        <time>2021-08-20T17:43:17Z</time>
      </trkpt>
      <trkpt lat="42.78449" lon="1.46547">
        <ele>957</ele>
        <time>2021-08-20T17:43:25Z</time>
      </trkpt>
      <trkpt lat="42.78405" lon="1.46599">
        <ele>956</ele>
        <time>2021-08-20T17:43:35Z</time>
      </trkpt>
      <trkpt lat="42.78371" lon="1.46649">
        <ele>955</ele>
        <time>2021-08-20T17:43:44Z</time>
      </trkpt>
      <trkpt lat="42.78307" lon="1.46717">
        <ele>951</ele>
        <time>2021-08-20T17:43:59Z</time>
      </trkpt>
      <trkpt lat="42.78285" lon="1.46756">
        <ele>951</ele>
        <time>2021-08-20T17:44:05Z</time>
      </trkpt>
      <trkpt lat="42.78242" lon="1.46818">
        <ele>945</ele>
        <time>2021-08-20T17:44:16Z</time>
      </trkpt>
      <trkpt lat="42.78226" lon="1.46835">
        <ele>943</ele>
        <time>2021-08-20T17:44:20Z</time>
      </trkpt>
      <trkpt lat="42.78202" lon="1.46858">
        <ele>939</ele>
        <time>2021-08-20T17:44:25Z</time>
      </trkpt>
      <trkpt lat="42.78169" lon="1.46893">
        <ele>933</ele>
        <time>2021-08-20T17:44:32Z</time>
      </trkpt>
      <trkpt lat="42.78158" lon="1.46909">
        <ele>932</ele>
        <time>2021-08-20T17:44:35Z</time>
      </trkpt>
      <trkpt lat="42.78147" lon="1.46938">
        <ele>930</ele>
        <time>2021-08-20T17:44:40Z</time>
      </trkpt>
      <trkpt lat="42.78142" lon="1.46964">
        <ele>929</ele>
        <time>2021-08-20T17:44:43Z</time>
      </trkpt>
      <trkpt lat="42.78138" lon="1.47046">
        <ele>929</ele>
        <time>2021-08-20T17:44:54Z</time>
      </trkpt>
      <trkpt lat="42.78132" lon="1.47079">
        <ele>927</ele>
        <time>2021-08-20T17:44:58Z</time>
      </trkpt>
      <trkpt lat="42.78089" lon="1.47197">
        <ele>915</ele>
        <time>2021-08-20T17:45:15Z</time>
      </trkpt>
      <trkpt lat="42.78043" lon="1.47314">
        <ele>907</ele>
        <time>2021-08-20T17:45:33Z</time>
      </trkpt>
      <trkpt lat="42.78029" lon="1.47354">
        <ele>902</ele>
        <time>2021-08-20T17:45:39Z</time>
      </trkpt>
      <trkpt lat="42.78022" lon="1.47379">
        <ele>899</ele>
        <time>2021-08-20T17:45:42Z</time>
      </trkpt>
      <trkpt lat="42.78014" lon="1.4744">
        <ele>898</ele>
        <time>2021-08-20T17:45:50Z</time>
      </trkpt>
      <trkpt lat="42.78003" lon="1.47492">
        <ele>896</ele>
        <time>2021-08-20T17:45:57Z</time>
      </trkpt>
      <trkpt lat="42.77994" lon="1.47524">
        <ele>895</ele>
        <time>2021-08-20T17:46:02Z</time>
      </trkpt>
      <trkpt lat="42.77977" lon="1.47572">
        <ele>891</ele>
        <time>2021-08-20T17:46:09Z</time>
      </trkpt>
      <trkpt lat="42.77956" lon="1.47652">
        <ele>888</ele>
        <time>2021-08-20T17:46:20Z</time>
      </trkpt>
      <trkpt lat="42.77933" lon="1.47706">
        <ele>878</ele>
        <time>2021-08-20T17:46:28Z</time>
      </trkpt>
      <trkpt lat="42.77924" lon="1.4774">
        <ele>874</ele>
        <time>2021-08-20T17:46:33Z</time>
      </trkpt>
      <trkpt lat="42.77908" lon="1.4786">
        <ele>866</ele>
        <time>2021-08-20T17:46:49Z</time>
      </trkpt>
      <trkpt lat="42.77906" lon="1.47907">
        <ele>862</ele>
        <time>2021-08-20T17:46:55Z</time>
      </trkpt>
      <trkpt lat="42.77914" lon="1.47972">
        <ele>860</ele>
        <time>2021-08-20T17:47:03Z</time>
      </trkpt>
      <trkpt lat="42.77914" lon="1.47989">
        <ele>859</ele>
        <time>2021-08-20T17:47:06Z</time>
      </trkpt>
      <trkpt lat="42.77911" lon="1.47998">
        <ele>858</ele>
        <time>2021-08-20T17:47:07Z</time>
      </trkpt>
      <trkpt lat="42.77904" lon="1.48007">
        <ele>858</ele>
        <time>2021-08-20T17:47:09Z</time>
      </trkpt>
      <trkpt lat="42.77895" lon="1.48015">
        <ele>857</ele>
        <time>2021-08-20T17:47:10Z</time>
      </trkpt>
      <trkpt lat="42.77861" lon="1.48033">
        <ele>852</ele>
        <time>2021-08-20T17:47:17Z</time>
      </trkpt>
      <trkpt lat="42.77847" lon="1.48044">
        <ele>850</ele>
        <time>2021-08-20T17:47:20Z</time>
      </trkpt>
      <trkpt lat="42.77832" lon="1.48063">
        <ele>847</ele>
        <time>2021-08-20T17:47:23Z</time>
      </trkpt>
      <trkpt lat="42.77787" lon="1.48109">
        <ele>840</ele>
        <time>2021-08-20T17:47:34Z</time>
      </trkpt>
      <trkpt lat="42.77772" lon="1.48137">
        <ele>836</ele>
        <time>2021-08-20T17:47:38Z</time>
      </trkpt>
      <trkpt lat="42.7776" lon="1.48173">
        <ele>831</ele>
        <time>2021-08-20T17:47:43Z</time>
      </trkpt>
      <trkpt lat="42.7775" lon="1.48265">
        <ele>833</ele>
        <time>2021-08-20T17:47:55Z</time>
      </trkpt>
      <trkpt lat="42.77739" lon="1.4829">
        <ele>834</ele>
        <time>2021-08-20T17:47:59Z</time>
      </trkpt>
      <trkpt lat="42.77721" lon="1.4831">
        <ele>831</ele>
        <time>2021-08-20T17:48:03Z</time>
      </trkpt>
      <trkpt lat="42.777" lon="1.48321">
        <ele>826</ele>
        <time>2021-08-20T17:48:07Z</time>
      </trkpt>
      <trkpt lat="42.77669" lon="1.48341">
        <ele>817</ele>
        <time>2021-08-20T17:48:13Z</time>
      </trkpt>
      <trkpt lat="42.77635" lon="1.48385">
        <ele>819</ele>
        <time>2021-08-20T17:48:22Z</time>
      </trkpt>
      <trkpt lat="42.77613" lon="1.48422">
        <ele>814</ele>
        <time>2021-08-20T17:48:28Z</time>
      </trkpt>
      <trkpt lat="42.7759" lon="1.48447">
        <ele>811</ele>
        <time>2021-08-20T17:48:33Z</time>
      </trkpt>
      <trkpt lat="42.77553" lon="1.48503">
        <ele>808</ele>
        <time>2021-08-20T17:48:43Z</time>
      </trkpt>
      <trkpt lat="42.77535" lon="1.48526">
        <ele>807</ele>
        <time>2021-08-20T17:48:47Z</time>
      </trkpt>
      <trkpt lat="42.77498" lon="1.48554">
        <ele>800</ele>
        <time>2021-08-20T17:48:55Z</time>
      </trkpt>
      <trkpt lat="42.77456" lon="1.48603">
        <ele>792</ele>
        <time>2021-08-20T17:49:05Z</time>
      </trkpt>
      <trkpt lat="42.77441" lon="1.48629">
        <ele>789</ele>
        <time>2021-08-20T17:49:09Z</time>
      </trkpt>
      <trkpt lat="42.77432" lon="1.48657">
        <ele>787</ele>
        <time>2021-08-20T17:49:13Z</time>
      </trkpt>
      <trkpt lat="42.77422" lon="1.48706">
        <ele>785</ele>
        <time>2021-08-20T17:49:20Z</time>
      </trkpt>
      <trkpt lat="42.77415" lon="1.48727">
        <ele>783</ele>
        <time>2021-08-20T17:49:23Z</time>
      </trkpt>
      <trkpt lat="42.7739" lon="1.48767">
        <ele>781</ele>
        <time>2021-08-20T17:49:30Z</time>
      </trkpt>
      <trkpt lat="42.77373" lon="1.4879">
        <ele>778</ele>
        <time>2021-08-20T17:49:34Z</time>
      </trkpt>
      <trkpt lat="42.77361" lon="1.48811">
        <ele>776</ele>
        <time>2021-08-20T17:49:37Z</time>
      </trkpt>
      <trkpt lat="42.77337" lon="1.48872">
        <ele>768</ele>
        <time>2021-08-20T17:49:46Z</time>
      </trkpt>
      <trkpt lat="42.77281" lon="1.49004">
        <ele>758</ele>
        <time>2021-08-20T17:50:06Z</time>
      </trkpt>
      <trkpt lat="42.77272" lon="1.49031">
        <ele>757</ele>
        <time>2021-08-20T17:50:10Z</time>
      </trkpt>
      <trkpt lat="42.77258" lon="1.49082">
        <ele>756</ele>
        <time>2021-08-20T17:50:17Z</time>
      </trkpt>
      <trkpt lat="42.77256" lon="1.49098">
        <ele>754</ele>
        <time>2021-08-20T17:50:19Z</time>
      </trkpt>
      <trkpt lat="42.77257" lon="1.49114">
        <ele>754</ele>
        <time>2021-08-20T17:50:22Z</time>
      </trkpt>
      <trkpt lat="42.77261" lon="1.49134">
        <ele>755</ele>
        <time>2021-08-20T17:50:24Z</time>
      </trkpt>
      <trkpt lat="42.77262" lon="1.49151">
        <ele>755</ele>
        <time>2021-08-20T17:50:26Z</time>
      </trkpt>
      <trkpt lat="42.77261" lon="1.49168">
        <ele>754</ele>
        <time>2021-08-20T17:50:29Z</time>
      </trkpt>
      <trkpt lat="42.77254" lon="1.4921">
        <ele>751</ele>
        <time>2021-08-20T17:50:34Z</time>
      </trkpt>
      <trkpt lat="42.77252" lon="1.49215">
        <ele>750</ele>
        <time>2021-08-20T17:50:35Z</time>
      </trkpt>
      <trkpt lat="42.77247" lon="1.4922">
        <ele>748</ele>
        <time>2021-08-20T17:50:36Z</time>
      </trkpt>
      <trkpt lat="42.77241" lon="1.49217">
        <ele>747</ele>
        <time>2021-08-20T17:50:37Z</time>
      </trkpt>
      <trkpt lat="42.7724" lon="1.49213">
        <ele>746</ele>
        <time>2021-08-20T17:50:38Z</time>
      </trkpt>
      <trkpt lat="42.77241" lon="1.49193">
        <ele>746</ele>
        <time>2021-08-20T17:50:40Z</time>
      </trkpt>
      <trkpt lat="42.7724" lon="1.49185">
        <ele>746</ele>
        <time>2021-08-20T17:50:42Z</time>
      </trkpt>
      <trkpt lat="42.77232" lon="1.49171">
        <ele>744</ele>
        <time>2021-08-20T17:50:44Z</time>
      </trkpt>
      <trkpt lat="42.77216" lon="1.49157">
        <ele>742</ele>
        <time>2021-08-20T17:50:47Z</time>
      </trkpt>
      <trkpt lat="42.77208" lon="1.49152">
        <ele>740</ele>
        <time>2021-08-20T17:50:49Z</time>
      </trkpt>
      <trkpt lat="42.77192" lon="1.49151">
        <ele>737</ele>
        <time>2021-08-20T17:50:52Z</time>
      </trkpt>
      <trkpt lat="42.77175" lon="1.49154">
        <ele>733</ele>
        <time>2021-08-20T17:50:55Z</time>
      </trkpt>
      <trkpt lat="42.77169" lon="1.49157">
        <ele>732</ele>
        <time>2021-08-20T17:50:56Z</time>
      </trkpt>
      <trkpt lat="42.77164" lon="1.49162">
        <ele>731</ele>
        <time>2021-08-20T17:50:57Z</time>
      </trkpt>
      <trkpt lat="42.77158" lon="1.49176">
        <ele>731</ele>
        <time>2021-08-20T17:50:59Z</time>
      </trkpt>
      <trkpt lat="42.77144" lon="1.49229">
        <ele>730</ele>
        <time>2021-08-20T17:51:06Z</time>
      </trkpt>
      <trkpt lat="42.77128" lon="1.49261">
        <ele>729</ele>
        <time>2021-08-20T17:51:11Z</time>
      </trkpt>
      <trkpt lat="42.77115" lon="1.49269">
        <ele>728</ele>
        <time>2021-08-20T17:51:14Z</time>
      </trkpt>
      <trkpt lat="42.77073" lon="1.49302">
        <ele>724</ele>
        <time>2021-08-20T17:51:23Z</time>
      </trkpt>
      <trkpt lat="42.77041" lon="1.49346">
        <ele>722</ele>
        <time>2021-08-20T17:51:31Z</time>
      </trkpt>
      <trkpt lat="42.76972" lon="1.49363">
        <ele>720</ele>
        <time>2021-08-20T17:51:43Z</time>
      </trkpt>
      <trkpt lat="42.76967" lon="1.49362">
        <ele>720</ele>
        <time>2021-08-20T17:51:44Z</time>
      </trkpt>
      <trkpt lat="42.76954" lon="1.49392">
        <ele>719</ele>
        <time>2021-08-20T17:51:49Z</time>
      </trkpt>
      <trkpt lat="42.76949" lon="1.49414">
        <ele>719</ele>
        <time>2021-08-20T17:51:52Z</time>
      </trkpt>
      <trkpt lat="42.76932" lon="1.49509">
        <ele>717</ele>
        <time>2021-08-20T17:52:04Z</time>
      </trkpt>
      <trkpt lat="42.76918" lon="1.49563">
        <ele>715</ele>
        <time>2021-08-20T17:52:12Z</time>
      </trkpt>
      <trkpt lat="42.76919" lon="1.49577">
        <ele>715</ele>
        <time>2021-08-20T17:52:14Z</time>
      </trkpt>
      <trkpt lat="42.7693" lon="1.49626">
        <ele>715</ele>
        <time>2021-08-20T17:52:20Z</time>
      </trkpt>
      <trkpt lat="42.76931" lon="1.49644">
        <ele>715</ele>
        <time>2021-08-20T17:52:23Z</time>
      </trkpt>
      <trkpt lat="42.76919" lon="1.49723">
        <ele>714</ele>
        <time>2021-08-20T17:52:33Z</time>
      </trkpt>
      <trkpt lat="42.76914" lon="1.49743">
        <ele>714</ele>
        <time>2021-08-20T17:52:36Z</time>
      </trkpt>
      <trkpt lat="42.76864" lon="1.49868">
        <ele>713</ele>
        <time>2021-08-20T17:52:55Z</time>
      </trkpt>
      <trkpt lat="42.76853" lon="1.49905">
        <ele>713</ele>
        <time>2021-08-20T17:53:00Z</time>
      </trkpt>
      <trkpt lat="42.76829" lon="1.50017">
        <ele>712</ele>
        <time>2021-08-20T17:53:15Z</time>
      </trkpt>
      <trkpt lat="42.76821" lon="1.5004">
        <ele>714</ele>
        <time>2021-08-20T17:53:18Z</time>
      </trkpt>
      <trkpt lat="42.76814" lon="1.50045">
        <ele>715</ele>
        <time>2021-08-20T17:53:20Z</time>
      </trkpt>
      <trkpt lat="42.76788" lon="1.50047">
        <ele>722</ele>
        <time>2021-08-20T17:53:24Z</time>
      </trkpt>
      <trkpt lat="42.76784" lon="1.50049">
        <ele>723</ele>
        <time>2021-08-20T17:53:25Z</time>
      </trkpt>
      <trkpt lat="42.7678" lon="1.50055">
        <ele>724</ele>
        <time>2021-08-20T17:53:26Z</time>
      </trkpt>
      <trkpt lat="42.76769" lon="1.50095">
        <ele>724</ele>
        <time>2021-08-20T17:53:32Z</time>
      </trkpt>
      <trkpt lat="42.76767" lon="1.50118">
        <ele>725</ele>
        <time>2021-08-20T17:53:35Z</time>
      </trkpt>
      <trkpt lat="42.76769" lon="1.50139">
        <ele>725</ele>
        <time>2021-08-20T17:53:38Z</time>
      </trkpt>
      <trkpt lat="42.76777" lon="1.50176">
        <ele>725</ele>
        <time>2021-08-20T17:53:43Z</time>
      </trkpt>
      <trkpt lat="42.76785" lon="1.50196">
        <ele>724</ele>
        <time>2021-08-20T17:53:46Z</time>
      </trkpt>
      <trkpt lat="42.76797" lon="1.50219">
        <ele>722</ele>
        <time>2021-08-20T17:53:49Z</time>
      </trkpt>
      <trkpt lat="42.7682" lon="1.50255">
        <ele>716</ele>
        <time>2021-08-20T17:53:56Z</time>
      </trkpt>
      <trkpt lat="42.76852" lon="1.50295">
        <ele>714</ele>
        <time>2021-08-20T17:54:03Z</time>
      </trkpt>
      <trkpt lat="42.76962" lon="1.50408">
        <ele>704</ele>
        <time>2021-08-20T17:54:28Z</time>
      </trkpt>
      <trkpt lat="42.77058" lon="1.50512">
        <ele>701</ele>
        <time>2021-08-20T17:54:50Z</time>
      </trkpt>
      <trkpt lat="42.77074" lon="1.50532">
        <ele>701</ele>
        <time>2021-08-20T17:54:54Z</time>
      </trkpt>
      <trkpt lat="42.77087" lon="1.50551">
        <ele>701</ele>
        <time>2021-08-20T17:54:57Z</time>
      </trkpt>
      <trkpt lat="42.77098" lon="1.50575">
        <ele>701</ele>
        <time>2021-08-20T17:55:01Z</time>
      </trkpt>
      <trkpt lat="42.77113" lon="1.50614">
        <ele>702</ele>
        <time>2021-08-20T17:55:06Z</time>
      </trkpt>
      <trkpt lat="42.77284" lon="1.51122">
        <ele>712</ele>
        <time>2021-08-20T17:56:19Z</time>
      </trkpt>
      <trkpt lat="42.77291" lon="1.5114">
        <ele>713</ele>
        <time>2021-08-20T17:56:22Z</time>
      </trkpt>
      <trkpt lat="42.77299" lon="1.51155">
        <ele>713</ele>
        <time>2021-08-20T17:56:24Z</time>
      </trkpt>
      <trkpt lat="42.7734" lon="1.51221">
        <ele>708</ele>
        <time>2021-08-20T17:56:36Z</time>
      </trkpt>
      <trkpt lat="42.77431" lon="1.51327">
        <ele>702</ele>
        <time>2021-08-20T17:56:57Z</time>
      </trkpt>
      <trkpt lat="42.77449" lon="1.51357">
        <ele>703</ele>
        <time>2021-08-20T17:57:02Z</time>
      </trkpt>
      <trkpt lat="42.77465" lon="1.51392">
        <ele>703</ele>
        <time>2021-08-20T17:57:07Z</time>
      </trkpt>
      <trkpt lat="42.77472" lon="1.5142">
        <ele>704</ele>
        <time>2021-08-20T17:57:11Z</time>
      </trkpt>
      <trkpt lat="42.77477" lon="1.5145">
        <ele>703</ele>
        <time>2021-08-20T17:57:15Z</time>
      </trkpt>
      <trkpt lat="42.77483" lon="1.51548">
        <ele>699</ele>
        <time>2021-08-20T17:57:28Z</time>
      </trkpt>
      <trkpt lat="42.77485" lon="1.51576">
        <ele>698</ele>
        <time>2021-08-20T17:57:32Z</time>
      </trkpt>
      <trkpt lat="42.77493" lon="1.51756">
        <ele>695</ele>
        <time>2021-08-20T17:57:55Z</time>
      </trkpt>
      <trkpt lat="42.77507" lon="1.51878">
        <ele>700</ele>
        <time>2021-08-20T17:58:12Z</time>
      </trkpt>
      <trkpt lat="42.77518" lon="1.51925">
        <ele>702</ele>
        <time>2021-08-20T17:58:18Z</time>
      </trkpt>
      <trkpt lat="42.77529" lon="1.51966">
        <ele>703</ele>
        <time>2021-08-20T17:58:24Z</time>
      </trkpt>
      <trkpt lat="42.77548" lon="1.52002">
        <ele>699</ele>
        <time>2021-08-20T17:58:30Z</time>
      </trkpt>
      <trkpt lat="42.77588" lon="1.52071">
        <ele>694</ele>
        <time>2021-08-20T17:58:41Z</time>
      </trkpt>
      <trkpt lat="42.77606" lon="1.5211">
        <ele>695</ele>
        <time>2021-08-20T17:58:47Z</time>
      </trkpt>
      <trkpt lat="42.77707" lon="1.52351">
        <ele>685</ele>
        <time>2021-08-20T17:59:23Z</time>
      </trkpt>
      <trkpt lat="42.77894" lon="1.52874">
        <ele>690</ele>
        <time>2021-08-20T18:00:39Z</time>
      </trkpt>
      <trkpt lat="42.77915" lon="1.52946">
        <ele>686</ele>
        <time>2021-08-20T18:00:49Z</time>
      </trkpt>
      <trkpt lat="42.77928" lon="1.53016">
        <ele>688</ele>
        <time>2021-08-20T18:00:59Z</time>
      </trkpt>
      <trkpt lat="42.77964" lon="1.53218">
        <ele>690</ele>
        <time>2021-08-20T18:01:26Z</time>
      </trkpt>
      <trkpt lat="42.77985" lon="1.53381">
        <ele>686</ele>
        <time>2021-08-20T18:01:48Z</time>
      </trkpt>
      <trkpt lat="42.78003" lon="1.53476">
        <ele>684</ele>
        <time>2021-08-20T18:02:00Z</time>
      </trkpt>
      <trkpt lat="42.78051" lon="1.53672">
        <ele>684</ele>
        <time>2021-08-20T18:02:27Z</time>
      </trkpt>
      <trkpt lat="42.78069" lon="1.53722">
        <ele>681</ele>
        <time>2021-08-20T18:02:35Z</time>
      </trkpt>
      <trkpt lat="42.78117" lon="1.53837">
        <ele>678</ele>
        <time>2021-08-20T18:02:52Z</time>
      </trkpt>
      <trkpt lat="42.78138" lon="1.53904">
        <ele>679</ele>
        <time>2021-08-20T18:03:01Z</time>
      </trkpt>
      <trkpt lat="42.78156" lon="1.53999">
        <ele>677</ele>
        <time>2021-08-20T18:03:14Z</time>
      </trkpt>
      <trkpt lat="42.78163" lon="1.5409">
        <ele>680</ele>
        <time>2021-08-20T18:03:26Z</time>
      </trkpt>
      <trkpt lat="42.78169" lon="1.54121">
        <ele>683</ele>
        <time>2021-08-20T18:03:30Z</time>
      </trkpt>
      <trkpt lat="42.78176" lon="1.54139">
        <ele>684</ele>
        <time>2021-08-20T18:03:33Z</time>
      </trkpt>
      <trkpt lat="42.78208" lon="1.54206">
        <ele>682</ele>
        <time>2021-08-20T18:03:43Z</time>
      </trkpt>
      <trkpt lat="42.78228" lon="1.54257">
        <ele>678</ele>
        <time>2021-08-20T18:03:51Z</time>
      </trkpt>
      <trkpt lat="42.7827" lon="1.54393">
        <ele>678</ele>
        <time>2021-08-20T18:04:10Z</time>
      </trkpt>
      <trkpt lat="42.78283" lon="1.54421">
        <ele>677</ele>
        <time>2021-08-20T18:04:15Z</time>
      </trkpt>
      <trkpt lat="42.78319" lon="1.54487">
        <ele>669</ele>
        <time>2021-08-20T18:04:25Z</time>
      </trkpt>
      <trkpt lat="42.78349" lon="1.54565">
        <ele>660</ele>
        <time>2021-08-20T18:04:37Z</time>
      </trkpt>
      <trkpt lat="42.78371" lon="1.5461">
        <ele>658</ele>
        <time>2021-08-20T18:04:44Z</time>
      </trkpt>
      <trkpt lat="42.78399" lon="1.5466">
        <ele>655</ele>
        <time>2021-08-20T18:04:52Z</time>
      </trkpt>
      <trkpt lat="42.78413" lon="1.5469">
        <ele>653</ele>
        <time>2021-08-20T18:04:57Z</time>
      </trkpt>
      <trkpt lat="42.78434" lon="1.54742">
        <ele>654</ele>
        <time>2021-08-20T18:05:04Z</time>
      </trkpt>
      <trkpt lat="42.7844" lon="1.54767">
        <ele>654</ele>
        <time>2021-08-20T18:05:08Z</time>
      </trkpt>
      <trkpt lat="42.78446" lon="1.54799">
        <ele>653</ele>
        <time>2021-08-20T18:05:12Z</time>
      </trkpt>
      <trkpt lat="42.78446" lon="1.5483">
        <ele>653</ele>
        <time>2021-08-20T18:05:16Z</time>
      </trkpt>
      <trkpt lat="42.78384" lon="1.55644">
        <ele>647</ele>
        <time>2021-08-20T18:07:03Z</time>
      </trkpt>
      <trkpt lat="42.78383" lon="1.55674">
        <ele>646</ele>
        <time>2021-08-20T18:07:07Z</time>
      </trkpt>
      <trkpt lat="42.78386" lon="1.55705">
        <ele>644</ele>
        <time>2021-08-20T18:07:11Z</time>
      </trkpt>
      <trkpt lat="42.78393" lon="1.55741">
        <ele>642</ele>
        <time>2021-08-20T18:07:16Z</time>
      </trkpt>
      <trkpt lat="42.78411" lon="1.55821">
        <ele>640</ele>
        <time>2021-08-20T18:07:27Z</time>
      </trkpt>
      <trkpt lat="42.78413" lon="1.5584">
        <ele>639</ele>
        <time>2021-08-20T18:07:29Z</time>
      </trkpt>
      <trkpt lat="42.78404" lon="1.55951">
        <ele>638</ele>
        <time>2021-08-20T18:07:44Z</time>
      </trkpt>
      <trkpt lat="42.78405" lon="1.55965">
        <ele>637</ele>
        <time>2021-08-20T18:07:46Z</time>
      </trkpt>
      <trkpt lat="42.78408" lon="1.55983">
        <ele>636</ele>
        <time>2021-08-20T18:07:48Z</time>
      </trkpt>
      <trkpt lat="42.78413" lon="1.55996">
        <ele>634</ele>
        <time>2021-08-20T18:07:50Z</time>
      </trkpt>
      <trkpt lat="42.78422" lon="1.56013">
        <ele>634</ele>
        <time>2021-08-20T18:07:53Z</time>
      </trkpt>
      <trkpt lat="42.7843" lon="1.56022">
        <ele>635</ele>
        <time>2021-08-20T18:07:55Z</time>
      </trkpt>
      <trkpt lat="42.78441" lon="1.56031">
        <ele>635</ele>
        <time>2021-08-20T18:07:57Z</time>
      </trkpt>
      <trkpt lat="42.78462" lon="1.56042">
        <ele>635</ele>
        <time>2021-08-20T18:08:01Z</time>
      </trkpt>
      <trkpt lat="42.78496" lon="1.56057">
        <ele>634</ele>
        <time>2021-08-20T18:08:07Z</time>
      </trkpt>
      <trkpt lat="42.78512" lon="1.56068">
        <ele>634</ele>
        <time>2021-08-20T18:08:11Z</time>
      </trkpt>
      <trkpt lat="42.78522" lon="1.5608">
        <ele>634</ele>
        <time>2021-08-20T18:08:13Z</time>
      </trkpt>
      <trkpt lat="42.78588" lon="1.56218">
        <ele>630</ele>
        <time>2021-08-20T18:08:34Z</time>
      </trkpt>
      <trkpt lat="42.78829" lon="1.56728">
        <ele>620</ele>
        <time>2021-08-20T18:09:54Z</time>
      </trkpt>
      <trkpt lat="42.78935" lon="1.56959">
        <ele>611</ele>
        <time>2021-08-20T18:10:29Z</time>
      </trkpt>
      <trkpt lat="42.78947" lon="1.56996">
        <ele>611</ele>
        <time>2021-08-20T18:10:35Z</time>
      </trkpt>
      <trkpt lat="42.78971" lon="1.57134">
        <ele>612</ele>
        <time>2021-08-20T18:10:53Z</time>
      </trkpt>
      <trkpt lat="42.79" lon="1.57286">
        <ele>608</ele>
        <time>2021-08-20T18:11:14Z</time>
      </trkpt>
      <trkpt lat="42.7901" lon="1.57327">
        <ele>610</ele>
        <time>2021-08-20T18:11:19Z</time>
      </trkpt>
      <trkpt lat="42.79019" lon="1.57355">
        <ele>610</ele>
        <time>2021-08-20T18:11:23Z</time>
      </trkpt>
      <trkpt lat="42.7903" lon="1.57371">
        <ele>609</ele>
        <time>2021-08-20T18:11:26Z</time>
      </trkpt>
      <trkpt lat="42.7905" lon="1.57392">
        <ele>604</ele>
        <time>2021-08-20T18:11:31Z</time>
      </trkpt>
      <trkpt lat="42.79062" lon="1.57409">
        <ele>601</ele>
        <time>2021-08-20T18:11:34Z</time>
      </trkpt>
      <trkpt lat="42.79073" lon="1.57437">
        <ele>601</ele>
        <time>2021-08-20T18:11:38Z</time>
      </trkpt>
      <trkpt lat="42.79146" lon="1.57643">
        <ele>601</ele>
        <time>2021-08-20T18:12:08Z</time>
      </trkpt>
      <trkpt lat="42.79185" lon="1.57748">
        <ele>599</ele>
        <time>2021-08-20T18:12:23Z</time>
      </trkpt>
      <trkpt lat="42.79263" lon="1.57965">
        <ele>596</ele>
        <time>2021-08-20T18:12:55Z</time>
      </trkpt>
      <trkpt lat="42.7932" lon="1.5812">
        <ele>595</ele>
        <time>2021-08-20T18:13:17Z</time>
      </trkpt>
      <trkpt lat="42.79382" lon="1.58285">
        <ele>593</ele>
        <time>2021-08-20T18:13:41Z</time>
      </trkpt>
      <trkpt lat="42.7939" lon="1.58301">
        <ele>593</ele>
        <time>2021-08-20T18:13:44Z</time>
      </trkpt>
      <trkpt lat="42.79406" lon="1.5832">
        <ele>593</ele>
        <time>2021-08-20T18:13:48Z</time>
      </trkpt>
      <trkpt lat="42.79468" lon="1.58384">
        <ele>592</ele>
        <time>2021-08-20T18:14:02Z</time>
      </trkpt>
      <trkpt lat="42.79487" lon="1.5841">
        <ele>593</ele>
        <time>2021-08-20T18:14:06Z</time>
      </trkpt>
      <trkpt lat="42.79513" lon="1.58478">
        <ele>594</ele>
        <time>2021-08-20T18:14:16Z</time>
      </trkpt>
      <trkpt lat="42.79531" lon="1.58502">
        <ele>594</ele>
        <time>2021-08-20T18:14:21Z</time>
      </trkpt>
      <trkpt lat="42.79538" lon="1.58509">
        <ele>594</ele>
        <time>2021-08-20T18:14:22Z</time>
      </trkpt>
      <trkpt lat="42.79605" lon="1.58551">
        <ele>593</ele>
        <time>2021-08-20T18:14:36Z</time>
      </trkpt>
      <trkpt lat="42.79623" lon="1.58561">
        <ele>593</ele>
        <time>2021-08-20T18:14:39Z</time>
      </trkpt>
      <trkpt lat="42.79625" lon="1.58562">
        <ele>593</ele>
        <time>2021-08-20T18:14:39Z</time>
      </trkpt>
      <trkpt lat="42.79652" lon="1.58574">
        <ele>593</ele>
        <time>2021-08-20T18:14:44Z</time>
      </trkpt>
      <trkpt lat="42.79667" lon="1.58583">
        <ele>593</ele>
        <time>2021-08-20T18:14:47Z</time>
      </trkpt>
      <trkpt lat="42.79709" lon="1.58609">
        <ele>590</ele>
        <time>2021-08-20T18:14:56Z</time>
      </trkpt>
      <trkpt lat="42.79729" lon="1.58622">
        <ele>588</ele>
        <time>2021-08-20T18:14:59Z</time>
      </trkpt>
      <trkpt lat="42.79748" lon="1.58636">
        <ele>586</ele>
        <time>2021-08-20T18:15:03Z</time>
      </trkpt>
      <trkpt lat="42.79764" lon="1.58652">
        <ele>585</ele>
        <time>2021-08-20T18:15:07Z</time>
      </trkpt>
      <trkpt lat="42.79782" lon="1.58675">
        <ele>585</ele>
        <time>2021-08-20T18:15:11Z</time>
      </trkpt>
      <trkpt lat="42.79842" lon="1.58757">
        <ele>590</ele>
        <time>2021-08-20T18:15:26Z</time>
      </trkpt>
      <trkpt lat="42.79861" lon="1.58775">
        <ele>591</ele>
        <time>2021-08-20T18:15:30Z</time>
      </trkpt>
      <trkpt lat="42.79871" lon="1.58785">
        <ele>591</ele>
        <time>2021-08-20T18:15:33Z</time>
      </trkpt>
      <trkpt lat="42.7993" lon="1.58825">
        <ele>583</ele>
        <time>2021-08-20T18:15:44Z</time>
      </trkpt>
      <trkpt lat="42.79963" lon="1.58842">
        <ele>581</ele>
        <time>2021-08-20T18:15:51Z</time>
      </trkpt>
      <trkpt lat="42.80131" lon="1.58909">
        <ele>574</ele>
        <time>2021-08-20T18:16:22Z</time>
      </trkpt>
      <trkpt lat="42.80166" lon="1.58924">
        <ele>573</ele>
        <time>2021-08-20T18:16:28Z</time>
      </trkpt>
      <trkpt lat="42.80168" lon="1.58925">
        <ele>573</ele>
        <time>2021-08-20T18:16:29Z</time>
      </trkpt>
      <trkpt lat="42.80249" lon="1.58953">
        <ele>577</ele>
        <time>2021-08-20T18:16:44Z</time>
      </trkpt>
      <trkpt lat="42.8042" lon="1.59">
        <ele>577</ele>
        <time>2021-08-20T18:17:15Z</time>
      </trkpt>
      <trkpt lat="42.80448" lon="1.59012">
        <ele>576</ele>
        <time>2021-08-20T18:17:20Z</time>
      </trkpt>
      <trkpt lat="42.80547" lon="1.59071">
        <ele>571</ele>
        <time>2021-08-20T18:17:39Z</time>
      </trkpt>
      <trkpt lat="42.80565" lon="1.59079">
        <ele>569</ele>
        <time>2021-08-20T18:17:42Z</time>
      </trkpt>
      <trkpt lat="42.80611" lon="1.59091">
        <ele>566</ele>
        <time>2021-08-20T18:17:51Z</time>
      </trkpt>
      <trkpt lat="42.80635" lon="1.59093">
        <ele>565</ele>
        <time>2021-08-20T18:17:55Z</time>
      </trkpt>
      <trkpt lat="42.80663" lon="1.59093">
        <ele>563</ele>
        <time>2021-08-20T18:18:00Z</time>
      </trkpt>
      <trkpt lat="42.80694" lon="1.59087">
        <ele>562</ele>
        <time>2021-08-20T18:18:06Z</time>
      </trkpt>
      <trkpt lat="42.80728" lon="1.59073">
        <ele>561</ele>
        <time>2021-08-20T18:18:12Z</time>
      </trkpt>
      <trkpt lat="42.80738" lon="1.59067">
        <ele>561</ele>
        <time>2021-08-20T18:18:14Z</time>
      </trkpt>
      <trkpt lat="42.80792" lon="1.5902">
        <ele>558</ele>
        <time>2021-08-20T18:18:25Z</time>
      </trkpt>
      <trkpt lat="42.808" lon="1.59016">
        <ele>558</ele>
        <time>2021-08-20T18:18:27Z</time>
      </trkpt>
      <trkpt lat="42.80809" lon="1.59014">
        <ele>559</ele>
        <time>2021-08-20T18:18:28Z</time>
      </trkpt>
      <trkpt lat="42.80826" lon="1.59014">
        <ele>559</ele>
        <time>2021-08-20T18:18:31Z</time>
      </trkpt>
      <trkpt lat="42.80922" lon="1.5906">
        <ele>559</ele>
        <time>2021-08-20T18:18:50Z</time>
      </trkpt>
      <trkpt lat="42.80936" lon="1.59066">
        <ele>558</ele>
        <time>2021-08-20T18:18:52Z</time>
      </trkpt>
      <trkpt lat="42.80949" lon="1.59071">
        <ele>558</ele>
        <time>2021-08-20T18:18:55Z</time>
      </trkpt>
      <trkpt lat="42.81016" lon="1.59095">
        <ele>555</ele>
        <time>2021-08-20T18:19:07Z</time>
      </trkpt>
      <trkpt lat="42.81048" lon="1.59101">
        <ele>553</ele>
        <time>2021-08-20T18:19:13Z</time>
      </trkpt>
      <trkpt lat="42.81159" lon="1.59117">
        <ele>550</ele>
        <time>2021-08-20T18:19:33Z</time>
      </trkpt>
      <trkpt lat="42.81184" lon="1.59121">
        <ele>550</ele>
        <time>2021-08-20T18:19:37Z</time>
      </trkpt>
      <trkpt lat="42.81265" lon="1.59133">
        <ele>550</ele>
        <time>2021-08-20T18:19:51Z</time>
      </trkpt>
      <trkpt lat="42.81403" lon="1.59154">
        <ele>551</ele>
        <time>2021-08-20T18:20:16Z</time>
      </trkpt>
      <trkpt lat="42.81472" lon="1.59165">
        <ele>551</ele>
        <time>2021-08-20T18:20:29Z</time>
      </trkpt>
      <trkpt lat="42.81509" lon="1.59169">
        <ele>551</ele>
        <time>2021-08-20T18:20:35Z</time>
      </trkpt>
      <trkpt lat="42.81531" lon="1.59169">
        <ele>550</ele>
        <time>2021-08-20T18:20:39Z</time>
      </trkpt>
      <trkpt lat="42.81628" lon="1.59165">
        <ele>546</ele>
        <time>2021-08-20T18:20:56Z</time>
      </trkpt>
      <trkpt lat="42.81696" lon="1.59162">
        <ele>546</ele>
        <time>2021-08-20T18:21:08Z</time>
      </trkpt>
      <trkpt lat="42.81745" lon="1.59158">
        <ele>548</ele>
        <time>2021-08-20T18:21:17Z</time>
      </trkpt>
      <trkpt lat="42.81766" lon="1.59155">
        <ele>550</ele>
        <time>2021-08-20T18:21:21Z</time>
      </trkpt>
      <trkpt lat="42.81806" lon="1.59146">
        <ele>553</ele>
        <time>2021-08-20T18:21:28Z</time>
      </trkpt>
      <trkpt lat="42.81956" lon="1.59088">
        <ele>551</ele>
        <time>2021-08-20T18:21:56Z</time>
      </trkpt>
      <trkpt lat="42.82091" lon="1.59042">
        <ele>554</ele>
        <time>2021-08-20T18:22:21Z</time>
      </trkpt>
      <trkpt lat="42.82104" lon="1.59037">
        <ele>553</ele>
        <time>2021-08-20T18:22:23Z</time>
      </trkpt>
      <trkpt lat="42.82133" lon="1.5903">
        <ele>552</ele>
        <time>2021-08-20T18:22:28Z</time>
      </trkpt>
      <trkpt lat="42.82157" lon="1.59029">
        <ele>553</ele>
        <time>2021-08-20T18:22:33Z</time>
      </trkpt>
      <trkpt lat="42.82187" lon="1.59031">
        <ele>553</ele>
        <time>2021-08-20T18:22:38Z</time>
      </trkpt>
      <trkpt lat="42.82256" lon="1.59041">
        <ele>553</ele>
        <time>2021-08-20T18:22:50Z</time>
      </trkpt>
      <trkpt lat="42.82283" lon="1.5905">
        <ele>552</ele>
        <time>2021-08-20T18:22:55Z</time>
      </trkpt>
      <trkpt lat="42.8232" lon="1.59068">
        <ele>549</ele>
        <time>2021-08-20T18:23:02Z</time>
      </trkpt>
      <trkpt lat="42.82402" lon="1.59115">
        <ele>549</ele>
        <time>2021-08-20T18:23:18Z</time>
      </trkpt>
      <trkpt lat="42.82425" lon="1.59121">
        <ele>547</ele>
        <time>2021-08-20T18:23:22Z</time>
      </trkpt>
      <trkpt lat="42.82474" lon="1.59127">
        <ele>543</ele>
        <time>2021-08-20T18:23:31Z</time>
      </trkpt>
      <trkpt lat="42.82619" lon="1.59138">
        <ele>537</ele>
        <time>2021-08-20T18:23:57Z</time>
      </trkpt>
      <trkpt lat="42.82696" lon="1.59147">
        <ele>537</ele>
        <time>2021-08-20T18:24:11Z</time>
      </trkpt>
      <trkpt lat="42.82738" lon="1.59148">
        <ele>538</ele>
        <time>2021-08-20T18:24:18Z</time>
      </trkpt>
      <trkpt lat="42.82776" lon="1.59146">
        <ele>538</ele>
        <time>2021-08-20T18:24:25Z</time>
      </trkpt>
      <trkpt lat="42.82811" lon="1.59141">
        <ele>538</ele>
        <time>2021-08-20T18:24:31Z</time>
      </trkpt>
      <trkpt lat="42.82846" lon="1.59134">
        <ele>537</ele>
        <time>2021-08-20T18:24:37Z</time>
      </trkpt>
      <trkpt lat="42.82892" lon="1.59119">
        <ele>533</ele>
        <time>2021-08-20T18:24:46Z</time>
      </trkpt>
      <trkpt lat="42.82911" lon="1.59116">
        <ele>533</ele>
        <time>2021-08-20T18:24:49Z</time>
      </trkpt>
      <trkpt lat="42.82933" lon="1.59118">
        <ele>532</ele>
        <time>2021-08-20T18:24:53Z</time>
      </trkpt>
      <trkpt lat="42.82955" lon="1.59126">
        <ele>532</ele>
        <time>2021-08-20T18:24:57Z</time>
      </trkpt>
      <trkpt lat="42.82976" lon="1.5914">
        <ele>531</ele>
        <time>2021-08-20T18:25:01Z</time>
      </trkpt>
      <trkpt lat="42.82996" lon="1.59159">
        <ele>529</ele>
        <time>2021-08-20T18:25:06Z</time>
      </trkpt>
      <trkpt lat="42.8301" lon="1.59181">
        <ele>531</ele>
        <time>2021-08-20T18:25:09Z</time>
      </trkpt>
      <trkpt lat="42.83062" lon="1.59293">
        <ele>537</ele>
        <time>2021-08-20T18:25:27Z</time>
      </trkpt>
      <trkpt lat="42.83071" lon="1.59305">
        <ele>535</ele>
        <time>2021-08-20T18:25:29Z</time>
      </trkpt>
      <trkpt lat="42.83085" lon="1.59316">
        <ele>532</ele>
        <time>2021-08-20T18:25:32Z</time>
      </trkpt>
      <trkpt lat="42.83128" lon="1.59336">
        <ele>526</ele>
        <time>2021-08-20T18:25:40Z</time>
      </trkpt>
      <trkpt lat="42.83147" lon="1.59348">
        <ele>524</ele>
        <time>2021-08-20T18:25:44Z</time>
      </trkpt>
      <trkpt lat="42.83164" lon="1.59363">
        <ele>523</ele>
        <time>2021-08-20T18:25:47Z</time>
      </trkpt>
      <trkpt lat="42.83218" lon="1.59434">
        <ele>523</ele>
        <time>2021-08-20T18:26:01Z</time>
      </trkpt>
      <trkpt lat="42.83234" lon="1.59461">
        <ele>522</ele>
        <time>2021-08-20T18:26:05Z</time>
      </trkpt>
      <trkpt lat="42.83276" lon="1.59541">
        <ele>528</ele>
        <time>2021-08-20T18:26:18Z</time>
      </trkpt>
      <trkpt lat="42.83281" lon="1.59553">
        <ele>529</ele>
        <time>2021-08-20T18:26:20Z</time>
      </trkpt>
      <trkpt lat="42.83291" lon="1.59588">
        <ele>533</ele>
        <time>2021-08-20T18:26:25Z</time>
      </trkpt>
      <trkpt lat="42.83298" lon="1.59601">
        <ele>531</ele>
        <time>2021-08-20T18:26:27Z</time>
      </trkpt>
      <trkpt lat="42.83316" lon="1.59624">
        <ele>524</ele>
        <time>2021-08-20T18:26:31Z</time>
      </trkpt>
      <trkpt lat="42.83322" lon="1.59633">
        <ele>522</ele>
        <time>2021-08-20T18:26:33Z</time>
      </trkpt>
      <trkpt lat="42.83329" lon="1.59651">
        <ele>520</ele>
        <time>2021-08-20T18:26:35Z</time>
      </trkpt>
      <trkpt lat="42.83345" lon="1.59717">
        <ele>519</ele>
        <time>2021-08-20T18:26:44Z</time>
      </trkpt>
      <trkpt lat="42.83364" lon="1.5981">
        <ele>514</ele>
        <time>2021-08-20T18:26:57Z</time>
      </trkpt>
      <trkpt lat="42.83371" lon="1.59836">
        <ele>513</ele>
        <time>2021-08-20T18:27:01Z</time>
      </trkpt>
      <trkpt lat="42.83381" lon="1.59865">
        <ele>511</ele>
        <time>2021-08-20T18:27:05Z</time>
      </trkpt>
      <trkpt lat="42.83471" lon="1.60048">
        <ele>504</ele>
        <time>2021-08-20T18:27:34Z</time>
      </trkpt>
      <trkpt lat="42.835" lon="1.60094">
        <ele>505</ele>
        <time>2021-08-20T18:27:42Z</time>
      </trkpt>
      <trkpt lat="42.83527" lon="1.60125">
        <ele>506</ele>
        <time>2021-08-20T18:27:48Z</time>
      </trkpt>
      <trkpt lat="42.83559" lon="1.60157">
        <ele>505</ele>
        <time>2021-08-20T18:27:55Z</time>
      </trkpt>
      <trkpt lat="42.83607" lon="1.60204">
        <ele>500</ele>
        <time>2021-08-20T18:28:05Z</time>
      </trkpt>
      <trkpt lat="42.83627" lon="1.6023">
        <ele>498</ele>
        <time>2021-08-20T18:28:10Z</time>
      </trkpt>
      <trkpt lat="42.83726" lon="1.60374">
        <ele>492</ele>
        <time>2021-08-20T18:28:36Z</time>
      </trkpt>
      <trkpt lat="42.83746" lon="1.60399">
        <ele>490</ele>
        <time>2021-08-20T18:28:41Z</time>
      </trkpt>
      <trkpt lat="42.83755" lon="1.6041">
        <ele>490</ele>
        <time>2021-08-20T18:28:43Z</time>
      </trkpt>
      <trkpt lat="42.83763" lon="1.6042">
        <ele>489</ele>
        <time>2021-08-20T18:28:45Z</time>
      </trkpt>
      <trkpt lat="42.83761" lon="1.60427">
        <ele>489</ele>
        <time>2021-08-20T18:28:46Z</time>
      </trkpt>
      <trkpt lat="42.83762" lon="1.60441">
        <ele>489</ele>
        <time>2021-08-20T18:28:48Z</time>
      </trkpt>
      <trkpt lat="42.83768" lon="1.60449">
        <ele>489</ele>
        <time>2021-08-20T18:28:49Z</time>
      </trkpt>
      <trkpt lat="42.83772" lon="1.60451">
        <ele>489</ele>
        <time>2021-08-20T18:28:50Z</time>
      </trkpt>
      <trkpt lat="42.83781" lon="1.6045">
        <ele>488</ele>
        <time>2021-08-20T18:28:52Z</time>
      </trkpt>
      <trkpt lat="42.83785" lon="1.60447">
        <ele>488</ele>
        <time>2021-08-20T18:28:52Z</time>
      </trkpt>
      <trkpt lat="42.83788" lon="1.60441">
        <ele>488</ele>
        <time>2021-08-20T18:28:53Z</time>
      </trkpt>
      <trkpt lat="42.83793" lon="1.6045">
        <ele>488</ele>
        <time>2021-08-20T18:28:55Z</time>
      </trkpt>
      <trkpt lat="42.83812" lon="1.6047">
        <ele>486</ele>
        <time>2021-08-20T18:28:59Z</time>
      </trkpt>
      <trkpt lat="42.83816" lon="1.60477">
        <ele>486</ele>
        <time>2021-08-20T18:29:00Z</time>
      </trkpt>
      <trkpt lat="42.83821" lon="1.60506">
        <ele>486</ele>
        <time>2021-08-20T18:29:04Z</time>
      </trkpt>
      <trkpt lat="42.83832" lon="1.60522">
        <ele>485</ele>
        <time>2021-08-20T18:29:07Z</time>
      </trkpt>
      <trkpt lat="42.83852" lon="1.60543">
        <ele>485</ele>
        <time>2021-08-20T18:29:12Z</time>
      </trkpt>
      <trkpt lat="42.83889" lon="1.60564">
        <ele>484</ele>
        <time>2021-08-20T18:29:19Z</time>
      </trkpt>
      <trkpt lat="42.83901" lon="1.60571">
        <ele>484</ele>
        <time>2021-08-20T18:29:21Z</time>
      </trkpt>
      <trkpt lat="42.83908" lon="1.60575">
        <ele>484</ele>
        <time>2021-08-20T18:29:22Z</time>
      </trkpt>
      <trkpt lat="42.83916" lon="1.60578">
        <ele>484</ele>
        <time>2021-08-20T18:29:24Z</time>
      </trkpt>
      <trkpt lat="42.83937" lon="1.60584">
        <ele>484</ele>
        <time>2021-08-20T18:29:28Z</time>
      </trkpt>
      <trkpt lat="42.83947" lon="1.60587">
        <ele>483</ele>
        <time>2021-08-20T18:29:29Z</time>
      </trkpt>
      <trkpt lat="42.83984" lon="1.60598">
        <ele>482</ele>
        <time>2021-08-20T18:29:36Z</time>
      </trkpt>
      <trkpt lat="42.83998" lon="1.60601">
        <ele>482</ele>
        <time>2021-08-20T18:29:39Z</time>
      </trkpt>
      <trkpt lat="42.84024" lon="1.60602">
        <ele>482</ele>
        <time>2021-08-20T18:29:43Z</time>
      </trkpt>
      <trkpt lat="42.84047" lon="1.606">
        <ele>482</ele>
        <time>2021-08-20T18:29:47Z</time>
      </trkpt>
      <trkpt lat="42.84087" lon="1.60591">
        <ele>482</ele>
        <time>2021-08-20T18:29:55Z</time>
      </trkpt>
      <trkpt lat="42.84095" lon="1.60588">
        <ele>482</ele>
        <time>2021-08-20T18:29:56Z</time>
      </trkpt>
      <trkpt lat="42.84105" lon="1.60585">
        <ele>482</ele>
        <time>2021-08-20T18:29:58Z</time>
      </trkpt>
      <trkpt lat="42.84116" lon="1.6058">
        <ele>482</ele>
        <time>2021-08-20T18:30:00Z</time>
      </trkpt>
      <trkpt lat="42.84135" lon="1.60565">
        <ele>481</ele>
        <time>2021-08-20T18:30:04Z</time>
      </trkpt>
      <trkpt lat="42.84154" lon="1.60553">
        <ele>480</ele>
        <time>2021-08-20T18:30:08Z</time>
      </trkpt>
      <trkpt lat="42.84173" lon="1.6054">
        <ele>480</ele>
        <time>2021-08-20T18:30:11Z</time>
      </trkpt>
      <trkpt lat="42.84265" lon="1.60495">
        <ele>479</ele>
        <time>2021-08-20T18:30:29Z</time>
      </trkpt>
      <trkpt lat="42.84281" lon="1.6049">
        <ele>478</ele>
        <time>2021-08-20T18:30:32Z</time>
      </trkpt>
      <trkpt lat="42.8429" lon="1.60488">
        <ele>478</ele>
        <time>2021-08-20T18:30:33Z</time>
      </trkpt>
      <trkpt lat="42.843" lon="1.60488">
        <ele>478</ele>
        <time>2021-08-20T18:30:35Z</time>
      </trkpt>
      <trkpt lat="42.84332" lon="1.60495">
        <ele>478</ele>
        <time>2021-08-20T18:30:41Z</time>
      </trkpt>
      <trkpt lat="42.8434" lon="1.60497">
        <ele>478</ele>
        <time>2021-08-20T18:30:42Z</time>
      </trkpt>
      <trkpt lat="42.84356" lon="1.60502">
        <ele>478</ele>
        <time>2021-08-20T18:30:45Z</time>
      </trkpt>
      <trkpt lat="42.84374" lon="1.6051">
        <ele>477</ele>
        <time>2021-08-20T18:30:49Z</time>
      </trkpt>
      <trkpt lat="42.84415" lon="1.60535">
        <ele>477</ele>
        <time>2021-08-20T18:30:57Z</time>
      </trkpt>
      <trkpt lat="42.84426" lon="1.60544">
        <ele>477</ele>
        <time>2021-08-20T18:30:59Z</time>
      </trkpt>
      <trkpt lat="42.84435" lon="1.60552">
        <ele>477</ele>
        <time>2021-08-20T18:31:01Z</time>
      </trkpt>
      <trkpt lat="42.84463" lon="1.60583">
        <ele>476</ele>
        <time>2021-08-20T18:31:07Z</time>
      </trkpt>
      <trkpt lat="42.84472" lon="1.60599">
        <ele>477</ele>
        <time>2021-08-20T18:31:10Z</time>
      </trkpt>
      <trkpt lat="42.84477" lon="1.60607">
        <ele>477</ele>
        <time>2021-08-20T18:31:11Z</time>
      </trkpt>
      <trkpt lat="42.84475" lon="1.60609">
        <ele>477</ele>
        <time>2021-08-20T18:31:12Z</time>
      </trkpt>
      <trkpt lat="42.84474" lon="1.60614">
        <ele>477</ele>
        <time>2021-08-20T18:31:12Z</time>
      </trkpt>
      <trkpt lat="42.84474" lon="1.60619">
        <ele>478</ele>
        <time>2021-08-20T18:31:13Z</time>
      </trkpt>
      <trkpt lat="42.84476" lon="1.60624">
        <ele>478</ele>
        <time>2021-08-20T18:31:14Z</time>
      </trkpt>
      <trkpt lat="42.8448" lon="1.60626">
        <ele>478</ele>
        <time>2021-08-20T18:31:15Z</time>
      </trkpt>
      <trkpt lat="42.84485" lon="1.60626">
        <ele>478</ele>
        <time>2021-08-20T18:31:15Z</time>
      </trkpt>
      <trkpt lat="42.84488" lon="1.60623">
        <ele>478</ele>
        <time>2021-08-20T18:31:16Z</time>
      </trkpt>
      <trkpt lat="42.84489" lon="1.60617">
        <ele>478</ele>
        <time>2021-08-20T18:31:17Z</time>
      </trkpt>
      <trkpt lat="42.84489" lon="1.60613">
        <ele>477</ele>
        <time>2021-08-20T18:31:17Z</time>
      </trkpt>
      <trkpt lat="42.84502" lon="1.60609">
        <ele>477</ele>
        <time>2021-08-20T18:31:20Z</time>
      </trkpt>
      <trkpt lat="42.84512" lon="1.60601">
        <ele>477</ele>
        <time>2021-08-20T18:31:22Z</time>
      </trkpt>
      <trkpt lat="42.84528" lon="1.60589">
        <ele>476</ele>
        <time>2021-08-20T18:31:25Z</time>
      </trkpt>
      <trkpt lat="42.84552" lon="1.60575">
        <ele>476</ele>
        <time>2021-08-20T18:31:30Z</time>
      </trkpt>
      <trkpt lat="42.84582" lon="1.60557">
        <ele>477</ele>
        <time>2021-08-20T18:31:36Z</time>
      </trkpt>
      <trkpt lat="42.8459" lon="1.60548">
        <ele>477</ele>
        <time>2021-08-20T18:31:37Z</time>
      </trkpt>
      <trkpt lat="42.84605" lon="1.60544">
        <ele>478</ele>
        <time>2021-08-20T18:31:40Z</time>
      </trkpt>
      <trkpt lat="42.84632" lon="1.60536">
        <ele>479</ele>
        <time>2021-08-20T18:31:45Z</time>
      </trkpt>
      <trkpt lat="42.84643" lon="1.60531">
        <ele>480</ele>
        <time>2021-08-20T18:31:47Z</time>
      </trkpt>
      <trkpt lat="42.8466" lon="1.6052">
        <ele>480</ele>
        <time>2021-08-20T18:31:50Z</time>
      </trkpt>
      <trkpt lat="42.84678" lon="1.60508">
        <ele>480</ele>
        <time>2021-08-20T18:31:54Z</time>
      </trkpt>
      <trkpt lat="42.8469" lon="1.60504">
        <ele>479</ele>
        <time>2021-08-20T18:31:56Z</time>
      </trkpt>
      <trkpt lat="42.84691" lon="1.60507">
        <ele>479</ele>
        <time>2021-08-20T18:31:57Z</time>
      </trkpt>
      <trkpt lat="42.84709" lon="1.60556">
        <ele>480</ele>
        <time>2021-08-20T18:32:04Z</time>
      </trkpt>
      <trkpt lat="42.8471" lon="1.60559">
        <ele>480</ele>
        <time>2021-08-20T18:32:04Z</time>
      </trkpt>
      <trkpt lat="42.84716" lon="1.60574">
        <ele>480</ele>
        <time>2021-08-20T18:32:06Z</time>
      </trkpt>
      <trkpt lat="42.84721" lon="1.60581">
        <ele>480</ele>
        <time>2021-08-20T18:32:08Z</time>
      </trkpt>
      <trkpt lat="42.84728" lon="1.60584">
        <ele>480</ele>
        <time>2021-08-20T18:32:09Z</time>
      </trkpt>
      <trkpt lat="42.84735" lon="1.60584">
        <ele>480</ele>
        <time>2021-08-20T18:32:10Z</time>
      </trkpt>
      <trkpt lat="42.84744" lon="1.6058">
        <ele>479</ele>
        <time>2021-08-20T18:32:12Z</time>
      </trkpt>
      <trkpt lat="42.84751" lon="1.60574">
        <ele>479</ele>
        <time>2021-08-20T18:32:13Z</time>
      </trkpt>
      <trkpt lat="42.84781" lon="1.60557">
        <ele>479</ele>
        <time>2021-08-20T18:32:19Z</time>
      </trkpt>
      <trkpt lat="42.84791" lon="1.60552">
        <ele>479</ele>
        <time>2021-08-20T18:32:21Z</time>
      </trkpt>
      <trkpt lat="42.84822" lon="1.60537">
        <ele>479</ele>
        <time>2021-08-20T18:32:27Z</time>
      </trkpt>
      <trkpt lat="42.84831" lon="1.60533">
        <ele>479</ele>
        <time>2021-08-20T18:32:29Z</time>
      </trkpt>
      <trkpt lat="42.84838" lon="1.60529">
        <ele>479</ele>
        <time>2021-08-20T18:32:30Z</time>
      </trkpt>
      <trkpt lat="42.84845" lon="1.60525">
        <ele>479</ele>
        <time>2021-08-20T18:32:31Z</time>
      </trkpt>
      <trkpt lat="42.84887" lon="1.60502">
        <ele>478</ele>
        <time>2021-08-20T18:32:39Z</time>
      </trkpt>
      <trkpt lat="42.849" lon="1.60495">
        <ele>478</ele>
        <time>2021-08-20T18:32:42Z</time>
      </trkpt>
      <trkpt lat="42.84936" lon="1.60477">
        <ele>477</ele>
        <time>2021-08-20T18:32:49Z</time>
      </trkpt>
      <trkpt lat="42.84995" lon="1.60445">
        <ele>477</ele>
        <time>2021-08-20T18:33:00Z</time>
      </trkpt>
      <trkpt lat="42.85022" lon="1.6043">
        <ele>477</ele>
        <time>2021-08-20T18:33:05Z</time>
      </trkpt>
      <trkpt lat="42.85038" lon="1.60422">
        <ele>476</ele>
        <time>2021-08-20T18:33:08Z</time>
      </trkpt>
      <trkpt lat="42.85161" lon="1.60357">
        <ele>474</ele>
        <time>2021-08-20T18:33:32Z</time>
      </trkpt>
      <trkpt lat="42.85194" lon="1.60342">
        <ele>473</ele>
        <time>2021-08-20T18:33:38Z</time>
      </trkpt>
      <trkpt lat="42.85202" lon="1.60338">
        <ele>473</ele>
        <time>2021-08-20T18:33:39Z</time>
      </trkpt>
      <trkpt lat="42.85236" lon="1.6032">
        <ele>472</ele>
        <time>2021-08-20T18:33:46Z</time>
      </trkpt>
      <trkpt lat="42.85321" lon="1.60275">
        <ele>472</ele>
        <time>2021-08-20T18:34:02Z</time>
      </trkpt>
      <trkpt lat="42.85367" lon="1.60252">
        <ele>471</ele>
        <time>2021-08-20T18:34:11Z</time>
      </trkpt>
      <trkpt lat="42.85419" lon="1.60225">
        <ele>470</ele>
        <time>2021-08-20T18:34:21Z</time>
      </trkpt>
      <trkpt lat="42.85426" lon="1.60221">
        <ele>470</ele>
        <time>2021-08-20T18:34:22Z</time>
      </trkpt>
      <trkpt lat="42.85452" lon="1.60204">
        <ele>471</ele>
        <time>2021-08-20T18:34:27Z</time>
      </trkpt>
      <trkpt lat="42.8548" lon="1.60189">
        <ele>471</ele>
        <time>2021-08-20T18:34:33Z</time>
      </trkpt>
      <trkpt lat="42.85495" lon="1.60181">
        <ele>471</ele>
        <time>2021-08-20T18:34:35Z</time>
      </trkpt>
      <trkpt lat="42.85539" lon="1.60158">
        <ele>470</ele>
        <time>2021-08-20T18:34:44Z</time>
      </trkpt>
      <trkpt lat="42.85592" lon="1.60131">
        <ele>469</ele>
        <time>2021-08-20T18:34:54Z</time>
      </trkpt>
      <trkpt lat="42.8561" lon="1.60123">
        <ele>469</ele>
        <time>2021-08-20T18:34:57Z</time>
      </trkpt>
      <trkpt lat="42.85625" lon="1.60119">
        <ele>469</ele>
        <time>2021-08-20T18:35:00Z</time>
      </trkpt>
      <trkpt lat="42.85643" lon="1.60116">
        <ele>469</ele>
        <time>2021-08-20T18:35:03Z</time>
      </trkpt>
      <trkpt lat="42.85653" lon="1.60117">
        <ele>469</ele>
        <time>2021-08-20T18:35:05Z</time>
      </trkpt>
      <trkpt lat="42.85754" lon="1.6015">
        <ele>469</ele>
        <time>2021-08-20T18:35:23Z</time>
      </trkpt>
      <trkpt lat="42.85811" lon="1.60172">
        <ele>469</ele>
        <time>2021-08-20T18:35:34Z</time>
      </trkpt>
      <trkpt lat="42.85858" lon="1.60187">
        <ele>470</ele>
        <time>2021-08-20T18:35:43Z</time>
      </trkpt>
      <trkpt lat="42.85873" lon="1.60193">
        <ele>471</ele>
        <time>2021-08-20T18:35:45Z</time>
      </trkpt>
      <trkpt lat="42.85898" lon="1.60205">
        <ele>472</ele>
        <time>2021-08-20T18:35:50Z</time>
      </trkpt>
      <trkpt lat="42.85939" lon="1.60231">
        <ele>473</ele>
        <time>2021-08-20T18:35:58Z</time>
      </trkpt>
      <trkpt lat="42.85968" lon="1.60255">
        <ele>473</ele>
        <time>2021-08-20T18:36:04Z</time>
      </trkpt>
      <trkpt lat="42.86084" lon="1.60383">
        <ele>493</ele>
        <time>2021-08-20T18:36:31Z</time>
      </trkpt>
      <trkpt lat="42.8611" lon="1.60407">
        <ele>495</ele>
        <time>2021-08-20T18:36:36Z</time>
      </trkpt>
      <trkpt lat="42.86141" lon="1.60431">
        <ele>495</ele>
        <time>2021-08-20T18:36:43Z</time>
      </trkpt>
      <trkpt lat="42.86255" lon="1.60499">
        <ele>484</ele>
        <time>2021-08-20T18:37:05Z</time>
      </trkpt>
      <trkpt lat="42.86288" lon="1.60528">
        <ele>487</ele>
        <time>2021-08-20T18:37:12Z</time>
      </trkpt>
      <trkpt lat="42.86317" lon="1.60563">
        <ele>486</ele>
        <time>2021-08-20T18:37:19Z</time>
      </trkpt>
      <trkpt lat="42.8633" lon="1.60584">
        <ele>485</ele>
        <time>2021-08-20T18:37:22Z</time>
      </trkpt>
      <trkpt lat="42.86341" lon="1.60601">
        <ele>488</ele>
        <time>2021-08-20T18:37:25Z</time>
      </trkpt>
      <trkpt lat="42.86375" lon="1.60667">
        <ele>492</ele>
        <time>2021-08-20T18:37:36Z</time>
      </trkpt>
      <trkpt lat="42.864" lon="1.60719">
        <ele>489</ele>
        <time>2021-08-20T18:37:44Z</time>
      </trkpt>
      <trkpt lat="42.86414" lon="1.60763">
        <ele>486</ele>
        <time>2021-08-20T18:37:50Z</time>
      </trkpt>
      <trkpt lat="42.86435" lon="1.60842">
        <ele>488</ele>
        <time>2021-08-20T18:38:01Z</time>
      </trkpt>
      <trkpt lat="42.8651" lon="1.6117">
        <ele>470</ele>
        <time>2021-08-20T18:38:46Z</time>
      </trkpt>
      <trkpt lat="42.86522" lon="1.61214">
        <ele>472</ele>
        <time>2021-08-20T18:38:52Z</time>
      </trkpt>
      <trkpt lat="42.86531" lon="1.61245">
        <ele>473</ele>
        <time>2021-08-20T18:38:56Z</time>
      </trkpt>
      <trkpt lat="42.86553" lon="1.61307">
        <ele>474</ele>
        <time>2021-08-20T18:39:05Z</time>
      </trkpt>
      <trkpt lat="42.86545" lon="1.61314">
        <ele>476</ele>
        <time>2021-08-20T18:39:07Z</time>
      </trkpt>
      <trkpt lat="42.8654" lon="1.61327">
        <ele>478</ele>
        <time>2021-08-20T18:39:09Z</time>
      </trkpt>
      <trkpt lat="42.86553" lon="1.61348">
        <ele>477</ele>
        <time>2021-08-20T18:39:12Z</time>
      </trkpt>
      <trkpt lat="42.86556" lon="1.61353">
        <ele>477</ele>
        <time>2021-08-20T18:39:13Z</time>
      </trkpt>
      <trkpt lat="42.86568" lon="1.61382">
        <ele>477</ele>
        <time>2021-08-20T18:39:18Z</time>
      </trkpt>
      <trkpt lat="42.86589" lon="1.61445">
        <ele>477</ele>
        <time>2021-08-20T18:39:27Z</time>
      </trkpt>
      <trkpt lat="42.86591" lon="1.61455">
        <ele>477</ele>
        <time>2021-08-20T18:39:28Z</time>
      </trkpt>
      <trkpt lat="42.86589" lon="1.61468">
        <ele>477</ele>
        <time>2021-08-20T18:39:30Z</time>
      </trkpt>
      <trkpt lat="42.86586" lon="1.6147">
        <ele>477</ele>
        <time>2021-08-20T18:39:30Z</time>
      </trkpt>
      <trkpt lat="42.86572" lon="1.61469">
        <ele>480</ele>
        <time>2021-08-20T18:39:33Z</time>
      </trkpt>
      <trkpt lat="42.8656" lon="1.61471">
        <ele>483</ele>
        <time>2021-08-20T18:39:35Z</time>
      </trkpt>
      <trkpt lat="42.86529" lon="1.61492">
        <ele>490</ele>
        <time>2021-08-20T18:39:41Z</time>
      </trkpt>
      <trkpt lat="42.86503" lon="1.61547">
        <ele>495</ele>
        <time>2021-08-20T18:39:50Z</time>
      </trkpt>
      <trkpt lat="42.86483" lon="1.61567">
        <ele>496</ele>
        <time>2021-08-20T18:39:54Z</time>
      </trkpt>
      <trkpt lat="42.86476" lon="1.61581">
        <ele>496</ele>
        <time>2021-08-20T18:39:56Z</time>
      </trkpt>
      <trkpt lat="42.86465" lon="1.6159">
        <ele>497</ele>
        <time>2021-08-20T18:39:59Z</time>
      </trkpt>
      <trkpt lat="42.86448" lon="1.61602">
        <ele>498</ele>
        <time>2021-08-20T18:40:02Z</time>
      </trkpt>
      <trkpt lat="42.86448" lon="1.61611">
        <ele>498</ele>
        <time>2021-08-20T18:40:03Z</time>
      </trkpt>
      <trkpt lat="42.86447" lon="1.6165">
        <ele>498</ele>
        <time>2021-08-20T18:40:08Z</time>
      </trkpt>
      <trkpt lat="42.86445" lon="1.6167">
        <ele>499</ele>
        <time>2021-08-20T18:40:11Z</time>
      </trkpt>
      <trkpt lat="42.86495" lon="1.61707">
        <ele>496</ele>
        <time>2021-08-20T18:40:21Z</time>
      </trkpt>
      <trkpt lat="42.86499" lon="1.61732">
        <ele>496</ele>
        <time>2021-08-20T18:40:24Z</time>
      </trkpt>
      <trkpt lat="42.86501" lon="1.61751">
        <ele>496</ele>
        <time>2021-08-20T18:40:27Z</time>
      </trkpt>
      <trkpt lat="42.86502" lon="1.61765">
        <ele>495</ele>
        <time>2021-08-20T18:40:29Z</time>
      </trkpt>
      <trkpt lat="42.86503" lon="1.61772">
        <ele>495</ele>
        <time>2021-08-20T18:40:30Z</time>
      </trkpt>
      <trkpt lat="42.86505" lon="1.61778">
        <ele>494</ele>
        <time>2021-08-20T18:40:30Z</time>
      </trkpt>
      <trkpt lat="42.86508" lon="1.61781">
        <ele>494</ele>
        <time>2021-08-20T18:40:31Z</time>
      </trkpt>
      <trkpt lat="42.8652" lon="1.61785">
        <ele>493</ele>
        <time>2021-08-20T18:40:33Z</time>
      </trkpt>
      <trkpt lat="42.86525" lon="1.61794">
        <ele>493</ele>
        <time>2021-08-20T18:40:35Z</time>
      </trkpt>
      <trkpt lat="42.8653" lon="1.61829">
        <ele>492</ele>
        <time>2021-08-20T18:40:39Z</time>
      </trkpt>
      <trkpt lat="42.86532" lon="1.6185">
        <ele>492</ele>
        <time>2021-08-20T18:40:42Z</time>
      </trkpt>
      <trkpt lat="42.86533" lon="1.6186">
        <ele>492</ele>
        <time>2021-08-20T18:40:44Z</time>
      </trkpt>
      <trkpt lat="42.86543" lon="1.61882">
        <ele>493</ele>
        <time>2021-08-20T18:40:47Z</time>
      </trkpt>
      <trkpt lat="42.86561" lon="1.61906">
        <ele>493</ele>
        <time>2021-08-20T18:40:51Z</time>
      </trkpt>
      <trkpt lat="42.86536" lon="1.61937">
        <ele>493</ele>
        <time>2021-08-20T18:40:57Z</time>
      </trkpt>
      <trkpt lat="42.86506" lon="1.62002">
        <ele>493</ele>
        <time>2021-08-20T18:41:07Z</time>
      </trkpt>
      <trkpt lat="42.8649" lon="1.62048">
        <ele>495</ele>
        <time>2021-08-20T18:41:14Z</time>
      </trkpt>
      <trkpt lat="42.86482" lon="1.62067">
        <ele>495</ele>
        <time>2021-08-20T18:41:17Z</time>
      </trkpt>
      <trkpt lat="42.86451" lon="1.62144">
        <ele>497</ele>
        <time>2021-08-20T18:41:28Z</time>
      </trkpt>
      <trkpt lat="42.86419" lon="1.62189">
        <ele>497</ele>
        <time>2021-08-20T18:41:37Z</time>
      </trkpt>
      <trkpt lat="42.86386" lon="1.62233">
        <ele>499</ele>
        <time>2021-08-20T18:41:45Z</time>
      </trkpt>
      <trkpt lat="42.86362" lon="1.62279">
        <ele>501</ele>
        <time>2021-08-20T18:41:52Z</time>
      </trkpt>
      <trkpt lat="42.86343" lon="1.6234">
        <ele>502</ele>
        <time>2021-08-20T18:42:01Z</time>
      </trkpt>
      <trkpt lat="42.86273" lon="1.62506">
        <ele>505</ele>
        <time>2021-08-20T18:42:26Z</time>
      </trkpt>
      <trkpt lat="42.8622" lon="1.62617">
        <ele>508</ele>
        <time>2021-08-20T18:42:43Z</time>
      </trkpt>
      <trkpt lat="42.86183" lon="1.62683">
        <ele>510</ele>
        <time>2021-08-20T18:42:54Z</time>
      </trkpt>
      <trkpt lat="42.86173" lon="1.62699">
        <ele>510</ele>
        <time>2021-08-20T18:42:57Z</time>
      </trkpt>
      <trkpt lat="42.86137" lon="1.62754">
        <ele>510</ele>
        <time>2021-08-20T18:43:06Z</time>
      </trkpt>
      <trkpt lat="42.86124" lon="1.62772">
        <ele>510</ele>
        <time>2021-08-20T18:43:10Z</time>
      </trkpt>
      <trkpt lat="42.86104" lon="1.62832">
        <ele>512</ele>
        <time>2021-08-20T18:43:18Z</time>
      </trkpt>
      <trkpt lat="42.86085" lon="1.62913">
        <ele>513</ele>
        <time>2021-08-20T18:43:29Z</time>
      </trkpt>
      <trkpt lat="42.86063" lon="1.62978">
        <ele>513</ele>
        <time>2021-08-20T18:43:39Z</time>
      </trkpt>
      <trkpt lat="42.86041" lon="1.63019">
        <ele>515</ele>
        <time>2021-08-20T18:43:45Z</time>
      </trkpt>
      <trkpt lat="42.86021" lon="1.63076">
        <ele>516</ele>
        <time>2021-08-20T18:43:53Z</time>
      </trkpt>
      <trkpt lat="42.85996" lon="1.63193">
        <ele>519</ele>
        <time>2021-08-20T18:44:09Z</time>
      </trkpt>
      <trkpt lat="42.85982" lon="1.63243">
        <ele>521</ele>
        <time>2021-08-20T18:44:16Z</time>
      </trkpt>
      <trkpt lat="42.85971" lon="1.63273">
        <ele>522</ele>
        <time>2021-08-20T18:44:21Z</time>
      </trkpt>
      <trkpt lat="42.85905" lon="1.63352">
        <ele>523</ele>
        <time>2021-08-20T18:44:36Z</time>
      </trkpt>
      <trkpt lat="42.85897" lon="1.63368">
        <ele>524</ele>
        <time>2021-08-20T18:44:39Z</time>
      </trkpt>
      <trkpt lat="42.85886" lon="1.63404">
        <ele>524</ele>
        <time>2021-08-20T18:44:44Z</time>
      </trkpt>
      <trkpt lat="42.85878" lon="1.63425">
        <ele>524</ele>
        <time>2021-08-20T18:44:47Z</time>
      </trkpt>
      <trkpt lat="42.85856" lon="1.63469">
        <ele>525</ele>
        <time>2021-08-20T18:44:54Z</time>
      </trkpt>
      <trkpt lat="42.85844" lon="1.63506">
        <ele>526</ele>
        <time>2021-08-20T18:44:59Z</time>
      </trkpt>
      <trkpt lat="42.85834" lon="1.63533">
        <ele>526</ele>
        <time>2021-08-20T18:45:03Z</time>
      </trkpt>
      <trkpt lat="42.85816" lon="1.63561">
        <ele>528</ele>
        <time>2021-08-20T18:45:08Z</time>
      </trkpt>
      <trkpt lat="42.8581" lon="1.63575">
        <ele>528</ele>
        <time>2021-08-20T18:45:10Z</time>
      </trkpt>
      <trkpt lat="42.85784" lon="1.63653">
        <ele>531</ele>
        <time>2021-08-20T18:45:21Z</time>
      </trkpt>
      <trkpt lat="42.85776" lon="1.6368">
        <ele>531</ele>
        <time>2021-08-20T18:45:25Z</time>
      </trkpt>
      <trkpt lat="42.85768" lon="1.63706">
        <ele>532</ele>
        <time>2021-08-20T18:45:29Z</time>
      </trkpt>
      <trkpt lat="42.85765" lon="1.63717">
        <ele>532</ele>
        <time>2021-08-20T18:45:30Z</time>
      </trkpt>
      <trkpt lat="42.85747" lon="1.63777">
        <ele>533</ele>
        <time>2021-08-20T18:45:39Z</time>
      </trkpt>
      <trkpt lat="42.85745" lon="1.63783">
        <ele>534</ele>
        <time>2021-08-20T18:45:40Z</time>
      </trkpt>
      <trkpt lat="42.85739" lon="1.63799">
        <ele>534</ele>
        <time>2021-08-20T18:45:42Z</time>
      </trkpt>
      <trkpt lat="42.85704" lon="1.63858">
        <ele>536</ele>
        <time>2021-08-20T18:45:52Z</time>
      </trkpt>
      <trkpt lat="42.85696" lon="1.63878">
        <ele>536</ele>
        <time>2021-08-20T18:45:55Z</time>
      </trkpt>
      <trkpt lat="42.85687" lon="1.63911">
        <ele>537</ele>
        <time>2021-08-20T18:45:59Z</time>
      </trkpt>
      <trkpt lat="42.85676" lon="1.63948">
        <ele>538</ele>
        <time>2021-08-20T18:46:05Z</time>
      </trkpt>
      <trkpt lat="42.85669" lon="1.6396">
        <ele>538</ele>
        <time>2021-08-20T18:46:07Z</time>
      </trkpt>
      <trkpt lat="42.85663" lon="1.63966">
        <ele>538</ele>
        <time>2021-08-20T18:46:08Z</time>
      </trkpt>
      <trkpt lat="42.85641" lon="1.63982">
        <ele>538</ele>
        <time>2021-08-20T18:46:12Z</time>
      </trkpt>
      <trkpt lat="42.85592" lon="1.64012">
        <ele>539</ele>
        <time>2021-08-20T18:46:22Z</time>
      </trkpt>
      <trkpt lat="42.85578" lon="1.64024">
        <ele>540</ele>
        <time>2021-08-20T18:46:25Z</time>
      </trkpt>
      <trkpt lat="42.85563" lon="1.64051">
        <ele>541</ele>
        <time>2021-08-20T18:46:29Z</time>
      </trkpt>
      <trkpt lat="42.8554" lon="1.64098">
        <ele>542</ele>
        <time>2021-08-20T18:46:37Z</time>
      </trkpt>
      <trkpt lat="42.855" lon="1.64163">
        <ele>545</ele>
        <time>2021-08-20T18:46:48Z</time>
      </trkpt>
      <trkpt lat="42.85495" lon="1.64177">
        <ele>545</ele>
        <time>2021-08-20T18:46:50Z</time>
      </trkpt>
      <trkpt lat="42.85491" lon="1.64202">
        <ele>546</ele>
        <time>2021-08-20T18:46:53Z</time>
      </trkpt>
      <trkpt lat="42.8549" lon="1.64226">
        <ele>547</ele>
        <time>2021-08-20T18:46:56Z</time>
      </trkpt>
      <trkpt lat="42.85492" lon="1.64275">
        <ele>550</ele>
        <time>2021-08-20T18:47:03Z</time>
      </trkpt>
      <trkpt lat="42.85479" lon="1.64312">
        <ele>552</ele>
        <time>2021-08-20T18:47:08Z</time>
      </trkpt>
      <trkpt lat="42.85462" lon="1.64344">
        <ele>554</ele>
        <time>2021-08-20T18:47:13Z</time>
      </trkpt>
      <trkpt lat="42.8544" lon="1.6438">
        <ele>555</ele>
        <time>2021-08-20T18:47:19Z</time>
      </trkpt>
      <trkpt lat="42.85434" lon="1.64394">
        <ele>556</ele>
        <time>2021-08-20T18:47:21Z</time>
      </trkpt>
      <trkpt lat="42.85425" lon="1.64435">
        <ele>557</ele>
        <time>2021-08-20T18:47:27Z</time>
      </trkpt>
      <trkpt lat="42.85419" lon="1.64451">
        <ele>557</ele>
        <time>2021-08-20T18:47:29Z</time>
      </trkpt>
      <trkpt lat="42.85401" lon="1.64485">
        <ele>558</ele>
        <time>2021-08-20T18:47:35Z</time>
      </trkpt>
      <trkpt lat="42.85393" lon="1.64509">
        <ele>559</ele>
        <time>2021-08-20T18:47:38Z</time>
      </trkpt>
      <trkpt lat="42.85381" lon="1.64566">
        <ele>562</ele>
        <time>2021-08-20T18:47:46Z</time>
      </trkpt>
      <trkpt lat="42.85373" lon="1.6472">
        <ele>567</ele>
        <time>2021-08-20T18:48:06Z</time>
      </trkpt>
      <trkpt lat="42.85367" lon="1.64755">
        <ele>567</ele>
        <time>2021-08-20T18:48:11Z</time>
      </trkpt>
      <trkpt lat="42.85365" lon="1.64762">
        <ele>568</ele>
        <time>2021-08-20T18:48:12Z</time>
      </trkpt>
      <trkpt lat="42.85361" lon="1.64766">
        <ele>568</ele>
        <time>2021-08-20T18:48:13Z</time>
      </trkpt>
      <trkpt lat="42.85356" lon="1.64771">
        <ele>568</ele>
        <time>2021-08-20T18:48:14Z</time>
      </trkpt>
      <trkpt lat="42.85343" lon="1.64781">
        <ele>568</ele>
        <time>2021-08-20T18:48:16Z</time>
      </trkpt>
      <trkpt lat="42.85339" lon="1.64782">
        <ele>568</ele>
        <time>2021-08-20T18:48:17Z</time>
      </trkpt>
      <trkpt lat="42.85327" lon="1.64779">
        <ele>567</ele>
        <time>2021-08-20T18:48:19Z</time>
      </trkpt>
      <trkpt lat="42.85246" lon="1.64787">
        <ele>567</ele>
        <time>2021-08-20T18:48:34Z</time>
      </trkpt>
      <trkpt lat="42.85188" lon="1.64798">
        <ele>568</ele>
        <time>2021-08-20T18:48:44Z</time>
      </trkpt>
      <trkpt lat="42.85107" lon="1.64824">
        <ele>572</ele>
        <time>2021-08-20T18:48:59Z</time>
      </trkpt>
      <trkpt lat="42.84971" lon="1.64863">
        <ele>584</ele>
        <time>2021-08-20T18:49:24Z</time>
      </trkpt>
      <trkpt lat="42.84918" lon="1.64881">
        <ele>590</ele>
        <time>2021-08-20T18:49:33Z</time>
      </trkpt>
      <trkpt lat="42.84803" lon="1.64953">
        <ele>600</ele>
        <time>2021-08-20T18:49:56Z</time>
      </trkpt>
      <trkpt lat="42.84699" lon="1.65015">
        <ele>615</ele>
        <time>2021-08-20T18:50:16Z</time>
      </trkpt>
      <trkpt lat="42.84657" lon="1.65048">
        <ele>623</ele>
        <time>2021-08-20T18:50:25Z</time>
      </trkpt>
      <trkpt lat="42.84647" lon="1.65061">
        <ele>627</ele>
        <time>2021-08-20T18:50:27Z</time>
      </trkpt>
      <trkpt lat="42.84644" lon="1.65088">
        <ele>632</ele>
        <time>2021-08-20T18:50:31Z</time>
      </trkpt>
      <trkpt lat="42.84645" lon="1.65098">
        <ele>634</ele>
        <time>2021-08-20T18:50:32Z</time>
      </trkpt>
      <trkpt lat="42.84652" lon="1.6511">
        <ele>636</ele>
        <time>2021-08-20T18:50:34Z</time>
      </trkpt>
      <trkpt lat="42.84662" lon="1.65116">
        <ele>636</ele>
        <time>2021-08-20T18:50:36Z</time>
      </trkpt>
      <trkpt lat="42.84721" lon="1.6514">
        <ele>639</ele>
        <time>2021-08-20T18:50:47Z</time>
      </trkpt>
      <trkpt lat="42.84775" lon="1.65172">
        <ele>643</ele>
        <time>2021-08-20T18:50:57Z</time>
      </trkpt>
      <trkpt lat="42.84841" lon="1.65238">
        <ele>651</ele>
        <time>2021-08-20T18:51:12Z</time>
      </trkpt>
      <trkpt lat="42.8488" lon="1.65263">
        <ele>655</ele>
        <time>2021-08-20T18:51:20Z</time>
      </trkpt>
      <trkpt lat="42.84889" lon="1.65272">
        <ele>656</ele>
        <time>2021-08-20T18:51:22Z</time>
      </trkpt>
      <trkpt lat="42.84899" lon="1.65289">
        <ele>658</ele>
        <time>2021-08-20T18:51:25Z</time>
      </trkpt>
      <trkpt lat="42.84917" lon="1.65325">
        <ele>660</ele>
        <time>2021-08-20T18:51:30Z</time>
      </trkpt>
      <trkpt lat="42.84956" lon="1.65416">
        <ele>667</ele>
        <time>2021-08-20T18:51:44Z</time>
      </trkpt>
      <trkpt lat="42.8497" lon="1.65453">
        <ele>667</ele>
        <time>2021-08-20T18:51:49Z</time>
      </trkpt>
      <trkpt lat="42.84975" lon="1.65477">
        <ele>667</ele>
        <time>2021-08-20T18:51:53Z</time>
      </trkpt>
      <trkpt lat="42.84978" lon="1.65496">
        <ele>667</ele>
        <time>2021-08-20T18:51:55Z</time>
      </trkpt>
      <trkpt lat="42.84976" lon="1.65514">
        <ele>666</ele>
        <time>2021-08-20T18:51:58Z</time>
      </trkpt>
      <trkpt lat="42.84968" lon="1.65541">
        <ele>666</ele>
        <time>2021-08-20T18:52:01Z</time>
      </trkpt>
      <trkpt lat="42.84956" lon="1.6556">
        <ele>670</ele>
        <time>2021-08-20T18:52:05Z</time>
      </trkpt>
      <trkpt lat="42.84928" lon="1.65596">
        <ele>680</ele>
        <time>2021-08-20T18:52:12Z</time>
      </trkpt>
      <trkpt lat="42.8492" lon="1.6561">
        <ele>682</ele>
        <time>2021-08-20T18:52:14Z</time>
      </trkpt>
      <trkpt lat="42.84914" lon="1.6565">
        <ele>680</ele>
        <time>2021-08-20T18:52:19Z</time>
      </trkpt>
      <trkpt lat="42.84915" lon="1.65668">
        <ele>678</ele>
        <time>2021-08-20T18:52:21Z</time>
      </trkpt>
      <trkpt lat="42.8492" lon="1.65695">
        <ele>673</ele>
        <time>2021-08-20T18:52:25Z</time>
      </trkpt>
      <trkpt lat="42.8492" lon="1.65708">
        <ele>672</ele>
        <time>2021-08-20T18:52:27Z</time>
      </trkpt>
      <trkpt lat="42.84916" lon="1.6572">
        <ele>672</ele>
        <time>2021-08-20T18:52:29Z</time>
      </trkpt>
      <trkpt lat="42.84879" lon="1.65778">
        <ele>684</ele>
        <time>2021-08-20T18:52:39Z</time>
      </trkpt>
      <trkpt lat="42.8486" lon="1.658">
        <ele>691</ele>
        <time>2021-08-20T18:52:43Z</time>
      </trkpt>
      <trkpt lat="42.84849" lon="1.65822">
        <ele>694</ele>
        <time>2021-08-20T18:52:46Z</time>
      </trkpt>
      <trkpt lat="42.84822" lon="1.65892">
        <ele>700</ele>
        <time>2021-08-20T18:52:57Z</time>
      </trkpt>
      <trkpt lat="42.84814" lon="1.65904">
        <ele>702</ele>
        <time>2021-08-20T18:52:59Z</time>
      </trkpt>
      <trkpt lat="42.8479" lon="1.65914">
        <ele>711</ele>
        <time>2021-08-20T18:53:03Z</time>
      </trkpt>
      <trkpt lat="42.8478" lon="1.65922">
        <ele>714</ele>
        <time>2021-08-20T18:53:05Z</time>
      </trkpt>
      <trkpt lat="42.84767" lon="1.65938">
        <ele>718</ele>
        <time>2021-08-20T18:53:09Z</time>
      </trkpt>
      <trkpt lat="42.84759" lon="1.65954">
        <ele>718</ele>
        <time>2021-08-20T18:53:11Z</time>
      </trkpt>
      <trkpt lat="42.8475" lon="1.65965">
        <ele>718</ele>
        <time>2021-08-20T18:53:13Z</time>
      </trkpt>
      <trkpt lat="42.84739" lon="1.65967">
        <ele>721</ele>
        <time>2021-08-20T18:53:15Z</time>
      </trkpt>
      <trkpt lat="42.84715" lon="1.65993">
        <ele>723</ele>
        <time>2021-08-20T18:53:21Z</time>
      </trkpt>
      <trkpt lat="42.84707" lon="1.66003">
        <ele>723</ele>
        <time>2021-08-20T18:53:23Z</time>
      </trkpt>
      <trkpt lat="42.84674" lon="1.6603">
        <ele>729</ele>
        <time>2021-08-20T18:53:29Z</time>
      </trkpt>
      <trkpt lat="42.84646" lon="1.66063">
        <ele>732</ele>
        <time>2021-08-20T18:53:36Z</time>
      </trkpt>
      <trkpt lat="42.846" lon="1.66098">
        <ele>740</ele>
        <time>2021-08-20T18:53:45Z</time>
      </trkpt>
      <trkpt lat="42.84583" lon="1.66104">
        <ele>743</ele>
        <time>2021-08-20T18:53:49Z</time>
      </trkpt>
      <trkpt lat="42.84552" lon="1.66108">
        <ele>747</ele>
        <time>2021-08-20T18:53:54Z</time>
      </trkpt>
      <trkpt lat="42.84546" lon="1.66112">
        <ele>748</ele>
        <time>2021-08-20T18:53:55Z</time>
      </trkpt>
      <trkpt lat="42.84538" lon="1.66121">
        <ele>748</ele>
        <time>2021-08-20T18:53:57Z</time>
      </trkpt>
      <trkpt lat="42.84521" lon="1.6613">
        <ele>748</ele>
        <time>2021-08-20T18:54:00Z</time>
      </trkpt>
      <trkpt lat="42.84488" lon="1.66142">
        <ele>747</ele>
        <time>2021-08-20T18:54:06Z</time>
      </trkpt>
      <trkpt lat="42.84449" lon="1.66147">
        <ele>747</ele>
        <time>2021-08-20T18:54:13Z</time>
      </trkpt>
      <trkpt lat="42.84441" lon="1.66148">
        <ele>747</ele>
        <time>2021-08-20T18:54:15Z</time>
      </trkpt>
      <trkpt lat="42.84431" lon="1.66153">
        <ele>746</ele>
        <time>2021-08-20T18:54:17Z</time>
      </trkpt>
      <trkpt lat="42.8442" lon="1.66163">
        <ele>742</ele>
        <time>2021-08-20T18:54:19Z</time>
      </trkpt>
      <trkpt lat="42.84369" lon="1.66222">
        <ele>755</ele>
        <time>2021-08-20T18:54:31Z</time>
      </trkpt>
      <trkpt lat="42.84341" lon="1.66251">
        <ele>755</ele>
        <time>2021-08-20T18:54:37Z</time>
      </trkpt>
      <trkpt lat="42.84335" lon="1.66263">
        <ele>754</ele>
        <time>2021-08-20T18:54:39Z</time>
      </trkpt>
      <trkpt lat="42.84335" lon="1.66268">
        <ele>754</ele>
        <time>2021-08-20T18:54:40Z</time>
      </trkpt>
      <trkpt lat="42.84341" lon="1.66277">
        <ele>752</ele>
        <time>2021-08-20T18:54:41Z</time>
      </trkpt>
      <trkpt lat="42.84352" lon="1.66274">
        <ele>751</ele>
        <time>2021-08-20T18:54:43Z</time>
      </trkpt>
      <trkpt lat="42.84365" lon="1.66264">
        <ele>750</ele>
        <time>2021-08-20T18:54:46Z</time>
      </trkpt>
      <trkpt lat="42.84371" lon="1.66265">
        <ele>749</ele>
        <time>2021-08-20T18:54:47Z</time>
      </trkpt>
      <trkpt lat="42.84375" lon="1.66271">
        <ele>748</ele>
        <time>2021-08-20T18:54:48Z</time>
      </trkpt>
      <trkpt lat="42.84376" lon="1.66292">
        <ele>748</ele>
        <time>2021-08-20T18:54:51Z</time>
      </trkpt>
      <trkpt lat="42.84381" lon="1.66315">
        <ele>748</ele>
        <time>2021-08-20T18:54:54Z</time>
      </trkpt>
      <trkpt lat="42.84382" lon="1.66325">
        <ele>748</ele>
        <time>2021-08-20T18:54:55Z</time>
      </trkpt>
      <trkpt lat="42.8438" lon="1.66337">
        <ele>748</ele>
        <time>2021-08-20T18:54:57Z</time>
      </trkpt>
      <trkpt lat="42.84375" lon="1.66348">
        <ele>748</ele>
        <time>2021-08-20T18:54:59Z</time>
      </trkpt>
      <trkpt lat="42.84368" lon="1.66357">
        <ele>749</ele>
        <time>2021-08-20T18:55:00Z</time>
      </trkpt>
      <trkpt lat="42.84349" lon="1.66369">
        <ele>749</ele>
        <time>2021-08-20T18:55:04Z</time>
      </trkpt>
      <trkpt lat="42.84345" lon="1.66376">
        <ele>749</ele>
        <time>2021-08-20T18:55:05Z</time>
      </trkpt>
      <trkpt lat="42.84305" lon="1.6654">
        <ele>769</ele>
        <time>2021-08-20T18:55:28Z</time>
      </trkpt>
      <trkpt lat="42.84293" lon="1.66557">
        <ele>771</ele>
        <time>2021-08-20T18:55:31Z</time>
      </trkpt>
      <trkpt lat="42.84285" lon="1.66564">
        <ele>771</ele>
        <time>2021-08-20T18:55:33Z</time>
      </trkpt>
      <trkpt lat="42.84263" lon="1.66593">
        <ele>773</ele>
        <time>2021-08-20T18:55:38Z</time>
      </trkpt>
      <trkpt lat="42.84258" lon="1.66604">
        <ele>775</ele>
        <time>2021-08-20T18:55:40Z</time>
      </trkpt>
      <trkpt lat="42.8426" lon="1.66616">
        <ele>777</ele>
        <time>2021-08-20T18:55:41Z</time>
      </trkpt>
      <trkpt lat="42.84266" lon="1.66628">
        <ele>779</ele>
        <time>2021-08-20T18:55:43Z</time>
      </trkpt>
      <trkpt lat="42.84277" lon="1.66638">
        <ele>781</ele>
        <time>2021-08-20T18:55:46Z</time>
      </trkpt>
      <trkpt lat="42.8435" lon="1.6666">
        <ele>792</ele>
        <time>2021-08-20T18:55:59Z</time>
      </trkpt>
      <trkpt lat="42.84362" lon="1.66657">
        <ele>792</ele>
        <time>2021-08-20T18:56:01Z</time>
      </trkpt>
      <trkpt lat="42.84385" lon="1.66644">
        <ele>792</ele>
        <time>2021-08-20T18:56:05Z</time>
      </trkpt>
      <trkpt lat="42.84434" lon="1.66612">
        <ele>789</ele>
        <time>2021-08-20T18:56:15Z</time>
      </trkpt>
      <trkpt lat="42.84459" lon="1.66605">
        <ele>791</ele>
        <time>2021-08-20T18:56:20Z</time>
      </trkpt>
      <trkpt lat="42.84467" lon="1.66609">
        <ele>793</ele>
        <time>2021-08-20T18:56:21Z</time>
      </trkpt>
      <trkpt lat="42.84475" lon="1.66616">
        <ele>796</ele>
        <time>2021-08-20T18:56:23Z</time>
      </trkpt>
      <trkpt lat="42.84481" lon="1.66619">
        <ele>798</ele>
        <time>2021-08-20T18:56:24Z</time>
      </trkpt>
      <trkpt lat="42.84489" lon="1.66617">
        <ele>798</ele>
        <time>2021-08-20T18:56:25Z</time>
      </trkpt>
      <trkpt lat="42.84521" lon="1.66595">
        <ele>797</ele>
        <time>2021-08-20T18:56:32Z</time>
      </trkpt>
      <trkpt lat="42.84529" lon="1.66594">
        <ele>798</ele>
        <time>2021-08-20T18:56:33Z</time>
      </trkpt>
      <trkpt lat="42.84535" lon="1.66596">
        <ele>799</ele>
        <time>2021-08-20T18:56:34Z</time>
      </trkpt>
      <trkpt lat="42.84539" lon="1.66604">
        <ele>802</ele>
        <time>2021-08-20T18:56:36Z</time>
      </trkpt>
      <trkpt lat="42.84538" lon="1.66612">
        <ele>803</ele>
        <time>2021-08-20T18:56:37Z</time>
      </trkpt>
      <trkpt lat="42.84533" lon="1.66621">
        <ele>805</ele>
        <time>2021-08-20T18:56:38Z</time>
      </trkpt>
      <trkpt lat="42.84513" lon="1.66646">
        <ele>809</ele>
        <time>2021-08-20T18:56:43Z</time>
      </trkpt>
      <trkpt lat="42.84496" lon="1.66662">
        <ele>811</ele>
        <time>2021-08-20T18:56:47Z</time>
      </trkpt>
      <trkpt lat="42.84466" lon="1.66684">
        <ele>814</ele>
        <time>2021-08-20T18:56:53Z</time>
      </trkpt>
      <trkpt lat="42.84433" lon="1.66701">
        <ele>816</ele>
        <time>2021-08-20T18:56:59Z</time>
      </trkpt>
      <trkpt lat="42.84402" lon="1.66731">
        <ele>822</ele>
        <time>2021-08-20T18:57:06Z</time>
      </trkpt>
      <trkpt lat="42.84375" lon="1.66748">
        <ele>824</ele>
        <time>2021-08-20T18:57:11Z</time>
      </trkpt>
      <trkpt lat="42.84337" lon="1.66762">
        <ele>824</ele>
        <time>2021-08-20T18:57:18Z</time>
      </trkpt>
      <trkpt lat="42.84327" lon="1.6677">
        <ele>825</ele>
        <time>2021-08-20T18:57:20Z</time>
      </trkpt>
      <trkpt lat="42.84313" lon="1.66788">
        <ele>828</ele>
        <time>2021-08-20T18:57:24Z</time>
      </trkpt>
      <trkpt lat="42.84289" lon="1.66803">
        <ele>828</ele>
        <time>2021-08-20T18:57:28Z</time>
      </trkpt>
      <trkpt lat="42.84262" lon="1.66843">
        <ele>836</ele>
        <time>2021-08-20T18:57:35Z</time>
      </trkpt>
      <trkpt lat="42.8424" lon="1.66869">
        <ele>841</ele>
        <time>2021-08-20T18:57:40Z</time>
      </trkpt>
      <trkpt lat="42.8423" lon="1.66885">
        <ele>845</ele>
        <time>2021-08-20T18:57:43Z</time>
      </trkpt>
      <trkpt lat="42.842" lon="1.66902">
        <ele>847</ele>
        <time>2021-08-20T18:57:49Z</time>
      </trkpt>
      <trkpt lat="42.8415" lon="1.66935">
        <ele>853</ele>
        <time>2021-08-20T18:57:59Z</time>
      </trkpt>
      <trkpt lat="42.84097" lon="1.66975">
        <ele>854</ele>
        <time>2021-08-20T18:58:10Z</time>
      </trkpt>
      <trkpt lat="42.84048" lon="1.67039">
        <ele>858</ele>
        <time>2021-08-20T18:58:22Z</time>
      </trkpt>
      <trkpt lat="42.84044" lon="1.67047">
        <ele>858</ele>
        <time>2021-08-20T18:58:23Z</time>
      </trkpt>
      <trkpt lat="42.84041" lon="1.67059">
        <ele>860</ele>
        <time>2021-08-20T18:58:25Z</time>
      </trkpt>
      <trkpt lat="42.84041" lon="1.67086">
        <ele>866</ele>
        <time>2021-08-20T18:58:28Z</time>
      </trkpt>
      <trkpt lat="42.8404" lon="1.67098">
        <ele>867</ele>
        <time>2021-08-20T18:58:30Z</time>
      </trkpt>
      <trkpt lat="42.84019" lon="1.67194">
        <ele>872</ele>
        <time>2021-08-20T18:58:43Z</time>
      </trkpt>
      <trkpt lat="42.84014" lon="1.67197">
        <ele>870</ele>
        <time>2021-08-20T18:58:44Z</time>
      </trkpt>
      <trkpt lat="42.83969" lon="1.67206">
        <ele>865</ele>
        <time>2021-08-20T18:58:52Z</time>
      </trkpt>
      <trkpt lat="42.83955" lon="1.67213">
        <ele>865</ele>
        <time>2021-08-20T18:58:55Z</time>
      </trkpt>
      <trkpt lat="42.83938" lon="1.67225">
        <ele>866</ele>
        <time>2021-08-20T18:58:58Z</time>
      </trkpt>
      <trkpt lat="42.83929" lon="1.67231">
        <ele>867</ele>
        <time>2021-08-20T18:59:00Z</time>
      </trkpt>
      <trkpt lat="42.83923" lon="1.67231">
        <ele>867</ele>
        <time>2021-08-20T18:59:01Z</time>
      </trkpt>
      <trkpt lat="42.83896" lon="1.67216">
        <ele>865</ele>
        <time>2021-08-20T18:59:06Z</time>
      </trkpt>
      <trkpt lat="42.83886" lon="1.67213">
        <ele>865</ele>
        <time>2021-08-20T18:59:08Z</time>
      </trkpt>
      <trkpt lat="42.83861" lon="1.67212">
        <ele>866</ele>
        <time>2021-08-20T18:59:12Z</time>
      </trkpt>
      <trkpt lat="42.8384" lon="1.67218">
        <ele>868</ele>
        <time>2021-08-20T18:59:16Z</time>
      </trkpt>
      <trkpt lat="42.83823" lon="1.67218">
        <ele>869</ele>
        <time>2021-08-20T18:59:19Z</time>
      </trkpt>
      <trkpt lat="42.83809" lon="1.67211">
        <ele>869</ele>
        <time>2021-08-20T18:59:22Z</time>
      </trkpt>
      <trkpt lat="42.83796" lon="1.672">
        <ele>868</ele>
        <time>2021-08-20T18:59:24Z</time>
      </trkpt>
      <trkpt lat="42.83774" lon="1.67177">
        <ele>864</ele>
        <time>2021-08-20T18:59:29Z</time>
      </trkpt>
      <trkpt lat="42.8376" lon="1.67158">
        <ele>859</ele>
        <time>2021-08-20T18:59:33Z</time>
      </trkpt>
      <trkpt lat="42.83751" lon="1.67152">
        <ele>857</ele>
        <time>2021-08-20T18:59:35Z</time>
      </trkpt>
      <trkpt lat="42.83744" lon="1.67151">
        <ele>855</ele>
        <time>2021-08-20T18:59:36Z</time>
      </trkpt>
      <trkpt lat="42.83736" lon="1.67154">
        <ele>853</ele>
        <time>2021-08-20T18:59:37Z</time>
      </trkpt>
      <trkpt lat="42.83681" lon="1.67233">
        <ele>865</ele>
        <time>2021-08-20T18:59:52Z</time>
      </trkpt>
      <trkpt lat="42.83672" lon="1.67243">
        <ele>867</ele>
        <time>2021-08-20T18:59:54Z</time>
      </trkpt>
      <trkpt lat="42.83652" lon="1.67258">
        <ele>867</ele>
        <time>2021-08-20T18:59:58Z</time>
      </trkpt>
      <trkpt lat="42.83587" lon="1.67282">
        <ele>858</ele>
        <time>2021-08-20T19:00:10Z</time>
      </trkpt>
      <trkpt lat="42.83577" lon="1.67288">
        <ele>858</ele>
        <time>2021-08-20T19:00:12Z</time>
      </trkpt>
      <trkpt lat="42.83558" lon="1.67301">
        <ele>859</ele>
        <time>2021-08-20T19:00:15Z</time>
      </trkpt>
      <trkpt lat="42.83502" lon="1.67351">
        <ele>866</ele>
        <time>2021-08-20T19:00:27Z</time>
      </trkpt>
      <trkpt lat="42.83486" lon="1.67361">
        <ele>866</ele>
        <time>2021-08-20T19:00:31Z</time>
      </trkpt>
      <trkpt lat="42.83459" lon="1.67376">
        <ele>864</ele>
        <time>2021-08-20T19:00:36Z</time>
      </trkpt>
      <trkpt lat="42.83434" lon="1.67397">
        <ele>865</ele>
        <time>2021-08-20T19:00:41Z</time>
      </trkpt>
      <trkpt lat="42.83348" lon="1.67455">
        <ele>869</ele>
        <time>2021-08-20T19:00:58Z</time>
      </trkpt>
      <trkpt lat="42.8323" lon="1.67515">
        <ele>874</ele>
        <time>2021-08-20T19:01:20Z</time>
      </trkpt>
      <trkpt lat="42.83221" lon="1.67517">
        <ele>874</ele>
        <time>2021-08-20T19:01:22Z</time>
      </trkpt>
      <trkpt lat="42.83186" lon="1.67518">
        <ele>869</ele>
        <time>2021-08-20T19:01:28Z</time>
      </trkpt>
      <trkpt lat="42.83177" lon="1.67522">
        <ele>870</ele>
        <time>2021-08-20T19:01:30Z</time>
      </trkpt>
      <trkpt lat="42.83138" lon="1.67561">
        <ele>879</ele>
        <time>2021-08-20T19:01:39Z</time>
      </trkpt>
      <trkpt lat="42.83112" lon="1.67576">
        <ele>879</ele>
        <time>2021-08-20T19:01:44Z</time>
      </trkpt>
      <trkpt lat="42.83064" lon="1.67597">
        <ele>877</ele>
        <time>2021-08-20T19:01:53Z</time>
      </trkpt>
      <trkpt lat="42.83047" lon="1.67606">
        <ele>878</ele>
        <time>2021-08-20T19:01:56Z</time>
      </trkpt>
      <trkpt lat="42.82967" lon="1.67666">
        <ele>882</ele>
        <time>2021-08-20T19:02:12Z</time>
      </trkpt>
      <trkpt lat="42.82958" lon="1.67675">
        <ele>883</ele>
        <time>2021-08-20T19:02:14Z</time>
      </trkpt>
      <trkpt lat="42.82944" lon="1.67697">
        <ele>887</ele>
        <time>2021-08-20T19:02:18Z</time>
      </trkpt>
      <trkpt lat="42.82935" lon="1.67709">
        <ele>888</ele>
        <time>2021-08-20T19:02:20Z</time>
      </trkpt>
      <trkpt lat="42.82915" lon="1.67725">
        <ele>887</ele>
        <time>2021-08-20T19:02:24Z</time>
      </trkpt>
      <trkpt lat="42.82885" lon="1.67745">
        <ele>889</ele>
        <time>2021-08-20T19:02:30Z</time>
      </trkpt>
      <trkpt lat="42.82871" lon="1.67757">
        <ele>890</ele>
        <time>2021-08-20T19:02:33Z</time>
      </trkpt>
      <trkpt lat="42.82859" lon="1.67772">
        <ele>892</ele>
        <time>2021-08-20T19:02:36Z</time>
      </trkpt>
      <trkpt lat="42.82835" lon="1.67813">
        <ele>896</ele>
        <time>2021-08-20T19:02:43Z</time>
      </trkpt>
      <trkpt lat="42.82828" lon="1.67821">
        <ele>897</ele>
        <time>2021-08-20T19:02:44Z</time>
      </trkpt>
      <trkpt lat="42.82795" lon="1.67846">
        <ele>896</ele>
        <time>2021-08-20T19:02:51Z</time>
      </trkpt>
      <trkpt lat="42.82776" lon="1.67863">
        <ele>897</ele>
        <time>2021-08-20T19:02:55Z</time>
      </trkpt>
      <trkpt lat="42.82758" lon="1.67884">
        <ele>899</ele>
        <time>2021-08-20T19:02:59Z</time>
      </trkpt>
      <trkpt lat="42.82717" lon="1.67921">
        <ele>901</ele>
        <time>2021-08-20T19:03:08Z</time>
      </trkpt>
      <trkpt lat="42.82676" lon="1.67946">
        <ele>900</ele>
        <time>2021-08-20T19:03:16Z</time>
      </trkpt>
      <trkpt lat="42.82661" lon="1.67959">
        <ele>902</ele>
        <time>2021-08-20T19:03:19Z</time>
      </trkpt>
      <trkpt lat="42.82634" lon="1.67992">
        <ele>908</ele>
        <time>2021-08-20T19:03:26Z</time>
      </trkpt>
      <trkpt lat="42.82574" lon="1.68044">
        <ele>910</ele>
        <time>2021-08-20T19:03:38Z</time>
      </trkpt>
      <trkpt lat="42.82548" lon="1.68076">
        <ele>913</ele>
        <time>2021-08-20T19:03:45Z</time>
      </trkpt>
      <trkpt lat="42.82533" lon="1.6809">
        <ele>914</ele>
        <time>2021-08-20T19:03:48Z</time>
      </trkpt>
      <trkpt lat="42.82483" lon="1.68123">
        <ele>920</ele>
        <time>2021-08-20T19:03:58Z</time>
      </trkpt>
      <trkpt lat="42.82462" lon="1.68145">
        <ele>921</ele>
        <time>2021-08-20T19:04:02Z</time>
      </trkpt>
      <trkpt lat="42.82444" lon="1.68169">
        <ele>918</ele>
        <time>2021-08-20T19:04:07Z</time>
      </trkpt>
      <trkpt lat="42.8238" lon="1.68226">
        <ele>922</ele>
        <time>2021-08-20T19:04:21Z</time>
      </trkpt>
      <trkpt lat="42.82368" lon="1.68242">
        <ele>922</ele>
        <time>2021-08-20T19:04:24Z</time>
      </trkpt>
      <trkpt lat="42.8235" lon="1.6826">
        <ele>921</ele>
        <time>2021-08-20T19:04:28Z</time>
      </trkpt>
      <trkpt lat="42.82322" lon="1.68278">
        <ele>923</ele>
        <time>2021-08-20T19:04:33Z</time>
      </trkpt>
      <trkpt lat="42.82269" lon="1.68316">
        <ele>924</ele>
        <time>2021-08-20T19:04:44Z</time>
      </trkpt>
      <trkpt lat="42.82235" lon="1.68336">
        <ele>921</ele>
        <time>2021-08-20T19:04:50Z</time>
      </trkpt>
      <trkpt lat="42.82214" lon="1.68353">
        <ele>924</ele>
        <time>2021-08-20T19:04:55Z</time>
      </trkpt>
      <trkpt lat="42.822" lon="1.6837">
        <ele>925</ele>
        <time>2021-08-20T19:04:58Z</time>
      </trkpt>
      <trkpt lat="42.82152" lon="1.68413">
        <ele>917</ele>
        <time>2021-08-20T19:05:08Z</time>
      </trkpt>
      <trkpt lat="42.8213" lon="1.68437">
        <ele>917</ele>
        <time>2021-08-20T19:05:13Z</time>
      </trkpt>
      <trkpt lat="42.82111" lon="1.68465">
        <ele>916</ele>
        <time>2021-08-20T19:05:18Z</time>
      </trkpt>
      <trkpt lat="42.82053" lon="1.68572">
        <ele>919</ele>
        <time>2021-08-20T19:05:36Z</time>
      </trkpt>
      <trkpt lat="42.8201" lon="1.6861">
        <ele>914</ele>
        <time>2021-08-20T19:05:45Z</time>
      </trkpt>
      <trkpt lat="42.81979" lon="1.68644">
        <ele>915</ele>
        <time>2021-08-20T19:05:52Z</time>
      </trkpt>
      <trkpt lat="42.81907" lon="1.68792">
        <ele>909</ele>
        <time>2021-08-20T19:06:15Z</time>
      </trkpt>
      <trkpt lat="42.81869" lon="1.68849">
        <ele>909</ele>
        <time>2021-08-20T19:06:25Z</time>
      </trkpt>
      <trkpt lat="42.81701" lon="1.69004">
        <ele>892</ele>
        <time>2021-08-20T19:07:01Z</time>
      </trkpt>
      <trkpt lat="42.81685" lon="1.69033">
        <ele>891</ele>
        <time>2021-08-20T19:07:06Z</time>
      </trkpt>
      <trkpt lat="42.81672" lon="1.69071">
        <ele>893</ele>
        <time>2021-08-20T19:07:11Z</time>
      </trkpt>
      <trkpt lat="42.81652" lon="1.69117">
        <ele>896</ele>
        <time>2021-08-20T19:07:18Z</time>
      </trkpt>
      <trkpt lat="42.81598" lon="1.69192">
        <ele>897</ele>
        <time>2021-08-20T19:07:32Z</time>
      </trkpt>
      <trkpt lat="42.81568" lon="1.69247">
        <ele>900</ele>
        <time>2021-08-20T19:07:41Z</time>
      </trkpt>
      <trkpt lat="42.81557" lon="1.69273">
        <ele>903</ele>
        <time>2021-08-20T19:07:45Z</time>
      </trkpt>
      <trkpt lat="42.81501" lon="1.69323">
        <ele>896</ele>
        <time>2021-08-20T19:07:57Z</time>
      </trkpt>
      <trkpt lat="42.81464" lon="1.69377">
        <ele>897</ele>
        <time>2021-08-20T19:08:06Z</time>
      </trkpt>
      <trkpt lat="42.81424" lon="1.69439">
        <ele>899</ele>
        <time>2021-08-20T19:08:17Z</time>
      </trkpt>
      <trkpt lat="42.81376" lon="1.69481">
        <ele>899</ele>
        <time>2021-08-20T19:08:27Z</time>
      </trkpt>
      <trkpt lat="42.81273" lon="1.69545">
        <ele>896</ele>
        <time>2021-08-20T19:08:47Z</time>
      </trkpt>
      <trkpt lat="42.81232" lon="1.69579">
        <ele>896</ele>
        <time>2021-08-20T19:08:56Z</time>
      </trkpt>
      <trkpt lat="42.812" lon="1.69613">
        <ele>897</ele>
        <time>2021-08-20T19:09:03Z</time>
      </trkpt>
      <trkpt lat="42.8118" lon="1.69622">
        <ele>895</ele>
        <time>2021-08-20T19:09:07Z</time>
      </trkpt>
      <trkpt lat="42.81142" lon="1.69629">
        <ele>892</ele>
        <time>2021-08-20T19:09:14Z</time>
      </trkpt>
      <trkpt lat="42.81117" lon="1.69648">
        <ele>892</ele>
        <time>2021-08-20T19:09:19Z</time>
      </trkpt>
      <trkpt lat="42.81097" lon="1.6967">
        <ele>893</ele>
        <time>2021-08-20T19:09:23Z</time>
      </trkpt>
      <trkpt lat="42.81068" lon="1.69713">
        <ele>897</ele>
        <time>2021-08-20T19:09:31Z</time>
      </trkpt>
      <trkpt lat="42.81041" lon="1.69761">
        <ele>899</ele>
        <time>2021-08-20T19:09:39Z</time>
      </trkpt>
      <trkpt lat="42.81034" lon="1.69779">
        <ele>899</ele>
        <time>2021-08-20T19:09:42Z</time>
      </trkpt>
      <trkpt lat="42.81027" lon="1.69829">
        <ele>899</ele>
        <time>2021-08-20T19:09:48Z</time>
      </trkpt>
      <trkpt lat="42.81022" lon="1.69849">
        <ele>898</ele>
        <time>2021-08-20T19:09:51Z</time>
      </trkpt>
      <trkpt lat="42.81011" lon="1.69872">
        <ele>895</ele>
        <time>2021-08-20T19:09:55Z</time>
      </trkpt>
      <trkpt lat="42.80998" lon="1.69905">
        <ele>891</ele>
        <time>2021-08-20T19:09:59Z</time>
      </trkpt>
      <trkpt lat="42.80996" lon="1.69918">
        <ele>890</ele>
        <time>2021-08-20T19:10:01Z</time>
      </trkpt>
      <trkpt lat="42.80998" lon="1.69932">
        <ele>891</ele>
        <time>2021-08-20T19:10:03Z</time>
      </trkpt>
      <trkpt lat="42.81019" lon="1.70016">
        <ele>897</ele>
        <time>2021-08-20T19:10:15Z</time>
      </trkpt>
      <trkpt lat="42.81021" lon="1.70031">
        <ele>897</ele>
        <time>2021-08-20T19:10:17Z</time>
      </trkpt>
      <trkpt lat="42.8102" lon="1.70065">
        <ele>895</ele>
        <time>2021-08-20T19:10:21Z</time>
      </trkpt>
      <trkpt lat="42.81022" lon="1.70083">
        <ele>896</ele>
        <time>2021-08-20T19:10:23Z</time>
      </trkpt>
      <trkpt lat="42.81028" lon="1.70115">
        <ele>898</ele>
        <time>2021-08-20T19:10:28Z</time>
      </trkpt>
      <trkpt lat="42.8103" lon="1.7014">
        <ele>899</ele>
        <time>2021-08-20T19:10:31Z</time>
      </trkpt>
      <trkpt lat="42.81033" lon="1.70158">
        <ele>900</ele>
        <time>2021-08-20T19:10:33Z</time>
      </trkpt>
      <trkpt lat="42.81044" lon="1.7019">
        <ele>905</ele>
        <time>2021-08-20T19:10:38Z</time>
      </trkpt>
      <trkpt lat="42.81044" lon="1.70201">
        <ele>906</ele>
        <time>2021-08-20T19:10:40Z</time>
      </trkpt>
      <trkpt lat="42.81041" lon="1.70212">
        <ele>906</ele>
        <time>2021-08-20T19:10:41Z</time>
      </trkpt>
      <trkpt lat="42.81033" lon="1.70225">
        <ele>905</ele>
        <time>2021-08-20T19:10:43Z</time>
      </trkpt>
      <trkpt lat="42.81021" lon="1.70235">
        <ele>903</ele>
        <time>2021-08-20T19:10:46Z</time>
      </trkpt>
      <trkpt lat="42.81007" lon="1.70239">
        <ele>901</ele>
        <time>2021-08-20T19:10:48Z</time>
      </trkpt>
      <trkpt lat="42.80992" lon="1.70238">
        <ele>901</ele>
        <time>2021-08-20T19:10:51Z</time>
      </trkpt>
      <trkpt lat="42.80969" lon="1.7023">
        <ele>901</ele>
        <time>2021-08-20T19:10:55Z</time>
      </trkpt>
      <trkpt lat="42.80957" lon="1.70233">
        <ele>902</ele>
        <time>2021-08-20T19:10:57Z</time>
      </trkpt>
      <trkpt lat="42.80942" lon="1.70252">
        <ele>908</ele>
        <time>2021-08-20T19:11:01Z</time>
      </trkpt>
      <trkpt lat="42.80937" lon="1.70254">
        <ele>910</ele>
        <time>2021-08-20T19:11:02Z</time>
      </trkpt>
      <trkpt lat="42.80932" lon="1.70253">
        <ele>910</ele>
        <time>2021-08-20T19:11:03Z</time>
      </trkpt>
      <trkpt lat="42.80917" lon="1.70229">
        <ele>904</ele>
        <time>2021-08-20T19:11:07Z</time>
      </trkpt>
      <trkpt lat="42.80879" lon="1.70176">
        <ele>898</ele>
        <time>2021-08-20T19:11:17Z</time>
      </trkpt>
      <trkpt lat="42.80831" lon="1.7016">
        <ele>904</ele>
        <time>2021-08-20T19:11:25Z</time>
      </trkpt>
      <trkpt lat="42.80818" lon="1.70151">
        <ele>904</ele>
        <time>2021-08-20T19:11:28Z</time>
      </trkpt>
      <trkpt lat="42.8081" lon="1.70139">
        <ele>903</ele>
        <time>2021-08-20T19:11:30Z</time>
      </trkpt>
      <trkpt lat="42.80802" lon="1.70114">
        <ele>899</ele>
        <time>2021-08-20T19:11:34Z</time>
      </trkpt>
      <trkpt lat="42.80796" lon="1.70108">
        <ele>898</ele>
        <time>2021-08-20T19:11:35Z</time>
      </trkpt>
      <trkpt lat="42.8079" lon="1.70108">
        <ele>899</ele>
        <time>2021-08-20T19:11:36Z</time>
      </trkpt>
      <trkpt lat="42.80783" lon="1.70114">
        <ele>901</ele>
        <time>2021-08-20T19:11:38Z</time>
      </trkpt>
      <trkpt lat="42.80768" lon="1.70135">
        <ele>908</ele>
        <time>2021-08-20T19:11:41Z</time>
      </trkpt>
      <trkpt lat="42.80758" lon="1.70139">
        <ele>910</ele>
        <time>2021-08-20T19:11:43Z</time>
      </trkpt>
      <trkpt lat="42.80748" lon="1.70133">
        <ele>910</ele>
        <time>2021-08-20T19:11:45Z</time>
      </trkpt>
      <trkpt lat="42.80739" lon="1.70115">
        <ele>906</ele>
        <time>2021-08-20T19:11:48Z</time>
      </trkpt>
      <trkpt lat="42.80729" lon="1.70105">
        <ele>904</ele>
        <time>2021-08-20T19:11:50Z</time>
      </trkpt>
      <trkpt lat="42.80686" lon="1.70092">
        <ele>904</ele>
        <time>2021-08-20T19:11:58Z</time>
      </trkpt>
      <trkpt lat="42.80559" lon="1.70106">
        <ele>904</ele>
        <time>2021-08-20T19:12:21Z</time>
      </trkpt>
      <trkpt lat="42.80468" lon="1.70123">
        <ele>901</ele>
        <time>2021-08-20T19:12:37Z</time>
      </trkpt>
      <trkpt lat="42.8042" lon="1.70129">
        <ele>897</ele>
        <time>2021-08-20T19:12:46Z</time>
      </trkpt>
      <trkpt lat="42.80389" lon="1.70138">
        <ele>896</ele>
        <time>2021-08-20T19:12:51Z</time>
      </trkpt>
      <trkpt lat="42.80374" lon="1.70149">
        <ele>897</ele>
        <time>2021-08-20T19:12:54Z</time>
      </trkpt>
      <trkpt lat="42.80344" lon="1.7018">
        <ele>903</ele>
        <time>2021-08-20T19:13:01Z</time>
      </trkpt>
      <trkpt lat="42.80329" lon="1.70187">
        <ele>904</ele>
        <time>2021-08-20T19:13:04Z</time>
      </trkpt>
      <trkpt lat="42.80301" lon="1.7018">
        <ele>898</ele>
        <time>2021-08-20T19:13:09Z</time>
      </trkpt>
      <trkpt lat="42.80286" lon="1.70184">
        <ele>897</ele>
        <time>2021-08-20T19:13:12Z</time>
      </trkpt>
      <trkpt lat="42.8027" lon="1.70206">
        <ele>899</ele>
        <time>2021-08-20T19:13:16Z</time>
      </trkpt>
      <trkpt lat="42.80208" lon="1.70307">
        <ele>905</ele>
        <time>2021-08-20T19:13:33Z</time>
      </trkpt>
      <trkpt lat="42.80131" lon="1.70392">
        <ele>903</ele>
        <time>2021-08-20T19:13:51Z</time>
      </trkpt>
      <trkpt lat="42.80111" lon="1.70426">
        <ele>903</ele>
        <time>2021-08-20T19:13:56Z</time>
      </trkpt>
      <trkpt lat="42.80081" lon="1.7049">
        <ele>906</ele>
        <time>2021-08-20T19:14:06Z</time>
      </trkpt>
      <trkpt lat="42.8004" lon="1.70556">
        <ele>914</ele>
        <time>2021-08-20T19:14:17Z</time>
      </trkpt>
      <trkpt lat="42.79957" lon="1.70661">
        <ele>916</ele>
        <time>2021-08-20T19:14:38Z</time>
      </trkpt>
      <trkpt lat="42.79923" lon="1.70711">
        <ele>915</ele>
        <time>2021-08-20T19:14:46Z</time>
      </trkpt>
      <trkpt lat="42.79881" lon="1.70783">
        <ele>919</ele>
        <time>2021-08-20T19:14:58Z</time>
      </trkpt>
      <trkpt lat="42.79865" lon="1.70817">
        <ele>919</ele>
        <time>2021-08-20T19:15:04Z</time>
      </trkpt>
      <trkpt lat="42.79849" lon="1.70874">
        <ele>920</ele>
        <time>2021-08-20T19:15:12Z</time>
      </trkpt>
      <trkpt lat="42.79822" lon="1.70934">
        <ele>919</ele>
        <time>2021-08-20T19:15:21Z</time>
      </trkpt>
      <trkpt lat="42.79801" lon="1.71029">
        <ele>919</ele>
        <time>2021-08-20T19:15:34Z</time>
      </trkpt>
      <trkpt lat="42.798" lon="1.71043">
        <ele>918</ele>
        <time>2021-08-20T19:15:36Z</time>
      </trkpt>
      <trkpt lat="42.79815" lon="1.71133">
        <ele>918</ele>
        <time>2021-08-20T19:15:48Z</time>
      </trkpt>
      <trkpt lat="42.79817" lon="1.71149">
        <ele>918</ele>
        <time>2021-08-20T19:15:50Z</time>
      </trkpt>
      <trkpt lat="42.79816" lon="1.71171">
        <ele>916</ele>
        <time>2021-08-20T19:15:53Z</time>
      </trkpt>
      <trkpt lat="42.79811" lon="1.71221">
        <ele>910</ele>
        <time>2021-08-20T19:15:59Z</time>
      </trkpt>
      <trkpt lat="42.79816" lon="1.71236">
        <ele>910</ele>
        <time>2021-08-20T19:16:01Z</time>
      </trkpt>
      <trkpt lat="42.79832" lon="1.71252">
        <ele>914</ele>
        <time>2021-08-20T19:16:05Z</time>
      </trkpt>
      <trkpt lat="42.79841" lon="1.71269">
        <ele>914</ele>
        <time>2021-08-20T19:16:08Z</time>
      </trkpt>
      <trkpt lat="42.79906" lon="1.71446">
        <ele>912</ele>
        <time>2021-08-20T19:16:34Z</time>
      </trkpt>
      <trkpt lat="42.7991" lon="1.71461">
        <ele>912</ele>
        <time>2021-08-20T19:16:36Z</time>
      </trkpt>
      <trkpt lat="42.79913" lon="1.71482">
        <ele>910</ele>
        <time>2021-08-20T19:16:38Z</time>
      </trkpt>
      <trkpt lat="42.79913" lon="1.71501">
        <ele>907</ele>
        <time>2021-08-20T19:16:41Z</time>
      </trkpt>
      <trkpt lat="42.79902" lon="1.71586">
        <ele>909</ele>
        <time>2021-08-20T19:16:52Z</time>
      </trkpt>
      <trkpt lat="42.79899" lon="1.71601">
        <ele>911</ele>
        <time>2021-08-20T19:16:54Z</time>
      </trkpt>
      <trkpt lat="42.79892" lon="1.71608">
        <ele>913</ele>
        <time>2021-08-20T19:16:56Z</time>
      </trkpt>
      <trkpt lat="42.79877" lon="1.71615">
        <ele>916</ele>
        <time>2021-08-20T19:16:59Z</time>
      </trkpt>
      <trkpt lat="42.7987" lon="1.71612">
        <ele>916</ele>
        <time>2021-08-20T19:17:00Z</time>
      </trkpt>
      <trkpt lat="42.79853" lon="1.71597">
        <ele>915</ele>
        <time>2021-08-20T19:17:04Z</time>
      </trkpt>
      <trkpt lat="42.79837" lon="1.71573">
        <ele>909</ele>
        <time>2021-08-20T19:17:08Z</time>
      </trkpt>
      <trkpt lat="42.7982" lon="1.71555">
        <ele>907</ele>
        <time>2021-08-20T19:17:12Z</time>
      </trkpt>
      <trkpt lat="42.79806" lon="1.7153">
        <ele>903</ele>
        <time>2021-08-20T19:17:16Z</time>
      </trkpt>
      <trkpt lat="42.7979" lon="1.7151">
        <ele>901</ele>
        <time>2021-08-20T19:17:20Z</time>
      </trkpt>
      <trkpt lat="42.79773" lon="1.71495">
        <ele>900</ele>
        <time>2021-08-20T19:17:23Z</time>
      </trkpt>
      <trkpt lat="42.79755" lon="1.71487">
        <ele>901</ele>
        <time>2021-08-20T19:17:27Z</time>
      </trkpt>
      <trkpt lat="42.7974" lon="1.71486">
        <ele>901</ele>
        <time>2021-08-20T19:17:29Z</time>
      </trkpt>
      <trkpt lat="42.79717" lon="1.71501">
        <ele>904</ele>
        <time>2021-08-20T19:17:34Z</time>
      </trkpt>
      <trkpt lat="42.79698" lon="1.71533">
        <ele>909</ele>
        <time>2021-08-20T19:17:39Z</time>
      </trkpt>
      <trkpt lat="42.79689" lon="1.71552">
        <ele>912</ele>
        <time>2021-08-20T19:17:42Z</time>
      </trkpt>
      <trkpt lat="42.7968" lon="1.71561">
        <ele>913</ele>
        <time>2021-08-20T19:17:44Z</time>
      </trkpt>
      <trkpt lat="42.79656" lon="1.71572">
        <ele>913</ele>
        <time>2021-08-20T19:17:49Z</time>
      </trkpt>
      <trkpt lat="42.79586" lon="1.71588">
        <ele>913</ele>
        <time>2021-08-20T19:18:01Z</time>
      </trkpt>
      <trkpt lat="42.79574" lon="1.71594">
        <ele>913</ele>
        <time>2021-08-20T19:18:03Z</time>
      </trkpt>
      <trkpt lat="42.79537" lon="1.71626">
        <ele>914</ele>
        <time>2021-08-20T19:18:11Z</time>
      </trkpt>
      <trkpt lat="42.79527" lon="1.71632">
        <ele>913</ele>
        <time>2021-08-20T19:18:13Z</time>
      </trkpt>
      <trkpt lat="42.79511" lon="1.71638">
        <ele>912</ele>
        <time>2021-08-20T19:18:16Z</time>
      </trkpt>
      <trkpt lat="42.79499" lon="1.71638">
        <ele>911</ele>
        <time>2021-08-20T19:18:18Z</time>
      </trkpt>
      <trkpt lat="42.79488" lon="1.71642">
        <ele>911</ele>
        <time>2021-08-20T19:18:20Z</time>
      </trkpt>
      <trkpt lat="42.79437" lon="1.71687">
        <ele>915</ele>
        <time>2021-08-20T19:18:31Z</time>
      </trkpt>
      <trkpt lat="42.79422" lon="1.71696">
        <ele>915</ele>
        <time>2021-08-20T19:18:34Z</time>
      </trkpt>
      <trkpt lat="42.79402" lon="1.717">
        <ele>914</ele>
        <time>2021-08-20T19:18:38Z</time>
      </trkpt>
      <trkpt lat="42.7937" lon="1.71724">
        <ele>915</ele>
        <time>2021-08-20T19:18:44Z</time>
      </trkpt>
      <trkpt lat="42.79343" lon="1.71737">
        <ele>914</ele>
        <time>2021-08-20T19:18:49Z</time>
      </trkpt>
      <trkpt lat="42.79309" lon="1.71746">
        <ele>914</ele>
        <time>2021-08-20T19:18:55Z</time>
      </trkpt>
      <trkpt lat="42.79296" lon="1.71753">
        <ele>914</ele>
        <time>2021-08-20T19:18:58Z</time>
      </trkpt>
      <trkpt lat="42.7929" lon="1.71763">
        <ele>914</ele>
        <time>2021-08-20T19:19:00Z</time>
      </trkpt>
      <trkpt lat="42.79286" lon="1.71776">
        <ele>914</ele>
        <time>2021-08-20T19:19:01Z</time>
      </trkpt>
      <trkpt lat="42.79288" lon="1.71821">
        <ele>915</ele>
        <time>2021-08-20T19:19:07Z</time>
      </trkpt>
      <trkpt lat="42.79293" lon="1.7187">
        <ele>918</ele>
        <time>2021-08-20T19:19:14Z</time>
      </trkpt>
      <trkpt lat="42.79291" lon="1.71897">
        <ele>919</ele>
        <time>2021-08-20T19:19:17Z</time>
      </trkpt>
      <trkpt lat="42.79286" lon="1.7193">
        <ele>920</ele>
        <time>2021-08-20T19:19:22Z</time>
      </trkpt>
      <trkpt lat="42.79276" lon="1.7197">
        <ele>921</ele>
        <time>2021-08-20T19:19:27Z</time>
      </trkpt>
      <trkpt lat="42.79253" lon="1.72038">
        <ele>922</ele>
        <time>2021-08-20T19:19:37Z</time>
      </trkpt>
      <trkpt lat="42.79248" lon="1.72081">
        <ele>924</ele>
        <time>2021-08-20T19:19:43Z</time>
      </trkpt>
      <trkpt lat="42.79246" lon="1.7214">
        <ele>932</ele>
        <time>2021-08-20T19:19:50Z</time>
      </trkpt>
      <trkpt lat="42.79242" lon="1.72155">
        <ele>933</ele>
        <time>2021-08-20T19:19:52Z</time>
      </trkpt>
      <trkpt lat="42.79233" lon="1.72164">
        <ele>933</ele>
        <time>2021-08-20T19:19:54Z</time>
      </trkpt>
      <trkpt lat="42.79221" lon="1.72165">
        <ele>931</ele>
        <time>2021-08-20T19:19:57Z</time>
      </trkpt>
      <trkpt lat="42.79205" lon="1.72158">
        <ele>927</ele>
        <time>2021-08-20T19:20:00Z</time>
      </trkpt>
      <trkpt lat="42.79191" lon="1.7216">
        <ele>925</ele>
        <time>2021-08-20T19:20:02Z</time>
      </trkpt>
      <trkpt lat="42.7918" lon="1.72169">
        <ele>925</ele>
        <time>2021-08-20T19:20:04Z</time>
      </trkpt>
      <trkpt lat="42.79171" lon="1.72187">
        <ele>926</ele>
        <time>2021-08-20T19:20:07Z</time>
      </trkpt>
      <trkpt lat="42.79143" lon="1.72262">
        <ele>932</ele>
        <time>2021-08-20T19:20:18Z</time>
      </trkpt>
      <trkpt lat="42.79111" lon="1.72344">
        <ele>937</ele>
        <time>2021-08-20T19:20:30Z</time>
      </trkpt>
      <trkpt lat="42.7909" lon="1.72386">
        <ele>939</ele>
        <time>2021-08-20T19:20:37Z</time>
      </trkpt>
      <trkpt lat="42.79057" lon="1.72444">
        <ele>943</ele>
        <time>2021-08-20T19:20:47Z</time>
      </trkpt>
      <trkpt lat="42.78996" lon="1.72533">
        <ele>942</ele>
        <time>2021-08-20T19:21:02Z</time>
      </trkpt>
      <trkpt lat="42.78986" lon="1.72549">
        <ele>944</ele>
        <time>2021-08-20T19:21:05Z</time>
      </trkpt>
      <trkpt lat="42.78983" lon="1.72562">
        <ele>945</ele>
        <time>2021-08-20T19:21:07Z</time>
      </trkpt>
      <trkpt lat="42.78984" lon="1.72604">
        <ele>947</ele>
        <time>2021-08-20T19:21:12Z</time>
      </trkpt>
      <trkpt lat="42.78979" lon="1.72624">
        <ele>948</ele>
        <time>2021-08-20T19:21:15Z</time>
      </trkpt>
      <trkpt lat="42.78959" lon="1.72666">
        <ele>950</ele>
        <time>2021-08-20T19:21:22Z</time>
      </trkpt>
      <trkpt lat="42.78954" lon="1.72681">
        <ele>950</ele>
        <time>2021-08-20T19:21:24Z</time>
      </trkpt>
      <trkpt lat="42.78952" lon="1.72695">
        <ele>951</ele>
        <time>2021-08-20T19:21:26Z</time>
      </trkpt>
      <trkpt lat="42.78952" lon="1.72736">
        <ele>953</ele>
        <time>2021-08-20T19:21:31Z</time>
      </trkpt>
      <trkpt lat="42.78948" lon="1.72752">
        <ele>953</ele>
        <time>2021-08-20T19:21:33Z</time>
      </trkpt>
      <trkpt lat="42.78941" lon="1.72769">
        <ele>954</ele>
        <time>2021-08-20T19:21:36Z</time>
      </trkpt>
      <trkpt lat="42.78927" lon="1.72792">
        <ele>954</ele>
        <time>2021-08-20T19:21:40Z</time>
      </trkpt>
      <trkpt lat="42.78923" lon="1.72803">
        <ele>955</ele>
        <time>2021-08-20T19:21:41Z</time>
      </trkpt>
      <trkpt lat="42.7892" lon="1.72815">
        <ele>955</ele>
        <time>2021-08-20T19:21:43Z</time>
      </trkpt>
      <trkpt lat="42.78921" lon="1.72857">
        <ele>957</ele>
        <time>2021-08-20T19:21:49Z</time>
      </trkpt>
      <trkpt lat="42.78918" lon="1.72883">
        <ele>957</ele>
        <time>2021-08-20T19:21:52Z</time>
      </trkpt>
      <trkpt lat="42.78906" lon="1.72916">
        <ele>959</ele>
        <time>2021-08-20T19:21:57Z</time>
      </trkpt>
      <trkpt lat="42.78899" lon="1.72949">
        <ele>959</ele>
        <time>2021-08-20T19:22:01Z</time>
      </trkpt>
      <trkpt lat="42.78883" lon="1.7304">
        <ele>958</ele>
        <time>2021-08-20T19:22:13Z</time>
      </trkpt>
      <trkpt lat="42.78882" lon="1.73055">
        <ele>957</ele>
        <time>2021-08-20T19:22:15Z</time>
      </trkpt>
      <trkpt lat="42.78886" lon="1.73068">
        <ele>955</ele>
        <time>2021-08-20T19:22:17Z</time>
      </trkpt>
      <trkpt lat="42.78896" lon="1.73077">
        <ele>954</ele>
        <time>2021-08-20T19:22:19Z</time>
      </trkpt>
      <trkpt lat="42.78919" lon="1.73086">
        <ele>951</ele>
        <time>2021-08-20T19:22:24Z</time>
      </trkpt>
      <trkpt lat="42.78964" lon="1.73099">
        <ele>950</ele>
        <time>2021-08-20T19:22:32Z</time>
      </trkpt>
      <trkpt lat="42.78973" lon="1.73103">
        <ele>949</ele>
        <time>2021-08-20T19:22:34Z</time>
      </trkpt>
      <trkpt lat="42.78989" lon="1.7312">
        <ele>948</ele>
        <time>2021-08-20T19:22:37Z</time>
      </trkpt>
      <trkpt lat="42.7901" lon="1.73156">
        <ele>948</ele>
        <time>2021-08-20T19:22:43Z</time>
      </trkpt>
      <trkpt lat="42.79012" lon="1.73168">
        <ele>948</ele>
        <time>2021-08-20T19:22:45Z</time>
      </trkpt>
      <trkpt lat="42.79012" lon="1.73186">
        <ele>948</ele>
        <time>2021-08-20T19:22:47Z</time>
      </trkpt>
      <trkpt lat="42.7901" lon="1.73224">
        <ele>948</ele>
        <time>2021-08-20T19:22:52Z</time>
      </trkpt>
      <trkpt lat="42.79005" lon="1.73275">
        <ele>947</ele>
        <time>2021-08-20T19:22:59Z</time>
      </trkpt>
      <trkpt lat="42.78989" lon="1.7333">
        <ele>945</ele>
        <time>2021-08-20T19:23:07Z</time>
      </trkpt>
      <trkpt lat="42.7898" lon="1.73397">
        <ele>940</ele>
        <time>2021-08-20T19:23:15Z</time>
      </trkpt>
      <trkpt lat="42.78983" lon="1.73445">
        <ele>937</ele>
        <time>2021-08-20T19:23:22Z</time>
      </trkpt>
      <trkpt lat="42.78993" lon="1.73481">
        <ele>935</ele>
        <time>2021-08-20T19:23:27Z</time>
      </trkpt>
      <trkpt lat="42.79011" lon="1.73519">
        <ele>934</ele>
        <time>2021-08-20T19:23:33Z</time>
      </trkpt>
      <trkpt lat="42.79022" lon="1.7353">
        <ele>934</ele>
        <time>2021-08-20T19:23:35Z</time>
      </trkpt>
      <trkpt lat="42.7905" lon="1.73543">
        <ele>936</ele>
        <time>2021-08-20T19:23:40Z</time>
      </trkpt>
      <trkpt lat="42.79072" lon="1.73549">
        <ele>938</ele>
        <time>2021-08-20T19:23:44Z</time>
      </trkpt>
      <trkpt lat="42.79077" lon="1.73552">
        <ele>938</ele>
        <time>2021-08-20T19:23:45Z</time>
      </trkpt>
      <trkpt lat="42.79084" lon="1.73561">
        <ele>938</ele>
        <time>2021-08-20T19:23:47Z</time>
      </trkpt>
      <trkpt lat="42.79086" lon="1.73571">
        <ele>937</ele>
        <time>2021-08-20T19:23:48Z</time>
      </trkpt>
      <trkpt lat="42.79087" lon="1.73583">
        <ele>936</ele>
        <time>2021-08-20T19:23:50Z</time>
      </trkpt>
      <trkpt lat="42.79085" lon="1.73594">
        <ele>935</ele>
        <time>2021-08-20T19:23:51Z</time>
      </trkpt>
      <trkpt lat="42.79065" lon="1.73632">
        <ele>931</ele>
        <time>2021-08-20T19:23:58Z</time>
      </trkpt>
      <trkpt lat="42.79058" lon="1.73653">
        <ele>929</ele>
        <time>2021-08-20T19:24:01Z</time>
      </trkpt>
      <trkpt lat="42.79054" lon="1.73677">
        <ele>928</ele>
        <time>2021-08-20T19:24:04Z</time>
      </trkpt>
      <trkpt lat="42.79053" lon="1.73698">
        <ele>929</ele>
        <time>2021-08-20T19:24:06Z</time>
      </trkpt>
      <trkpt lat="42.79049" lon="1.73719">
        <ele>929</ele>
        <time>2021-08-20T19:24:09Z</time>
      </trkpt>
      <trkpt lat="42.79037" lon="1.73745">
        <ele>926</ele>
        <time>2021-08-20T19:24:13Z</time>
      </trkpt>
      <trkpt lat="42.79016" lon="1.7378">
        <ele>923</ele>
        <time>2021-08-20T19:24:19Z</time>
      </trkpt>
      <trkpt lat="42.79007" lon="1.73802">
        <ele>923</ele>
        <time>2021-08-20T19:24:23Z</time>
      </trkpt>
      <trkpt lat="42.78991" lon="1.73866">
        <ele>926</ele>
        <time>2021-08-20T19:24:31Z</time>
      </trkpt>
      <trkpt lat="42.78984" lon="1.7389">
        <ele>927</ele>
        <time>2021-08-20T19:24:35Z</time>
      </trkpt>
      <trkpt lat="42.78974" lon="1.73914">
        <ele>927</ele>
        <time>2021-08-20T19:24:38Z</time>
      </trkpt>
      <trkpt lat="42.78933" lon="1.73975">
        <ele>921</ele>
        <time>2021-08-20T19:24:49Z</time>
      </trkpt>
      <trkpt lat="42.78916" lon="1.74009">
        <ele>921</ele>
        <time>2021-08-20T19:24:54Z</time>
      </trkpt>
      <trkpt lat="42.78903" lon="1.74031">
        <ele>922</ele>
        <time>2021-08-20T19:24:58Z</time>
      </trkpt>
      <trkpt lat="42.78856" lon="1.74092">
        <ele>915</ele>
        <time>2021-08-20T19:25:10Z</time>
      </trkpt>
      <trkpt lat="42.7883" lon="1.74148">
        <ele>910</ele>
        <time>2021-08-20T19:25:18Z</time>
      </trkpt>
      <trkpt lat="42.78823" lon="1.74172">
        <ele>908</ele>
        <time>2021-08-20T19:25:22Z</time>
      </trkpt>
      <trkpt lat="42.7882" lon="1.74199">
        <ele>907</ele>
        <time>2021-08-20T19:25:25Z</time>
      </trkpt>
      <trkpt lat="42.7882" lon="1.7423">
        <ele>906</ele>
        <time>2021-08-20T19:25:29Z</time>
      </trkpt>
      <trkpt lat="42.78822" lon="1.74254">
        <ele>906</ele>
        <time>2021-08-20T19:25:33Z</time>
      </trkpt>
      <trkpt lat="42.78829" lon="1.74271">
        <ele>907</ele>
        <time>2021-08-20T19:25:35Z</time>
      </trkpt>
      <trkpt lat="42.78844" lon="1.74284">
        <ele>910</ele>
        <time>2021-08-20T19:25:38Z</time>
      </trkpt>
      <trkpt lat="42.78858" lon="1.74292">
        <ele>913</ele>
        <time>2021-08-20T19:25:41Z</time>
      </trkpt>
      <trkpt lat="42.78875" lon="1.74311">
        <ele>915</ele>
        <time>2021-08-20T19:25:45Z</time>
      </trkpt>
      <trkpt lat="42.78891" lon="1.74322">
        <ele>917</ele>
        <time>2021-08-20T19:25:48Z</time>
      </trkpt>
      <trkpt lat="42.7892" lon="1.74355">
        <ele>921</ele>
        <time>2021-08-20T19:25:55Z</time>
      </trkpt>
      <trkpt lat="42.78931" lon="1.74376">
        <ele>923</ele>
        <time>2021-08-20T19:25:58Z</time>
      </trkpt>
      <trkpt lat="42.78933" lon="1.7439">
        <ele>923</ele>
        <time>2021-08-20T19:26:00Z</time>
      </trkpt>
      <trkpt lat="42.78929" lon="1.74407">
        <ele>919</ele>
        <time>2021-08-20T19:26:02Z</time>
      </trkpt>
      <trkpt lat="42.78922" lon="1.74414">
        <ele>917</ele>
        <time>2021-08-20T19:26:04Z</time>
      </trkpt>
      <trkpt lat="42.78915" lon="1.74419">
        <ele>915</ele>
        <time>2021-08-20T19:26:05Z</time>
      </trkpt>
      <trkpt lat="42.78867" lon="1.74419">
        <ele>909</ele>
        <time>2021-08-20T19:26:14Z</time>
      </trkpt>
      <trkpt lat="42.78833" lon="1.7443">
        <ele>907</ele>
        <time>2021-08-20T19:26:20Z</time>
      </trkpt>
      <trkpt lat="42.78787" lon="1.7443">
        <ele>903</ele>
        <time>2021-08-20T19:26:28Z</time>
      </trkpt>
      <trkpt lat="42.78761" lon="1.7442">
        <ele>900</ele>
        <time>2021-08-20T19:26:33Z</time>
      </trkpt>
      <trkpt lat="42.78728" lon="1.74389">
        <ele>893</ele>
        <time>2021-08-20T19:26:40Z</time>
      </trkpt>
      <trkpt lat="42.78717" lon="1.74385">
        <ele>892</ele>
        <time>2021-08-20T19:26:42Z</time>
      </trkpt>
      <trkpt lat="42.78706" lon="1.74387">
        <ele>891</ele>
        <time>2021-08-20T19:26:44Z</time>
      </trkpt>
      <trkpt lat="42.78567" lon="1.74477">
        <ele>884</ele>
        <time>2021-08-20T19:27:12Z</time>
      </trkpt>
      <trkpt lat="42.78558" lon="1.7449">
        <ele>884</ele>
        <time>2021-08-20T19:27:14Z</time>
      </trkpt>
      <trkpt lat="42.78549" lon="1.74507">
        <ele>885</ele>
        <time>2021-08-20T19:27:17Z</time>
      </trkpt>
      <trkpt lat="42.78487" lon="1.74662">
        <ele>884</ele>
        <time>2021-08-20T19:27:40Z</time>
      </trkpt>
      <trkpt lat="42.78475" lon="1.74702">
        <ele>882</ele>
        <time>2021-08-20T19:27:45Z</time>
      </trkpt>
      <trkpt lat="42.78462" lon="1.74756">
        <ele>880</ele>
        <time>2021-08-20T19:27:53Z</time>
      </trkpt>
      <trkpt lat="42.78461" lon="1.74795">
        <ele>880</ele>
        <time>2021-08-20T19:27:58Z</time>
      </trkpt>
      <trkpt lat="42.78464" lon="1.74871">
        <ele>880</ele>
        <time>2021-08-20T19:28:08Z</time>
      </trkpt>
      <trkpt lat="42.78462" lon="1.74908">
        <ele>879</ele>
        <time>2021-08-20T19:28:13Z</time>
      </trkpt>
      <trkpt lat="42.78456" lon="1.74938">
        <ele>878</ele>
        <time>2021-08-20T19:28:17Z</time>
      </trkpt>
      <trkpt lat="42.78438" lon="1.74968">
        <ele>875</ele>
        <time>2021-08-20T19:28:22Z</time>
      </trkpt>
      <trkpt lat="42.78431" lon="1.74987">
        <ele>874</ele>
        <time>2021-08-20T19:28:24Z</time>
      </trkpt>
      <trkpt lat="42.78413" lon="1.75107">
        <ele>875</ele>
        <time>2021-08-20T19:28:40Z</time>
      </trkpt>
      <trkpt lat="42.78402" lon="1.752">
        <ele>876</ele>
        <time>2021-08-20T19:28:53Z</time>
      </trkpt>
      <trkpt lat="42.78398" lon="1.75295">
        <ele>875</ele>
        <time>2021-08-20T19:29:05Z</time>
      </trkpt>
      <trkpt lat="42.78402" lon="1.75312">
        <ele>876</ele>
        <time>2021-08-20T19:29:08Z</time>
      </trkpt>
      <trkpt lat="42.78438" lon="1.75412">
        <ele>882</ele>
        <time>2021-08-20T19:29:22Z</time>
      </trkpt>
      <trkpt lat="42.78438" lon="1.75423">
        <ele>882</ele>
        <time>2021-08-20T19:29:24Z</time>
      </trkpt>
      <trkpt lat="42.78436" lon="1.7543">
        <ele>882</ele>
        <time>2021-08-20T19:29:25Z</time>
      </trkpt>
      <trkpt lat="42.78432" lon="1.75436">
        <ele>882</ele>
        <time>2021-08-20T19:29:26Z</time>
      </trkpt>
      <trkpt lat="42.78414" lon="1.75452">
        <ele>880</ele>
        <time>2021-08-20T19:29:29Z</time>
      </trkpt>
      <trkpt lat="42.78403" lon="1.75467">
        <ele>879</ele>
        <time>2021-08-20T19:29:32Z</time>
      </trkpt>
      <trkpt lat="42.78388" lon="1.75518">
        <ele>881</ele>
        <time>2021-08-20T19:29:39Z</time>
      </trkpt>
      <trkpt lat="42.78361" lon="1.7562">
        <ele>885</ele>
        <time>2021-08-20T19:29:53Z</time>
      </trkpt>
      <trkpt lat="42.78351" lon="1.75649">
        <ele>886</ele>
        <time>2021-08-20T19:29:58Z</time>
      </trkpt>
      <trkpt lat="42.78342" lon="1.75668">
        <ele>886</ele>
        <time>2021-08-20T19:30:01Z</time>
      </trkpt>
      <trkpt lat="42.78317" lon="1.75702">
        <ele>886</ele>
        <time>2021-08-20T19:30:07Z</time>
      </trkpt>
      <trkpt lat="42.78281" lon="1.7574">
        <ele>886</ele>
        <time>2021-08-20T19:30:15Z</time>
      </trkpt>
      <trkpt lat="42.78272" lon="1.75745">
        <ele>885</ele>
        <time>2021-08-20T19:30:17Z</time>
      </trkpt>
      <trkpt lat="42.78253" lon="1.75743">
        <ele>883</ele>
        <time>2021-08-20T19:30:20Z</time>
      </trkpt>
      <trkpt lat="42.78236" lon="1.75737">
        <ele>880</ele>
        <time>2021-08-20T19:30:23Z</time>
      </trkpt>
      <trkpt lat="42.78226" lon="1.7574">
        <ele>879</ele>
        <time>2021-08-20T19:30:25Z</time>
      </trkpt>
      <trkpt lat="42.78203" lon="1.75758">
        <ele>879</ele>
        <time>2021-08-20T19:30:30Z</time>
      </trkpt>
      <trkpt lat="42.78185" lon="1.75778">
        <ele>879</ele>
        <time>2021-08-20T19:30:34Z</time>
      </trkpt>
      <trkpt lat="42.78165" lon="1.75807">
        <ele>881</ele>
        <time>2021-08-20T19:30:39Z</time>
      </trkpt>
      <trkpt lat="42.78131" lon="1.75829">
        <ele>876</ele>
        <time>2021-08-20T19:30:46Z</time>
      </trkpt>
      <trkpt lat="42.78118" lon="1.75845">
        <ele>875</ele>
        <time>2021-08-20T19:30:49Z</time>
      </trkpt>
      <trkpt lat="42.78091" lon="1.75892">
        <ele>875</ele>
        <time>2021-08-20T19:30:57Z</time>
      </trkpt>
      <trkpt lat="42.78016" lon="1.76049">
        <ele>882</ele>
        <time>2021-08-20T19:31:21Z</time>
      </trkpt>
      <trkpt lat="42.77993" lon="1.76091">
        <ele>885</ele>
        <time>2021-08-20T19:31:28Z</time>
      </trkpt>
      <trkpt lat="42.77987" lon="1.76099">
        <ele>888</ele>
        <time>2021-08-20T19:31:30Z</time>
      </trkpt>
      <trkpt lat="42.77979" lon="1.76103">
        <ele>892</ele>
        <time>2021-08-20T19:31:31Z</time>
      </trkpt>
      <trkpt lat="42.7797" lon="1.76099">
        <ele>894</ele>
        <time>2021-08-20T19:31:33Z</time>
      </trkpt>
      <trkpt lat="42.77965" lon="1.76093">
        <ele>895</ele>
        <time>2021-08-20T19:31:34Z</time>
      </trkpt>
      <trkpt lat="42.77962" lon="1.76083">
        <ele>895</ele>
        <time>2021-08-20T19:31:35Z</time>
      </trkpt>
      <trkpt lat="42.7796" lon="1.7606">
        <ele>894</ele>
        <time>2021-08-20T19:31:38Z</time>
      </trkpt>
      <trkpt lat="42.77962" lon="1.76026">
        <ele>891</ele>
        <time>2021-08-20T19:31:43Z</time>
      </trkpt>
      <trkpt lat="42.77951" lon="1.75898">
        <ele>888</ele>
        <time>2021-08-20T19:32:00Z</time>
      </trkpt>
      <trkpt lat="42.77942" lon="1.75776">
        <ele>886</ele>
        <time>2021-08-20T19:32:16Z</time>
      </trkpt>
      <trkpt lat="42.77937" lon="1.75755">
        <ele>887</ele>
        <time>2021-08-20T19:32:19Z</time>
      </trkpt>
      <trkpt lat="42.77905" lon="1.75694">
        <ele>894</ele>
        <time>2021-08-20T19:32:28Z</time>
      </trkpt>
      <trkpt lat="42.77837" lon="1.75609">
        <ele>901</ele>
        <time>2021-08-20T19:32:45Z</time>
      </trkpt>
      <trkpt lat="42.77817" lon="1.7558">
        <ele>902</ele>
        <time>2021-08-20T19:32:50Z</time>
      </trkpt>
      <trkpt lat="42.77811" lon="1.75554">
        <ele>901</ele>
        <time>2021-08-20T19:32:54Z</time>
      </trkpt>
      <trkpt lat="42.77806" lon="1.75499">
        <ele>899</ele>
        <time>2021-08-20T19:33:01Z</time>
      </trkpt>
      <trkpt lat="42.77795" lon="1.7548">
        <ele>898</ele>
        <time>2021-08-20T19:33:04Z</time>
      </trkpt>
      <trkpt lat="42.77784" lon="1.7547">
        <ele>898</ele>
        <time>2021-08-20T19:33:06Z</time>
      </trkpt>
      <trkpt lat="42.77772" lon="1.7547">
        <ele>899</ele>
        <time>2021-08-20T19:33:08Z</time>
      </trkpt>
      <trkpt lat="42.77641" lon="1.75511">
        <ele>902</ele>
        <time>2021-08-20T19:33:32Z</time>
      </trkpt>
      <trkpt lat="42.77627" lon="1.75525">
        <ele>900</ele>
        <time>2021-08-20T19:33:35Z</time>
      </trkpt>
      <trkpt lat="42.77604" lon="1.75555">
        <ele>897</ele>
        <time>2021-08-20T19:33:41Z</time>
      </trkpt>
      <trkpt lat="42.77585" lon="1.75588">
        <ele>894</ele>
        <time>2021-08-20T19:33:47Z</time>
      </trkpt>
      <trkpt lat="42.77564" lon="1.7567">
        <ele>889</ele>
        <time>2021-08-20T19:33:58Z</time>
      </trkpt>
      <trkpt lat="42.77553" lon="1.75696">
        <ele>888</ele>
        <time>2021-08-20T19:34:02Z</time>
      </trkpt>
      <trkpt lat="42.77522" lon="1.75751">
        <ele>885</ele>
        <time>2021-08-20T19:34:11Z</time>
      </trkpt>
      <trkpt lat="42.77495" lon="1.75794">
        <ele>881</ele>
        <time>2021-08-20T19:34:18Z</time>
      </trkpt>
      <trkpt lat="42.77487" lon="1.75815">
        <ele>881</ele>
        <time>2021-08-20T19:34:21Z</time>
      </trkpt>
      <trkpt lat="42.7748" lon="1.7585">
        <ele>883</ele>
        <time>2021-08-20T19:34:26Z</time>
      </trkpt>
      <trkpt lat="42.77469" lon="1.75878">
        <ele>883</ele>
        <time>2021-08-20T19:34:30Z</time>
      </trkpt>
      <trkpt lat="42.77436" lon="1.75925">
        <ele>877</ele>
        <time>2021-08-20T19:34:39Z</time>
      </trkpt>
      <trkpt lat="42.77414" lon="1.75963">
        <ele>873</ele>
        <time>2021-08-20T19:34:45Z</time>
      </trkpt>
      <trkpt lat="42.77395" lon="1.76041">
        <ele>875</ele>
        <time>2021-08-20T19:34:56Z</time>
      </trkpt>
      <trkpt lat="42.77358" lon="1.76144">
        <ele>873</ele>
        <time>2021-08-20T19:35:11Z</time>
      </trkpt>
      <trkpt lat="42.77331" lon="1.76198">
        <ele>869</ele>
        <time>2021-08-20T19:35:19Z</time>
      </trkpt>
      <trkpt lat="42.77309" lon="1.76278">
        <ele>869</ele>
        <time>2021-08-20T19:35:30Z</time>
      </trkpt>
      <trkpt lat="42.77273" lon="1.76375">
        <ele>864</ele>
        <time>2021-08-20T19:35:45Z</time>
      </trkpt>
      <trkpt lat="42.77263" lon="1.76418">
        <ele>865</ele>
        <time>2021-08-20T19:35:51Z</time>
      </trkpt>
      <trkpt lat="42.77249" lon="1.76457">
        <ele>865</ele>
        <time>2021-08-20T19:35:56Z</time>
      </trkpt>
      <trkpt lat="42.77232" lon="1.76492">
        <ele>865</ele>
        <time>2021-08-20T19:36:02Z</time>
      </trkpt>
      <trkpt lat="42.77218" lon="1.76514">
        <ele>863</ele>
        <time>2021-08-20T19:36:05Z</time>
      </trkpt>
      <trkpt lat="42.77194" lon="1.76546">
        <ele>858</ele>
        <time>2021-08-20T19:36:11Z</time>
      </trkpt>
      <trkpt lat="42.77178" lon="1.76586">
        <ele>859</ele>
        <time>2021-08-20T19:36:17Z</time>
      </trkpt>
      <trkpt lat="42.77164" lon="1.7663">
        <ele>863</ele>
        <time>2021-08-20T19:36:24Z</time>
      </trkpt>
      <trkpt lat="42.77144" lon="1.7666">
        <ele>859</ele>
        <time>2021-08-20T19:36:29Z</time>
      </trkpt>
      <trkpt lat="42.77114" lon="1.76697">
        <ele>854</ele>
        <time>2021-08-20T19:36:36Z</time>
      </trkpt>
      <trkpt lat="42.77064" lon="1.76788">
        <ele>855</ele>
        <time>2021-08-20T19:36:51Z</time>
      </trkpt>
      <trkpt lat="42.7705" lon="1.76817">
        <ele>855</ele>
        <time>2021-08-20T19:36:56Z</time>
      </trkpt>
      <trkpt lat="42.77025" lon="1.76891">
        <ele>859</ele>
        <time>2021-08-20T19:37:06Z</time>
      </trkpt>
      <trkpt lat="42.77001" lon="1.76948">
        <ele>857</ele>
        <time>2021-08-20T19:37:15Z</time>
      </trkpt>
      <trkpt lat="42.76986" lon="1.76997">
        <ele>858</ele>
        <time>2021-08-20T19:37:22Z</time>
      </trkpt>
      <trkpt lat="42.76981" lon="1.77026">
        <ele>858</ele>
        <time>2021-08-20T19:37:26Z</time>
      </trkpt>
      <trkpt lat="42.76979" lon="1.77051">
        <ele>859</ele>
        <time>2021-08-20T19:37:29Z</time>
      </trkpt>
      <trkpt lat="42.76966" lon="1.77093">
        <ele>855</ele>
        <time>2021-08-20T19:37:35Z</time>
      </trkpt>
      <trkpt lat="42.76965" lon="1.7712">
        <ele>858</ele>
        <time>2021-08-20T19:37:38Z</time>
      </trkpt>
      <trkpt lat="42.76968" lon="1.77176">
        <ele>865</ele>
        <time>2021-08-20T19:37:46Z</time>
      </trkpt>
      <trkpt lat="42.76964" lon="1.77221">
        <ele>867</ele>
        <time>2021-08-20T19:37:52Z</time>
      </trkpt>
      <trkpt lat="42.76965" lon="1.77241">
        <ele>869</ele>
        <time>2021-08-20T19:37:54Z</time>
      </trkpt>
      <trkpt lat="42.76967" lon="1.77269">
        <ele>874</ele>
        <time>2021-08-20T19:37:58Z</time>
      </trkpt>
      <trkpt lat="42.76965" lon="1.77288">
        <ele>876</ele>
        <time>2021-08-20T19:38:00Z</time>
      </trkpt>
      <trkpt lat="42.76956" lon="1.77302">
        <ele>876</ele>
        <time>2021-08-20T19:38:03Z</time>
      </trkpt>
      <trkpt lat="42.76937" lon="1.77308">
        <ele>870</ele>
        <time>2021-08-20T19:38:06Z</time>
      </trkpt>
      <trkpt lat="42.76918" lon="1.77306">
        <ele>863</ele>
        <time>2021-08-20T19:38:10Z</time>
      </trkpt>
      <trkpt lat="42.76882" lon="1.77289">
        <ele>855</ele>
        <time>2021-08-20T19:38:17Z</time>
      </trkpt>
      <trkpt lat="42.76869" lon="1.77287">
        <ele>853</ele>
        <time>2021-08-20T19:38:19Z</time>
      </trkpt>
      <trkpt lat="42.76853" lon="1.77287">
        <ele>851</ele>
        <time>2021-08-20T19:38:22Z</time>
      </trkpt>
      <trkpt lat="42.76833" lon="1.77293">
        <ele>851</ele>
        <time>2021-08-20T19:38:25Z</time>
      </trkpt>
      <trkpt lat="42.76822" lon="1.77306">
        <ele>851</ele>
        <time>2021-08-20T19:38:28Z</time>
      </trkpt>
      <trkpt lat="42.76783" lon="1.77429">
        <ele>859</ele>
        <time>2021-08-20T19:38:45Z</time>
      </trkpt>
      <trkpt lat="42.76761" lon="1.77481">
        <ele>858</ele>
        <time>2021-08-20T19:38:53Z</time>
      </trkpt>
      <trkpt lat="42.76719" lon="1.77594">
        <ele>860</ele>
        <time>2021-08-20T19:39:10Z</time>
      </trkpt>
      <trkpt lat="42.76704" lon="1.77652">
        <ele>861</ele>
        <time>2021-08-20T19:39:18Z</time>
      </trkpt>
      <trkpt lat="42.76694" lon="1.77678">
        <ele>861</ele>
        <time>2021-08-20T19:39:22Z</time>
      </trkpt>
      <trkpt lat="42.76682" lon="1.77699">
        <ele>858</ele>
        <time>2021-08-20T19:39:25Z</time>
      </trkpt>
      <trkpt lat="42.76654" lon="1.77768">
        <ele>859</ele>
        <time>2021-08-20T19:39:35Z</time>
      </trkpt>
      <trkpt lat="42.76626" lon="1.77824">
        <ele>860</ele>
        <time>2021-08-20T19:39:44Z</time>
      </trkpt>
      <trkpt lat="42.76589" lon="1.77899">
        <ele>860</ele>
        <time>2021-08-20T19:39:56Z</time>
      </trkpt>
      <trkpt lat="42.76554" lon="1.77964">
        <ele>857</ele>
        <time>2021-08-20T19:40:07Z</time>
      </trkpt>
      <trkpt lat="42.76545" lon="1.77991">
        <ele>858</ele>
        <time>2021-08-20T19:40:10Z</time>
      </trkpt>
      <trkpt lat="42.76516" lon="1.7805">
        <ele>849</ele>
        <time>2021-08-20T19:40:20Z</time>
      </trkpt>
      <trkpt lat="42.76513" lon="1.78067">
        <ele>848</ele>
        <time>2021-08-20T19:40:22Z</time>
      </trkpt>
      <trkpt lat="42.76513" lon="1.78101">
        <ele>847</ele>
        <time>2021-08-20T19:40:26Z</time>
      </trkpt>
      <trkpt lat="42.76517" lon="1.7815">
        <ele>843</ele>
        <time>2021-08-20T19:40:33Z</time>
      </trkpt>
      <trkpt lat="42.76523" lon="1.78167">
        <ele>843</ele>
        <time>2021-08-20T19:40:35Z</time>
      </trkpt>
      <trkpt lat="42.76533" lon="1.78177">
        <ele>843</ele>
        <time>2021-08-20T19:40:38Z</time>
      </trkpt>
      <trkpt lat="42.76581" lon="1.78194">
        <ele>851</ele>
        <time>2021-08-20T19:40:46Z</time>
      </trkpt>
      <trkpt lat="42.76611" lon="1.78207">
        <ele>852</ele>
        <time>2021-08-20T19:40:52Z</time>
      </trkpt>
      <trkpt lat="42.76647" lon="1.78234">
        <ele>849</ele>
        <time>2021-08-20T19:40:59Z</time>
      </trkpt>
      <trkpt lat="42.76698" lon="1.78253">
        <ele>852</ele>
        <time>2021-08-20T19:41:09Z</time>
      </trkpt>
      <trkpt lat="42.76716" lon="1.78269">
        <ele>853</ele>
        <time>2021-08-20T19:41:13Z</time>
      </trkpt>
      <trkpt lat="42.76727" lon="1.7829">
        <ele>853</ele>
        <time>2021-08-20T19:41:16Z</time>
      </trkpt>
      <trkpt lat="42.76729" lon="1.78308">
        <ele>851</ele>
        <time>2021-08-20T19:41:18Z</time>
      </trkpt>
      <trkpt lat="42.76726" lon="1.78333">
        <ele>847</ele>
        <time>2021-08-20T19:41:22Z</time>
      </trkpt>
      <trkpt lat="42.76716" lon="1.78366">
        <ele>847</ele>
        <time>2021-08-20T19:41:26Z</time>
      </trkpt>
      <trkpt lat="42.76691" lon="1.7842">
        <ele>843</ele>
        <time>2021-08-20T19:41:35Z</time>
      </trkpt>
      <trkpt lat="42.7667" lon="1.78476">
        <ele>843</ele>
        <time>2021-08-20T19:41:43Z</time>
      </trkpt>
      <trkpt lat="42.76658" lon="1.78567">
        <ele>844</ele>
        <time>2021-08-20T19:41:55Z</time>
      </trkpt>
      <trkpt lat="42.76657" lon="1.7859">
        <ele>843</ele>
        <time>2021-08-20T19:41:58Z</time>
      </trkpt>
      <trkpt lat="42.76663" lon="1.7861">
        <ele>846</ele>
        <time>2021-08-20T19:42:01Z</time>
      </trkpt>
      <trkpt lat="42.7667" lon="1.78617">
        <ele>848</ele>
        <time>2021-08-20T19:42:02Z</time>
      </trkpt>
      <trkpt lat="42.76706" lon="1.78639">
        <ele>853</ele>
        <time>2021-08-20T19:42:09Z</time>
      </trkpt>
      <trkpt lat="42.76722" lon="1.78662">
        <ele>853</ele>
        <time>2021-08-20T19:42:13Z</time>
      </trkpt>
      <trkpt lat="42.76745" lon="1.78683">
        <ele>853</ele>
        <time>2021-08-20T19:42:18Z</time>
      </trkpt>
      <trkpt lat="42.76795" lon="1.78705">
        <ele>858</ele>
        <time>2021-08-20T19:42:28Z</time>
      </trkpt>
      <trkpt lat="42.76807" lon="1.78715">
        <ele>859</ele>
        <time>2021-08-20T19:42:30Z</time>
      </trkpt>
      <trkpt lat="42.76815" lon="1.78724">
        <ele>860</ele>
        <time>2021-08-20T19:42:32Z</time>
      </trkpt>
      <trkpt lat="42.76829" lon="1.78758">
        <ele>860</ele>
        <time>2021-08-20T19:42:37Z</time>
      </trkpt>
      <trkpt lat="42.76838" lon="1.78789">
        <ele>861</ele>
        <time>2021-08-20T19:42:42Z</time>
      </trkpt>
      <trkpt lat="42.76844" lon="1.78837">
        <ele>862</ele>
        <time>2021-08-20T19:42:48Z</time>
      </trkpt>
      <trkpt lat="42.7684" lon="1.78904">
        <ele>860</ele>
        <time>2021-08-20T19:42:57Z</time>
      </trkpt>
      <trkpt lat="42.76819" lon="1.79002">
        <ele>865</ele>
        <time>2021-08-20T19:43:10Z</time>
      </trkpt>
      <trkpt lat="42.76817" lon="1.79023">
        <ele>864</ele>
        <time>2021-08-20T19:43:13Z</time>
      </trkpt>
      <trkpt lat="42.76811" lon="1.79127">
        <ele>858</ele>
        <time>2021-08-20T19:43:26Z</time>
      </trkpt>
      <trkpt lat="42.76817" lon="1.7922">
        <ele>850</ele>
        <time>2021-08-20T19:43:39Z</time>
      </trkpt>
      <trkpt lat="42.76826" lon="1.79252">
        <ele>850</ele>
        <time>2021-08-20T19:43:43Z</time>
      </trkpt>
      <trkpt lat="42.76847" lon="1.79296">
        <ele>848</ele>
        <time>2021-08-20T19:43:50Z</time>
      </trkpt>
      <trkpt lat="42.76858" lon="1.79326">
        <ele>847</ele>
        <time>2021-08-20T19:43:54Z</time>
      </trkpt>
      <trkpt lat="42.76863" lon="1.79357">
        <ele>846</ele>
        <time>2021-08-20T19:43:58Z</time>
      </trkpt>
      <trkpt lat="42.76865" lon="1.79388">
        <ele>845</ele>
        <time>2021-08-20T19:44:03Z</time>
      </trkpt>
      <trkpt lat="42.76866" lon="1.79447">
        <ele>845</ele>
        <time>2021-08-20T19:44:10Z</time>
      </trkpt>
      <trkpt lat="42.76864" lon="1.79495">
        <ele>844</ele>
        <time>2021-08-20T19:44:17Z</time>
      </trkpt>
      <trkpt lat="42.76861" lon="1.79559">
        <ele>841</ele>
        <time>2021-08-20T19:44:25Z</time>
      </trkpt>
      <trkpt lat="42.7686" lon="1.79605">
        <ele>838</ele>
        <time>2021-08-20T19:44:31Z</time>
      </trkpt>
      <trkpt lat="42.76872" lon="1.79681">
        <ele>840</ele>
        <time>2021-08-20T19:44:41Z</time>
      </trkpt>
      <trkpt lat="42.76878" lon="1.79702">
        <ele>842</ele>
        <time>2021-08-20T19:44:44Z</time>
      </trkpt>
      <trkpt lat="42.76877" lon="1.79711">
        <ele>841</ele>
        <time>2021-08-20T19:44:45Z</time>
      </trkpt>
      <trkpt lat="42.76872" lon="1.79716">
        <ele>838</ele>
        <time>2021-08-20T19:44:46Z</time>
      </trkpt>
      <trkpt lat="42.76871" lon="1.79729">
        <ele>837</ele>
        <time>2021-08-20T19:44:48Z</time>
      </trkpt>
      <trkpt lat="42.76872" lon="1.79752">
        <ele>836</ele>
        <time>2021-08-20T19:44:51Z</time>
      </trkpt>
      <trkpt lat="42.76879" lon="1.79781">
        <ele>837</ele>
        <time>2021-08-20T19:44:55Z</time>
      </trkpt>
      <trkpt lat="42.76894" lon="1.79823">
        <ele>839</ele>
        <time>2021-08-20T19:45:01Z</time>
      </trkpt>
      <trkpt lat="42.769" lon="1.79833">
        <ele>839</ele>
        <time>2021-08-20T19:45:03Z</time>
      </trkpt>
      <trkpt lat="42.76916" lon="1.79852">
        <ele>842</ele>
        <time>2021-08-20T19:45:07Z</time>
      </trkpt>
      <trkpt lat="42.76921" lon="1.79867">
        <ele>843</ele>
        <time>2021-08-20T19:45:09Z</time>
      </trkpt>
      <trkpt lat="42.76924" lon="1.79884">
        <ele>843</ele>
        <time>2021-08-20T19:45:11Z</time>
      </trkpt>
      <trkpt lat="42.76923" lon="1.7991">
        <ele>840</ele>
        <time>2021-08-20T19:45:14Z</time>
      </trkpt>
      <trkpt lat="42.76927" lon="1.80029">
        <ele>849</ele>
        <time>2021-08-20T19:45:30Z</time>
      </trkpt>
      <trkpt lat="42.76916" lon="1.80202">
        <ele>858</ele>
        <time>2021-08-20T19:45:53Z</time>
      </trkpt>
      <trkpt lat="42.76913" lon="1.80216">
        <ele>859</ele>
        <time>2021-08-20T19:45:55Z</time>
      </trkpt>
      <trkpt lat="42.76896" lon="1.80271">
        <ele>862</ele>
        <time>2021-08-20T19:46:02Z</time>
      </trkpt>
      <trkpt lat="42.76889" lon="1.80299">
        <ele>864</ele>
        <time>2021-08-20T19:46:06Z</time>
      </trkpt>
      <trkpt lat="42.76877" lon="1.80332">
        <ele>865</ele>
        <time>2021-08-20T19:46:11Z</time>
      </trkpt>
      <trkpt lat="42.7687" lon="1.80356">
        <ele>864</ele>
        <time>2021-08-20T19:46:14Z</time>
      </trkpt>
      <trkpt lat="42.76868" lon="1.80378">
        <ele>864</ele>
        <time>2021-08-20T19:46:17Z</time>
      </trkpt>
      <trkpt lat="42.7687" lon="1.80404">
        <ele>866</ele>
        <time>2021-08-20T19:46:21Z</time>
      </trkpt>
      <trkpt lat="42.76877" lon="1.8044">
        <ele>868</ele>
        <time>2021-08-20T19:46:26Z</time>
      </trkpt>
      <trkpt lat="42.76878" lon="1.80454">
        <ele>868</ele>
        <time>2021-08-20T19:46:27Z</time>
      </trkpt>
      <trkpt lat="42.76875" lon="1.80484">
        <ele>867</ele>
        <time>2021-08-20T19:46:31Z</time>
      </trkpt>
      <trkpt lat="42.76876" lon="1.80507">
        <ele>867</ele>
        <time>2021-08-20T19:46:34Z</time>
      </trkpt>
      <trkpt lat="42.76895" lon="1.80566">
        <ele>868</ele>
        <time>2021-08-20T19:46:43Z</time>
      </trkpt>
      <trkpt lat="42.76896" lon="1.8058">
        <ele>867</ele>
        <time>2021-08-20T19:46:45Z</time>
      </trkpt>
      <trkpt lat="42.76893" lon="1.80595">
        <ele>868</ele>
        <time>2021-08-20T19:46:47Z</time>
      </trkpt>
      <trkpt lat="42.76889" lon="1.80607">
        <ele>868</ele>
        <time>2021-08-20T19:46:48Z</time>
      </trkpt>
      <trkpt lat="42.76861" lon="1.80646">
        <ele>868</ele>
        <time>2021-08-20T19:46:55Z</time>
      </trkpt>
      <trkpt lat="42.76843" lon="1.80665">
        <ele>868</ele>
        <time>2021-08-20T19:47:00Z</time>
      </trkpt>
      <trkpt lat="42.76837" lon="1.80682">
        <ele>869</ele>
        <time>2021-08-20T19:47:02Z</time>
      </trkpt>
      <trkpt lat="42.76831" lon="1.80711">
        <ele>872</ele>
        <time>2021-08-20T19:47:06Z</time>
      </trkpt>
      <trkpt lat="42.76831" lon="1.80716">
        <ele>873</ele>
        <time>2021-08-20T19:47:07Z</time>
      </trkpt>
      <trkpt lat="42.76823" lon="1.80764">
        <ele>877</ele>
        <time>2021-08-20T19:47:13Z</time>
      </trkpt>
      <trkpt lat="42.76802" lon="1.80853">
        <ele>884</ele>
        <time>2021-08-20T19:47:25Z</time>
      </trkpt>
      <trkpt lat="42.76792" lon="1.80877">
        <ele>884</ele>
        <time>2021-08-20T19:47:29Z</time>
      </trkpt>
      <trkpt lat="42.76767" lon="1.80919">
        <ele>882</ele>
        <time>2021-08-20T19:47:36Z</time>
      </trkpt>
      <trkpt lat="42.76756" lon="1.80942">
        <ele>882</ele>
        <time>2021-08-20T19:47:39Z</time>
      </trkpt>
      <trkpt lat="42.7674" lon="1.80996">
        <ele>886</ele>
        <time>2021-08-20T19:47:47Z</time>
      </trkpt>
      <trkpt lat="42.76735" lon="1.81026">
        <ele>889</ele>
        <time>2021-08-20T19:47:51Z</time>
      </trkpt>
      <trkpt lat="42.76733" lon="1.81061">
        <ele>892</ele>
        <time>2021-08-20T19:47:56Z</time>
      </trkpt>
      <trkpt lat="42.76736" lon="1.81082">
        <ele>894</ele>
        <time>2021-08-20T19:47:58Z</time>
      </trkpt>
      <trkpt lat="42.76741" lon="1.81101">
        <ele>894</ele>
        <time>2021-08-20T19:48:01Z</time>
      </trkpt>
      <trkpt lat="42.76754" lon="1.81138">
        <ele>896</ele>
        <time>2021-08-20T19:48:06Z</time>
      </trkpt>
      <trkpt lat="42.76756" lon="1.81151">
        <ele>897</ele>
        <time>2021-08-20T19:48:08Z</time>
      </trkpt>
      <trkpt lat="42.76755" lon="1.8118">
        <ele>898</ele>
        <time>2021-08-20T19:48:12Z</time>
      </trkpt>
      <trkpt lat="42.76756" lon="1.81197">
        <ele>900</ele>
        <time>2021-08-20T19:48:14Z</time>
      </trkpt>
      <trkpt lat="42.76759" lon="1.81212">
        <ele>902</ele>
        <time>2021-08-20T19:48:16Z</time>
      </trkpt>
      <trkpt lat="42.76764" lon="1.8123">
        <ele>905</ele>
        <time>2021-08-20T19:48:19Z</time>
      </trkpt>
      <trkpt lat="42.76763" lon="1.81252">
        <ele>906</ele>
        <time>2021-08-20T19:48:22Z</time>
      </trkpt>
      <trkpt lat="42.76754" lon="1.81335">
        <ele>906</ele>
        <time>2021-08-20T19:48:33Z</time>
      </trkpt>
      <trkpt lat="42.7675" lon="1.81354">
        <ele>905</ele>
        <time>2021-08-20T19:48:35Z</time>
      </trkpt>
      <trkpt lat="42.76733" lon="1.81415">
        <ele>910</ele>
        <time>2021-08-20T19:48:44Z</time>
      </trkpt>
      <trkpt lat="42.76729" lon="1.81442">
        <ele>911</ele>
        <time>2021-08-20T19:48:47Z</time>
      </trkpt>
      <trkpt lat="42.7673" lon="1.81454">
        <ele>912</ele>
        <time>2021-08-20T19:48:49Z</time>
      </trkpt>
      <trkpt lat="42.7674" lon="1.81497">
        <ele>913</ele>
        <time>2021-08-20T19:48:55Z</time>
      </trkpt>
      <trkpt lat="42.76755" lon="1.81528">
        <ele>916</ele>
        <time>2021-08-20T19:49:00Z</time>
      </trkpt>
      <trkpt lat="42.76764" lon="1.8155">
        <ele>920</ele>
        <time>2021-08-20T19:49:03Z</time>
      </trkpt>
      <trkpt lat="42.76766" lon="1.81564">
        <ele>921</ele>
        <time>2021-08-20T19:49:05Z</time>
      </trkpt>
      <trkpt lat="42.76765" lon="1.81578">
        <ele>921</ele>
        <time>2021-08-20T19:49:07Z</time>
      </trkpt>
      <trkpt lat="42.76761" lon="1.8159">
        <ele>920</ele>
        <time>2021-08-20T19:49:08Z</time>
      </trkpt>
      <trkpt lat="42.7675" lon="1.81602">
        <ele>917</ele>
        <time>2021-08-20T19:49:11Z</time>
      </trkpt>
      <trkpt lat="42.7674" lon="1.81606">
        <ele>918</ele>
        <time>2021-08-20T19:49:13Z</time>
      </trkpt>
      <trkpt lat="42.76732" lon="1.81607">
        <ele>919</ele>
        <time>2021-08-20T19:49:14Z</time>
      </trkpt>
      <trkpt lat="42.76722" lon="1.81604">
        <ele>919</ele>
        <time>2021-08-20T19:49:16Z</time>
      </trkpt>
      <trkpt lat="42.76714" lon="1.81599">
        <ele>920</ele>
        <time>2021-08-20T19:49:18Z</time>
      </trkpt>
      <trkpt lat="42.76708" lon="1.81588">
        <ele>919</ele>
        <time>2021-08-20T19:49:19Z</time>
      </trkpt>
      <trkpt lat="42.76687" lon="1.81512">
        <ele>915</ele>
        <time>2021-08-20T19:49:30Z</time>
      </trkpt>
      <trkpt lat="42.7668" lon="1.81495">
        <ele>914</ele>
        <time>2021-08-20T19:49:32Z</time>
      </trkpt>
      <trkpt lat="42.76673" lon="1.81485">
        <ele>914</ele>
        <time>2021-08-20T19:49:34Z</time>
      </trkpt>
      <trkpt lat="42.76638" lon="1.81448">
        <ele>917</ele>
        <time>2021-08-20T19:49:42Z</time>
      </trkpt>
      <trkpt lat="42.76627" lon="1.81432">
        <ele>919</ele>
        <time>2021-08-20T19:49:45Z</time>
      </trkpt>
      <trkpt lat="42.76622" lon="1.8141">
        <ele>919</ele>
        <time>2021-08-20T19:49:48Z</time>
      </trkpt>
      <trkpt lat="42.76623" lon="1.81396">
        <ele>920</ele>
        <time>2021-08-20T19:49:50Z</time>
      </trkpt>
      <trkpt lat="42.76629" lon="1.81382">
        <ele>920</ele>
        <time>2021-08-20T19:49:52Z</time>
      </trkpt>
      <trkpt lat="42.76641" lon="1.81365">
        <ele>919</ele>
        <time>2021-08-20T19:49:55Z</time>
      </trkpt>
      <trkpt lat="42.76653" lon="1.81354">
        <ele>918</ele>
        <time>2021-08-20T19:49:58Z</time>
      </trkpt>
      <trkpt lat="42.76663" lon="1.81335">
        <ele>917</ele>
        <time>2021-08-20T19:50:01Z</time>
      </trkpt>
      <trkpt lat="42.76666" lon="1.81314">
        <ele>918</ele>
        <time>2021-08-20T19:50:03Z</time>
      </trkpt>
      <trkpt lat="42.76665" lon="1.81292">
        <ele>919</ele>
        <time>2021-08-20T19:50:06Z</time>
      </trkpt>
      <trkpt lat="42.76661" lon="1.81267">
        <ele>921</ele>
        <time>2021-08-20T19:50:10Z</time>
      </trkpt>
      <trkpt lat="42.76651" lon="1.81246">
        <ele>924</ele>
        <time>2021-08-20T19:50:13Z</time>
      </trkpt>
      <trkpt lat="42.76617" lon="1.81186">
        <ele>927</ele>
        <time>2021-08-20T19:50:23Z</time>
      </trkpt>
      <trkpt lat="42.76579" lon="1.81105">
        <ele>929</ele>
        <time>2021-08-20T19:50:35Z</time>
      </trkpt>
      <trkpt lat="42.7657" lon="1.8109">
        <ele>930</ele>
        <time>2021-08-20T19:50:38Z</time>
      </trkpt>
      <trkpt lat="42.76562" lon="1.81081">
        <ele>931</ele>
        <time>2021-08-20T19:50:40Z</time>
      </trkpt>
      <trkpt lat="42.76543" lon="1.81065">
        <ele>934</ele>
        <time>2021-08-20T19:50:44Z</time>
      </trkpt>
      <trkpt lat="42.76531" lon="1.81051">
        <ele>935</ele>
        <time>2021-08-20T19:50:47Z</time>
      </trkpt>
      <trkpt lat="42.76499" lon="1.80997">
        <ele>938</ele>
        <time>2021-08-20T19:50:56Z</time>
      </trkpt>
      <trkpt lat="42.76481" lon="1.80958">
        <ele>942</ele>
        <time>2021-08-20T19:51:02Z</time>
      </trkpt>
      <trkpt lat="42.76469" lon="1.80917">
        <ele>944</ele>
        <time>2021-08-20T19:51:07Z</time>
      </trkpt>
      <trkpt lat="42.76458" lon="1.80878">
        <ele>948</ele>
        <time>2021-08-20T19:51:13Z</time>
      </trkpt>
      <trkpt lat="42.76449" lon="1.80827">
        <ele>952</ele>
        <time>2021-08-20T19:51:20Z</time>
      </trkpt>
      <trkpt lat="42.76446" lon="1.80793">
        <ele>953</ele>
        <time>2021-08-20T19:51:24Z</time>
      </trkpt>
      <trkpt lat="42.76448" lon="1.80768">
        <ele>952</ele>
        <time>2021-08-20T19:51:28Z</time>
      </trkpt>
      <trkpt lat="42.76456" lon="1.80723">
        <ele>947</ele>
        <time>2021-08-20T19:51:34Z</time>
      </trkpt>
      <trkpt lat="42.76454" lon="1.80708">
        <ele>947</ele>
        <time>2021-08-20T19:51:36Z</time>
      </trkpt>
      <trkpt lat="42.76448" lon="1.80698">
        <ele>949</ele>
        <time>2021-08-20T19:51:37Z</time>
      </trkpt>
      <trkpt lat="42.76439" lon="1.80694">
        <ele>953</ele>
        <time>2021-08-20T19:51:39Z</time>
      </trkpt>
      <trkpt lat="42.76431" lon="1.80695">
        <ele>956</ele>
        <time>2021-08-20T19:51:40Z</time>
      </trkpt>
      <trkpt lat="42.76423" lon="1.807">
        <ele>960</ele>
        <time>2021-08-20T19:51:42Z</time>
      </trkpt>
      <trkpt lat="42.76417" lon="1.80708">
        <ele>963</ele>
        <time>2021-08-20T19:51:43Z</time>
      </trkpt>
      <trkpt lat="42.76415" lon="1.8072">
        <ele>964</ele>
        <time>2021-08-20T19:51:45Z</time>
      </trkpt>
      <trkpt lat="42.76417" lon="1.80736">
        <ele>964</ele>
        <time>2021-08-20T19:51:47Z</time>
      </trkpt>
      <trkpt lat="42.7643" lon="1.80784">
        <ele>959</ele>
        <time>2021-08-20T19:51:54Z</time>
      </trkpt>
      <trkpt lat="42.76432" lon="1.80801">
        <ele>958</ele>
        <time>2021-08-20T19:51:56Z</time>
      </trkpt>
      <trkpt lat="42.76432" lon="1.8082">
        <ele>958</ele>
        <time>2021-08-20T19:51:59Z</time>
      </trkpt>
      <trkpt lat="42.76426" lon="1.80877">
        <ele>960</ele>
        <time>2021-08-20T19:52:06Z</time>
      </trkpt>
      <trkpt lat="42.76425" lon="1.80911">
        <ele>960</ele>
        <time>2021-08-20T19:52:11Z</time>
      </trkpt>
      <trkpt lat="42.76428" lon="1.81063">
        <ele>962</ele>
        <time>2021-08-20T19:52:30Z</time>
      </trkpt>
      <trkpt lat="42.76426" lon="1.81086">
        <ele>964</ele>
        <time>2021-08-20T19:52:33Z</time>
      </trkpt>
      <trkpt lat="42.76422" lon="1.8111">
        <ele>964</ele>
        <time>2021-08-20T19:52:37Z</time>
      </trkpt>
      <trkpt lat="42.76414" lon="1.81136">
        <ele>964</ele>
        <time>2021-08-20T19:52:40Z</time>
      </trkpt>
      <trkpt lat="42.76376" lon="1.81228">
        <ele>966</ele>
        <time>2021-08-20T19:52:54Z</time>
      </trkpt>
      <trkpt lat="42.76366" lon="1.81232">
        <ele>968</ele>
        <time>2021-08-20T19:52:56Z</time>
      </trkpt>
      <trkpt lat="42.76356" lon="1.81231">
        <ele>970</ele>
        <time>2021-08-20T19:52:58Z</time>
      </trkpt>
      <trkpt lat="42.76346" lon="1.81223">
        <ele>973</ele>
        <time>2021-08-20T19:53:00Z</time>
      </trkpt>
      <trkpt lat="42.76342" lon="1.81212">
        <ele>976</ele>
        <time>2021-08-20T19:53:01Z</time>
      </trkpt>
      <trkpt lat="42.76342" lon="1.81198">
        <ele>977</ele>
        <time>2021-08-20T19:53:03Z</time>
      </trkpt>
      <trkpt lat="42.76347" lon="1.81187">
        <ele>977</ele>
        <time>2021-08-20T19:53:05Z</time>
      </trkpt>
      <trkpt lat="42.76373" lon="1.81159">
        <ele>974</ele>
        <time>2021-08-20T19:53:11Z</time>
      </trkpt>
      <trkpt lat="42.7638" lon="1.81148">
        <ele>972</ele>
        <time>2021-08-20T19:53:13Z</time>
      </trkpt>
      <trkpt lat="42.76385" lon="1.81133">
        <ele>972</ele>
        <time>2021-08-20T19:53:15Z</time>
      </trkpt>
      <trkpt lat="42.76387" lon="1.81114">
        <ele>973</ele>
        <time>2021-08-20T19:53:17Z</time>
      </trkpt>
      <trkpt lat="42.76387" lon="1.81089">
        <ele>974</ele>
        <time>2021-08-20T19:53:21Z</time>
      </trkpt>
      <trkpt lat="42.76385" lon="1.8106">
        <ele>975</ele>
        <time>2021-08-20T19:53:24Z</time>
      </trkpt>
      <trkpt lat="42.76365" lon="1.80966">
        <ele>983</ele>
        <time>2021-08-20T19:53:37Z</time>
      </trkpt>
      <trkpt lat="42.76363" lon="1.80939">
        <ele>984</ele>
        <time>2021-08-20T19:53:41Z</time>
      </trkpt>
      <trkpt lat="42.76354" lon="1.80769">
        <ele>990</ele>
        <time>2021-08-20T19:54:03Z</time>
      </trkpt>
      <trkpt lat="42.76351" lon="1.80734">
        <ele>990</ele>
        <time>2021-08-20T19:54:08Z</time>
      </trkpt>
      <trkpt lat="42.7634" lon="1.80677">
        <ele>992</ele>
        <time>2021-08-20T19:54:15Z</time>
      </trkpt>
      <trkpt lat="42.76329" lon="1.8064">
        <ele>992</ele>
        <time>2021-08-20T19:54:21Z</time>
      </trkpt>
      <trkpt lat="42.76317" lon="1.80616">
        <ele>993</ele>
        <time>2021-08-20T19:54:24Z</time>
      </trkpt>
      <trkpt lat="42.76304" lon="1.806">
        <ele>996</ele>
        <time>2021-08-20T19:54:27Z</time>
      </trkpt>
      <trkpt lat="42.7624" lon="1.80551">
        <ele>1007</ele>
        <time>2021-08-20T19:54:41Z</time>
      </trkpt>
      <trkpt lat="42.76221" lon="1.8054">
        <ele>1010</ele>
        <time>2021-08-20T19:54:44Z</time>
      </trkpt>
      <trkpt lat="42.76202" lon="1.80536">
        <ele>1016</ele>
        <time>2021-08-20T19:54:48Z</time>
      </trkpt>
      <trkpt lat="42.76191" lon="1.80531">
        <ele>1018</ele>
        <time>2021-08-20T19:54:50Z</time>
      </trkpt>
      <trkpt lat="42.76182" lon="1.80523">
        <ele>1020</ele>
        <time>2021-08-20T19:54:52Z</time>
      </trkpt>
      <trkpt lat="42.76177" lon="1.8051">
        <ele>1019</ele>
        <time>2021-08-20T19:54:54Z</time>
      </trkpt>
      <trkpt lat="42.76175" lon="1.80498">
        <ele>1018</ele>
        <time>2021-08-20T19:54:55Z</time>
      </trkpt>
      <trkpt lat="42.76177" lon="1.80485">
        <ele>1019</ele>
        <time>2021-08-20T19:54:57Z</time>
      </trkpt>
      <trkpt lat="42.76183" lon="1.80472">
        <ele>1019</ele>
        <time>2021-08-20T19:54:59Z</time>
      </trkpt>
      <trkpt lat="42.76195" lon="1.80454">
        <ele>1017</ele>
        <time>2021-08-20T19:55:02Z</time>
      </trkpt>
      <trkpt lat="42.76226" lon="1.80414">
        <ele>1011</ele>
        <time>2021-08-20T19:55:10Z</time>
      </trkpt>
      <trkpt lat="42.76234" lon="1.804">
        <ele>1011</ele>
        <time>2021-08-20T19:55:12Z</time>
      </trkpt>
      <trkpt lat="42.7624" lon="1.80384">
        <ele>1012</ele>
        <time>2021-08-20T19:55:14Z</time>
      </trkpt>
      <trkpt lat="42.76249" lon="1.80321">
        <ele>1022</ele>
        <time>2021-08-20T19:55:23Z</time>
      </trkpt>
      <trkpt lat="42.76254" lon="1.80302">
        <ele>1025</ele>
        <time>2021-08-20T19:55:25Z</time>
      </trkpt>
      <trkpt lat="42.76262" lon="1.80286">
        <ele>1026</ele>
        <time>2021-08-20T19:55:28Z</time>
      </trkpt>
      <trkpt lat="42.76317" lon="1.802">
        <ele>1029</ele>
        <time>2021-08-20T19:55:43Z</time>
      </trkpt>
      <trkpt lat="42.76335" lon="1.80182">
        <ele>1027</ele>
        <time>2021-08-20T19:55:47Z</time>
      </trkpt>
      <trkpt lat="42.76352" lon="1.80156">
        <ele>1025</ele>
        <time>2021-08-20T19:55:51Z</time>
      </trkpt>
      <trkpt lat="42.76362" lon="1.80129">
        <ele>1026</ele>
        <time>2021-08-20T19:55:55Z</time>
      </trkpt>
      <trkpt lat="42.76367" lon="1.80098">
        <ele>1030</ele>
        <time>2021-08-20T19:55:59Z</time>
      </trkpt>
      <trkpt lat="42.7637" lon="1.8006">
        <ele>1032</ele>
        <time>2021-08-20T19:56:04Z</time>
      </trkpt>
      <trkpt lat="42.76367" lon="1.80021">
        <ele>1036</ele>
        <time>2021-08-20T19:56:09Z</time>
      </trkpt>
      <trkpt lat="42.76354" lon="1.7995">
        <ele>1039</ele>
        <time>2021-08-20T19:56:19Z</time>
      </trkpt>
      <trkpt lat="42.7634" lon="1.79892">
        <ele>1039</ele>
        <time>2021-08-20T19:56:27Z</time>
      </trkpt>
      <trkpt lat="42.76321" lon="1.79847">
        <ele>1039</ele>
        <time>2021-08-20T19:56:34Z</time>
      </trkpt>
      <trkpt lat="42.76295" lon="1.79807">
        <ele>1040</ele>
        <time>2021-08-20T19:56:41Z</time>
      </trkpt>
      <trkpt lat="42.7626" lon="1.79774">
        <ele>1041</ele>
        <time>2021-08-20T19:56:48Z</time>
      </trkpt>
      <trkpt lat="42.76197" lon="1.79728">
        <ele>1044</ele>
        <time>2021-08-20T19:57:01Z</time>
      </trkpt>
      <trkpt lat="42.76163" lon="1.79707">
        <ele>1051</ele>
        <time>2021-08-20T19:57:08Z</time>
      </trkpt>
      <trkpt lat="42.76148" lon="1.79692">
        <ele>1057</ele>
        <time>2021-08-20T19:57:11Z</time>
      </trkpt>
      <trkpt lat="42.76137" lon="1.79668">
        <ele>1058</ele>
        <time>2021-08-20T19:57:15Z</time>
      </trkpt>
      <trkpt lat="42.76132" lon="1.79647">
        <ele>1059</ele>
        <time>2021-08-20T19:57:18Z</time>
      </trkpt>
      <trkpt lat="42.7612" lon="1.79562">
        <ele>1054</ele>
        <time>2021-08-20T19:57:29Z</time>
      </trkpt>
      <trkpt lat="42.76113" lon="1.79532">
        <ele>1052</ele>
        <time>2021-08-20T19:57:33Z</time>
      </trkpt>
      <trkpt lat="42.761" lon="1.79508">
        <ele>1054</ele>
        <time>2021-08-20T19:57:37Z</time>
      </trkpt>
      <trkpt lat="42.76078" lon="1.79479">
        <ele>1055</ele>
        <time>2021-08-20T19:57:42Z</time>
      </trkpt>
      <trkpt lat="42.76055" lon="1.79463">
        <ele>1054</ele>
        <time>2021-08-20T19:57:47Z</time>
      </trkpt>
      <trkpt lat="42.76032" lon="1.79453">
        <ele>1056</ele>
        <time>2021-08-20T19:57:51Z</time>
      </trkpt>
      <trkpt lat="42.76006" lon="1.79449">
        <ele>1060</ele>
        <time>2021-08-20T19:57:56Z</time>
      </trkpt>
      <trkpt lat="42.75983" lon="1.7945">
        <ele>1064</ele>
        <time>2021-08-20T19:58:00Z</time>
      </trkpt>
      <trkpt lat="42.75938" lon="1.79443">
        <ele>1065</ele>
        <time>2021-08-20T19:58:08Z</time>
      </trkpt>
      <trkpt lat="42.7591" lon="1.79423">
        <ele>1059</ele>
        <time>2021-08-20T19:58:14Z</time>
      </trkpt>
      <trkpt lat="42.75894" lon="1.79405">
        <ele>1049</ele>
        <time>2021-08-20T19:58:17Z</time>
      </trkpt>
      <trkpt lat="42.75882" lon="1.79404">
        <ele>1046</ele>
        <time>2021-08-20T19:58:20Z</time>
      </trkpt>
      <trkpt lat="42.75871" lon="1.79418">
        <ele>1047</ele>
        <time>2021-08-20T19:58:22Z</time>
      </trkpt>
      <trkpt lat="42.7587" lon="1.79433">
        <ele>1052</ele>
        <time>2021-08-20T19:58:24Z</time>
      </trkpt>
      <trkpt lat="42.75872" lon="1.79449">
        <ele>1058</ele>
        <time>2021-08-20T19:58:26Z</time>
      </trkpt>
      <trkpt lat="42.75881" lon="1.79456">
        <ele>1063</ele>
        <time>2021-08-20T19:58:28Z</time>
      </trkpt>
      <trkpt lat="42.75939" lon="1.79459">
        <ele>1072</ele>
        <time>2021-08-20T19:58:38Z</time>
      </trkpt>
      <trkpt lat="42.75975" lon="1.79468">
        <ele>1073</ele>
        <time>2021-08-20T19:58:45Z</time>
      </trkpt>
      <trkpt lat="42.76006" lon="1.79473">
        <ele>1072</ele>
        <time>2021-08-20T19:58:51Z</time>
      </trkpt>
      <trkpt lat="42.76028" lon="1.79482">
        <ele>1070</ele>
        <time>2021-08-20T19:58:55Z</time>
      </trkpt>
      <trkpt lat="42.76055" lon="1.79498">
        <ele>1070</ele>
        <time>2021-08-20T19:59:00Z</time>
      </trkpt>
      <trkpt lat="42.76073" lon="1.79522">
        <ele>1074</ele>
        <time>2021-08-20T19:59:04Z</time>
      </trkpt>
      <trkpt lat="42.76081" lon="1.79543">
        <ele>1078</ele>
        <time>2021-08-20T19:59:07Z</time>
      </trkpt>
      <trkpt lat="42.76086" lon="1.79564">
        <ele>1082</ele>
        <time>2021-08-20T19:59:10Z</time>
      </trkpt>
      <trkpt lat="42.76087" lon="1.79596">
        <ele>1089</ele>
        <time>2021-08-20T19:59:14Z</time>
      </trkpt>
      <trkpt lat="42.76084" lon="1.79637">
        <ele>1096</ele>
        <time>2021-08-20T19:59:20Z</time>
      </trkpt>
      <trkpt lat="42.76088" lon="1.79679">
        <ele>1099</ele>
        <time>2021-08-20T19:59:25Z</time>
      </trkpt>
      <trkpt lat="42.76104" lon="1.79742">
        <ele>1104</ele>
        <time>2021-08-20T19:59:34Z</time>
      </trkpt>
      <trkpt lat="42.76122" lon="1.79768">
        <ele>1101</ele>
        <time>2021-08-20T19:59:39Z</time>
      </trkpt>
      <trkpt lat="42.76142" lon="1.7979">
        <ele>1097</ele>
        <time>2021-08-20T19:59:43Z</time>
      </trkpt>
      <trkpt lat="42.76167" lon="1.79813">
        <ele>1093</ele>
        <time>2021-08-20T19:59:49Z</time>
      </trkpt>
      <trkpt lat="42.76231" lon="1.79888">
        <ele>1096</ele>
        <time>2021-08-20T20:00:04Z</time>
      </trkpt>
      <trkpt lat="42.7626" lon="1.79927">
        <ele>1092</ele>
        <time>2021-08-20T20:00:11Z</time>
      </trkpt>
      <trkpt lat="42.76278" lon="1.79964">
        <ele>1087</ele>
        <time>2021-08-20T20:00:17Z</time>
      </trkpt>
      <trkpt lat="42.76282" lon="1.80011">
        <ele>1090</ele>
        <time>2021-08-20T20:00:23Z</time>
      </trkpt>
      <trkpt lat="42.76278" lon="1.80048">
        <ele>1088</ele>
        <time>2021-08-20T20:00:28Z</time>
      </trkpt>
      <trkpt lat="42.76269" lon="1.80065">
        <ele>1092</ele>
        <time>2021-08-20T20:00:31Z</time>
      </trkpt>
      <trkpt lat="42.76241" lon="1.80082">
        <ele>1105</ele>
        <time>2021-08-20T20:00:36Z</time>
      </trkpt>
      <trkpt lat="42.76134" lon="1.80171">
        <ele>1127</ele>
        <time>2021-08-20T20:00:58Z</time>
      </trkpt>
      <trkpt lat="42.75975" lon="1.80471">
        <ele>1132</ele>
        <time>2021-08-20T20:01:47Z</time>
      </trkpt>
      <trkpt lat="42.75953" lon="1.80519">
        <ele>1139</ele>
        <time>2021-08-20T20:01:54Z</time>
      </trkpt>
      <trkpt lat="42.7591" lon="1.80611">
        <ele>1149</ele>
        <time>2021-08-20T20:02:08Z</time>
      </trkpt>
      <trkpt lat="42.759" lon="1.80654">
        <ele>1153</ele>
        <time>2021-08-20T20:02:14Z</time>
      </trkpt>
      <trkpt lat="42.75901" lon="1.80677">
        <ele>1155</ele>
        <time>2021-08-20T20:02:17Z</time>
      </trkpt>
      <trkpt lat="42.75915" lon="1.80695">
        <ele>1153</ele>
        <time>2021-08-20T20:02:21Z</time>
      </trkpt>
      <trkpt lat="42.76022" lon="1.80785">
        <ele>1133</ele>
        <time>2021-08-20T20:02:43Z</time>
      </trkpt>
      <trkpt lat="42.76032" lon="1.80802">
        <ele>1133</ele>
        <time>2021-08-20T20:02:46Z</time>
      </trkpt>
      <trkpt lat="42.76032" lon="1.80821">
        <ele>1137</ele>
        <time>2021-08-20T20:02:48Z</time>
      </trkpt>
      <trkpt lat="42.75999" lon="1.80937">
        <ele>1148</ele>
        <time>2021-08-20T20:03:05Z</time>
      </trkpt>
      <trkpt lat="42.75977" lon="1.80972">
        <ele>1145</ele>
        <time>2021-08-20T20:03:11Z</time>
      </trkpt>
      <trkpt lat="42.75926" lon="1.80994">
        <ele>1154</ele>
        <time>2021-08-20T20:03:20Z</time>
      </trkpt>
      <trkpt lat="42.75876" lon="1.81009">
        <ele>1163</ele>
        <time>2021-08-20T20:03:29Z</time>
      </trkpt>
      <trkpt lat="42.75837" lon="1.81027">
        <ele>1166</ele>
        <time>2021-08-20T20:03:37Z</time>
      </trkpt>
      <trkpt lat="42.75758" lon="1.8109">
        <ele>1164</ele>
        <time>2021-08-20T20:03:53Z</time>
      </trkpt>
      <trkpt lat="42.7572" lon="1.81109">
        <ele>1172</ele>
        <time>2021-08-20T20:04:00Z</time>
      </trkpt>
      <trkpt lat="42.75688" lon="1.81122">
        <ele>1181</ele>
        <time>2021-08-20T20:04:06Z</time>
      </trkpt>
      <trkpt lat="42.75671" lon="1.81146">
        <ele>1181</ele>
        <time>2021-08-20T20:04:10Z</time>
      </trkpt>
      <trkpt lat="42.75646" lon="1.81205">
        <ele>1187</ele>
        <time>2021-08-20T20:04:19Z</time>
      </trkpt>
      <trkpt lat="42.75635" lon="1.81246">
        <ele>1190</ele>
        <time>2021-08-20T20:04:25Z</time>
      </trkpt>
      <trkpt lat="42.75636" lon="1.81301">
        <ele>1191</ele>
        <time>2021-08-20T20:04:32Z</time>
      </trkpt>
      <trkpt lat="42.75644" lon="1.81368">
        <ele>1194</ele>
        <time>2021-08-20T20:04:41Z</time>
      </trkpt>
      <trkpt lat="42.75646" lon="1.81407">
        <ele>1201</ele>
        <time>2021-08-20T20:04:46Z</time>
      </trkpt>
      <trkpt lat="42.75649" lon="1.81425">
        <ele>1204</ele>
        <time>2021-08-20T20:04:49Z</time>
      </trkpt>
      <trkpt lat="42.75654" lon="1.81438">
        <ele>1205</ele>
        <time>2021-08-20T20:04:50Z</time>
      </trkpt>
      <trkpt lat="42.75662" lon="1.81442">
        <ele>1201</ele>
        <time>2021-08-20T20:04:52Z</time>
      </trkpt>
      <trkpt lat="42.75671" lon="1.81442">
        <ele>1198</ele>
        <time>2021-08-20T20:04:54Z</time>
      </trkpt>
      <trkpt lat="42.75681" lon="1.81437">
        <ele>1194</ele>
        <time>2021-08-20T20:04:55Z</time>
      </trkpt>
      <trkpt lat="42.75718" lon="1.81436">
        <ele>1185</ele>
        <time>2021-08-20T20:05:02Z</time>
      </trkpt>
      <trkpt lat="42.75745" lon="1.81447">
        <ele>1182</ele>
        <time>2021-08-20T20:05:07Z</time>
      </trkpt>
      <trkpt lat="42.75764" lon="1.81459">
        <ele>1179</ele>
        <time>2021-08-20T20:05:11Z</time>
      </trkpt>
      <trkpt lat="42.75776" lon="1.81473">
        <ele>1177</ele>
        <time>2021-08-20T20:05:14Z</time>
      </trkpt>
      <trkpt lat="42.7578" lon="1.81487">
        <ele>1179</ele>
        <time>2021-08-20T20:05:16Z</time>
      </trkpt>
      <trkpt lat="42.75777" lon="1.81501">
        <ele>1185</ele>
        <time>2021-08-20T20:05:17Z</time>
      </trkpt>
      <trkpt lat="42.75767" lon="1.81523">
        <ele>1192</ele>
        <time>2021-08-20T20:05:21Z</time>
      </trkpt>
      <trkpt lat="42.7575" lon="1.81568">
        <ele>1206</ele>
        <time>2021-08-20T20:05:27Z</time>
      </trkpt>
      <trkpt lat="42.7573" lon="1.81679">
        <ele>1216</ele>
        <time>2021-08-20T20:05:42Z</time>
      </trkpt>
      <trkpt lat="42.75727" lon="1.81718">
        <ele>1220</ele>
        <time>2021-08-20T20:05:48Z</time>
      </trkpt>
      <trkpt lat="42.75731" lon="1.81743">
        <ele>1218</ele>
        <time>2021-08-20T20:05:51Z</time>
      </trkpt>
      <trkpt lat="42.75744" lon="1.81773">
        <ele>1217</ele>
        <time>2021-08-20T20:05:55Z</time>
      </trkpt>
      <trkpt lat="42.75757" lon="1.81788">
        <ele>1216</ele>
        <time>2021-08-20T20:05:58Z</time>
      </trkpt>
      <trkpt lat="42.75769" lon="1.81797">
        <ele>1215</ele>
        <time>2021-08-20T20:06:01Z</time>
      </trkpt>
      <trkpt lat="42.75798" lon="1.81811">
        <ele>1209</ele>
        <time>2021-08-20T20:06:06Z</time>
      </trkpt>
      <trkpt lat="42.75815" lon="1.81825">
        <ele>1208</ele>
        <time>2021-08-20T20:06:10Z</time>
      </trkpt>
      <trkpt lat="42.75835" lon="1.81845">
        <ele>1208</ele>
        <time>2021-08-20T20:06:14Z</time>
      </trkpt>
      <trkpt lat="42.75855" lon="1.81874">
        <ele>1211</ele>
        <time>2021-08-20T20:06:20Z</time>
      </trkpt>
      <trkpt lat="42.759" lon="1.81961">
        <ele>1211</ele>
        <time>2021-08-20T20:06:33Z</time>
      </trkpt>
      <trkpt lat="42.75917" lon="1.82014">
        <ele>1210</ele>
        <time>2021-08-20T20:06:41Z</time>
      </trkpt>
      <trkpt lat="42.75924" lon="1.82053">
        <ele>1213</ele>
        <time>2021-08-20T20:06:46Z</time>
      </trkpt>
      <trkpt lat="42.75927" lon="1.82099">
        <ele>1217</ele>
        <time>2021-08-20T20:06:52Z</time>
      </trkpt>
      <trkpt lat="42.75928" lon="1.82139">
        <ele>1220</ele>
        <time>2021-08-20T20:06:57Z</time>
      </trkpt>
      <trkpt lat="42.75914" lon="1.82346">
        <ele>1231</ele>
        <time>2021-08-20T20:07:25Z</time>
      </trkpt>
      <trkpt lat="42.75909" lon="1.82395">
        <ele>1231</ele>
        <time>2021-08-20T20:07:31Z</time>
      </trkpt>
      <trkpt lat="42.75909" lon="1.82416">
        <ele>1229</ele>
        <time>2021-08-20T20:07:34Z</time>
      </trkpt>
      <trkpt lat="42.75904" lon="1.82436">
        <ele>1228</ele>
        <time>2021-08-20T20:07:37Z</time>
      </trkpt>
      <trkpt lat="42.75888" lon="1.82456">
        <ele>1233</ele>
        <time>2021-08-20T20:07:40Z</time>
      </trkpt>
      <trkpt lat="42.75841" lon="1.82523">
        <ele>1235</ele>
        <time>2021-08-20T20:07:53Z</time>
      </trkpt>
      <trkpt lat="42.75788" lon="1.82561">
        <ele>1237</ele>
        <time>2021-08-20T20:08:03Z</time>
      </trkpt>
      <trkpt lat="42.75763" lon="1.82575">
        <ele>1239</ele>
        <time>2021-08-20T20:08:08Z</time>
      </trkpt>
      <trkpt lat="42.75728" lon="1.82588">
        <ele>1245</ele>
        <time>2021-08-20T20:08:15Z</time>
      </trkpt>
      <trkpt lat="42.75711" lon="1.82601">
        <ele>1244</ele>
        <time>2021-08-20T20:08:18Z</time>
      </trkpt>
      <trkpt lat="42.75684" lon="1.82615">
        <ele>1247</ele>
        <time>2021-08-20T20:08:23Z</time>
      </trkpt>
      <trkpt lat="42.75648" lon="1.82626">
        <ele>1255</ele>
        <time>2021-08-20T20:08:30Z</time>
      </trkpt>
      <trkpt lat="42.75631" lon="1.82638">
        <ele>1256</ele>
        <time>2021-08-20T20:08:33Z</time>
      </trkpt>
      <trkpt lat="42.75591" lon="1.82656">
        <ele>1264</ele>
        <time>2021-08-20T20:08:41Z</time>
      </trkpt>
      <trkpt lat="42.75572" lon="1.82667">
        <ele>1268</ele>
        <time>2021-08-20T20:08:44Z</time>
      </trkpt>
      <trkpt lat="42.75564" lon="1.82677">
        <ele>1271</ele>
        <time>2021-08-20T20:08:46Z</time>
      </trkpt>
      <trkpt lat="42.7556" lon="1.8269">
        <ele>1273</ele>
        <time>2021-08-20T20:08:48Z</time>
      </trkpt>
      <trkpt lat="42.75558" lon="1.82711">
        <ele>1273</ele>
        <time>2021-08-20T20:08:51Z</time>
      </trkpt>
      <trkpt lat="42.75563" lon="1.8275">
        <ele>1268</ele>
        <time>2021-08-20T20:08:56Z</time>
      </trkpt>
      <trkpt lat="42.75588" lon="1.82802">
        <ele>1264</ele>
        <time>2021-08-20T20:09:04Z</time>
      </trkpt>
      <trkpt lat="42.75604" lon="1.82845">
        <ele>1263</ele>
        <time>2021-08-20T20:09:10Z</time>
      </trkpt>
      <trkpt lat="42.75611" lon="1.82898">
        <ele>1269</ele>
        <time>2021-08-20T20:09:17Z</time>
      </trkpt>
      <trkpt lat="42.75613" lon="1.8295">
        <ele>1275</ele>
        <time>2021-08-20T20:09:24Z</time>
      </trkpt>
      <trkpt lat="42.75617" lon="1.82988">
        <ele>1278</ele>
        <time>2021-08-20T20:09:29Z</time>
      </trkpt>
      <trkpt lat="42.75623" lon="1.83024">
        <ele>1280</ele>
        <time>2021-08-20T20:09:34Z</time>
      </trkpt>
      <trkpt lat="42.75641" lon="1.83079">
        <ele>1280</ele>
        <time>2021-08-20T20:09:42Z</time>
      </trkpt>
      <trkpt lat="42.75654" lon="1.83127">
        <ele>1283</ele>
        <time>2021-08-20T20:09:49Z</time>
      </trkpt>
      <trkpt lat="42.75669" lon="1.83155">
        <ele>1281</ele>
        <time>2021-08-20T20:09:53Z</time>
      </trkpt>
      <trkpt lat="42.7568" lon="1.83169">
        <ele>1279</ele>
        <time>2021-08-20T20:09:56Z</time>
      </trkpt>
      <trkpt lat="42.75691" lon="1.83177">
        <ele>1277</ele>
        <time>2021-08-20T20:09:58Z</time>
      </trkpt>
      <trkpt lat="42.75702" lon="1.83193">
        <ele>1276</ele>
        <time>2021-08-20T20:10:01Z</time>
      </trkpt>
      <trkpt lat="42.75711" lon="1.83212">
        <ele>1278</ele>
        <time>2021-08-20T20:10:04Z</time>
      </trkpt>
      <trkpt lat="42.7572" lon="1.83251">
        <ele>1285</ele>
        <time>2021-08-20T20:10:09Z</time>
      </trkpt>
      <trkpt lat="42.75731" lon="1.83319">
        <ele>1293</ele>
        <time>2021-08-20T20:10:18Z</time>
      </trkpt>
      <trkpt lat="42.75733" lon="1.83349">
        <ele>1297</ele>
        <time>2021-08-20T20:10:22Z</time>
      </trkpt>
      <trkpt lat="42.75731" lon="1.8336">
        <ele>1300</ele>
        <time>2021-08-20T20:10:24Z</time>
      </trkpt>
      <trkpt lat="42.75731" lon="1.83379">
        <ele>1304</ele>
        <time>2021-08-20T20:10:26Z</time>
      </trkpt>
      <trkpt lat="42.75738" lon="1.83397">
        <ele>1302</ele>
        <time>2021-08-20T20:10:29Z</time>
      </trkpt>
      <trkpt lat="42.75762" lon="1.83446">
        <ele>1299</ele>
        <time>2021-08-20T20:10:37Z</time>
      </trkpt>
      <trkpt lat="42.75817" lon="1.83549">
        <ele>1302</ele>
        <time>2021-08-20T20:10:53Z</time>
      </trkpt>
      <trkpt lat="42.75843" lon="1.83582">
        <ele>1300</ele>
        <time>2021-08-20T20:11:00Z</time>
      </trkpt>
      <trkpt lat="42.75864" lon="1.83605">
        <ele>1298</ele>
        <time>2021-08-20T20:11:04Z</time>
      </trkpt>
      <trkpt lat="42.75884" lon="1.83635">
        <ele>1297</ele>
        <time>2021-08-20T20:11:10Z</time>
      </trkpt>
      <trkpt lat="42.75898" lon="1.83677">
        <ele>1299</ele>
        <time>2021-08-20T20:11:16Z</time>
      </trkpt>
      <trkpt lat="42.75905" lon="1.83714">
        <ele>1300</ele>
        <time>2021-08-20T20:11:21Z</time>
      </trkpt>
      <trkpt lat="42.75906" lon="1.8373">
        <ele>1302</ele>
        <time>2021-08-20T20:11:23Z</time>
      </trkpt>
      <trkpt lat="42.75894" lon="1.83763">
        <ele>1312</ele>
        <time>2021-08-20T20:11:28Z</time>
      </trkpt>
      <trkpt lat="42.75897" lon="1.83778">
        <ele>1313</ele>
        <time>2021-08-20T20:11:30Z</time>
      </trkpt>
      <trkpt lat="42.75918" lon="1.83816">
        <ele>1310</ele>
        <time>2021-08-20T20:11:36Z</time>
      </trkpt>
      <trkpt lat="42.75924" lon="1.83838">
        <ele>1312</ele>
        <time>2021-08-20T20:11:39Z</time>
      </trkpt>
      <trkpt lat="42.75941" lon="1.83947">
        <ele>1322</ele>
        <time>2021-08-20T20:11:53Z</time>
      </trkpt>
      <trkpt lat="42.75942" lon="1.83959">
        <ele>1323</ele>
        <time>2021-08-20T20:11:55Z</time>
      </trkpt>
      <trkpt lat="42.75957" lon="1.84104">
        <ele>1326</ele>
        <time>2021-08-20T20:12:14Z</time>
      </trkpt>
      <trkpt lat="42.75964" lon="1.84304">
        <ele>1327</ele>
        <time>2021-08-20T20:12:40Z</time>
      </trkpt>
      <trkpt lat="42.7596" lon="1.84323">
        <ele>1328</ele>
        <time>2021-08-20T20:12:43Z</time>
      </trkpt>
      <trkpt lat="42.75935" lon="1.8435">
        <ele>1336</ele>
        <time>2021-08-20T20:12:49Z</time>
      </trkpt>
      <trkpt lat="42.75928" lon="1.84363">
        <ele>1337</ele>
        <time>2021-08-20T20:12:51Z</time>
      </trkpt>
      <trkpt lat="42.75931" lon="1.84427">
        <ele>1330</ele>
        <time>2021-08-20T20:12:59Z</time>
      </trkpt>
      <trkpt lat="42.75926" lon="1.84453">
        <ele>1330</ele>
        <time>2021-08-20T20:13:03Z</time>
      </trkpt>
      <trkpt lat="42.75924" lon="1.84482">
        <ele>1328</ele>
        <time>2021-08-20T20:13:06Z</time>
      </trkpt>
      <trkpt lat="42.75916" lon="1.84499">
        <ele>1328</ele>
        <time>2021-08-20T20:13:09Z</time>
      </trkpt>
      <trkpt lat="42.75903" lon="1.84506">
        <ele>1333</ele>
        <time>2021-08-20T20:13:11Z</time>
      </trkpt>
      <trkpt lat="42.75887" lon="1.84505">
        <ele>1340</ele>
        <time>2021-08-20T20:13:14Z</time>
      </trkpt>
      <trkpt lat="42.75873" lon="1.84509">
        <ele>1345</ele>
        <time>2021-08-20T20:13:17Z</time>
      </trkpt>
      <trkpt lat="42.75864" lon="1.84522">
        <ele>1348</ele>
        <time>2021-08-20T20:13:19Z</time>
      </trkpt>
      <trkpt lat="42.75862" lon="1.84539">
        <ele>1348</ele>
        <time>2021-08-20T20:13:21Z</time>
      </trkpt>
      <trkpt lat="42.75868" lon="1.84602">
        <ele>1345</ele>
        <time>2021-08-20T20:13:30Z</time>
      </trkpt>
      <trkpt lat="42.7587" lon="1.84645">
        <ele>1347</ele>
        <time>2021-08-20T20:13:35Z</time>
      </trkpt>
      <trkpt lat="42.75877" lon="1.84664">
        <ele>1345</ele>
        <time>2021-08-20T20:13:38Z</time>
      </trkpt>
      <trkpt lat="42.75887" lon="1.84677">
        <ele>1343</ele>
        <time>2021-08-20T20:13:41Z</time>
      </trkpt>
      <trkpt lat="42.75929" lon="1.84725">
        <ele>1338</ele>
        <time>2021-08-20T20:13:50Z</time>
      </trkpt>
      <trkpt lat="42.75953" lon="1.84764">
        <ele>1343</ele>
        <time>2021-08-20T20:13:57Z</time>
      </trkpt>
      <trkpt lat="42.7598" lon="1.8479">
        <ele>1346</ele>
        <time>2021-08-20T20:14:03Z</time>
      </trkpt>
      <trkpt lat="42.76016" lon="1.84839">
        <ele>1353</ele>
        <time>2021-08-20T20:14:12Z</time>
      </trkpt>
      <trkpt lat="42.76073" lon="1.84888">
        <ele>1353</ele>
        <time>2021-08-20T20:14:24Z</time>
      </trkpt>
      <trkpt lat="42.76089" lon="1.84899">
        <ele>1352</ele>
        <time>2021-08-20T20:14:27Z</time>
      </trkpt>
      <trkpt lat="42.76114" lon="1.84906">
        <ele>1353</ele>
        <time>2021-08-20T20:14:32Z</time>
      </trkpt>
      <trkpt lat="42.76159" lon="1.84907">
        <ele>1350</ele>
        <time>2021-08-20T20:14:40Z</time>
      </trkpt>
      <trkpt lat="42.76187" lon="1.84904">
        <ele>1353</ele>
        <time>2021-08-20T20:14:45Z</time>
      </trkpt>
      <trkpt lat="42.76215" lon="1.84897">
        <ele>1356</ele>
        <time>2021-08-20T20:14:50Z</time>
      </trkpt>
      <trkpt lat="42.76258" lon="1.84873">
        <ele>1354</ele>
        <time>2021-08-20T20:14:58Z</time>
      </trkpt>
      <trkpt lat="42.76297" lon="1.84855">
        <ele>1353</ele>
        <time>2021-08-20T20:15:05Z</time>
      </trkpt>
      <trkpt lat="42.76321" lon="1.84852">
        <ele>1356</ele>
        <time>2021-08-20T20:15:10Z</time>
      </trkpt>
      <trkpt lat="42.7635" lon="1.84853">
        <ele>1356</ele>
        <time>2021-08-20T20:15:15Z</time>
      </trkpt>
      <trkpt lat="42.76375" lon="1.84862">
        <ele>1355</ele>
        <time>2021-08-20T20:15:19Z</time>
      </trkpt>
      <trkpt lat="42.76403" lon="1.84879">
        <ele>1357</ele>
        <time>2021-08-20T20:15:25Z</time>
      </trkpt>
      <trkpt lat="42.76441" lon="1.84907">
        <ele>1365</ele>
        <time>2021-08-20T20:15:33Z</time>
      </trkpt>
      <trkpt lat="42.76469" lon="1.84922">
        <ele>1368</ele>
        <time>2021-08-20T20:15:38Z</time>
      </trkpt>
      <trkpt lat="42.76539" lon="1.84942">
        <ele>1363</ele>
        <time>2021-08-20T20:15:51Z</time>
      </trkpt>
      <trkpt lat="42.76577" lon="1.84972">
        <ele>1364</ele>
        <time>2021-08-20T20:15:58Z</time>
      </trkpt>
      <trkpt lat="42.766" lon="1.84996">
        <ele>1369</ele>
        <time>2021-08-20T20:16:04Z</time>
      </trkpt>
      <trkpt lat="42.76613" lon="1.85022">
        <ele>1373</ele>
        <time>2021-08-20T20:16:08Z</time>
      </trkpt>
      <trkpt lat="42.76619" lon="1.85047">
        <ele>1376</ele>
        <time>2021-08-20T20:16:11Z</time>
      </trkpt>
      <trkpt lat="42.76624" lon="1.85065">
        <ele>1379</ele>
        <time>2021-08-20T20:16:14Z</time>
      </trkpt>
      <trkpt lat="42.76619" lon="1.8511">
        <ele>1379</ele>
        <time>2021-08-20T20:16:20Z</time>
      </trkpt>
      <trkpt lat="42.76606" lon="1.85104">
        <ele>1378</ele>
        <time>2021-08-20T20:16:22Z</time>
      </trkpt>
      <trkpt lat="42.76593" lon="1.85123">
        <ele>1376</ele>
        <time>2021-08-20T20:16:25Z</time>
      </trkpt>
      <trkpt lat="42.76587" lon="1.85158">
        <ele>1374</ele>
        <time>2021-08-20T20:16:30Z</time>
      </trkpt>
      <trkpt lat="42.76586" lon="1.85232">
        <ele>1372</ele>
        <time>2021-08-20T20:16:40Z</time>
      </trkpt>
      <trkpt lat="42.7658" lon="1.8526">
        <ele>1373</ele>
        <time>2021-08-20T20:16:44Z</time>
      </trkpt>
      <trkpt lat="42.76562" lon="1.85281">
        <ele>1375</ele>
        <time>2021-08-20T20:16:48Z</time>
      </trkpt>
      <trkpt lat="42.76533" lon="1.85294">
        <ele>1377</ele>
        <time>2021-08-20T20:16:53Z</time>
      </trkpt>
      <trkpt lat="42.76516" lon="1.8529">
        <ele>1379</ele>
        <time>2021-08-20T20:16:56Z</time>
      </trkpt>
      <trkpt lat="42.76503" lon="1.85265">
        <ele>1385</ele>
        <time>2021-08-20T20:17:00Z</time>
      </trkpt>
      <trkpt lat="42.76484" lon="1.85218">
        <ele>1389</ele>
        <time>2021-08-20T20:17:07Z</time>
      </trkpt>
      <trkpt lat="42.76441" lon="1.85189">
        <ele>1392</ele>
        <time>2021-08-20T20:17:16Z</time>
      </trkpt>
      <trkpt lat="42.76381" lon="1.85122">
        <ele>1408</ele>
        <time>2021-08-20T20:17:30Z</time>
      </trkpt>
      <trkpt lat="42.76375" lon="1.8512">
        <ele>1409</ele>
        <time>2021-08-20T20:17:31Z</time>
      </trkpt>
      <trkpt lat="42.76362" lon="1.85124">
        <ele>1410</ele>
        <time>2021-08-20T20:17:33Z</time>
      </trkpt>
      <trkpt lat="42.76303" lon="1.85191">
        <ele>1411</ele>
        <time>2021-08-20T20:17:47Z</time>
      </trkpt>
      <trkpt lat="42.76281" lon="1.85231">
        <ele>1410</ele>
        <time>2021-08-20T20:17:53Z</time>
      </trkpt>
      <trkpt lat="42.76261" lon="1.85254">
        <ele>1411</ele>
        <time>2021-08-20T20:17:58Z</time>
      </trkpt>
      <trkpt lat="42.7624" lon="1.85273">
        <ele>1410</ele>
        <time>2021-08-20T20:18:02Z</time>
      </trkpt>
      <trkpt lat="42.76234" lon="1.85273">
        <ele>1409</ele>
        <time>2021-08-20T20:18:04Z</time>
      </trkpt>
      <trkpt lat="42.76229" lon="1.85271">
        <ele>1409</ele>
        <time>2021-08-20T20:18:04Z</time>
      </trkpt>
      <trkpt lat="42.76223" lon="1.85265">
        <ele>1410</ele>
        <time>2021-08-20T20:18:06Z</time>
      </trkpt>
      <trkpt lat="42.76198" lon="1.8523">
        <ele>1417</ele>
        <time>2021-08-20T20:18:12Z</time>
      </trkpt>
      <trkpt lat="42.7618" lon="1.85215">
        <ele>1419</ele>
        <time>2021-08-20T20:18:16Z</time>
      </trkpt>
      <trkpt lat="42.76156" lon="1.85201">
        <ele>1421</ele>
        <time>2021-08-20T20:18:21Z</time>
      </trkpt>
      <trkpt lat="42.76127" lon="1.85167">
        <ele>1427</ele>
        <time>2021-08-20T20:18:27Z</time>
      </trkpt>
      <trkpt lat="42.76098" lon="1.85149">
        <ele>1425</ele>
        <time>2021-08-20T20:18:33Z</time>
      </trkpt>
      <trkpt lat="42.76067" lon="1.85122">
        <ele>1427</ele>
        <time>2021-08-20T20:18:40Z</time>
      </trkpt>
      <trkpt lat="42.76051" lon="1.85114">
        <ele>1430</ele>
        <time>2021-08-20T20:18:43Z</time>
      </trkpt>
      <trkpt lat="42.76032" lon="1.85103">
        <ele>1433</ele>
        <time>2021-08-20T20:18:46Z</time>
      </trkpt>
      <trkpt lat="42.7602" lon="1.85094">
        <ele>1435</ele>
        <time>2021-08-20T20:18:49Z</time>
      </trkpt>
      <trkpt lat="42.75982" lon="1.85043">
        <ele>1430</ele>
        <time>2021-08-20T20:18:58Z</time>
      </trkpt>
      <trkpt lat="42.7597" lon="1.85032">
        <ele>1429</ele>
        <time>2021-08-20T20:19:01Z</time>
      </trkpt>
      <trkpt lat="42.75958" lon="1.85026">
        <ele>1429</ele>
        <time>2021-08-20T20:19:03Z</time>
      </trkpt>
      <trkpt lat="42.75945" lon="1.85024">
        <ele>1430</ele>
        <time>2021-08-20T20:19:05Z</time>
      </trkpt>
      <trkpt lat="42.75844" lon="1.85015">
        <ele>1440</ele>
        <time>2021-08-20T20:19:23Z</time>
      </trkpt>
      <trkpt lat="42.75806" lon="1.85004">
        <ele>1444</ele>
        <time>2021-08-20T20:19:30Z</time>
      </trkpt>
      <trkpt lat="42.75778" lon="1.84982">
        <ele>1446</ele>
        <time>2021-08-20T20:19:36Z</time>
      </trkpt>
      <trkpt lat="42.75753" lon="1.84957">
        <ele>1447</ele>
        <time>2021-08-20T20:19:42Z</time>
      </trkpt>
      <trkpt lat="42.75733" lon="1.84929">
        <ele>1451</ele>
        <time>2021-08-20T20:19:47Z</time>
      </trkpt>
      <trkpt lat="42.75719" lon="1.84897">
        <ele>1453</ele>
        <time>2021-08-20T20:19:52Z</time>
      </trkpt>
      <trkpt lat="42.75715" lon="1.84887">
        <ele>1453</ele>
        <time>2021-08-20T20:19:53Z</time>
      </trkpt>
      <trkpt lat="42.75683" lon="1.84794">
        <ele>1456</ele>
        <time>2021-08-20T20:20:06Z</time>
      </trkpt>
      <trkpt lat="42.75668" lon="1.84736">
        <ele>1455</ele>
        <time>2021-08-20T20:20:14Z</time>
      </trkpt>
      <trkpt lat="42.75656" lon="1.84626">
        <ele>1454</ele>
        <time>2021-08-20T20:20:29Z</time>
      </trkpt>
      <trkpt lat="42.75644" lon="1.84557">
        <ele>1456</ele>
        <time>2021-08-20T20:20:38Z</time>
      </trkpt>
      <trkpt lat="42.75641" lon="1.84493">
        <ele>1454</ele>
        <time>2021-08-20T20:20:47Z</time>
      </trkpt>
      <trkpt lat="42.75626" lon="1.84406">
        <ele>1457</ele>
        <time>2021-08-20T20:20:58Z</time>
      </trkpt>
      <trkpt lat="42.75636" lon="1.84169">
        <ele>1454</ele>
        <time>2021-08-20T20:21:29Z</time>
      </trkpt>
      <trkpt lat="42.75636" lon="1.84129">
        <ele>1453</ele>
        <time>2021-08-20T20:21:35Z</time>
      </trkpt>
      <trkpt lat="42.75634" lon="1.84096">
        <ele>1452</ele>
        <time>2021-08-20T20:21:39Z</time>
      </trkpt>
      <trkpt lat="42.75631" lon="1.84084">
        <ele>1452</ele>
        <time>2021-08-20T20:21:41Z</time>
      </trkpt>
      <trkpt lat="42.75516" lon="1.83803">
        <ele>1434</ele>
        <time>2021-08-20T20:22:23Z</time>
      </trkpt>
      <trkpt lat="42.75508" lon="1.83785">
        <ele>1434</ele>
        <time>2021-08-20T20:22:25Z</time>
      </trkpt>
      <trkpt lat="42.75494" lon="1.83774">
        <ele>1433</ele>
        <time>2021-08-20T20:22:28Z</time>
      </trkpt>
      <trkpt lat="42.75461" lon="1.83765">
        <ele>1432</ele>
        <time>2021-08-20T20:22:34Z</time>
      </trkpt>
      <trkpt lat="42.75431" lon="1.83765">
        <ele>1431</ele>
        <time>2021-08-20T20:22:40Z</time>
      </trkpt>
      <trkpt lat="42.75408" lon="1.83773">
        <ele>1430</ele>
        <time>2021-08-20T20:22:44Z</time>
      </trkpt>
      <trkpt lat="42.75386" lon="1.83786">
        <ele>1430</ele>
        <time>2021-08-20T20:22:48Z</time>
      </trkpt>
      <trkpt lat="42.75364" lon="1.8381">
        <ele>1428</ele>
        <time>2021-08-20T20:22:53Z</time>
      </trkpt>
      <trkpt lat="42.75354" lon="1.83826">
        <ele>1427</ele>
        <time>2021-08-20T20:22:56Z</time>
      </trkpt>
      <trkpt lat="42.75348" lon="1.83847">
        <ele>1426</ele>
        <time>2021-08-20T20:22:59Z</time>
      </trkpt>
      <trkpt lat="42.75346" lon="1.83871">
        <ele>1424</ele>
        <time>2021-08-20T20:23:02Z</time>
      </trkpt>
      <trkpt lat="42.75352" lon="1.83897">
        <ele>1423</ele>
        <time>2021-08-20T20:23:05Z</time>
      </trkpt>
      <trkpt lat="42.75353" lon="1.83931">
        <ele>1420</ele>
        <time>2021-08-20T20:23:10Z</time>
      </trkpt>
      <trkpt lat="42.75361" lon="1.83957">
        <ele>1418</ele>
        <time>2021-08-20T20:23:14Z</time>
      </trkpt>
      <trkpt lat="42.7536" lon="1.83976">
        <ele>1416</ele>
        <time>2021-08-20T20:23:16Z</time>
      </trkpt>
      <trkpt lat="42.75352" lon="1.83998">
        <ele>1413</ele>
        <time>2021-08-20T20:23:19Z</time>
      </trkpt>
      <trkpt lat="42.75339" lon="1.84023">
        <ele>1411</ele>
        <time>2021-08-20T20:23:23Z</time>
      </trkpt>
      <trkpt lat="42.7531" lon="1.84056">
        <ele>1406</ele>
        <time>2021-08-20T20:23:30Z</time>
      </trkpt>
      <trkpt lat="42.75299" lon="1.84071">
        <ele>1403</ele>
        <time>2021-08-20T20:23:33Z</time>
      </trkpt>
      <trkpt lat="42.7527" lon="1.84127">
        <ele>1400</ele>
        <time>2021-08-20T20:23:42Z</time>
      </trkpt>
      <trkpt lat="42.75249" lon="1.84182">
        <ele>1398</ele>
        <time>2021-08-20T20:23:50Z</time>
      </trkpt>
      <trkpt lat="42.75231" lon="1.8424">
        <ele>1391</ele>
        <time>2021-08-20T20:23:58Z</time>
      </trkpt>
      <trkpt lat="42.75225" lon="1.84274">
        <ele>1387</ele>
        <time>2021-08-20T20:24:03Z</time>
      </trkpt>
      <trkpt lat="42.75224" lon="1.84294">
        <ele>1385</ele>
        <time>2021-08-20T20:24:05Z</time>
      </trkpt>
      <trkpt lat="42.75235" lon="1.84384">
        <ele>1389</ele>
        <time>2021-08-20T20:24:17Z</time>
      </trkpt>
      <trkpt lat="42.75235" lon="1.84403">
        <ele>1389</ele>
        <time>2021-08-20T20:24:20Z</time>
      </trkpt>
      <trkpt lat="42.75233" lon="1.84418">
        <ele>1388</ele>
        <time>2021-08-20T20:24:22Z</time>
      </trkpt>
      <trkpt lat="42.75226" lon="1.84432">
        <ele>1387</ele>
        <time>2021-08-20T20:24:24Z</time>
      </trkpt>
      <trkpt lat="42.7522" lon="1.8444">
        <ele>1386</ele>
        <time>2021-08-20T20:24:25Z</time>
      </trkpt>
      <trkpt lat="42.75185" lon="1.84467">
        <ele>1374</ele>
        <time>2021-08-20T20:24:32Z</time>
      </trkpt>
      <trkpt lat="42.75174" lon="1.84477">
        <ele>1371</ele>
        <time>2021-08-20T20:24:35Z</time>
      </trkpt>
      <trkpt lat="42.75164" lon="1.84492">
        <ele>1368</ele>
        <time>2021-08-20T20:24:37Z</time>
      </trkpt>
      <trkpt lat="42.75153" lon="1.84518">
        <ele>1365</ele>
        <time>2021-08-20T20:24:41Z</time>
      </trkpt>
      <trkpt lat="42.75148" lon="1.84544">
        <ele>1365</ele>
        <time>2021-08-20T20:24:45Z</time>
      </trkpt>
      <trkpt lat="42.75138" lon="1.84617">
        <ele>1364</ele>
        <time>2021-08-20T20:24:55Z</time>
      </trkpt>
      <trkpt lat="42.75135" lon="1.84658">
        <ele>1364</ele>
        <time>2021-08-20T20:25:00Z</time>
      </trkpt>
      <trkpt lat="42.75129" lon="1.84702">
        <ele>1363</ele>
        <time>2021-08-20T20:25:06Z</time>
      </trkpt>
      <trkpt lat="42.75129" lon="1.84727">
        <ele>1365</ele>
        <time>2021-08-20T20:25:09Z</time>
      </trkpt>
      <trkpt lat="42.75127" lon="1.84737">
        <ele>1364</ele>
        <time>2021-08-20T20:25:10Z</time>
      </trkpt>
      <trkpt lat="42.75123" lon="1.84742">
        <ele>1363</ele>
        <time>2021-08-20T20:25:11Z</time>
      </trkpt>
      <trkpt lat="42.75115" lon="1.84743">
        <ele>1361</ele>
        <time>2021-08-20T20:25:13Z</time>
      </trkpt>
      <trkpt lat="42.7511" lon="1.8474">
        <ele>1359</ele>
        <time>2021-08-20T20:25:14Z</time>
      </trkpt>
      <trkpt lat="42.75108" lon="1.84728">
        <ele>1358</ele>
        <time>2021-08-20T20:25:15Z</time>
      </trkpt>
      <trkpt lat="42.75117" lon="1.84691">
        <ele>1358</ele>
        <time>2021-08-20T20:25:21Z</time>
      </trkpt>
      <trkpt lat="42.75118" lon="1.84669">
        <ele>1357</ele>
        <time>2021-08-20T20:25:23Z</time>
      </trkpt>
      <trkpt lat="42.75115" lon="1.8464">
        <ele>1355</ele>
        <time>2021-08-20T20:25:27Z</time>
      </trkpt>
      <trkpt lat="42.75108" lon="1.84596">
        <ele>1349</ele>
        <time>2021-08-20T20:25:33Z</time>
      </trkpt>
      <trkpt lat="42.75106" lon="1.84553">
        <ele>1344</ele>
        <time>2021-08-20T20:25:39Z</time>
      </trkpt>
      <trkpt lat="42.75095" lon="1.84463">
        <ele>1331</ele>
        <time>2021-08-20T20:25:51Z</time>
      </trkpt>
      <trkpt lat="42.75102" lon="1.84418">
        <ele>1330</ele>
        <time>2021-08-20T20:25:57Z</time>
      </trkpt>
      <trkpt lat="42.75112" lon="1.84375">
        <ele>1334</ele>
        <time>2021-08-20T20:26:03Z</time>
      </trkpt>
      <trkpt lat="42.75112" lon="1.84357">
        <ele>1334</ele>
        <time>2021-08-20T20:26:05Z</time>
      </trkpt>
      <trkpt lat="42.75103" lon="1.84337">
        <ele>1331</ele>
        <time>2021-08-20T20:26:08Z</time>
      </trkpt>
      <trkpt lat="42.75096" lon="1.8433">
        <ele>1329</ele>
        <time>2021-08-20T20:26:10Z</time>
      </trkpt>
      <trkpt lat="42.75093" lon="1.8433">
        <ele>1327</ele>
        <time>2021-08-20T20:26:10Z</time>
      </trkpt>
      <trkpt lat="42.75086" lon="1.84334">
        <ele>1324</ele>
        <time>2021-08-20T20:26:11Z</time>
      </trkpt>
      <trkpt lat="42.75084" lon="1.8434">
        <ele>1323</ele>
        <time>2021-08-20T20:26:12Z</time>
      </trkpt>
      <trkpt lat="42.7509" lon="1.84368">
        <ele>1325</ele>
        <time>2021-08-20T20:26:16Z</time>
      </trkpt>
      <trkpt lat="42.75089" lon="1.84378">
        <ele>1325</ele>
        <time>2021-08-20T20:26:17Z</time>
      </trkpt>
      <trkpt lat="42.75071" lon="1.84417">
        <ele>1319</ele>
        <time>2021-08-20T20:26:23Z</time>
      </trkpt>
      <trkpt lat="42.75065" lon="1.84439">
        <ele>1319</ele>
        <time>2021-08-20T20:26:27Z</time>
      </trkpt>
      <trkpt lat="42.75063" lon="1.84463">
        <ele>1321</ele>
        <time>2021-08-20T20:26:30Z</time>
      </trkpt>
      <trkpt lat="42.75062" lon="1.84488">
        <ele>1324</ele>
        <time>2021-08-20T20:26:33Z</time>
      </trkpt>
      <trkpt lat="42.75061" lon="1.84502">
        <ele>1325</ele>
        <time>2021-08-20T20:26:35Z</time>
      </trkpt>
      <trkpt lat="42.75059" lon="1.84507">
        <ele>1325</ele>
        <time>2021-08-20T20:26:36Z</time>
      </trkpt>
      <trkpt lat="42.75052" lon="1.84511">
        <ele>1325</ele>
        <time>2021-08-20T20:26:37Z</time>
      </trkpt>
      <trkpt lat="42.75044" lon="1.84507">
        <ele>1323</ele>
        <time>2021-08-20T20:26:38Z</time>
      </trkpt>
      <trkpt lat="42.7504" lon="1.84496">
        <ele>1321</ele>
        <time>2021-08-20T20:26:40Z</time>
      </trkpt>
      <trkpt lat="42.75042" lon="1.84458">
        <ele>1317</ele>
        <time>2021-08-20T20:26:45Z</time>
      </trkpt>
      <trkpt lat="42.75037" lon="1.84411">
        <ele>1310</ele>
        <time>2021-08-20T20:26:51Z</time>
      </trkpt>
      <trkpt lat="42.75037" lon="1.84396">
        <ele>1312</ele>
        <time>2021-08-20T20:26:53Z</time>
      </trkpt>
      <trkpt lat="42.7504" lon="1.84371">
        <ele>1315</ele>
        <time>2021-08-20T20:26:56Z</time>
      </trkpt>
      <trkpt lat="42.75039" lon="1.84365">
        <ele>1316</ele>
        <time>2021-08-20T20:26:57Z</time>
      </trkpt>
      <trkpt lat="42.75033" lon="1.84357">
        <ele>1316</ele>
        <time>2021-08-20T20:26:59Z</time>
      </trkpt>
      <trkpt lat="42.75026" lon="1.84356">
        <ele>1315</ele>
        <time>2021-08-20T20:27:00Z</time>
      </trkpt>
      <trkpt lat="42.75019" lon="1.84364">
        <ele>1313</ele>
        <time>2021-08-20T20:27:02Z</time>
      </trkpt>
      <trkpt lat="42.75019" lon="1.84375">
        <ele>1311</ele>
        <time>2021-08-20T20:27:03Z</time>
      </trkpt>
      <trkpt lat="42.75024" lon="1.84426">
        <ele>1308</ele>
        <time>2021-08-20T20:27:10Z</time>
      </trkpt>
      <trkpt lat="42.75023" lon="1.84431">
        <ele>1308</ele>
        <time>2021-08-20T20:27:10Z</time>
      </trkpt>
      <trkpt lat="42.75019" lon="1.84437">
        <ele>1308</ele>
        <time>2021-08-20T20:27:12Z</time>
      </trkpt>
      <trkpt lat="42.75017" lon="1.84439">
        <ele>1308</ele>
        <time>2021-08-20T20:27:12Z</time>
      </trkpt>
      <trkpt lat="42.7501" lon="1.8444">
        <ele>1307</ele>
        <time>2021-08-20T20:27:13Z</time>
      </trkpt>
      <trkpt lat="42.75005" lon="1.84436">
        <ele>1305</ele>
        <time>2021-08-20T20:27:14Z</time>
      </trkpt>
      <trkpt lat="42.75002" lon="1.84428">
        <ele>1303</ele>
        <time>2021-08-20T20:27:15Z</time>
      </trkpt>
      <trkpt lat="42.74999" lon="1.84394">
        <ele>1304</ele>
        <time>2021-08-20T20:27:20Z</time>
      </trkpt>
      <trkpt lat="42.74996" lon="1.84388">
        <ele>1305</ele>
        <time>2021-08-20T20:27:21Z</time>
      </trkpt>
      <trkpt lat="42.74987" lon="1.84382">
        <ele>1305</ele>
        <time>2021-08-20T20:27:23Z</time>
      </trkpt>
      <trkpt lat="42.74979" lon="1.84381">
        <ele>1304</ele>
        <time>2021-08-20T20:27:24Z</time>
      </trkpt>
      <trkpt lat="42.74953" lon="1.84384">
        <ele>1301</ele>
        <time>2021-08-20T20:27:29Z</time>
      </trkpt>
      <trkpt lat="42.74854" lon="1.84373">
        <ele>1291</ele>
        <time>2021-08-20T20:27:46Z</time>
      </trkpt>
      <trkpt lat="42.74814" lon="1.84354">
        <ele>1285</ele>
        <time>2021-08-20T20:27:54Z</time>
      </trkpt>
      <trkpt lat="42.74789" lon="1.84331">
        <ele>1279</ele>
        <time>2021-08-20T20:27:59Z</time>
      </trkpt>
      <trkpt lat="42.74723" lon="1.84253">
        <ele>1273</ele>
        <time>2021-08-20T20:28:15Z</time>
      </trkpt>
      <trkpt lat="42.74713" lon="1.84242">
        <ele>1273</ele>
        <time>2021-08-20T20:28:17Z</time>
      </trkpt>
      <trkpt lat="42.74676" lon="1.842">
        <ele>1261</ele>
        <time>2021-08-20T20:28:26Z</time>
      </trkpt>
      <trkpt lat="42.74655" lon="1.84157">
        <ele>1254</ele>
        <time>2021-08-20T20:28:32Z</time>
      </trkpt>
      <trkpt lat="42.74636" lon="1.84096">
        <ele>1254</ele>
        <time>2021-08-20T20:28:41Z</time>
      </trkpt>
      <trkpt lat="42.74622" lon="1.84047">
        <ele>1253</ele>
        <time>2021-08-20T20:28:48Z</time>
      </trkpt>
      <trkpt lat="42.74611" lon="1.83987">
        <ele>1248</ele>
        <time>2021-08-20T20:28:56Z</time>
      </trkpt>
      <trkpt lat="42.74603" lon="1.83958">
        <ele>1244</ele>
        <time>2021-08-20T20:29:00Z</time>
      </trkpt>
      <trkpt lat="42.74591" lon="1.83931">
        <ele>1237</ele>
        <time>2021-08-20T20:29:04Z</time>
      </trkpt>
      <trkpt lat="42.74514" lon="1.83782">
        <ele>1224</ele>
        <time>2021-08-20T20:29:28Z</time>
      </trkpt>
      <trkpt lat="42.74479" lon="1.83744">
        <ele>1219</ele>
        <time>2021-08-20T20:29:36Z</time>
      </trkpt>
      <trkpt lat="42.7445" lon="1.83717">
        <ele>1216</ele>
        <time>2021-08-20T20:29:42Z</time>
      </trkpt>
      <trkpt lat="42.74404" lon="1.83689">
        <ele>1212</ele>
        <time>2021-08-20T20:29:51Z</time>
      </trkpt>
      <trkpt lat="42.74354" lon="1.83667">
        <ele>1209</ele>
        <time>2021-08-20T20:30:01Z</time>
      </trkpt>
      <trkpt lat="42.74291" lon="1.83617">
        <ele>1210</ele>
        <time>2021-08-20T20:30:14Z</time>
      </trkpt>
      <trkpt lat="42.74272" lon="1.83563">
        <ele>1198</ele>
        <time>2021-08-20T20:30:21Z</time>
      </trkpt>
      <trkpt lat="42.7426" lon="1.83543">
        <ele>1194</ele>
        <time>2021-08-20T20:30:25Z</time>
      </trkpt>
      <trkpt lat="42.74131" lon="1.83419">
        <ele>1175</ele>
        <time>2021-08-20T20:30:53Z</time>
      </trkpt>
      <trkpt lat="42.74068" lon="1.83391">
        <ele>1173</ele>
        <time>2021-08-20T20:31:05Z</time>
      </trkpt>
      <trkpt lat="42.73958" lon="1.83372">
        <ele>1166</ele>
        <time>2021-08-20T20:31:24Z</time>
      </trkpt>
      <trkpt lat="42.73836" lon="1.83358">
        <ele>1152</ele>
        <time>2021-08-20T20:31:46Z</time>
      </trkpt>
      <trkpt lat="42.73821" lon="1.8336">
        <ele>1151</ele>
        <time>2021-08-20T20:31:49Z</time>
      </trkpt>
      <trkpt lat="42.73805" lon="1.83365">
        <ele>1150</ele>
        <time>2021-08-20T20:31:52Z</time>
      </trkpt>
      <trkpt lat="42.7379" lon="1.83373">
        <ele>1150</ele>
        <time>2021-08-20T20:31:55Z</time>
      </trkpt>
      <trkpt lat="42.7376" lon="1.83397">
        <ele>1154</ele>
        <time>2021-08-20T20:32:01Z</time>
      </trkpt>
      <trkpt lat="42.73698" lon="1.83419">
        <ele>1143</ele>
        <time>2021-08-20T20:32:12Z</time>
      </trkpt>
      <trkpt lat="42.73685" lon="1.83427">
        <ele>1141</ele>
        <time>2021-08-20T20:32:15Z</time>
      </trkpt>
      <trkpt lat="42.73675" lon="1.83433">
        <ele>1139</ele>
        <time>2021-08-20T20:32:17Z</time>
      </trkpt>
      <trkpt lat="42.73657" lon="1.83452">
        <ele>1135</ele>
        <time>2021-08-20T20:32:21Z</time>
      </trkpt>
      <trkpt lat="42.7365" lon="1.83465">
        <ele>1133</ele>
        <time>2021-08-20T20:32:23Z</time>
      </trkpt>
      <trkpt lat="42.73646" lon="1.83477">
        <ele>1133</ele>
        <time>2021-08-20T20:32:25Z</time>
      </trkpt>
      <trkpt lat="42.73646" lon="1.83492">
        <ele>1136</ele>
        <time>2021-08-20T20:32:26Z</time>
      </trkpt>
      <trkpt lat="42.7365" lon="1.83565">
        <ele>1141</ele>
        <time>2021-08-20T20:32:36Z</time>
      </trkpt>
      <trkpt lat="42.7365" lon="1.83593">
        <ele>1142</ele>
        <time>2021-08-20T20:32:40Z</time>
      </trkpt>
      <trkpt lat="42.73648" lon="1.8362">
        <ele>1140</ele>
        <time>2021-08-20T20:32:43Z</time>
      </trkpt>
      <trkpt lat="42.73642" lon="1.83653">
        <ele>1137</ele>
        <time>2021-08-20T20:32:48Z</time>
      </trkpt>
      <trkpt lat="42.73625" lon="1.83731">
        <ele>1131</ele>
        <time>2021-08-20T20:32:58Z</time>
      </trkpt>
      <trkpt lat="42.73616" lon="1.83757">
        <ele>1128</ele>
        <time>2021-08-20T20:33:02Z</time>
      </trkpt>
      <trkpt lat="42.73612" lon="1.8377">
        <ele>1127</ele>
        <time>2021-08-20T20:33:04Z</time>
      </trkpt>
      <trkpt lat="42.73584" lon="1.83843">
        <ele>1116</ele>
        <time>2021-08-20T20:33:15Z</time>
      </trkpt>
      <trkpt lat="42.73575" lon="1.83867">
        <ele>1113</ele>
        <time>2021-08-20T20:33:18Z</time>
      </trkpt>
      <trkpt lat="42.73555" lon="1.83907">
        <ele>1108</ele>
        <time>2021-08-20T20:33:25Z</time>
      </trkpt>
      <trkpt lat="42.73548" lon="1.83926">
        <ele>1106</ele>
        <time>2021-08-20T20:33:27Z</time>
      </trkpt>
      <trkpt lat="42.73538" lon="1.83995">
        <ele>1105</ele>
        <time>2021-08-20T20:33:37Z</time>
      </trkpt>
      <trkpt lat="42.73532" lon="1.84052">
        <ele>1104</ele>
        <time>2021-08-20T20:33:44Z</time>
      </trkpt>
      <trkpt lat="42.73524" lon="1.84088">
        <ele>1102</ele>
        <time>2021-08-20T20:33:49Z</time>
      </trkpt>
      <trkpt lat="42.735" lon="1.84142">
        <ele>1096</ele>
        <time>2021-08-20T20:33:57Z</time>
      </trkpt>
      <trkpt lat="42.73437" lon="1.84267">
        <ele>1087</ele>
        <time>2021-08-20T20:34:17Z</time>
      </trkpt>
      <trkpt lat="42.73409" lon="1.84298">
        <ele>1080</ele>
        <time>2021-08-20T20:34:23Z</time>
      </trkpt>
      <trkpt lat="42.73387" lon="1.84337">
        <ele>1076</ele>
        <time>2021-08-20T20:34:30Z</time>
      </trkpt>
      <trkpt lat="42.73357" lon="1.8438">
        <ele>1070</ele>
        <time>2021-08-20T20:34:38Z</time>
      </trkpt>
      <trkpt lat="42.73339" lon="1.84429">
        <ele>1069</ele>
        <time>2021-08-20T20:34:45Z</time>
      </trkpt>
      <trkpt lat="42.7332" lon="1.84467">
        <ele>1069</ele>
        <time>2021-08-20T20:34:51Z</time>
      </trkpt>
      <trkpt lat="42.73288" lon="1.84519">
        <ele>1067</ele>
        <time>2021-08-20T20:35:00Z</time>
      </trkpt>
      <trkpt lat="42.73274" lon="1.84537">
        <ele>1066</ele>
        <time>2021-08-20T20:35:03Z</time>
      </trkpt>
      <trkpt lat="42.73129" lon="1.84641">
        <ele>1047</ele>
        <time>2021-08-20T20:35:32Z</time>
      </trkpt>
      <trkpt lat="42.73112" lon="1.84655">
        <ele>1045</ele>
        <time>2021-08-20T20:35:36Z</time>
      </trkpt>
      <trkpt lat="42.73079" lon="1.84682">
        <ele>1042</ele>
        <time>2021-08-20T20:35:43Z</time>
      </trkpt>
      <trkpt lat="42.73061" lon="1.847">
        <ele>1042</ele>
        <time>2021-08-20T20:35:47Z</time>
      </trkpt>
      <trkpt lat="42.73051" lon="1.84713">
        <ele>1041</ele>
        <time>2021-08-20T20:35:49Z</time>
      </trkpt>
      <trkpt lat="42.72993" lon="1.84808">
        <ele>1038</ele>
        <time>2021-08-20T20:36:05Z</time>
      </trkpt>
      <trkpt lat="42.72985" lon="1.84813">
        <ele>1038</ele>
        <time>2021-08-20T20:36:07Z</time>
      </trkpt>
      <trkpt lat="42.72975" lon="1.84815">
        <ele>1037</ele>
        <time>2021-08-20T20:36:09Z</time>
      </trkpt>
      <trkpt lat="42.7296" lon="1.84811">
        <ele>1036</ele>
        <time>2021-08-20T20:36:11Z</time>
      </trkpt>
      <trkpt lat="42.72909" lon="1.848">
        <ele>1030</ele>
        <time>2021-08-20T20:36:20Z</time>
      </trkpt>
      <trkpt lat="42.72893" lon="1.84807">
        <ele>1029</ele>
        <time>2021-08-20T20:36:23Z</time>
      </trkpt>
      <trkpt lat="42.72869" lon="1.84834">
        <ele>1027</ele>
        <time>2021-08-20T20:36:29Z</time>
      </trkpt>
      <trkpt lat="42.72796" lon="1.84946">
        <ele>1022</ele>
        <time>2021-08-20T20:36:49Z</time>
      </trkpt>
      <trkpt lat="42.72734" lon="1.85004">
        <ele>1017</ele>
        <time>2021-08-20T20:37:02Z</time>
      </trkpt>
      <trkpt lat="42.72714" lon="1.8503">
        <ele>1014</ele>
        <time>2021-08-20T20:37:07Z</time>
      </trkpt>
      <trkpt lat="42.72646" lon="1.85149">
        <ele>1012</ele>
        <time>2021-08-20T20:37:27Z</time>
      </trkpt>
      <trkpt lat="42.72626" lon="1.85178">
        <ele>1011</ele>
        <time>2021-08-20T20:37:32Z</time>
      </trkpt>
      <trkpt lat="42.72612" lon="1.85192">
        <ele>1009</ele>
        <time>2021-08-20T20:37:35Z</time>
      </trkpt>
      <trkpt lat="42.72558" lon="1.85223">
        <ele>999</ele>
        <time>2021-08-20T20:37:45Z</time>
      </trkpt>
      <trkpt lat="42.7254" lon="1.85239">
        <ele>995</ele>
        <time>2021-08-20T20:37:49Z</time>
      </trkpt>
      <trkpt lat="42.72527" lon="1.85258">
        <ele>994</ele>
        <time>2021-08-20T20:37:53Z</time>
      </trkpt>
      <trkpt lat="42.72497" lon="1.8532">
        <ele>993</ele>
        <time>2021-08-20T20:38:02Z</time>
      </trkpt>
      <trkpt lat="42.72474" lon="1.85357">
        <ele>993</ele>
        <time>2021-08-20T20:38:09Z</time>
      </trkpt>
      <trkpt lat="42.72418" lon="1.85417">
        <ele>984</ele>
        <time>2021-08-20T20:38:21Z</time>
      </trkpt>
      <trkpt lat="42.72408" lon="1.85434">
        <ele>982</ele>
        <time>2021-08-20T20:38:24Z</time>
      </trkpt>
      <trkpt lat="42.72392" lon="1.85472">
        <ele>981</ele>
        <time>2021-08-20T20:38:30Z</time>
      </trkpt>
      <trkpt lat="42.7237" lon="1.85508">
        <ele>974</ele>
        <time>2021-08-20T20:38:36Z</time>
      </trkpt>
      <trkpt lat="42.7234" lon="1.85558">
        <ele>962</ele>
        <time>2021-08-20T20:38:44Z</time>
      </trkpt>
      <trkpt lat="42.72335" lon="1.85575">
        <ele>961</ele>
        <time>2021-08-20T20:38:47Z</time>
      </trkpt>
      <trkpt lat="42.72335" lon="1.85592">
        <ele>963</ele>
        <time>2021-08-20T20:38:49Z</time>
      </trkpt>
      <trkpt lat="42.72337" lon="1.85611">
        <ele>967</ele>
        <time>2021-08-20T20:38:52Z</time>
      </trkpt>
      <trkpt lat="42.72334" lon="1.85637">
        <ele>968</ele>
        <time>2021-08-20T20:38:55Z</time>
      </trkpt>
      <trkpt lat="42.72329" lon="1.85657">
        <ele>967</ele>
        <time>2021-08-20T20:38:58Z</time>
      </trkpt>
      <trkpt lat="42.72323" lon="1.85675">
        <ele>966</ele>
        <time>2021-08-20T20:39:00Z</time>
      </trkpt>
      <trkpt lat="42.72312" lon="1.85699">
        <ele>963</ele>
        <time>2021-08-20T20:39:04Z</time>
      </trkpt>
      <trkpt lat="42.72303" lon="1.85714">
        <ele>961</ele>
        <time>2021-08-20T20:39:07Z</time>
      </trkpt>
      <trkpt lat="42.72277" lon="1.85734">
        <ele>953</ele>
        <time>2021-08-20T20:39:12Z</time>
      </trkpt>
      <trkpt lat="42.7227" lon="1.85744">
        <ele>952</ele>
        <time>2021-08-20T20:39:14Z</time>
      </trkpt>
      <trkpt lat="42.72268" lon="1.85756">
        <ele>955</ele>
        <time>2021-08-20T20:39:15Z</time>
      </trkpt>
      <trkpt lat="42.72272" lon="1.85765">
        <ele>959</ele>
        <time>2021-08-20T20:39:17Z</time>
      </trkpt>
      <trkpt lat="42.72279" lon="1.85774">
        <ele>963</ele>
        <time>2021-08-20T20:39:18Z</time>
      </trkpt>
      <trkpt lat="42.72281" lon="1.85779">
        <ele>965</ele>
        <time>2021-08-20T20:39:19Z</time>
      </trkpt>
      <trkpt lat="42.72281" lon="1.85784">
        <ele>967</ele>
        <time>2021-08-20T20:39:20Z</time>
      </trkpt>
      <trkpt lat="42.72278" lon="1.85789">
        <ele>967</ele>
        <time>2021-08-20T20:39:21Z</time>
      </trkpt>
      <trkpt lat="42.72273" lon="1.85792">
        <ele>966</ele>
        <time>2021-08-20T20:39:22Z</time>
      </trkpt>
      <trkpt lat="42.72271" lon="1.85792">
        <ele>965</ele>
        <time>2021-08-20T20:39:22Z</time>
      </trkpt>
      <trkpt lat="42.72267" lon="1.85789">
        <ele>963</ele>
        <time>2021-08-20T20:39:23Z</time>
      </trkpt>
      <trkpt lat="42.72262" lon="1.85782">
        <ele>959</ele>
        <time>2021-08-20T20:39:24Z</time>
      </trkpt>
      <trkpt lat="42.72254" lon="1.85767">
        <ele>952</ele>
        <time>2021-08-20T20:39:26Z</time>
      </trkpt>
      <trkpt lat="42.72252" lon="1.85757">
        <ele>949</ele>
        <time>2021-08-20T20:39:28Z</time>
      </trkpt>
      <trkpt lat="42.72252" lon="1.85748">
        <ele>946</ele>
        <time>2021-08-20T20:39:29Z</time>
      </trkpt>
      <trkpt lat="42.72254" lon="1.85741">
        <ele>945</ele>
        <time>2021-08-20T20:39:30Z</time>
      </trkpt>
      <trkpt lat="42.72261" lon="1.85725">
        <ele>943</ele>
        <time>2021-08-20T20:39:32Z</time>
      </trkpt>
      <trkpt lat="42.72289" lon="1.85685">
        <ele>947</ele>
        <time>2021-08-20T20:39:40Z</time>
      </trkpt>
      <trkpt lat="42.72297" lon="1.85667">
        <ele>948</ele>
        <time>2021-08-20T20:39:42Z</time>
      </trkpt>
      <trkpt lat="42.72298" lon="1.85648">
        <ele>946</ele>
        <time>2021-08-20T20:39:45Z</time>
      </trkpt>
      <trkpt lat="42.72296" lon="1.85606">
        <ele>938</ele>
        <time>2021-08-20T20:39:50Z</time>
      </trkpt>
      <trkpt lat="42.72298" lon="1.85586">
        <ele>937</ele>
        <time>2021-08-20T20:39:53Z</time>
      </trkpt>
      <trkpt lat="42.72305" lon="1.85563">
        <ele>939</ele>
        <time>2021-08-20T20:39:56Z</time>
      </trkpt>
      <trkpt lat="42.72306" lon="1.85554">
        <ele>938</ele>
        <time>2021-08-20T20:39:57Z</time>
      </trkpt>
      <trkpt lat="42.72306" lon="1.8555">
        <ele>938</ele>
        <time>2021-08-20T20:39:58Z</time>
      </trkpt>
      <trkpt lat="42.72306" lon="1.85554">
        <ele>938</ele>
        <time>2021-08-20T20:39:58Z</time>
      </trkpt>
      <trkpt lat="42.72305" lon="1.85563">
        <ele>939</ele>
        <time>2021-08-20T20:40:00Z</time>
      </trkpt>
      <trkpt lat="42.72298" lon="1.85586">
        <ele>937</ele>
        <time>2021-08-20T20:40:03Z</time>
      </trkpt>
      <trkpt lat="42.72296" lon="1.85606">
        <ele>938</ele>
        <time>2021-08-20T20:40:06Z</time>
      </trkpt>
      <trkpt lat="42.72298" lon="1.85648">
        <ele>946</ele>
        <time>2021-08-20T20:40:11Z</time>
      </trkpt>
      <trkpt lat="42.72297" lon="1.85667">
        <ele>948</ele>
        <time>2021-08-20T20:40:14Z</time>
      </trkpt>
      <trkpt lat="42.72289" lon="1.85685">
        <ele>947</ele>
        <time>2021-08-20T20:40:16Z</time>
      </trkpt>
      <trkpt lat="42.72261" lon="1.85725">
        <ele>943</ele>
        <time>2021-08-20T20:40:23Z</time>
      </trkpt>
      <trkpt lat="42.72254" lon="1.85741">
        <ele>945</ele>
        <time>2021-08-20T20:40:26Z</time>
      </trkpt>
      <trkpt lat="42.72252" lon="1.85748">
        <ele>946</ele>
        <time>2021-08-20T20:40:27Z</time>
      </trkpt>
      <trkpt lat="42.72252" lon="1.85757">
        <ele>949</ele>
        <time>2021-08-20T20:40:28Z</time>
      </trkpt>
      <trkpt lat="42.72254" lon="1.85767">
        <ele>952</ele>
        <time>2021-08-20T20:40:29Z</time>
      </trkpt>
      <trkpt lat="42.72262" lon="1.85782">
        <ele>959</ele>
        <time>2021-08-20T20:40:32Z</time>
      </trkpt>
      <trkpt lat="42.72267" lon="1.85789">
        <ele>963</ele>
        <time>2021-08-20T20:40:33Z</time>
      </trkpt>
      <trkpt lat="42.7225" lon="1.85815">
        <ele>964</ele>
        <time>2021-08-20T20:40:38Z</time>
      </trkpt>
      <trkpt lat="42.72224" lon="1.85844">
        <ele>966</ele>
        <time>2021-08-20T20:40:44Z</time>
      </trkpt>
      <trkpt lat="42.72199" lon="1.85866">
        <ele>968</ele>
        <time>2021-08-20T20:40:49Z</time>
      </trkpt>
      <trkpt lat="42.72156" lon="1.85899">
        <ele>967</ele>
        <time>2021-08-20T20:40:58Z</time>
      </trkpt>
      <trkpt lat="42.72128" lon="1.85913">
        <ele>963</ele>
        <time>2021-08-20T20:41:03Z</time>
      </trkpt>
      <trkpt lat="42.72114" lon="1.85929">
        <ele>963</ele>
        <time>2021-08-20T20:41:06Z</time>
      </trkpt>
      <trkpt lat="42.72105" lon="1.85948">
        <ele>967</ele>
        <time>2021-08-20T20:41:09Z</time>
      </trkpt>
      <trkpt lat="42.72092" lon="1.85981">
        <ele>972</ele>
        <time>2021-08-20T20:41:14Z</time>
      </trkpt>
      <trkpt lat="42.72063" lon="1.86027">
        <ele>970</ele>
        <time>2021-08-20T20:41:22Z</time>
      </trkpt>
      <trkpt lat="42.72053" lon="1.86075">
        <ele>975</ele>
        <time>2021-08-20T20:41:29Z</time>
      </trkpt>
      <trkpt lat="42.72048" lon="1.86087">
        <ele>974</ele>
        <time>2021-08-20T20:41:30Z</time>
      </trkpt>
      <trkpt lat="42.72038" lon="1.86102">
        <ele>972</ele>
        <time>2021-08-20T20:41:33Z</time>
      </trkpt>
      <trkpt lat="42.72034" lon="1.86113">
        <ele>971</ele>
        <time>2021-08-20T20:41:35Z</time>
      </trkpt>
      <trkpt lat="42.72032" lon="1.86125">
        <ele>971</ele>
        <time>2021-08-20T20:41:36Z</time>
      </trkpt>
      <trkpt lat="42.72031" lon="1.86149">
        <ele>974</ele>
        <time>2021-08-20T20:41:39Z</time>
      </trkpt>
      <trkpt lat="42.72033" lon="1.86176">
        <ele>977</ele>
        <time>2021-08-20T20:41:43Z</time>
      </trkpt>
      <trkpt lat="42.72042" lon="1.86214">
        <ele>981</ele>
        <time>2021-08-20T20:41:48Z</time>
      </trkpt>
      <trkpt lat="42.72044" lon="1.86221">
        <ele>983</ele>
        <time>2021-08-20T20:41:49Z</time>
      </trkpt>
      <trkpt lat="42.72059" lon="1.86311">
        <ele>991</ele>
        <time>2021-08-20T20:42:01Z</time>
      </trkpt>
      <trkpt lat="42.72059" lon="1.86326">
        <ele>991</ele>
        <time>2021-08-20T20:42:03Z</time>
      </trkpt>
      <trkpt lat="42.72056" lon="1.86342">
        <ele>991</ele>
        <time>2021-08-20T20:42:05Z</time>
      </trkpt>
      <trkpt lat="42.72026" lon="1.86449">
        <ele>990</ele>
        <time>2021-08-20T20:42:20Z</time>
      </trkpt>
      <trkpt lat="42.72019" lon="1.86483">
        <ele>990</ele>
        <time>2021-08-20T20:42:25Z</time>
      </trkpt>
      <trkpt lat="42.72019" lon="1.86514">
        <ele>992</ele>
        <time>2021-08-20T20:42:29Z</time>
      </trkpt>
      <trkpt lat="42.72024" lon="1.86554">
        <ele>996</ele>
        <time>2021-08-20T20:42:34Z</time>
      </trkpt>
      <trkpt lat="42.72021" lon="1.86606">
        <ele>995</ele>
        <time>2021-08-20T20:42:41Z</time>
      </trkpt>
      <trkpt lat="42.72024" lon="1.86625">
        <ele>999</ele>
        <time>2021-08-20T20:42:44Z</time>
      </trkpt>
      <trkpt lat="42.72034" lon="1.86662">
        <ele>1009</ele>
        <time>2021-08-20T20:42:49Z</time>
      </trkpt>
      <trkpt lat="42.72032" lon="1.86734">
        <ele>1016</ele>
        <time>2021-08-20T20:42:58Z</time>
      </trkpt>
      <trkpt lat="42.72022" lon="1.86764">
        <ele>1014</ele>
        <time>2021-08-20T20:43:03Z</time>
      </trkpt>
      <trkpt lat="42.7201" lon="1.86787">
        <ele>1010</ele>
        <time>2021-08-20T20:43:06Z</time>
      </trkpt>
      <trkpt lat="42.72002" lon="1.86808">
        <ele>1009</ele>
        <time>2021-08-20T20:43:09Z</time>
      </trkpt>
      <trkpt lat="42.71992" lon="1.86887">
        <ele>1019</ele>
        <time>2021-08-20T20:43:20Z</time>
      </trkpt>
      <trkpt lat="42.71985" lon="1.86905">
        <ele>1019</ele>
        <time>2021-08-20T20:43:22Z</time>
      </trkpt>
      <trkpt lat="42.71974" lon="1.86928">
        <ele>1018</ele>
        <time>2021-08-20T20:43:26Z</time>
      </trkpt>
      <trkpt lat="42.71969" lon="1.86935">
        <ele>1017</ele>
        <time>2021-08-20T20:43:27Z</time>
      </trkpt>
      <trkpt lat="42.71959" lon="1.8696">
        <ele>1015</ele>
        <time>2021-08-20T20:43:31Z</time>
      </trkpt>
      <trkpt lat="42.71949" lon="1.86983">
        <ele>1012</ele>
        <time>2021-08-20T20:43:35Z</time>
      </trkpt>
      <trkpt lat="42.71949" lon="1.87004">
        <ele>1014</ele>
        <time>2021-08-20T20:43:37Z</time>
      </trkpt>
      <trkpt lat="42.71954" lon="1.87061">
        <ele>1020</ele>
        <time>2021-08-20T20:43:45Z</time>
      </trkpt>
      <trkpt lat="42.71953" lon="1.87111">
        <ele>1023</ele>
        <time>2021-08-20T20:43:51Z</time>
      </trkpt>
      <trkpt lat="42.71956" lon="1.87128">
        <ele>1026</ele>
        <time>2021-08-20T20:43:54Z</time>
      </trkpt>
      <trkpt lat="42.71958" lon="1.87146">
        <ele>1028</ele>
        <time>2021-08-20T20:43:56Z</time>
      </trkpt>
      <trkpt lat="42.71958" lon="1.87183">
        <ele>1030</ele>
        <time>2021-08-20T20:44:01Z</time>
      </trkpt>
      <trkpt lat="42.71954" lon="1.87221">
        <ele>1030</ele>
        <time>2021-08-20T20:44:06Z</time>
      </trkpt>
      <trkpt lat="42.7196" lon="1.87293">
        <ele>1036</ele>
        <time>2021-08-20T20:44:15Z</time>
      </trkpt>
      <trkpt lat="42.71958" lon="1.87331">
        <ele>1038</ele>
        <time>2021-08-20T20:44:20Z</time>
      </trkpt>
      <trkpt lat="42.71962" lon="1.87361">
        <ele>1040</ele>
        <time>2021-08-20T20:44:24Z</time>
      </trkpt>
      <trkpt lat="42.71973" lon="1.87384">
        <ele>1046</ele>
        <time>2021-08-20T20:44:28Z</time>
      </trkpt>
      <trkpt lat="42.71975" lon="1.87398">
        <ele>1047</ele>
        <time>2021-08-20T20:44:30Z</time>
      </trkpt>
      <trkpt lat="42.71952" lon="1.87468">
        <ele>1042</ele>
        <time>2021-08-20T20:44:40Z</time>
      </trkpt>
      <trkpt lat="42.71949" lon="1.87528">
        <ele>1045</ele>
        <time>2021-08-20T20:44:48Z</time>
      </trkpt>
      <trkpt lat="42.71939" lon="1.87574">
        <ele>1044</ele>
        <time>2021-08-20T20:44:54Z</time>
      </trkpt>
      <trkpt lat="42.71943" lon="1.87604">
        <ele>1046</ele>
        <time>2021-08-20T20:44:58Z</time>
      </trkpt>
      <trkpt lat="42.71946" lon="1.87621">
        <ele>1048</ele>
        <time>2021-08-20T20:45:00Z</time>
      </trkpt>
      <trkpt lat="42.71954" lon="1.87734">
        <ele>1051</ele>
        <time>2021-08-20T20:45:15Z</time>
      </trkpt>
      <trkpt lat="42.71971" lon="1.87804">
        <ele>1057</ele>
        <time>2021-08-20T20:45:25Z</time>
      </trkpt>
      <trkpt lat="42.71978" lon="1.87864">
        <ele>1054</ele>
        <time>2021-08-20T20:45:33Z</time>
      </trkpt>
      <trkpt lat="42.71999" lon="1.87888">
        <ele>1053</ele>
        <time>2021-08-20T20:45:37Z</time>
      </trkpt>
      <trkpt lat="42.72019" lon="1.87898">
        <ele>1058</ele>
        <time>2021-08-20T20:45:41Z</time>
      </trkpt>
      <trkpt lat="42.72049" lon="1.87926">
        <ele>1064</ele>
        <time>2021-08-20T20:45:48Z</time>
      </trkpt>
      <trkpt lat="42.72119" lon="1.88019">
        <ele>1073</ele>
        <time>2021-08-20T20:46:05Z</time>
      </trkpt>
      <trkpt lat="42.72128" lon="1.88044">
        <ele>1074</ele>
        <time>2021-08-20T20:46:09Z</time>
      </trkpt>
      <trkpt lat="42.72124" lon="1.88071">
        <ele>1070</ele>
        <time>2021-08-20T20:46:12Z</time>
      </trkpt>
      <trkpt lat="42.72119" lon="1.88096">
        <ele>1067</ele>
        <time>2021-08-20T20:46:16Z</time>
      </trkpt>
      <trkpt lat="42.7212" lon="1.88108">
        <ele>1066</ele>
        <time>2021-08-20T20:46:17Z</time>
      </trkpt>
      <trkpt lat="42.72153" lon="1.88138">
        <ele>1074</ele>
        <time>2021-08-20T20:46:24Z</time>
      </trkpt>
      <trkpt lat="42.72168" lon="1.88163">
        <ele>1074</ele>
        <time>2021-08-20T20:46:29Z</time>
      </trkpt>
      <trkpt lat="42.72174" lon="1.88178">
        <ele>1075</ele>
        <time>2021-08-20T20:46:31Z</time>
      </trkpt>
      <trkpt lat="42.72194" lon="1.88239">
        <ele>1078</ele>
        <time>2021-08-20T20:46:40Z</time>
      </trkpt>
      <trkpt lat="42.72208" lon="1.88264">
        <ele>1081</ele>
        <time>2021-08-20T20:46:44Z</time>
      </trkpt>
      <trkpt lat="42.72224" lon="1.88283">
        <ele>1083</ele>
        <time>2021-08-20T20:46:47Z</time>
      </trkpt>
      <trkpt lat="42.72269" lon="1.88309">
        <ele>1086</ele>
        <time>2021-08-20T20:46:56Z</time>
      </trkpt>
      <trkpt lat="42.72279" lon="1.88319">
        <ele>1087</ele>
        <time>2021-08-20T20:46:58Z</time>
      </trkpt>
      <trkpt lat="42.72296" lon="1.88343">
        <ele>1089</ele>
        <time>2021-08-20T20:47:03Z</time>
      </trkpt>
      <trkpt lat="42.72301" lon="1.88357">
        <ele>1090</ele>
        <time>2021-08-20T20:47:05Z</time>
      </trkpt>
      <trkpt lat="42.72303" lon="1.88374">
        <ele>1090</ele>
        <time>2021-08-20T20:47:07Z</time>
      </trkpt>
      <trkpt lat="42.72296" lon="1.88391">
        <ele>1089</ele>
        <time>2021-08-20T20:47:10Z</time>
      </trkpt>
      <trkpt lat="42.72285" lon="1.88412">
        <ele>1087</ele>
        <time>2021-08-20T20:47:13Z</time>
      </trkpt>
      <trkpt lat="42.72284" lon="1.88424">
        <ele>1088</ele>
        <time>2021-08-20T20:47:14Z</time>
      </trkpt>
      <trkpt lat="42.72285" lon="1.88435">
        <ele>1088</ele>
        <time>2021-08-20T20:47:16Z</time>
      </trkpt>
      <trkpt lat="42.72295" lon="1.88449">
        <ele>1089</ele>
        <time>2021-08-20T20:47:18Z</time>
      </trkpt>
      <trkpt lat="42.72328" lon="1.88479">
        <ele>1088</ele>
        <time>2021-08-20T20:47:26Z</time>
      </trkpt>
      <trkpt lat="42.72361" lon="1.8849">
        <ele>1092</ele>
        <time>2021-08-20T20:47:32Z</time>
      </trkpt>
      <trkpt lat="42.72372" lon="1.88499">
        <ele>1093</ele>
        <time>2021-08-20T20:47:34Z</time>
      </trkpt>
      <trkpt lat="42.72386" lon="1.8852">
        <ele>1094</ele>
        <time>2021-08-20T20:47:38Z</time>
      </trkpt>
      <trkpt lat="42.72423" lon="1.88596">
        <ele>1092</ele>
        <time>2021-08-20T20:47:50Z</time>
      </trkpt>
      <trkpt lat="42.72435" lon="1.88624">
        <ele>1094</ele>
        <time>2021-08-20T20:47:54Z</time>
      </trkpt>
      <trkpt lat="42.72471" lon="1.88764">
        <ele>1095</ele>
        <time>2021-08-20T20:48:13Z</time>
      </trkpt>
      <trkpt lat="42.72481" lon="1.888">
        <ele>1095</ele>
        <time>2021-08-20T20:48:18Z</time>
      </trkpt>
      <trkpt lat="42.72492" lon="1.88825">
        <ele>1094</ele>
        <time>2021-08-20T20:48:22Z</time>
      </trkpt>
      <trkpt lat="42.72507" lon="1.88842">
        <ele>1094</ele>
        <time>2021-08-20T20:48:25Z</time>
      </trkpt>
      <trkpt lat="42.72526" lon="1.88881">
        <ele>1093</ele>
        <time>2021-08-20T20:48:32Z</time>
      </trkpt>
      <trkpt lat="42.72547" lon="1.88911">
        <ele>1092</ele>
        <time>2021-08-20T20:48:37Z</time>
      </trkpt>
      <trkpt lat="42.72552" lon="1.88922">
        <ele>1093</ele>
        <time>2021-08-20T20:48:39Z</time>
      </trkpt>
      <trkpt lat="42.72551" lon="1.88935">
        <ele>1095</ele>
        <time>2021-08-20T20:48:40Z</time>
      </trkpt>
      <trkpt lat="42.72549" lon="1.88942">
        <ele>1096</ele>
        <time>2021-08-20T20:48:41Z</time>
      </trkpt>
      <trkpt lat="42.72544" lon="1.88948">
        <ele>1096</ele>
        <time>2021-08-20T20:48:43Z</time>
      </trkpt>
      <trkpt lat="42.72522" lon="1.88956">
        <ele>1094</ele>
        <time>2021-08-20T20:48:47Z</time>
      </trkpt>
      <trkpt lat="42.72488" lon="1.88978">
        <ele>1093</ele>
        <time>2021-08-20T20:48:53Z</time>
      </trkpt>
      <trkpt lat="42.72454" lon="1.88989">
        <ele>1090</ele>
        <time>2021-08-20T20:49:00Z</time>
      </trkpt>
      <trkpt lat="42.72444" lon="1.89002">
        <ele>1089</ele>
        <time>2021-08-20T20:49:02Z</time>
      </trkpt>
      <trkpt lat="42.72443" lon="1.89037">
        <ele>1091</ele>
        <time>2021-08-20T20:49:07Z</time>
      </trkpt>
      <trkpt lat="42.72467" lon="1.89134">
        <ele>1099</ele>
        <time>2021-08-20T20:49:20Z</time>
      </trkpt>
      <trkpt lat="42.72471" lon="1.89169">
        <ele>1100</ele>
        <time>2021-08-20T20:49:25Z</time>
      </trkpt>
      <trkpt lat="42.72474" lon="1.89227">
        <ele>1102</ele>
        <time>2021-08-20T20:49:32Z</time>
      </trkpt>
      <trkpt lat="42.72471" lon="1.89246">
        <ele>1101</ele>
        <time>2021-08-20T20:49:35Z</time>
      </trkpt>
      <trkpt lat="42.72464" lon="1.89266">
        <ele>1101</ele>
        <time>2021-08-20T20:49:38Z</time>
      </trkpt>
      <trkpt lat="42.72455" lon="1.89281">
        <ele>1101</ele>
        <time>2021-08-20T20:49:40Z</time>
      </trkpt>
      <trkpt lat="42.72435" lon="1.8931">
        <ele>1099</ele>
        <time>2021-08-20T20:49:45Z</time>
      </trkpt>
      <trkpt lat="42.72427" lon="1.89333">
        <ele>1098</ele>
        <time>2021-08-20T20:49:49Z</time>
      </trkpt>
      <trkpt lat="42.72416" lon="1.89389">
        <ele>1099</ele>
        <time>2021-08-20T20:49:56Z</time>
      </trkpt>
      <trkpt lat="42.72408" lon="1.8942">
        <ele>1100</ele>
        <time>2021-08-20T20:50:01Z</time>
      </trkpt>
      <trkpt lat="42.72381" lon="1.89459">
        <ele>1100</ele>
        <time>2021-08-20T20:50:08Z</time>
      </trkpt>
      <trkpt lat="42.7237" lon="1.8949">
        <ele>1100</ele>
        <time>2021-08-20T20:50:12Z</time>
      </trkpt>
      <trkpt lat="42.72363" lon="1.89539">
        <ele>1102</ele>
        <time>2021-08-20T20:50:19Z</time>
      </trkpt>
      <trkpt lat="42.72367" lon="1.89574">
        <ele>1105</ele>
        <time>2021-08-20T20:50:23Z</time>
      </trkpt>
      <trkpt lat="42.72377" lon="1.89616">
        <ele>1110</ele>
        <time>2021-08-20T20:50:29Z</time>
      </trkpt>
      <trkpt lat="42.72378" lon="1.89634">
        <ele>1111</ele>
        <time>2021-08-20T20:50:31Z</time>
      </trkpt>
      <trkpt lat="42.72377" lon="1.89645">
        <ele>1111</ele>
        <time>2021-08-20T20:50:33Z</time>
      </trkpt>
      <trkpt lat="42.72372" lon="1.89677">
        <ele>1112</ele>
        <time>2021-08-20T20:50:37Z</time>
      </trkpt>
      <trkpt lat="42.72356" lon="1.89744">
        <ele>1112</ele>
        <time>2021-08-20T20:50:46Z</time>
      </trkpt>
      <trkpt lat="42.72341" lon="1.89778">
        <ele>1112</ele>
        <time>2021-08-20T20:50:51Z</time>
      </trkpt>
      <trkpt lat="42.72319" lon="1.8982">
        <ele>1114</ele>
        <time>2021-08-20T20:50:58Z</time>
      </trkpt>
      <trkpt lat="42.72311" lon="1.89859">
        <ele>1115</ele>
        <time>2021-08-20T20:51:03Z</time>
      </trkpt>
      <trkpt lat="42.72293" lon="1.89907">
        <ele>1115</ele>
        <time>2021-08-20T20:51:11Z</time>
      </trkpt>
      <trkpt lat="42.72279" lon="1.89959">
        <ele>1116</ele>
        <time>2021-08-20T20:51:18Z</time>
      </trkpt>
      <trkpt lat="42.72261" lon="1.89985">
        <ele>1115</ele>
        <time>2021-08-20T20:51:22Z</time>
      </trkpt>
      <trkpt lat="42.7225" lon="1.90023">
        <ele>1116</ele>
        <time>2021-08-20T20:51:28Z</time>
      </trkpt>
      <trkpt lat="42.72246" lon="1.9007">
        <ele>1119</ele>
        <time>2021-08-20T20:51:34Z</time>
      </trkpt>
      <trkpt lat="42.72245" lon="1.90107">
        <ele>1122</ele>
        <time>2021-08-20T20:51:39Z</time>
      </trkpt>
      <trkpt lat="42.72235" lon="1.9014">
        <ele>1125</ele>
        <time>2021-08-20T20:51:43Z</time>
      </trkpt>
      <trkpt lat="42.72218" lon="1.90164">
        <ele>1125</ele>
        <time>2021-08-20T20:51:48Z</time>
      </trkpt>
      <trkpt lat="42.72163" lon="1.90217">
        <ele>1126</ele>
        <time>2021-08-20T20:52:00Z</time>
      </trkpt>
      <trkpt lat="42.72149" lon="1.90236">
        <ele>1129</ele>
        <time>2021-08-20T20:52:03Z</time>
      </trkpt>
      <trkpt lat="42.72143" lon="1.90276">
        <ele>1131</ele>
        <time>2021-08-20T20:52:09Z</time>
      </trkpt>
      <trkpt lat="42.72143" lon="1.90373">
        <ele>1137</ele>
        <time>2021-08-20T20:52:21Z</time>
      </trkpt>
      <trkpt lat="42.7213" lon="1.90402">
        <ele>1138</ele>
        <time>2021-08-20T20:52:26Z</time>
      </trkpt>
      <trkpt lat="42.72109" lon="1.90441">
        <ele>1137</ele>
        <time>2021-08-20T20:52:32Z</time>
      </trkpt>
      <trkpt lat="42.72095" lon="1.90465">
        <ele>1137</ele>
        <time>2021-08-20T20:52:36Z</time>
      </trkpt>
      <trkpt lat="42.72071" lon="1.90505">
        <ele>1138</ele>
        <time>2021-08-20T20:52:43Z</time>
      </trkpt>
      <trkpt lat="42.72044" lon="1.90596">
        <ele>1142</ele>
        <time>2021-08-20T20:52:56Z</time>
      </trkpt>
      <trkpt lat="42.72043" lon="1.90633">
        <ele>1146</ele>
        <time>2021-08-20T20:53:01Z</time>
      </trkpt>
      <trkpt lat="42.72034" lon="1.9066">
        <ele>1149</ele>
        <time>2021-08-20T20:53:04Z</time>
      </trkpt>
      <trkpt lat="42.72009" lon="1.9068">
        <ele>1153</ele>
        <time>2021-08-20T20:53:10Z</time>
      </trkpt>
      <trkpt lat="42.71964" lon="1.90687">
        <ele>1156</ele>
        <time>2021-08-20T20:53:18Z</time>
      </trkpt>
      <trkpt lat="42.71942" lon="1.90701">
        <ele>1159</ele>
        <time>2021-08-20T20:53:22Z</time>
      </trkpt>
      <trkpt lat="42.71928" lon="1.90717">
        <ele>1161</ele>
        <time>2021-08-20T20:53:25Z</time>
      </trkpt>
      <trkpt lat="42.71906" lon="1.90762">
        <ele>1169</ele>
        <time>2021-08-20T20:53:32Z</time>
      </trkpt>
      <trkpt lat="42.71856" lon="1.90888">
        <ele>1185</ele>
        <time>2021-08-20T20:53:51Z</time>
      </trkpt>
      <trkpt lat="42.71858" lon="1.9091">
        <ele>1187</ele>
        <time>2021-08-20T20:53:54Z</time>
      </trkpt>
      <trkpt lat="42.71874" lon="1.90965">
        <ele>1195</ele>
        <time>2021-08-20T20:54:02Z</time>
      </trkpt>
      <trkpt lat="42.71881" lon="1.90993">
        <ele>1199</ele>
        <time>2021-08-20T20:54:05Z</time>
      </trkpt>
      <trkpt lat="42.71882" lon="1.91046">
        <ele>1203</ele>
        <time>2021-08-20T20:54:12Z</time>
      </trkpt>
      <trkpt lat="42.7188" lon="1.91098">
        <ele>1205</ele>
        <time>2021-08-20T20:54:19Z</time>
      </trkpt>
      <trkpt lat="42.71876" lon="1.91146">
        <ele>1206</ele>
        <time>2021-08-20T20:54:26Z</time>
      </trkpt>
      <trkpt lat="42.71862" lon="1.91191">
        <ele>1205</ele>
        <time>2021-08-20T20:54:32Z</time>
      </trkpt>
      <trkpt lat="42.71827" lon="1.91282">
        <ele>1207</ele>
        <time>2021-08-20T20:54:45Z</time>
      </trkpt>
      <trkpt lat="42.71796" lon="1.91339">
        <ele>1217</ele>
        <time>2021-08-20T20:54:55Z</time>
      </trkpt>
      <trkpt lat="42.71785" lon="1.91364">
        <ele>1221</ele>
        <time>2021-08-20T20:54:58Z</time>
      </trkpt>
      <trkpt lat="42.7178" lon="1.91387">
        <ele>1223</ele>
        <time>2021-08-20T20:55:02Z</time>
      </trkpt>
      <trkpt lat="42.71779" lon="1.91443">
        <ele>1229</ele>
        <time>2021-08-20T20:55:09Z</time>
      </trkpt>
      <trkpt lat="42.71773" lon="1.91497">
        <ele>1233</ele>
        <time>2021-08-20T20:55:16Z</time>
      </trkpt>
      <trkpt lat="42.7176" lon="1.9154">
        <ele>1232</ele>
        <time>2021-08-20T20:55:22Z</time>
      </trkpt>
      <trkpt lat="42.71736" lon="1.91583">
        <ele>1234</ele>
        <time>2021-08-20T20:55:29Z</time>
      </trkpt>
      <trkpt lat="42.71712" lon="1.91611">
        <ele>1242</ele>
        <time>2021-08-20T20:55:35Z</time>
      </trkpt>
      <trkpt lat="42.71692" lon="1.91653">
        <ele>1247</ele>
        <time>2021-08-20T20:55:41Z</time>
      </trkpt>
      <trkpt lat="42.71689" lon="1.91716">
        <ele>1249</ele>
        <time>2021-08-20T20:55:50Z</time>
      </trkpt>
      <trkpt lat="42.71693" lon="1.91748">
        <ele>1251</ele>
        <time>2021-08-20T20:55:54Z</time>
      </trkpt>
      <trkpt lat="42.7171" lon="1.9179">
        <ele>1254</ele>
        <time>2021-08-20T20:56:00Z</time>
      </trkpt>
      <trkpt lat="42.71717" lon="1.91847">
        <ele>1259</ele>
        <time>2021-08-20T20:56:08Z</time>
      </trkpt>
      <trkpt lat="42.71717" lon="1.91869">
        <ele>1262</ele>
        <time>2021-08-20T20:56:11Z</time>
      </trkpt>
      <trkpt lat="42.71714" lon="1.91895">
        <ele>1264</ele>
        <time>2021-08-20T20:56:14Z</time>
      </trkpt>
      <trkpt lat="42.71702" lon="1.91926">
        <ele>1265</ele>
        <time>2021-08-20T20:56:19Z</time>
      </trkpt>
      <trkpt lat="42.71696" lon="1.91963">
        <ele>1269</ele>
        <time>2021-08-20T20:56:23Z</time>
      </trkpt>
      <trkpt lat="42.71685" lon="1.91991">
        <ele>1268</ele>
        <time>2021-08-20T20:56:28Z</time>
      </trkpt>
      <trkpt lat="42.71669" lon="1.92025">
        <ele>1267</ele>
        <time>2021-08-20T20:56:33Z</time>
      </trkpt>
      <trkpt lat="42.71661" lon="1.92046">
        <ele>1270</ele>
        <time>2021-08-20T20:56:36Z</time>
      </trkpt>
      <trkpt lat="42.71645" lon="1.92098">
        <ele>1278</ele>
        <time>2021-08-20T20:56:43Z</time>
      </trkpt>
      <trkpt lat="42.71634" lon="1.92146">
        <ele>1283</ele>
        <time>2021-08-20T20:56:50Z</time>
      </trkpt>
      <trkpt lat="42.71602" lon="1.92329">
        <ele>1292</ele>
        <time>2021-08-20T20:57:15Z</time>
      </trkpt>
      <trkpt lat="42.71601" lon="1.92346">
        <ele>1292</ele>
        <time>2021-08-20T20:57:17Z</time>
      </trkpt>
      <trkpt lat="42.71605" lon="1.92366">
        <ele>1295</ele>
        <time>2021-08-20T20:57:19Z</time>
      </trkpt>
      <trkpt lat="42.71637" lon="1.92416">
        <ele>1302</ele>
        <time>2021-08-20T20:57:28Z</time>
      </trkpt>
      <trkpt lat="42.71647" lon="1.92437">
        <ele>1302</ele>
        <time>2021-08-20T20:57:31Z</time>
      </trkpt>
      <trkpt lat="42.7165" lon="1.92462">
        <ele>1301</ele>
        <time>2021-08-20T20:57:35Z</time>
      </trkpt>
      <trkpt lat="42.7165" lon="1.9249">
        <ele>1299</ele>
        <time>2021-08-20T20:57:38Z</time>
      </trkpt>
      <trkpt lat="42.71648" lon="1.92504">
        <ele>1299</ele>
        <time>2021-08-20T20:57:40Z</time>
      </trkpt>
      <trkpt lat="42.71648" lon="1.92512">
        <ele>1299</ele>
        <time>2021-08-20T20:57:41Z</time>
      </trkpt>
      <trkpt lat="42.71658" lon="1.92524">
        <ele>1297</ele>
        <time>2021-08-20T20:57:44Z</time>
      </trkpt>
      <trkpt lat="42.71696" lon="1.92562">
        <ele>1305</ele>
        <time>2021-08-20T20:57:52Z</time>
      </trkpt>
      <trkpt lat="42.7171" lon="1.92579">
        <ele>1309</ele>
        <time>2021-08-20T20:57:55Z</time>
      </trkpt>
      <trkpt lat="42.71717" lon="1.92607">
        <ele>1313</ele>
        <time>2021-08-20T20:57:59Z</time>
      </trkpt>
      <trkpt lat="42.71711" lon="1.92637">
        <ele>1314</ele>
        <time>2021-08-20T20:58:03Z</time>
      </trkpt>
      <trkpt lat="42.71696" lon="1.92672">
        <ele>1312</ele>
        <time>2021-08-20T20:58:09Z</time>
      </trkpt>
      <trkpt lat="42.71685" lon="1.92739">
        <ele>1318</ele>
        <time>2021-08-20T20:58:18Z</time>
      </trkpt>
      <trkpt lat="42.7166" lon="1.92786">
        <ele>1318</ele>
        <time>2021-08-20T20:58:25Z</time>
      </trkpt>
      <trkpt lat="42.71655" lon="1.9283">
        <ele>1322</ele>
        <time>2021-08-20T20:58:31Z</time>
      </trkpt>
      <trkpt lat="42.71643" lon="1.92877">
        <ele>1322</ele>
        <time>2021-08-20T20:58:38Z</time>
      </trkpt>
      <trkpt lat="42.71647" lon="1.92899">
        <ele>1323</ele>
        <time>2021-08-20T20:58:40Z</time>
      </trkpt>
      <trkpt lat="42.71658" lon="1.92912">
        <ele>1324</ele>
        <time>2021-08-20T20:58:43Z</time>
      </trkpt>
      <trkpt lat="42.71702" lon="1.92917">
        <ele>1331</ele>
        <time>2021-08-20T20:58:51Z</time>
      </trkpt>
      <trkpt lat="42.71727" lon="1.92932">
        <ele>1335</ele>
        <time>2021-08-20T20:58:56Z</time>
      </trkpt>
      <trkpt lat="42.71749" lon="1.92962">
        <ele>1336</ele>
        <time>2021-08-20T20:59:01Z</time>
      </trkpt>
      <trkpt lat="42.71765" lon="1.92989">
        <ele>1337</ele>
        <time>2021-08-20T20:59:06Z</time>
      </trkpt>
      <trkpt lat="42.7178" lon="1.93035">
        <ele>1339</ele>
        <time>2021-08-20T20:59:12Z</time>
      </trkpt>
      <trkpt lat="42.71784" lon="1.93041">
        <ele>1339</ele>
        <time>2021-08-20T20:59:14Z</time>
      </trkpt>
      <trkpt lat="42.71791" lon="1.93044">
        <ele>1341</ele>
        <time>2021-08-20T20:59:15Z</time>
      </trkpt>
      <trkpt lat="42.71809" lon="1.93045">
        <ele>1344</ele>
        <time>2021-08-20T20:59:18Z</time>
      </trkpt>
      <trkpt lat="42.71815" lon="1.93048">
        <ele>1344</ele>
        <time>2021-08-20T20:59:19Z</time>
      </trkpt>
      <trkpt lat="42.71822" lon="1.93053">
        <ele>1345</ele>
        <time>2021-08-20T20:59:21Z</time>
      </trkpt>
      <trkpt lat="42.71828" lon="1.93063">
        <ele>1346</ele>
        <time>2021-08-20T20:59:22Z</time>
      </trkpt>
      <trkpt lat="42.71834" lon="1.93079">
        <ele>1346</ele>
        <time>2021-08-20T20:59:25Z</time>
      </trkpt>
      <trkpt lat="42.71839" lon="1.93136">
        <ele>1345</ele>
        <time>2021-08-20T20:59:32Z</time>
      </trkpt>
      <trkpt lat="42.71845" lon="1.93152">
        <ele>1346</ele>
        <time>2021-08-20T20:59:34Z</time>
      </trkpt>
      <trkpt lat="42.7185" lon="1.93157">
        <ele>1347</ele>
        <time>2021-08-20T20:59:36Z</time>
      </trkpt>
      <trkpt lat="42.71874" lon="1.93163">
        <ele>1352</ele>
        <time>2021-08-20T20:59:40Z</time>
      </trkpt>
      <trkpt lat="42.7188" lon="1.93169">
        <ele>1354</ele>
        <time>2021-08-20T20:59:41Z</time>
      </trkpt>
      <trkpt lat="42.71886" lon="1.93192">
        <ele>1354</ele>
        <time>2021-08-20T20:59:44Z</time>
      </trkpt>
      <trkpt lat="42.71892" lon="1.93219">
        <ele>1355</ele>
        <time>2021-08-20T20:59:48Z</time>
      </trkpt>
      <trkpt lat="42.71895" lon="1.9323">
        <ele>1355</ele>
        <time>2021-08-20T20:59:50Z</time>
      </trkpt>
      <trkpt lat="42.71899" lon="1.93235">
        <ele>1356</ele>
        <time>2021-08-20T20:59:51Z</time>
      </trkpt>
      <trkpt lat="42.71904" lon="1.93236">
        <ele>1356</ele>
        <time>2021-08-20T20:59:52Z</time>
      </trkpt>
      <trkpt lat="42.71909" lon="1.93232">
        <ele>1357</ele>
        <time>2021-08-20T20:59:53Z</time>
      </trkpt>
      <trkpt lat="42.71911" lon="1.93227">
        <ele>1358</ele>
        <time>2021-08-20T20:59:53Z</time>
      </trkpt>
      <trkpt lat="42.71902" lon="1.93207">
        <ele>1357</ele>
        <time>2021-08-20T20:59:56Z</time>
      </trkpt>
      <trkpt lat="42.719" lon="1.9319">
        <ele>1357</ele>
        <time>2021-08-20T20:59:59Z</time>
      </trkpt>
      <trkpt lat="42.719" lon="1.93111">
        <ele>1362</ele>
        <time>2021-08-20T21:00:09Z</time>
      </trkpt>
      <trkpt lat="42.71897" lon="1.93101">
        <ele>1362</ele>
        <time>2021-08-20T21:00:10Z</time>
      </trkpt>
      <trkpt lat="42.7189" lon="1.93083">
        <ele>1361</ele>
        <time>2021-08-20T21:00:13Z</time>
      </trkpt>
      <trkpt lat="42.71882" lon="1.93053">
        <ele>1361</ele>
        <time>2021-08-20T21:00:17Z</time>
      </trkpt>
      <trkpt lat="42.71878" lon="1.93027">
        <ele>1362</ele>
        <time>2021-08-20T21:00:21Z</time>
      </trkpt>
      <trkpt lat="42.71878" lon="1.93015">
        <ele>1363</ele>
        <time>2021-08-20T21:00:22Z</time>
      </trkpt>
      <trkpt lat="42.71881" lon="1.9301">
        <ele>1364</ele>
        <time>2021-08-20T21:00:23Z</time>
      </trkpt>
      <trkpt lat="42.71887" lon="1.93009">
        <ele>1366</ele>
        <time>2021-08-20T21:00:24Z</time>
      </trkpt>
      <trkpt lat="42.71892" lon="1.93012">
        <ele>1367</ele>
        <time>2021-08-20T21:00:25Z</time>
      </trkpt>
      <trkpt lat="42.71902" lon="1.93037">
        <ele>1368</ele>
        <time>2021-08-20T21:00:29Z</time>
      </trkpt>
      <trkpt lat="42.7191" lon="1.9305">
        <ele>1369</ele>
        <time>2021-08-20T21:00:31Z</time>
      </trkpt>
      <trkpt lat="42.71934" lon="1.93071">
        <ele>1376</ele>
        <time>2021-08-20T21:00:36Z</time>
      </trkpt>
      <trkpt lat="42.71957" lon="1.93103">
        <ele>1380</ele>
        <time>2021-08-20T21:00:42Z</time>
      </trkpt>
      <trkpt lat="42.71964" lon="1.93118">
        <ele>1381</ele>
        <time>2021-08-20T21:00:44Z</time>
      </trkpt>
      <trkpt lat="42.71977" lon="1.93156">
        <ele>1382</ele>
        <time>2021-08-20T21:00:50Z</time>
      </trkpt>
      <trkpt lat="42.72024" lon="1.93251">
        <ele>1391</ele>
        <time>2021-08-20T21:01:05Z</time>
      </trkpt>
      <trkpt lat="42.72041" lon="1.93313">
        <ele>1392</ele>
        <time>2021-08-20T21:01:13Z</time>
      </trkpt>
      <trkpt lat="42.72049" lon="1.93332">
        <ele>1393</ele>
        <time>2021-08-20T21:01:16Z</time>
      </trkpt>
      <trkpt lat="42.72064" lon="1.93359">
        <ele>1396</ele>
        <time>2021-08-20T21:01:21Z</time>
      </trkpt>
      <trkpt lat="42.72077" lon="1.93397">
        <ele>1396</ele>
        <time>2021-08-20T21:01:26Z</time>
      </trkpt>
      <trkpt lat="42.72093" lon="1.93436">
        <ele>1397</ele>
        <time>2021-08-20T21:01:32Z</time>
      </trkpt>
      <trkpt lat="42.72142" lon="1.93545">
        <ele>1401</ele>
        <time>2021-08-20T21:01:49Z</time>
      </trkpt>
      <trkpt lat="42.72156" lon="1.93569">
        <ele>1403</ele>
        <time>2021-08-20T21:01:53Z</time>
      </trkpt>
      <trkpt lat="42.72172" lon="1.9359">
        <ele>1405</ele>
        <time>2021-08-20T21:01:57Z</time>
      </trkpt>
      <trkpt lat="42.72229" lon="1.93642">
        <ele>1411</ele>
        <time>2021-08-20T21:02:09Z</time>
      </trkpt>
      <trkpt lat="42.72238" lon="1.93658">
        <ele>1411</ele>
        <time>2021-08-20T21:02:12Z</time>
      </trkpt>
      <trkpt lat="42.72261" lon="1.93722">
        <ele>1411</ele>
        <time>2021-08-20T21:02:21Z</time>
      </trkpt>
      <trkpt lat="42.7227" lon="1.93744">
        <ele>1411</ele>
        <time>2021-08-20T21:02:24Z</time>
      </trkpt>
      <trkpt lat="42.72283" lon="1.93765">
        <ele>1411</ele>
        <time>2021-08-20T21:02:28Z</time>
      </trkpt>
      <trkpt lat="42.72344" lon="1.9384">
        <ele>1412</ele>
        <time>2021-08-20T21:02:42Z</time>
      </trkpt>
      <trkpt lat="42.72408" lon="1.93924">
        <ele>1418</ele>
        <time>2021-08-20T21:02:58Z</time>
      </trkpt>
      <trkpt lat="42.72423" lon="1.93942">
        <ele>1419</ele>
        <time>2021-08-20T21:03:02Z</time>
      </trkpt>
      <trkpt lat="42.72447" lon="1.93963">
        <ele>1423</ele>
        <time>2021-08-20T21:03:07Z</time>
      </trkpt>
      <trkpt lat="42.72466" lon="1.93986">
        <ele>1424</ele>
        <time>2021-08-20T21:03:11Z</time>
      </trkpt>
      <trkpt lat="42.72481" lon="1.94008">
        <ele>1424</ele>
        <time>2021-08-20T21:03:15Z</time>
      </trkpt>
      <trkpt lat="42.72492" lon="1.9403">
        <ele>1424</ele>
        <time>2021-08-20T21:03:19Z</time>
      </trkpt>
      <trkpt lat="42.72503" lon="1.94055">
        <ele>1423</ele>
        <time>2021-08-20T21:03:23Z</time>
      </trkpt>
      <trkpt lat="42.72525" lon="1.94119">
        <ele>1427</ele>
        <time>2021-08-20T21:03:32Z</time>
      </trkpt>
      <trkpt lat="42.72551" lon="1.94165">
        <ele>1431</ele>
        <time>2021-08-20T21:03:39Z</time>
      </trkpt>
      <trkpt lat="42.72557" lon="1.94185">
        <ele>1432</ele>
        <time>2021-08-20T21:03:42Z</time>
      </trkpt>
      <trkpt lat="42.72561" lon="1.94206">
        <ele>1433</ele>
        <time>2021-08-20T21:03:45Z</time>
      </trkpt>
      <trkpt lat="42.7258" lon="1.94282">
        <ele>1433</ele>
        <time>2021-08-20T21:03:55Z</time>
      </trkpt>
      <trkpt lat="42.72609" lon="1.9439">
        <ele>1439</ele>
        <time>2021-08-20T21:04:11Z</time>
      </trkpt>
      <trkpt lat="42.72617" lon="1.94413">
        <ele>1440</ele>
        <time>2021-08-20T21:04:14Z</time>
      </trkpt>
      <trkpt lat="42.72626" lon="1.9443">
        <ele>1442</ele>
        <time>2021-08-20T21:04:17Z</time>
      </trkpt>
      <trkpt lat="42.72665" lon="1.94495">
        <ele>1443</ele>
        <time>2021-08-20T21:04:28Z</time>
      </trkpt>
      <trkpt lat="42.72703" lon="1.94581">
        <ele>1449</ele>
        <time>2021-08-20T21:04:41Z</time>
      </trkpt>
      <trkpt lat="42.72728" lon="1.94616">
        <ele>1453</ele>
        <time>2021-08-20T21:04:47Z</time>
      </trkpt>
      <trkpt lat="42.72783" lon="1.94703">
        <ele>1460</ele>
        <time>2021-08-20T21:05:02Z</time>
      </trkpt>
      <trkpt lat="42.72798" lon="1.94723">
        <ele>1462</ele>
        <time>2021-08-20T21:05:06Z</time>
      </trkpt>
      <trkpt lat="42.72814" lon="1.9474">
        <ele>1463</ele>
        <time>2021-08-20T21:05:09Z</time>
      </trkpt>
      <trkpt lat="42.72829" lon="1.9475">
        <ele>1463</ele>
        <time>2021-08-20T21:05:12Z</time>
      </trkpt>
      <trkpt lat="42.72853" lon="1.94763">
        <ele>1469</ele>
        <time>2021-08-20T21:05:17Z</time>
      </trkpt>
      <trkpt lat="42.72923" lon="1.94829">
        <ele>1471</ele>
        <time>2021-08-20T21:05:32Z</time>
      </trkpt>
      <trkpt lat="42.72932" lon="1.94839">
        <ele>1473</ele>
        <time>2021-08-20T21:05:34Z</time>
      </trkpt>
      <trkpt lat="42.72978" lon="1.94904">
        <ele>1476</ele>
        <time>2021-08-20T21:05:46Z</time>
      </trkpt>
      <trkpt lat="42.73003" lon="1.94924">
        <ele>1476</ele>
        <time>2021-08-20T21:05:51Z</time>
      </trkpt>
      <trkpt lat="42.73009" lon="1.94932">
        <ele>1478</ele>
        <time>2021-08-20T21:05:53Z</time>
      </trkpt>
      <trkpt lat="42.7302" lon="1.94963">
        <ele>1481</ele>
        <time>2021-08-20T21:05:57Z</time>
      </trkpt>
      <trkpt lat="42.73038" lon="1.94999">
        <ele>1486</ele>
        <time>2021-08-20T21:06:03Z</time>
      </trkpt>
      <trkpt lat="42.7305" lon="1.95029">
        <ele>1489</ele>
        <time>2021-08-20T21:06:07Z</time>
      </trkpt>
      <trkpt lat="42.73078" lon="1.95106">
        <ele>1494</ele>
        <time>2021-08-20T21:06:19Z</time>
      </trkpt>
      <trkpt lat="42.73104" lon="1.95214">
        <ele>1503</ele>
        <time>2021-08-20T21:06:33Z</time>
      </trkpt>
      <trkpt lat="42.7312" lon="1.95298">
        <ele>1510</ele>
        <time>2021-08-20T21:06:45Z</time>
      </trkpt>
      <trkpt lat="42.73128" lon="1.95351">
        <ele>1516</ele>
        <time>2021-08-20T21:06:52Z</time>
      </trkpt>
      <trkpt lat="42.73131" lon="1.9538">
        <ele>1519</ele>
        <time>2021-08-20T21:06:56Z</time>
      </trkpt>
      <trkpt lat="42.73131" lon="1.95427">
        <ele>1522</ele>
        <time>2021-08-20T21:07:02Z</time>
      </trkpt>
      <trkpt lat="42.73125" lon="1.95463">
        <ele>1523</ele>
        <time>2021-08-20T21:07:07Z</time>
      </trkpt>
      <trkpt lat="42.73115" lon="1.955">
        <ele>1523</ele>
        <time>2021-08-20T21:07:12Z</time>
      </trkpt>
      <trkpt lat="42.73109" lon="1.95514">
        <ele>1524</ele>
        <time>2021-08-20T21:07:14Z</time>
      </trkpt>
      <trkpt lat="42.7307" lon="1.95591">
        <ele>1528</ele>
        <time>2021-08-20T21:07:26Z</time>
      </trkpt>
      <trkpt lat="42.73048" lon="1.9563">
        <ele>1533</ele>
        <time>2021-08-20T21:07:33Z</time>
      </trkpt>
      <trkpt lat="42.73013" lon="1.95687">
        <ele>1540</ele>
        <time>2021-08-20T21:07:42Z</time>
      </trkpt>
      <trkpt lat="42.72987" lon="1.95717">
        <ele>1545</ele>
        <time>2021-08-20T21:07:48Z</time>
      </trkpt>
      <trkpt lat="42.72973" lon="1.9573">
        <ele>1548</ele>
        <time>2021-08-20T21:07:51Z</time>
      </trkpt>
      <trkpt lat="42.72949" lon="1.95746">
        <ele>1550</ele>
        <time>2021-08-20T21:07:56Z</time>
      </trkpt>
      <trkpt lat="42.72908" lon="1.95763">
        <ele>1551</ele>
        <time>2021-08-20T21:08:04Z</time>
      </trkpt>
      <trkpt lat="42.72886" lon="1.95781">
        <ele>1554</ele>
        <time>2021-08-20T21:08:08Z</time>
      </trkpt>
      <trkpt lat="42.72864" lon="1.95808">
        <ele>1558</ele>
        <time>2021-08-20T21:08:14Z</time>
      </trkpt>
      <trkpt lat="42.72833" lon="1.95875">
        <ele>1566</ele>
        <time>2021-08-20T21:08:24Z</time>
      </trkpt>
      <trkpt lat="42.72824" lon="1.95891">
        <ele>1570</ele>
        <time>2021-08-20T21:08:27Z</time>
      </trkpt>
      <trkpt lat="42.72809" lon="1.9591">
        <ele>1573</ele>
        <time>2021-08-20T21:08:30Z</time>
      </trkpt>
      <trkpt lat="42.72794" lon="1.95917">
        <ele>1575</ele>
        <time>2021-08-20T21:08:33Z</time>
      </trkpt>
      <trkpt lat="42.72775" lon="1.95919">
        <ele>1575</ele>
        <time>2021-08-20T21:08:36Z</time>
      </trkpt>
      <trkpt lat="42.72771" lon="1.95922">
        <ele>1575</ele>
        <time>2021-08-20T21:08:37Z</time>
      </trkpt>
      <trkpt lat="42.72769" lon="1.95925">
        <ele>1576</ele>
        <time>2021-08-20T21:08:38Z</time>
      </trkpt>
      <trkpt lat="42.7277" lon="1.95934">
        <ele>1578</ele>
        <time>2021-08-20T21:08:39Z</time>
      </trkpt>
      <trkpt lat="42.72776" lon="1.9594">
        <ele>1579</ele>
        <time>2021-08-20T21:08:40Z</time>
      </trkpt>
      <trkpt lat="42.72788" lon="1.95939">
        <ele>1580</ele>
        <time>2021-08-20T21:08:42Z</time>
      </trkpt>
      <trkpt lat="42.72821" lon="1.95931">
        <ele>1579</ele>
        <time>2021-08-20T21:08:48Z</time>
      </trkpt>
      <trkpt lat="42.72832" lon="1.95927">
        <ele>1578</ele>
        <time>2021-08-20T21:08:50Z</time>
      </trkpt>
      <trkpt lat="42.72892" lon="1.95891">
        <ele>1583</ele>
        <time>2021-08-20T21:09:02Z</time>
      </trkpt>
      <trkpt lat="42.72913" lon="1.95881">
        <ele>1585</ele>
        <time>2021-08-20T21:09:06Z</time>
      </trkpt>
      <trkpt lat="42.72985" lon="1.95859">
        <ele>1592</ele>
        <time>2021-08-20T21:09:19Z</time>
      </trkpt>
      <trkpt lat="42.73019" lon="1.95845">
        <ele>1594</ele>
        <time>2021-08-20T21:09:25Z</time>
      </trkpt>
      <trkpt lat="42.73026" lon="1.95847">
        <ele>1597</ele>
        <time>2021-08-20T21:09:27Z</time>
      </trkpt>
      <trkpt lat="42.73029" lon="1.95853">
        <ele>1600</ele>
        <time>2021-08-20T21:09:28Z</time>
      </trkpt>
      <trkpt lat="42.73026" lon="1.95861">
        <ele>1603</ele>
        <time>2021-08-20T21:09:29Z</time>
      </trkpt>
      <trkpt lat="42.73023" lon="1.95864">
        <ele>1603</ele>
        <time>2021-08-20T21:09:29Z</time>
      </trkpt>
      <trkpt lat="42.72999" lon="1.95872">
        <ele>1600</ele>
        <time>2021-08-20T21:09:34Z</time>
      </trkpt>
      <trkpt lat="42.7299" lon="1.95878">
        <ele>1600</ele>
        <time>2021-08-20T21:09:36Z</time>
      </trkpt>
      <trkpt lat="42.7298" lon="1.95888">
        <ele>1602</ele>
        <time>2021-08-20T21:09:38Z</time>
      </trkpt>
      <trkpt lat="42.72938" lon="1.95945">
        <ele>1612</ele>
        <time>2021-08-20T21:09:48Z</time>
      </trkpt>
      <trkpt lat="42.72851" lon="1.96053">
        <ele>1623</ele>
        <time>2021-08-20T21:10:09Z</time>
      </trkpt>
      <trkpt lat="42.72789" lon="1.9614">
        <ele>1634</ele>
        <time>2021-08-20T21:10:25Z</time>
      </trkpt>
      <trkpt lat="42.72763" lon="1.96169">
        <ele>1637</ele>
        <time>2021-08-20T21:10:31Z</time>
      </trkpt>
      <trkpt lat="42.72749" lon="1.96182">
        <ele>1638</ele>
        <time>2021-08-20T21:10:34Z</time>
      </trkpt>
      <trkpt lat="42.72725" lon="1.96198">
        <ele>1638</ele>
        <time>2021-08-20T21:10:39Z</time>
      </trkpt>
      <trkpt lat="42.72719" lon="1.96207">
        <ele>1640</ele>
        <time>2021-08-20T21:10:41Z</time>
      </trkpt>
      <trkpt lat="42.7272" lon="1.96215">
        <ele>1642</ele>
        <time>2021-08-20T21:10:42Z</time>
      </trkpt>
      <trkpt lat="42.72721" lon="1.96218">
        <ele>1643</ele>
        <time>2021-08-20T21:10:42Z</time>
      </trkpt>
      <trkpt lat="42.72727" lon="1.9622">
        <ele>1644</ele>
        <time>2021-08-20T21:10:43Z</time>
      </trkpt>
      <trkpt lat="42.72731" lon="1.96219">
        <ele>1645</ele>
        <time>2021-08-20T21:10:44Z</time>
      </trkpt>
      <trkpt lat="42.72748" lon="1.96205">
        <ele>1643</ele>
        <time>2021-08-20T21:10:47Z</time>
      </trkpt>
      <trkpt lat="42.72758" lon="1.96199">
        <ele>1644</ele>
        <time>2021-08-20T21:10:49Z</time>
      </trkpt>
      <trkpt lat="42.72807" lon="1.96185">
        <ele>1651</ele>
        <time>2021-08-20T21:10:58Z</time>
      </trkpt>
      <trkpt lat="42.7284" lon="1.96162">
        <ele>1652</ele>
        <time>2021-08-20T21:11:05Z</time>
      </trkpt>
      <trkpt lat="42.7286" lon="1.96146">
        <ele>1656</ele>
        <time>2021-08-20T21:11:09Z</time>
      </trkpt>
      <trkpt lat="42.72891" lon="1.96112">
        <ele>1658</ele>
        <time>2021-08-20T21:11:16Z</time>
      </trkpt>
      <trkpt lat="42.72897" lon="1.96112">
        <ele>1660</ele>
        <time>2021-08-20T21:11:17Z</time>
      </trkpt>
      <trkpt lat="42.72901" lon="1.96119">
        <ele>1664</ele>
        <time>2021-08-20T21:11:18Z</time>
      </trkpt>
      <trkpt lat="42.72898" lon="1.9613">
        <ele>1666</ele>
        <time>2021-08-20T21:11:20Z</time>
      </trkpt>
      <trkpt lat="42.72881" lon="1.96146">
        <ele>1664</ele>
        <time>2021-08-20T21:11:23Z</time>
      </trkpt>
      <trkpt lat="42.72865" lon="1.96168">
        <ele>1664</ele>
        <time>2021-08-20T21:11:28Z</time>
      </trkpt>
      <trkpt lat="42.72792" lon="1.96281">
        <ele>1675</ele>
        <time>2021-08-20T21:11:47Z</time>
      </trkpt>
      <trkpt lat="42.72741" lon="1.96385">
        <ele>1684</ele>
        <time>2021-08-20T21:12:04Z</time>
      </trkpt>
      <trkpt lat="42.72713" lon="1.96457">
        <ele>1689</ele>
        <time>2021-08-20T21:12:14Z</time>
      </trkpt>
      <trkpt lat="42.72713" lon="1.96465">
        <ele>1690</ele>
        <time>2021-08-20T21:12:15Z</time>
      </trkpt>
      <trkpt lat="42.72714" lon="1.96469">
        <ele>1690</ele>
        <time>2021-08-20T21:12:16Z</time>
      </trkpt>
      <trkpt lat="42.72719" lon="1.96473">
        <ele>1692</ele>
        <time>2021-08-20T21:12:17Z</time>
      </trkpt>
      <trkpt lat="42.72725" lon="1.96472">
        <ele>1693</ele>
        <time>2021-08-20T21:12:18Z</time>
      </trkpt>
      <trkpt lat="42.72728" lon="1.96469">
        <ele>1693</ele>
        <time>2021-08-20T21:12:19Z</time>
      </trkpt>
      <trkpt lat="42.72745" lon="1.96421">
        <ele>1692</ele>
        <time>2021-08-20T21:12:26Z</time>
      </trkpt>
      <trkpt lat="42.72754" lon="1.96405">
        <ele>1691</ele>
        <time>2021-08-20T21:12:28Z</time>
      </trkpt>
      <trkpt lat="42.72766" lon="1.96391">
        <ele>1693</ele>
        <time>2021-08-20T21:12:31Z</time>
      </trkpt>
      <trkpt lat="42.72784" lon="1.96372">
        <ele>1696</ele>
        <time>2021-08-20T21:12:35Z</time>
      </trkpt>
      <trkpt lat="42.72804" lon="1.96355">
        <ele>1699</ele>
        <time>2021-08-20T21:12:39Z</time>
      </trkpt>
      <trkpt lat="42.729" lon="1.96276">
        <ele>1713</ele>
        <time>2021-08-20T21:12:59Z</time>
      </trkpt>
      <trkpt lat="42.72957" lon="1.96208">
        <ele>1721</ele>
        <time>2021-08-20T21:13:13Z</time>
      </trkpt>
      <trkpt lat="42.7297" lon="1.96185">
        <ele>1721</ele>
        <time>2021-08-20T21:13:16Z</time>
      </trkpt>
      <trkpt lat="42.72978" lon="1.96163">
        <ele>1718</ele>
        <time>2021-08-20T21:13:20Z</time>
      </trkpt>
      <trkpt lat="42.72982" lon="1.96155">
        <ele>1717</ele>
        <time>2021-08-20T21:13:21Z</time>
      </trkpt>
      <trkpt lat="42.72988" lon="1.96154">
        <ele>1720</ele>
        <time>2021-08-20T21:13:22Z</time>
      </trkpt>
      <trkpt lat="42.72992" lon="1.96161">
        <ele>1725</ele>
        <time>2021-08-20T21:13:23Z</time>
      </trkpt>
      <trkpt lat="42.72992" lon="1.96167">
        <ele>1728</ele>
        <time>2021-08-20T21:13:24Z</time>
      </trkpt>
      <trkpt lat="42.72989" lon="1.96174">
        <ele>1728</ele>
        <time>2021-08-20T21:13:25Z</time>
      </trkpt>
      <trkpt lat="42.72977" lon="1.96199">
        <ele>1729</ele>
        <time>2021-08-20T21:13:29Z</time>
      </trkpt>
      <trkpt lat="42.72932" lon="1.963">
        <ele>1735</ele>
        <time>2021-08-20T21:13:44Z</time>
      </trkpt>
      <trkpt lat="42.72895" lon="1.96394">
        <ele>1744</ele>
        <time>2021-08-20T21:13:58Z</time>
      </trkpt>
      <trkpt lat="42.72868" lon="1.96456">
        <ele>1747</ele>
        <time>2021-08-20T21:14:08Z</time>
      </trkpt>
      <trkpt lat="42.72859" lon="1.9651">
        <ele>1751</ele>
        <time>2021-08-20T21:14:15Z</time>
      </trkpt>
      <trkpt lat="42.72856" lon="1.96533">
        <ele>1751</ele>
        <time>2021-08-20T21:14:18Z</time>
      </trkpt>
      <trkpt lat="42.72858" lon="1.96563">
        <ele>1753</ele>
        <time>2021-08-20T21:14:22Z</time>
      </trkpt>
      <trkpt lat="42.72875" lon="1.96628">
        <ele>1758</ele>
        <time>2021-08-20T21:14:31Z</time>
      </trkpt>
      <trkpt lat="42.7292" lon="1.96764">
        <ele>1774</ele>
        <time>2021-08-20T21:14:50Z</time>
      </trkpt>
      <trkpt lat="42.72947" lon="1.96856">
        <ele>1781</ele>
        <time>2021-08-20T21:15:03Z</time>
      </trkpt>
      <trkpt lat="42.72968" lon="1.96905">
        <ele>1789</ele>
        <time>2021-08-20T21:15:11Z</time>
      </trkpt>
      <trkpt lat="42.73014" lon="1.96989">
        <ele>1798</ele>
        <time>2021-08-20T21:15:25Z</time>
      </trkpt>
      <trkpt lat="42.73057" lon="1.9708">
        <ele>1806</ele>
        <time>2021-08-20T21:15:39Z</time>
      </trkpt>
      <trkpt lat="42.73083" lon="1.9713">
        <ele>1815</ele>
        <time>2021-08-20T21:15:47Z</time>
      </trkpt>
      <trkpt lat="42.73089" lon="1.97164">
        <ele>1816</ele>
        <time>2021-08-20T21:15:51Z</time>
      </trkpt>
      <trkpt lat="42.73097" lon="1.97351">
        <ele>1828</ele>
        <time>2021-08-20T21:16:16Z</time>
      </trkpt>
      <trkpt lat="42.73104" lon="1.97411">
        <ele>1832</ele>
        <time>2021-08-20T21:16:24Z</time>
      </trkpt>
      <trkpt lat="42.73115" lon="1.97483">
        <ele>1838</ele>
        <time>2021-08-20T21:16:33Z</time>
      </trkpt>
      <trkpt lat="42.73125" lon="1.97544">
        <ele>1841</ele>
        <time>2021-08-20T21:16:41Z</time>
      </trkpt>
      <trkpt lat="42.73136" lon="1.97587">
        <ele>1845</ele>
        <time>2021-08-20T21:16:47Z</time>
      </trkpt>
      <trkpt lat="42.73153" lon="1.97627">
        <ele>1850</ele>
        <time>2021-08-20T21:16:53Z</time>
      </trkpt>
      <trkpt lat="42.73193" lon="1.97697">
        <ele>1859</ele>
        <time>2021-08-20T21:17:05Z</time>
      </trkpt>
      <trkpt lat="42.7321" lon="1.97725">
        <ele>1861</ele>
        <time>2021-08-20T21:17:10Z</time>
      </trkpt>
      <trkpt lat="42.73255" lon="1.97786">
        <ele>1869</ele>
        <time>2021-08-20T21:17:21Z</time>
      </trkpt>
      <trkpt lat="42.73278" lon="1.97828">
        <ele>1871</ele>
        <time>2021-08-20T21:17:28Z</time>
      </trkpt>
      <trkpt lat="42.73295" lon="1.97868">
        <ele>1875</ele>
        <time>2021-08-20T21:17:34Z</time>
      </trkpt>
      <trkpt lat="42.73303" lon="1.97889">
        <ele>1877</ele>
        <time>2021-08-20T21:17:37Z</time>
      </trkpt>
      <trkpt lat="42.73308" lon="1.97914">
        <ele>1877</ele>
        <time>2021-08-20T21:17:40Z</time>
      </trkpt>
      <trkpt lat="42.73309" lon="1.97979">
        <ele>1879</ele>
        <time>2021-08-20T21:17:49Z</time>
      </trkpt>
      <trkpt lat="42.73316" lon="1.98038">
        <ele>1882</ele>
        <time>2021-08-20T21:17:57Z</time>
      </trkpt>
      <trkpt lat="42.73321" lon="1.98056">
        <ele>1884</ele>
        <time>2021-08-20T21:17:59Z</time>
      </trkpt>
      <trkpt lat="42.73337" lon="1.98093">
        <ele>1888</ele>
        <time>2021-08-20T21:18:05Z</time>
      </trkpt>
      <trkpt lat="42.73388" lon="1.98192">
        <ele>1899</ele>
        <time>2021-08-20T21:18:21Z</time>
      </trkpt>
      <trkpt lat="42.734" lon="1.98222">
        <ele>1902</ele>
        <time>2021-08-20T21:18:25Z</time>
      </trkpt>
      <trkpt lat="42.73408" lon="1.98255">
        <ele>1904</ele>
        <time>2021-08-20T21:18:30Z</time>
      </trkpt>
      <trkpt lat="42.73416" lon="1.98304">
        <ele>1909</ele>
        <time>2021-08-20T21:18:36Z</time>
      </trkpt>
      <trkpt lat="42.73415" lon="1.98328">
        <ele>1910</ele>
        <time>2021-08-20T21:18:39Z</time>
      </trkpt>
      <trkpt lat="42.73408" lon="1.98394">
        <ele>1917</ele>
        <time>2021-08-20T21:18:48Z</time>
      </trkpt>
      <trkpt lat="42.73411" lon="1.98453">
        <ele>1923</ele>
        <time>2021-08-20T21:18:56Z</time>
      </trkpt>
      <trkpt lat="42.73405" lon="1.98492">
        <ele>1925</ele>
        <time>2021-08-20T21:19:01Z</time>
      </trkpt>
      <trkpt lat="42.73399" lon="1.98516">
        <ele>1926</ele>
        <time>2021-08-20T21:19:04Z</time>
      </trkpt>
      <trkpt lat="42.73386" lon="1.98551">
        <ele>1929</ele>
        <time>2021-08-20T21:19:09Z</time>
      </trkpt>
      <trkpt lat="42.73336" lon="1.98659">
        <ele>1937</ele>
        <time>2021-08-20T21:19:26Z</time>
      </trkpt>
      <trkpt lat="42.73279" lon="1.98773">
        <ele>1951</ele>
        <time>2021-08-20T21:19:44Z</time>
      </trkpt>
      <trkpt lat="42.73262" lon="1.98793">
        <ele>1953</ele>
        <time>2021-08-20T21:19:48Z</time>
      </trkpt>
      <trkpt lat="42.73253" lon="1.98799">
        <ele>1953</ele>
        <time>2021-08-20T21:19:50Z</time>
      </trkpt>
      <trkpt lat="42.73244" lon="1.98803">
        <ele>1954</ele>
        <time>2021-08-20T21:19:52Z</time>
      </trkpt>
      <trkpt lat="42.73213" lon="1.98807">
        <ele>1957</ele>
        <time>2021-08-20T21:19:57Z</time>
      </trkpt>
      <trkpt lat="42.73193" lon="1.98818">
        <ele>1960</ele>
        <time>2021-08-20T21:20:01Z</time>
      </trkpt>
      <trkpt lat="42.73168" lon="1.98846">
        <ele>1964</ele>
        <time>2021-08-20T21:20:07Z</time>
      </trkpt>
      <trkpt lat="42.73159" lon="1.98867">
        <ele>1965</ele>
        <time>2021-08-20T21:20:10Z</time>
      </trkpt>
      <trkpt lat="42.73157" lon="1.98883">
        <ele>1965</ele>
        <time>2021-08-20T21:20:12Z</time>
      </trkpt>
      <trkpt lat="42.73155" lon="1.98898">
        <ele>1966</ele>
        <time>2021-08-20T21:20:14Z</time>
      </trkpt>
      <trkpt lat="42.73157" lon="1.98919">
        <ele>1966</ele>
        <time>2021-08-20T21:20:17Z</time>
      </trkpt>
      <trkpt lat="42.73163" lon="1.98933">
        <ele>1968</ele>
        <time>2021-08-20T21:20:19Z</time>
      </trkpt>
      <trkpt lat="42.73183" lon="1.98966">
        <ele>1970</ele>
        <time>2021-08-20T21:20:25Z</time>
      </trkpt>
      <trkpt lat="42.73215" lon="1.99001">
        <ele>1973</ele>
        <time>2021-08-20T21:20:32Z</time>
      </trkpt>
      <trkpt lat="42.73235" lon="1.99045">
        <ele>1979</ele>
        <time>2021-08-20T21:20:39Z</time>
      </trkpt>
      <trkpt lat="42.73304" lon="1.99154">
        <ele>1994</ele>
        <time>2021-08-20T21:20:57Z</time>
      </trkpt>
      <trkpt lat="42.73318" lon="1.99168">
        <ele>1996</ele>
        <time>2021-08-20T21:21:01Z</time>
      </trkpt>
      <trkpt lat="42.73336" lon="1.99179">
        <ele>1998</ele>
        <time>2021-08-20T21:21:04Z</time>
      </trkpt>
      <trkpt lat="42.73344" lon="1.99187">
        <ele>1998</ele>
        <time>2021-08-20T21:21:06Z</time>
      </trkpt>
      <trkpt lat="42.73349" lon="1.99197">
        <ele>1999</ele>
        <time>2021-08-20T21:21:07Z</time>
      </trkpt>
      <trkpt lat="42.73355" lon="1.99221">
        <ele>2000</ele>
        <time>2021-08-20T21:21:11Z</time>
      </trkpt>
      <trkpt lat="42.73376" lon="1.99322">
        <ele>1995</ele>
        <time>2021-08-20T21:21:24Z</time>
      </trkpt>
      <trkpt lat="42.73389" lon="1.99346">
        <ele>1992</ele>
        <time>2021-08-20T21:21:28Z</time>
      </trkpt>
      <trkpt lat="42.73413" lon="1.99374">
        <ele>1988</ele>
        <time>2021-08-20T21:21:34Z</time>
      </trkpt>
      <trkpt lat="42.73463" lon="1.99412">
        <ele>1985</ele>
        <time>2021-08-20T21:21:44Z</time>
      </trkpt>
      <trkpt lat="42.73472" lon="1.9942">
        <ele>1985</ele>
        <time>2021-08-20T21:21:46Z</time>
      </trkpt>
      <trkpt lat="42.73485" lon="1.99442">
        <ele>1983</ele>
        <time>2021-08-20T21:21:50Z</time>
      </trkpt>
      <trkpt lat="42.73491" lon="1.99463">
        <ele>1981</ele>
        <time>2021-08-20T21:21:53Z</time>
      </trkpt>
      <trkpt lat="42.73502" lon="1.99534">
        <ele>1975</ele>
        <time>2021-08-20T21:22:02Z</time>
      </trkpt>
      <trkpt lat="42.73516" lon="1.99603">
        <ele>1974</ele>
        <time>2021-08-20T21:22:11Z</time>
      </trkpt>
      <trkpt lat="42.73519" lon="1.99645">
        <ele>1974</ele>
        <time>2021-08-20T21:22:17Z</time>
      </trkpt>
      <trkpt lat="42.73516" lon="1.99691">
        <ele>1973</ele>
        <time>2021-08-20T21:22:23Z</time>
      </trkpt>
      <trkpt lat="42.73531" lon="1.99801">
        <ele>1969</ele>
        <time>2021-08-20T21:22:38Z</time>
      </trkpt>
      <trkpt lat="42.73538" lon="1.99835">
        <ele>1966</ele>
        <time>2021-08-20T21:22:42Z</time>
      </trkpt>
      <trkpt lat="42.73548" lon="1.99862">
        <ele>1964</ele>
        <time>2021-08-20T21:22:46Z</time>
      </trkpt>
      <trkpt lat="42.73562" lon="1.99892">
        <ele>1962</ele>
        <time>2021-08-20T21:22:51Z</time>
      </trkpt>
      <trkpt lat="42.73569" lon="1.99904">
        <ele>1962</ele>
        <time>2021-08-20T21:22:53Z</time>
      </trkpt>
      <trkpt lat="42.73575" lon="1.9991">
        <ele>1962</ele>
        <time>2021-08-20T21:22:54Z</time>
      </trkpt>
      <trkpt lat="42.73596" lon="1.99919">
        <ele>1962</ele>
        <time>2021-08-20T21:22:58Z</time>
      </trkpt>
      <trkpt lat="42.73605" lon="1.99919">
        <ele>1961</ele>
        <time>2021-08-20T21:23:00Z</time>
      </trkpt>
      <trkpt lat="42.73615" lon="1.99917">
        <ele>1961</ele>
        <time>2021-08-20T21:23:02Z</time>
      </trkpt>
      <trkpt lat="42.73626" lon="1.99908">
        <ele>1962</ele>
        <time>2021-08-20T21:23:04Z</time>
      </trkpt>
      <trkpt lat="42.7363" lon="1.99908">
        <ele>1962</ele>
        <time>2021-08-20T21:23:05Z</time>
      </trkpt>
      <trkpt lat="42.73634" lon="1.99913">
        <ele>1961</ele>
        <time>2021-08-20T21:23:05Z</time>
      </trkpt>
      <trkpt lat="42.73633" lon="1.9992">
        <ele>1960</ele>
        <time>2021-08-20T21:23:06Z</time>
      </trkpt>
      <trkpt lat="42.73631" lon="1.99924">
        <ele>1959</ele>
        <time>2021-08-20T21:23:07Z</time>
      </trkpt>
      <trkpt lat="42.73594" lon="1.99945">
        <ele>1958</ele>
        <time>2021-08-20T21:23:14Z</time>
      </trkpt>
      <trkpt lat="42.7357" lon="1.9995">
        <ele>1955</ele>
        <time>2021-08-20T21:23:19Z</time>
      </trkpt>
      <trkpt lat="42.73566" lon="1.99953">
        <ele>1953</ele>
        <time>2021-08-20T21:23:19Z</time>
      </trkpt>
      <trkpt lat="42.73565" lon="1.99958">
        <ele>1952</ele>
        <time>2021-08-20T21:23:20Z</time>
      </trkpt>
      <trkpt lat="42.73566" lon="1.99963">
        <ele>1952</ele>
        <time>2021-08-20T21:23:21Z</time>
      </trkpt>
      <trkpt lat="42.7357" lon="1.99966">
        <ele>1952</ele>
        <time>2021-08-20T21:23:21Z</time>
      </trkpt>
      <trkpt lat="42.73592" lon="1.9997">
        <ele>1955</ele>
        <time>2021-08-20T21:23:25Z</time>
      </trkpt>
      <trkpt lat="42.73615" lon="1.99979">
        <ele>1952</ele>
        <time>2021-08-20T21:23:30Z</time>
      </trkpt>
      <trkpt lat="42.73621" lon="1.99982">
        <ele>1951</ele>
        <time>2021-08-20T21:23:31Z</time>
      </trkpt>
      <trkpt lat="42.73622" lon="1.99987">
        <ele>1950</ele>
        <time>2021-08-20T21:23:32Z</time>
      </trkpt>
      <trkpt lat="42.73621" lon="1.99995">
        <ele>1949</ele>
        <time>2021-08-20T21:23:33Z</time>
      </trkpt>
      <trkpt lat="42.73616" lon="1.99999">
        <ele>1949</ele>
        <time>2021-08-20T21:23:34Z</time>
      </trkpt>
      <trkpt lat="42.7359" lon="1.99998">
        <ele>1951</ele>
        <time>2021-08-20T21:23:38Z</time>
      </trkpt>
      <trkpt lat="42.73573" lon="1.99994">
        <ele>1949</ele>
        <time>2021-08-20T21:23:41Z</time>
      </trkpt>
      <trkpt lat="42.73565" lon="1.99997">
        <ele>1946</ele>
        <time>2021-08-20T21:23:43Z</time>
      </trkpt>
      <trkpt lat="42.73564" lon="2.00002">
        <ele>1945</ele>
        <time>2021-08-20T21:23:43Z</time>
      </trkpt>
      <trkpt lat="42.73565" lon="2.00009">
        <ele>1945</ele>
        <time>2021-08-20T21:23:44Z</time>
      </trkpt>
      <trkpt lat="42.73572" lon="2.0003">
        <ele>1945</ele>
        <time>2021-08-20T21:23:47Z</time>
      </trkpt>
      <trkpt lat="42.73574" lon="2.0004">
        <ele>1945</ele>
        <time>2021-08-20T21:23:49Z</time>
      </trkpt>
      <trkpt lat="42.73572" lon="2.00055">
        <ele>1943</ele>
        <time>2021-08-20T21:23:51Z</time>
      </trkpt>
      <trkpt lat="42.73569" lon="2.00069">
        <ele>1942</ele>
        <time>2021-08-20T21:23:53Z</time>
      </trkpt>
      <trkpt lat="42.73553" lon="2.00116">
        <ele>1937</ele>
        <time>2021-08-20T21:23:59Z</time>
      </trkpt>
      <trkpt lat="42.7355" lon="2.0013">
        <ele>1936</ele>
        <time>2021-08-20T21:24:01Z</time>
      </trkpt>
      <trkpt lat="42.73552" lon="2.00154">
        <ele>1935</ele>
        <time>2021-08-20T21:24:04Z</time>
      </trkpt>
      <trkpt lat="42.73558" lon="2.00167">
        <ele>1935</ele>
        <time>2021-08-20T21:24:06Z</time>
      </trkpt>
      <trkpt lat="42.73564" lon="2.00173">
        <ele>1935</ele>
        <time>2021-08-20T21:24:08Z</time>
      </trkpt>
      <trkpt lat="42.7357" lon="2.00176">
        <ele>1935</ele>
        <time>2021-08-20T21:24:09Z</time>
      </trkpt>
      <trkpt lat="42.7358" lon="2.00177">
        <ele>1935</ele>
        <time>2021-08-20T21:24:11Z</time>
      </trkpt>
      <trkpt lat="42.73594" lon="2.00173">
        <ele>1933</ele>
        <time>2021-08-20T21:24:13Z</time>
      </trkpt>
      <trkpt lat="42.73599" lon="2.00175">
        <ele>1932</ele>
        <time>2021-08-20T21:24:14Z</time>
      </trkpt>
      <trkpt lat="42.736" lon="2.00181">
        <ele>1931</ele>
        <time>2021-08-20T21:24:15Z</time>
      </trkpt>
      <trkpt lat="42.736" lon="2.00186">
        <ele>1930</ele>
        <time>2021-08-20T21:24:16Z</time>
      </trkpt>
      <trkpt lat="42.73596" lon="2.00189">
        <ele>1930</ele>
        <time>2021-08-20T21:24:16Z</time>
      </trkpt>
      <trkpt lat="42.73566" lon="2.00195">
        <ele>1932</ele>
        <time>2021-08-20T21:24:22Z</time>
      </trkpt>
      <trkpt lat="42.73556" lon="2.002">
        <ele>1931</ele>
        <time>2021-08-20T21:24:24Z</time>
      </trkpt>
      <trkpt lat="42.73539" lon="2.00218">
        <ele>1928</ele>
        <time>2021-08-20T21:24:28Z</time>
      </trkpt>
      <trkpt lat="42.73518" lon="2.00247">
        <ele>1926</ele>
        <time>2021-08-20T21:24:33Z</time>
      </trkpt>
      <trkpt lat="42.73503" lon="2.00257">
        <ele>1925</ele>
        <time>2021-08-20T21:24:36Z</time>
      </trkpt>
      <trkpt lat="42.73488" lon="2.0026">
        <ele>1922</ele>
        <time>2021-08-20T21:24:39Z</time>
      </trkpt>
      <trkpt lat="42.73476" lon="2.00251">
        <ele>1920</ele>
        <time>2021-08-20T21:24:41Z</time>
      </trkpt>
      <trkpt lat="42.73471" lon="2.00242">
        <ele>1919</ele>
        <time>2021-08-20T21:24:42Z</time>
      </trkpt>
      <trkpt lat="42.73463" lon="2.00223">
        <ele>1916</ele>
        <time>2021-08-20T21:24:45Z</time>
      </trkpt>
      <trkpt lat="42.73457" lon="2.00175">
        <ele>1913</ele>
        <time>2021-08-20T21:24:52Z</time>
      </trkpt>
      <trkpt lat="42.73453" lon="2.00172">
        <ele>1911</ele>
        <time>2021-08-20T21:24:53Z</time>
      </trkpt>
      <trkpt lat="42.7345" lon="2.00173">
        <ele>1910</ele>
        <time>2021-08-20T21:24:53Z</time>
      </trkpt>
      <trkpt lat="42.73447" lon="2.00178">
        <ele>1909</ele>
        <time>2021-08-20T21:24:54Z</time>
      </trkpt>
      <trkpt lat="42.73445" lon="2.00224">
        <ele>1911</ele>
        <time>2021-08-20T21:25:00Z</time>
      </trkpt>
      <trkpt lat="42.73441" lon="2.00241">
        <ele>1911</ele>
        <time>2021-08-20T21:25:02Z</time>
      </trkpt>
      <trkpt lat="42.73434" lon="2.00261">
        <ele>1911</ele>
        <time>2021-08-20T21:25:05Z</time>
      </trkpt>
      <trkpt lat="42.73428" lon="2.00267">
        <ele>1910</ele>
        <time>2021-08-20T21:25:07Z</time>
      </trkpt>
      <trkpt lat="42.73424" lon="2.00269">
        <ele>1909</ele>
        <time>2021-08-20T21:25:07Z</time>
      </trkpt>
      <trkpt lat="42.73396" lon="2.00266">
        <ele>1902</ele>
        <time>2021-08-20T21:25:12Z</time>
      </trkpt>
      <trkpt lat="42.73385" lon="2.00267">
        <ele>1899</ele>
        <time>2021-08-20T21:25:14Z</time>
      </trkpt>
      <trkpt lat="42.73373" lon="2.00271">
        <ele>1897</ele>
        <time>2021-08-20T21:25:16Z</time>
      </trkpt>
      <trkpt lat="42.73361" lon="2.00277">
        <ele>1895</ele>
        <time>2021-08-20T21:25:19Z</time>
      </trkpt>
      <trkpt lat="42.73339" lon="2.00293">
        <ele>1893</ele>
        <time>2021-08-20T21:25:23Z</time>
      </trkpt>
      <trkpt lat="42.73325" lon="2.00306">
        <ele>1892</ele>
        <time>2021-08-20T21:25:26Z</time>
      </trkpt>
      <trkpt lat="42.73309" lon="2.00328">
        <ele>1892</ele>
        <time>2021-08-20T21:25:30Z</time>
      </trkpt>
      <trkpt lat="42.73301" lon="2.0033">
        <ele>1889</ele>
        <time>2021-08-20T21:25:32Z</time>
      </trkpt>
      <trkpt lat="42.73299" lon="2.00327">
        <ele>1888</ele>
        <time>2021-08-20T21:25:32Z</time>
      </trkpt>
      <trkpt lat="42.73299" lon="2.00322">
        <ele>1887</ele>
        <time>2021-08-20T21:25:33Z</time>
      </trkpt>
      <trkpt lat="42.73311" lon="2.00304">
        <ele>1887</ele>
        <time>2021-08-20T21:25:36Z</time>
      </trkpt>
      <trkpt lat="42.73339" lon="2.00242">
        <ele>1882</ele>
        <time>2021-08-20T21:25:46Z</time>
      </trkpt>
      <trkpt lat="42.73366" lon="2.00194">
        <ele>1882</ele>
        <time>2021-08-20T21:25:53Z</time>
      </trkpt>
      <trkpt lat="42.73385" lon="2.00152">
        <ele>1883</ele>
        <time>2021-08-20T21:26:00Z</time>
      </trkpt>
      <trkpt lat="42.73397" lon="2.00093">
        <ele>1882</ele>
        <time>2021-08-20T21:26:08Z</time>
      </trkpt>
      <trkpt lat="42.73397" lon="2.00088">
        <ele>1882</ele>
        <time>2021-08-20T21:26:09Z</time>
      </trkpt>
      <trkpt lat="42.73393" lon="2.00084">
        <ele>1880</ele>
        <time>2021-08-20T21:26:09Z</time>
      </trkpt>
      <trkpt lat="42.73391" lon="2.00084">
        <ele>1879</ele>
        <time>2021-08-20T21:26:10Z</time>
      </trkpt>
      <trkpt lat="42.73387" lon="2.00093">
        <ele>1878</ele>
        <time>2021-08-20T21:26:11Z</time>
      </trkpt>
      <trkpt lat="42.73383" lon="2.00117">
        <ele>1879</ele>
        <time>2021-08-20T21:26:14Z</time>
      </trkpt>
      <trkpt lat="42.73378" lon="2.00128">
        <ele>1878</ele>
        <time>2021-08-20T21:26:16Z</time>
      </trkpt>
      <trkpt lat="42.73371" lon="2.00138">
        <ele>1876</ele>
        <time>2021-08-20T21:26:18Z</time>
      </trkpt>
      <trkpt lat="42.73339" lon="2.00171">
        <ele>1869</ele>
        <time>2021-08-20T21:26:25Z</time>
      </trkpt>
      <trkpt lat="42.73305" lon="2.00198">
        <ele>1862</ele>
        <time>2021-08-20T21:26:32Z</time>
      </trkpt>
      <trkpt lat="42.73244" lon="2.00255">
        <ele>1854</ele>
        <time>2021-08-20T21:26:45Z</time>
      </trkpt>
      <trkpt lat="42.73227" lon="2.00273">
        <ele>1850</ele>
        <time>2021-08-20T21:26:49Z</time>
      </trkpt>
      <trkpt lat="42.73206" lon="2.00299">
        <ele>1847</ele>
        <time>2021-08-20T21:26:54Z</time>
      </trkpt>
      <trkpt lat="42.73188" lon="2.00328">
        <ele>1844</ele>
        <time>2021-08-20T21:26:59Z</time>
      </trkpt>
      <trkpt lat="42.73183" lon="2.00343">
        <ele>1843</ele>
        <time>2021-08-20T21:27:01Z</time>
      </trkpt>
      <trkpt lat="42.7318" lon="2.00359">
        <ele>1842</ele>
        <time>2021-08-20T21:27:03Z</time>
      </trkpt>
      <trkpt lat="42.73181" lon="2.00371">
        <ele>1842</ele>
        <time>2021-08-20T21:27:05Z</time>
      </trkpt>
      <trkpt lat="42.73179" lon="2.00376">
        <ele>1842</ele>
        <time>2021-08-20T21:27:06Z</time>
      </trkpt>
      <trkpt lat="42.73176" lon="2.00378">
        <ele>1840</ele>
        <time>2021-08-20T21:27:06Z</time>
      </trkpt>
      <trkpt lat="42.73171" lon="2.00373">
        <ele>1838</ele>
        <time>2021-08-20T21:27:07Z</time>
      </trkpt>
      <trkpt lat="42.73171" lon="2.00365">
        <ele>1837</ele>
        <time>2021-08-20T21:27:08Z</time>
      </trkpt>
      <trkpt lat="42.73173" lon="2.00321">
        <ele>1836</ele>
        <time>2021-08-20T21:27:14Z</time>
      </trkpt>
      <trkpt lat="42.7318" lon="2.00283">
        <ele>1833</ele>
        <time>2021-08-20T21:27:19Z</time>
      </trkpt>
      <trkpt lat="42.73198" lon="2.00237">
        <ele>1832</ele>
        <time>2021-08-20T21:27:26Z</time>
      </trkpt>
      <trkpt lat="42.73218" lon="2.00198">
        <ele>1832</ele>
        <time>2021-08-20T21:27:32Z</time>
      </trkpt>
      <trkpt lat="42.73223" lon="2.00185">
        <ele>1831</ele>
        <time>2021-08-20T21:27:34Z</time>
      </trkpt>
      <trkpt lat="42.73226" lon="2.00162">
        <ele>1828</ele>
        <time>2021-08-20T21:27:37Z</time>
      </trkpt>
      <trkpt lat="42.73226" lon="2.00149">
        <ele>1827</ele>
        <time>2021-08-20T21:27:39Z</time>
      </trkpt>
      <trkpt lat="42.73219" lon="2.00095">
        <ele>1822</ele>
        <time>2021-08-20T21:27:46Z</time>
      </trkpt>
      <trkpt lat="42.73218" lon="2.00079">
        <ele>1821</ele>
        <time>2021-08-20T21:27:48Z</time>
      </trkpt>
      <trkpt lat="42.73219" lon="2.00047">
        <ele>1821</ele>
        <time>2021-08-20T21:27:52Z</time>
      </trkpt>
      <trkpt lat="42.73226" lon="2.00007">
        <ele>1823</ele>
        <time>2021-08-20T21:27:58Z</time>
      </trkpt>
      <trkpt lat="42.73225" lon="1.99989">
        <ele>1824</ele>
        <time>2021-08-20T21:28:00Z</time>
      </trkpt>
      <trkpt lat="42.73221" lon="1.99976">
        <ele>1824</ele>
        <time>2021-08-20T21:28:02Z</time>
      </trkpt>
      <trkpt lat="42.73213" lon="1.99962">
        <ele>1823</ele>
        <time>2021-08-20T21:28:04Z</time>
      </trkpt>
      <trkpt lat="42.73208" lon="1.99958">
        <ele>1822</ele>
        <time>2021-08-20T21:28:05Z</time>
      </trkpt>
      <trkpt lat="42.73202" lon="1.99954">
        <ele>1821</ele>
        <time>2021-08-20T21:28:07Z</time>
      </trkpt>
      <trkpt lat="42.73192" lon="1.99954">
        <ele>1818</ele>
        <time>2021-08-20T21:28:08Z</time>
      </trkpt>
      <trkpt lat="42.73188" lon="1.99959">
        <ele>1817</ele>
        <time>2021-08-20T21:28:09Z</time>
      </trkpt>
      <trkpt lat="42.73184" lon="1.99967">
        <ele>1815</ele>
        <time>2021-08-20T21:28:11Z</time>
      </trkpt>
      <trkpt lat="42.73178" lon="1.99986">
        <ele>1811</ele>
        <time>2021-08-20T21:28:13Z</time>
      </trkpt>
      <trkpt lat="42.73174" lon="1.99992">
        <ele>1810</ele>
        <time>2021-08-20T21:28:14Z</time>
      </trkpt>
      <trkpt lat="42.73135" lon="2.00024">
        <ele>1796</ele>
        <time>2021-08-20T21:28:22Z</time>
      </trkpt>
      <trkpt lat="42.73126" lon="2.00037">
        <ele>1792</ele>
        <time>2021-08-20T21:28:25Z</time>
      </trkpt>
      <trkpt lat="42.73123" lon="2.00044">
        <ele>1791</ele>
        <time>2021-08-20T21:28:26Z</time>
      </trkpt>
      <trkpt lat="42.73123" lon="2.00056">
        <ele>1791</ele>
        <time>2021-08-20T21:28:27Z</time>
      </trkpt>
      <trkpt lat="42.73125" lon="2.0009">
        <ele>1792</ele>
        <time>2021-08-20T21:28:32Z</time>
      </trkpt>
      <trkpt lat="42.7313" lon="2.00116">
        <ele>1793</ele>
        <time>2021-08-20T21:28:35Z</time>
      </trkpt>
      <trkpt lat="42.73141" lon="2.00151">
        <ele>1797</ele>
        <time>2021-08-20T21:28:40Z</time>
      </trkpt>
      <trkpt lat="42.73141" lon="2.00171">
        <ele>1797</ele>
        <time>2021-08-20T21:28:43Z</time>
      </trkpt>
      <trkpt lat="42.73137" lon="2.00183">
        <ele>1797</ele>
        <time>2021-08-20T21:28:45Z</time>
      </trkpt>
      <trkpt lat="42.73126" lon="2.00207">
        <ele>1795</ele>
        <time>2021-08-20T21:28:48Z</time>
      </trkpt>
      <trkpt lat="42.731" lon="2.00253">
        <ele>1787</ele>
        <time>2021-08-20T21:28:56Z</time>
      </trkpt>
      <trkpt lat="42.73092" lon="2.00276">
        <ele>1785</ele>
        <time>2021-08-20T21:28:59Z</time>
      </trkpt>
      <trkpt lat="42.73086" lon="2.00281">
        <ele>1782</ele>
        <time>2021-08-20T21:29:00Z</time>
      </trkpt>
      <trkpt lat="42.73082" lon="2.00278">
        <ele>1780</ele>
        <time>2021-08-20T21:29:01Z</time>
      </trkpt>
      <trkpt lat="42.73082" lon="2.00275">
        <ele>1780</ele>
        <time>2021-08-20T21:29:02Z</time>
      </trkpt>
      <trkpt lat="42.73091" lon="2.00254">
        <ele>1782</ele>
        <time>2021-08-20T21:29:05Z</time>
      </trkpt>
      <trkpt lat="42.73098" lon="2.0023">
        <ele>1784</ele>
        <time>2021-08-20T21:29:08Z</time>
      </trkpt>
      <trkpt lat="42.73104" lon="2.00205">
        <ele>1784</ele>
        <time>2021-08-20T21:29:12Z</time>
      </trkpt>
      <trkpt lat="42.73106" lon="2.00177">
        <ele>1782</ele>
        <time>2021-08-20T21:29:15Z</time>
      </trkpt>
      <trkpt lat="42.73099" lon="2.00151">
        <ele>1778</ele>
        <time>2021-08-20T21:29:19Z</time>
      </trkpt>
      <trkpt lat="42.73066" lon="2.00083">
        <ele>1767</ele>
        <time>2021-08-20T21:29:30Z</time>
      </trkpt>
      <trkpt lat="42.73061" lon="2.00058">
        <ele>1766</ele>
        <time>2021-08-20T21:29:33Z</time>
      </trkpt>
      <trkpt lat="42.73046" lon="2.00007">
        <ele>1762</ele>
        <time>2021-08-20T21:29:40Z</time>
      </trkpt>
      <trkpt lat="42.73044" lon="1.99987">
        <ele>1762</ele>
        <time>2021-08-20T21:29:43Z</time>
      </trkpt>
      <trkpt lat="42.73046" lon="1.99976">
        <ele>1763</ele>
        <time>2021-08-20T21:29:44Z</time>
      </trkpt>
      <trkpt lat="42.73054" lon="1.99949">
        <ele>1766</ele>
        <time>2021-08-20T21:29:48Z</time>
      </trkpt>
      <trkpt lat="42.73052" lon="1.9994">
        <ele>1765</ele>
        <time>2021-08-20T21:29:49Z</time>
      </trkpt>
      <trkpt lat="42.73045" lon="1.99937">
        <ele>1763</ele>
        <time>2021-08-20T21:29:51Z</time>
      </trkpt>
      <trkpt lat="42.73042" lon="1.99945">
        <ele>1761</ele>
        <time>2021-08-20T21:29:52Z</time>
      </trkpt>
      <trkpt lat="42.73039" lon="1.99961">
        <ele>1760</ele>
        <time>2021-08-20T21:29:54Z</time>
      </trkpt>
      <trkpt lat="42.73024" lon="1.99987">
        <ele>1754</ele>
        <time>2021-08-20T21:29:58Z</time>
      </trkpt>
      <trkpt lat="42.73017" lon="2.00007">
        <ele>1751</ele>
        <time>2021-08-20T21:30:01Z</time>
      </trkpt>
      <trkpt lat="42.73019" lon="2.00025">
        <ele>1751</ele>
        <time>2021-08-20T21:30:04Z</time>
      </trkpt>
      <trkpt lat="42.73026" lon="2.00062">
        <ele>1752</ele>
        <time>2021-08-20T21:30:09Z</time>
      </trkpt>
      <trkpt lat="42.73029" lon="2.00096">
        <ele>1751</ele>
        <time>2021-08-20T21:30:13Z</time>
      </trkpt>
      <trkpt lat="42.73029" lon="2.00125">
        <ele>1748</ele>
        <time>2021-08-20T21:30:17Z</time>
      </trkpt>
      <trkpt lat="42.73025" lon="2.00159">
        <ele>1743</ele>
        <time>2021-08-20T21:30:21Z</time>
      </trkpt>
      <trkpt lat="42.73021" lon="2.0023">
        <ele>1741</ele>
        <time>2021-08-20T21:30:31Z</time>
      </trkpt>
      <trkpt lat="42.73005" lon="2.00315">
        <ele>1731</ele>
        <time>2021-08-20T21:30:42Z</time>
      </trkpt>
      <trkpt lat="42.72999" lon="2.00335">
        <ele>1727</ele>
        <time>2021-08-20T21:30:45Z</time>
      </trkpt>
      <trkpt lat="42.72973" lon="2.004">
        <ele>1719</ele>
        <time>2021-08-20T21:30:55Z</time>
      </trkpt>
      <trkpt lat="42.72958" lon="2.00426">
        <ele>1710</ele>
        <time>2021-08-20T21:30:59Z</time>
      </trkpt>
      <trkpt lat="42.72942" lon="2.00447">
        <ele>1698</ele>
        <time>2021-08-20T21:31:03Z</time>
      </trkpt>
      <trkpt lat="42.72939" lon="2.00448">
        <ele>1696</ele>
        <time>2021-08-20T21:31:03Z</time>
      </trkpt>
      <trkpt lat="42.72934" lon="2.00444">
        <ele>1694</ele>
        <time>2021-08-20T21:31:04Z</time>
      </trkpt>
      <trkpt lat="42.72935" lon="2.00435">
        <ele>1695</ele>
        <time>2021-08-20T21:31:06Z</time>
      </trkpt>
      <trkpt lat="42.72949" lon="2.00421">
        <ele>1705</ele>
        <time>2021-08-20T21:31:09Z</time>
      </trkpt>
      <trkpt lat="42.72968" lon="2.00373">
        <ele>1713</ele>
        <time>2021-08-20T21:31:16Z</time>
      </trkpt>
      <trkpt lat="42.72965" lon="2.00368">
        <ele>1711</ele>
        <time>2021-08-20T21:31:17Z</time>
      </trkpt>
      <trkpt lat="42.72961" lon="2.00369">
        <ele>1708</ele>
        <time>2021-08-20T21:31:17Z</time>
      </trkpt>
      <trkpt lat="42.72944" lon="2.00411">
        <ele>1702</ele>
        <time>2021-08-20T21:31:24Z</time>
      </trkpt>
      <trkpt lat="42.72936" lon="2.00415">
        <ele>1698</ele>
        <time>2021-08-20T21:31:25Z</time>
      </trkpt>
      <trkpt lat="42.72933" lon="2.00411">
        <ele>1696</ele>
        <time>2021-08-20T21:31:26Z</time>
      </trkpt>
      <trkpt lat="42.72934" lon="2.00404">
        <ele>1696</ele>
        <time>2021-08-20T21:31:27Z</time>
      </trkpt>
      <trkpt lat="42.72943" lon="2.00394">
        <ele>1700</ele>
        <time>2021-08-20T21:31:29Z</time>
      </trkpt>
      <trkpt lat="42.7295" lon="2.00378">
        <ele>1703</ele>
        <time>2021-08-20T21:31:31Z</time>
      </trkpt>
      <trkpt lat="42.72956" lon="2.00344">
        <ele>1703</ele>
        <time>2021-08-20T21:31:36Z</time>
      </trkpt>
      <trkpt lat="42.72958" lon="2.00292">
        <ele>1704</ele>
        <time>2021-08-20T21:31:43Z</time>
      </trkpt>
      <trkpt lat="42.7295" lon="2.00217">
        <ele>1704</ele>
        <time>2021-08-20T21:31:53Z</time>
      </trkpt>
      <trkpt lat="42.72948" lon="2.00214">
        <ele>1703</ele>
        <time>2021-08-20T21:31:53Z</time>
      </trkpt>
      <trkpt lat="42.72942" lon="2.00214">
        <ele>1700</ele>
        <time>2021-08-20T21:31:54Z</time>
      </trkpt>
      <trkpt lat="42.7294" lon="2.00217">
        <ele>1698</ele>
        <time>2021-08-20T21:31:55Z</time>
      </trkpt>
      <trkpt lat="42.7294" lon="2.00223">
        <ele>1698</ele>
        <time>2021-08-20T21:31:56Z</time>
      </trkpt>
      <trkpt lat="42.72941" lon="2.00237">
        <ele>1696</ele>
        <time>2021-08-20T21:31:57Z</time>
      </trkpt>
      <trkpt lat="42.72941" lon="2.00262">
        <ele>1695</ele>
        <time>2021-08-20T21:32:01Z</time>
      </trkpt>
      <trkpt lat="42.72933" lon="2.00301">
        <ele>1690</ele>
        <time>2021-08-20T21:32:06Z</time>
      </trkpt>
      <trkpt lat="42.72926" lon="2.00326">
        <ele>1685</ele>
        <time>2021-08-20T21:32:10Z</time>
      </trkpt>
      <trkpt lat="42.72912" lon="2.00362">
        <ele>1680</ele>
        <time>2021-08-20T21:32:15Z</time>
      </trkpt>
      <trkpt lat="42.72894" lon="2.00394">
        <ele>1673</ele>
        <time>2021-08-20T21:32:20Z</time>
      </trkpt>
      <trkpt lat="42.72883" lon="2.00407">
        <ele>1667</ele>
        <time>2021-08-20T21:32:23Z</time>
      </trkpt>
      <trkpt lat="42.72878" lon="2.00405">
        <ele>1665</ele>
        <time>2021-08-20T21:32:24Z</time>
      </trkpt>
      <trkpt lat="42.72878" lon="2.004">
        <ele>1665</ele>
        <time>2021-08-20T21:32:24Z</time>
      </trkpt>
      <trkpt lat="42.72891" lon="2.00379">
        <ele>1670</ele>
        <time>2021-08-20T21:32:28Z</time>
      </trkpt>
      <trkpt lat="42.72896" lon="2.00368">
        <ele>1672</ele>
        <time>2021-08-20T21:32:30Z</time>
      </trkpt>
      <trkpt lat="42.72903" lon="2.00332">
        <ele>1674</ele>
        <time>2021-08-20T21:32:34Z</time>
      </trkpt>
      <trkpt lat="42.72905" lon="2.00311">
        <ele>1675</ele>
        <time>2021-08-20T21:32:37Z</time>
      </trkpt>
      <trkpt lat="42.72903" lon="2.00304">
        <ele>1675</ele>
        <time>2021-08-20T21:32:38Z</time>
      </trkpt>
      <trkpt lat="42.72902" lon="2.00302">
        <ele>1674</ele>
        <time>2021-08-20T21:32:38Z</time>
      </trkpt>
      <trkpt lat="42.72896" lon="2.00302">
        <ele>1672</ele>
        <time>2021-08-20T21:32:40Z</time>
      </trkpt>
      <trkpt lat="42.72891" lon="2.00349">
        <ele>1669</ele>
        <time>2021-08-20T21:32:46Z</time>
      </trkpt>
      <trkpt lat="42.72888" lon="2.00357">
        <ele>1668</ele>
        <time>2021-08-20T21:32:47Z</time>
      </trkpt>
      <trkpt lat="42.72885" lon="2.00359">
        <ele>1667</ele>
        <time>2021-08-20T21:32:48Z</time>
      </trkpt>
      <trkpt lat="42.72881" lon="2.00358">
        <ele>1665</ele>
        <time>2021-08-20T21:32:48Z</time>
      </trkpt>
      <trkpt lat="42.72879" lon="2.00346">
        <ele>1663</ele>
        <time>2021-08-20T21:32:50Z</time>
      </trkpt>
      <trkpt lat="42.72882" lon="2.00335">
        <ele>1664</ele>
        <time>2021-08-20T21:32:51Z</time>
      </trkpt>
      <trkpt lat="42.72882" lon="2.00316">
        <ele>1665</ele>
        <time>2021-08-20T21:32:54Z</time>
      </trkpt>
      <trkpt lat="42.72869" lon="2.00266">
        <ele>1662</ele>
        <time>2021-08-20T21:33:01Z</time>
      </trkpt>
      <trkpt lat="42.72865" lon="2.00232">
        <ele>1666</ele>
        <time>2021-08-20T21:33:05Z</time>
      </trkpt>
      <trkpt lat="42.72861" lon="2.00229">
        <ele>1666</ele>
        <time>2021-08-20T21:33:06Z</time>
      </trkpt>
      <trkpt lat="42.72858" lon="2.00229">
        <ele>1664</ele>
        <time>2021-08-20T21:33:07Z</time>
      </trkpt>
      <trkpt lat="42.72856" lon="2.00237">
        <ele>1662</ele>
        <time>2021-08-20T21:33:08Z</time>
      </trkpt>
      <trkpt lat="42.72859" lon="2.00281">
        <ele>1657</ele>
        <time>2021-08-20T21:33:14Z</time>
      </trkpt>
      <trkpt lat="42.72846" lon="2.00358">
        <ele>1648</ele>
        <time>2021-08-20T21:33:24Z</time>
      </trkpt>
      <trkpt lat="42.72835" lon="2.00391">
        <ele>1642</ele>
        <time>2021-08-20T21:33:29Z</time>
      </trkpt>
      <trkpt lat="42.72829" lon="2.00427">
        <ele>1637</ele>
        <time>2021-08-20T21:33:33Z</time>
      </trkpt>
      <trkpt lat="42.72829" lon="2.00437">
        <ele>1635</ele>
        <time>2021-08-20T21:33:35Z</time>
      </trkpt>
      <trkpt lat="42.72831" lon="2.00445">
        <ele>1634</ele>
        <time>2021-08-20T21:33:36Z</time>
      </trkpt>
      <trkpt lat="42.72855" lon="2.00493">
        <ele>1637</ele>
        <time>2021-08-20T21:33:43Z</time>
      </trkpt>
      <trkpt lat="42.72871" lon="2.00559">
        <ele>1632</ele>
        <time>2021-08-20T21:33:53Z</time>
      </trkpt>
      <trkpt lat="42.72871" lon="2.00579">
        <ele>1627</ele>
        <time>2021-08-20T21:33:55Z</time>
      </trkpt>
      <trkpt lat="42.72862" lon="2.00618">
        <ele>1621</ele>
        <time>2021-08-20T21:34:00Z</time>
      </trkpt>
      <trkpt lat="42.7286" lon="2.0063">
        <ele>1620</ele>
        <time>2021-08-20T21:34:02Z</time>
      </trkpt>
      <trkpt lat="42.72862" lon="2.00655">
        <ele>1620</ele>
        <time>2021-08-20T21:34:05Z</time>
      </trkpt>
      <trkpt lat="42.72866" lon="2.00669">
        <ele>1621</ele>
        <time>2021-08-20T21:34:07Z</time>
      </trkpt>
      <trkpt lat="42.72874" lon="2.00686">
        <ele>1623</ele>
        <time>2021-08-20T21:34:10Z</time>
      </trkpt>
      <trkpt lat="42.72876" lon="2.00694">
        <ele>1623</ele>
        <time>2021-08-20T21:34:11Z</time>
      </trkpt>
      <trkpt lat="42.72873" lon="2.00749">
        <ele>1621</ele>
        <time>2021-08-20T21:34:18Z</time>
      </trkpt>
      <trkpt lat="42.72882" lon="2.00812">
        <ele>1618</ele>
        <time>2021-08-20T21:34:27Z</time>
      </trkpt>
      <trkpt lat="42.72888" lon="2.00871">
        <ele>1616</ele>
        <time>2021-08-20T21:34:34Z</time>
      </trkpt>
      <trkpt lat="42.72883" lon="2.00995">
        <ele>1609</ele>
        <time>2021-08-20T21:34:51Z</time>
      </trkpt>
      <trkpt lat="42.72884" lon="2.01021">
        <ele>1609</ele>
        <time>2021-08-20T21:34:54Z</time>
      </trkpt>
      <trkpt lat="42.7289" lon="2.01081">
        <ele>1612</ele>
        <time>2021-08-20T21:35:02Z</time>
      </trkpt>
      <trkpt lat="42.72891" lon="2.01137">
        <ele>1607</ele>
        <time>2021-08-20T21:35:09Z</time>
      </trkpt>
      <trkpt lat="42.7289" lon="2.01196">
        <ele>1602</ele>
        <time>2021-08-20T21:35:17Z</time>
      </trkpt>
      <trkpt lat="42.72884" lon="2.0124">
        <ele>1597</ele>
        <time>2021-08-20T21:35:23Z</time>
      </trkpt>
      <trkpt lat="42.72884" lon="2.01257">
        <ele>1595</ele>
        <time>2021-08-20T21:35:25Z</time>
      </trkpt>
      <trkpt lat="42.72886" lon="2.01267">
        <ele>1595</ele>
        <time>2021-08-20T21:35:26Z</time>
      </trkpt>
      <trkpt lat="42.72915" lon="2.01342">
        <ele>1592</ele>
        <time>2021-08-20T21:35:38Z</time>
      </trkpt>
      <trkpt lat="42.7293" lon="2.01368">
        <ele>1595</ele>
        <time>2021-08-20T21:35:42Z</time>
      </trkpt>
      <trkpt lat="42.72934" lon="2.01379">
        <ele>1596</ele>
        <time>2021-08-20T21:35:43Z</time>
      </trkpt>
      <trkpt lat="42.72942" lon="2.01418">
        <ele>1596</ele>
        <time>2021-08-20T21:35:49Z</time>
      </trkpt>
      <trkpt lat="42.72951" lon="2.01492">
        <ele>1596</ele>
        <time>2021-08-20T21:35:59Z</time>
      </trkpt>
      <trkpt lat="42.72954" lon="2.01595">
        <ele>1590</ele>
        <time>2021-08-20T21:36:12Z</time>
      </trkpt>
      <trkpt lat="42.72953" lon="2.01615">
        <ele>1588</ele>
        <time>2021-08-20T21:36:15Z</time>
      </trkpt>
      <trkpt lat="42.72944" lon="2.01663">
        <ele>1581</ele>
        <time>2021-08-20T21:36:21Z</time>
      </trkpt>
      <trkpt lat="42.7294" lon="2.01708">
        <ele>1578</ele>
        <time>2021-08-20T21:36:27Z</time>
      </trkpt>
      <trkpt lat="42.72942" lon="2.01727">
        <ele>1579</ele>
        <time>2021-08-20T21:36:30Z</time>
      </trkpt>
      <trkpt lat="42.72946" lon="2.01743">
        <ele>1581</ele>
        <time>2021-08-20T21:36:32Z</time>
      </trkpt>
      <trkpt lat="42.72965" lon="2.01794">
        <ele>1583</ele>
        <time>2021-08-20T21:36:39Z</time>
      </trkpt>
      <trkpt lat="42.72972" lon="2.01833">
        <ele>1579</ele>
        <time>2021-08-20T21:36:44Z</time>
      </trkpt>
      <trkpt lat="42.72977" lon="2.01902">
        <ele>1570</ele>
        <time>2021-08-20T21:36:54Z</time>
      </trkpt>
      <trkpt lat="42.72977" lon="2.01941">
        <ele>1565</ele>
        <time>2021-08-20T21:36:59Z</time>
      </trkpt>
      <trkpt lat="42.72973" lon="2.01982">
        <ele>1560</ele>
        <time>2021-08-20T21:37:04Z</time>
      </trkpt>
      <trkpt lat="42.72973" lon="2.02026">
        <ele>1557</ele>
        <time>2021-08-20T21:37:10Z</time>
      </trkpt>
      <trkpt lat="42.72957" lon="2.02089">
        <ele>1548</ele>
        <time>2021-08-20T21:37:19Z</time>
      </trkpt>
      <trkpt lat="42.72947" lon="2.02121">
        <ele>1546</ele>
        <time>2021-08-20T21:37:23Z</time>
      </trkpt>
      <trkpt lat="42.72928" lon="2.02157">
        <ele>1540</ele>
        <time>2021-08-20T21:37:29Z</time>
      </trkpt>
      <trkpt lat="42.72917" lon="2.02186">
        <ele>1539</ele>
        <time>2021-08-20T21:37:33Z</time>
      </trkpt>
      <trkpt lat="42.72913" lon="2.02187">
        <ele>1537</ele>
        <time>2021-08-20T21:37:34Z</time>
      </trkpt>
      <trkpt lat="42.72909" lon="2.02184">
        <ele>1536</ele>
        <time>2021-08-20T21:37:35Z</time>
      </trkpt>
      <trkpt lat="42.72908" lon="2.02173">
        <ele>1534</ele>
        <time>2021-08-20T21:37:36Z</time>
      </trkpt>
      <trkpt lat="42.72907" lon="2.02119">
        <ele>1530</ele>
        <time>2021-08-20T21:37:43Z</time>
      </trkpt>
      <trkpt lat="42.72909" lon="2.02088">
        <ele>1528</ele>
        <time>2021-08-20T21:37:47Z</time>
      </trkpt>
      <trkpt lat="42.72908" lon="2.02072">
        <ele>1528</ele>
        <time>2021-08-20T21:37:49Z</time>
      </trkpt>
      <trkpt lat="42.72904" lon="2.02055">
        <ele>1528</ele>
        <time>2021-08-20T21:37:52Z</time>
      </trkpt>
      <trkpt lat="42.72901" lon="2.02046">
        <ele>1528</ele>
        <time>2021-08-20T21:37:53Z</time>
      </trkpt>
      <trkpt lat="42.72888" lon="2.02037">
        <ele>1525</ele>
        <time>2021-08-20T21:37:56Z</time>
      </trkpt>
      <trkpt lat="42.72878" lon="2.02038">
        <ele>1523</ele>
        <time>2021-08-20T21:37:57Z</time>
      </trkpt>
      <trkpt lat="42.72869" lon="2.02045">
        <ele>1521</ele>
        <time>2021-08-20T21:37:59Z</time>
      </trkpt>
      <trkpt lat="42.72858" lon="2.02063">
        <ele>1518</ele>
        <time>2021-08-20T21:38:02Z</time>
      </trkpt>
      <trkpt lat="42.72842" lon="2.02095">
        <ele>1514</ele>
        <time>2021-08-20T21:38:07Z</time>
      </trkpt>
      <trkpt lat="42.7283" lon="2.02126">
        <ele>1511</ele>
        <time>2021-08-20T21:38:12Z</time>
      </trkpt>
      <trkpt lat="42.72812" lon="2.02192">
        <ele>1507</ele>
        <time>2021-08-20T21:38:21Z</time>
      </trkpt>
      <trkpt lat="42.728" lon="2.02218">
        <ele>1506</ele>
        <time>2021-08-20T21:38:25Z</time>
      </trkpt>
      <trkpt lat="42.72726" lon="2.02324">
        <ele>1492</ele>
        <time>2021-08-20T21:38:44Z</time>
      </trkpt>
      <trkpt lat="42.72679" lon="2.02407">
        <ele>1482</ele>
        <time>2021-08-20T21:38:58Z</time>
      </trkpt>
      <trkpt lat="42.72663" lon="2.02438">
        <ele>1478</ele>
        <time>2021-08-20T21:39:03Z</time>
      </trkpt>
      <trkpt lat="42.72654" lon="2.0246">
        <ele>1478</ele>
        <time>2021-08-20T21:39:06Z</time>
      </trkpt>
      <trkpt lat="42.72648" lon="2.02483">
        <ele>1477</ele>
        <time>2021-08-20T21:39:09Z</time>
      </trkpt>
      <trkpt lat="42.72648" lon="2.025">
        <ele>1476</ele>
        <time>2021-08-20T21:39:12Z</time>
      </trkpt>
      <trkpt lat="42.72659" lon="2.02539">
        <ele>1475</ele>
        <time>2021-08-20T21:39:17Z</time>
      </trkpt>
      <trkpt lat="42.72663" lon="2.0256">
        <ele>1476</ele>
        <time>2021-08-20T21:39:20Z</time>
      </trkpt>
      <trkpt lat="42.72664" lon="2.02582">
        <ele>1475</ele>
        <time>2021-08-20T21:39:23Z</time>
      </trkpt>
      <trkpt lat="42.72659" lon="2.02612">
        <ele>1474</ele>
        <time>2021-08-20T21:39:27Z</time>
      </trkpt>
      <trkpt lat="42.72648" lon="2.02645">
        <ele>1470</ele>
        <time>2021-08-20T21:39:31Z</time>
      </trkpt>
      <trkpt lat="42.72609" lon="2.02744">
        <ele>1460</ele>
        <time>2021-08-20T21:39:46Z</time>
      </trkpt>
      <trkpt lat="42.72587" lon="2.02796">
        <ele>1453</ele>
        <time>2021-08-20T21:39:54Z</time>
      </trkpt>
      <trkpt lat="42.72583" lon="2.02814">
        <ele>1453</ele>
        <time>2021-08-20T21:39:56Z</time>
      </trkpt>
      <trkpt lat="42.7258" lon="2.02838">
        <ele>1455</ele>
        <time>2021-08-20T21:40:00Z</time>
      </trkpt>
      <trkpt lat="42.72575" lon="2.02842">
        <ele>1454</ele>
        <time>2021-08-20T21:40:01Z</time>
      </trkpt>
      <trkpt lat="42.72571" lon="2.0284">
        <ele>1452</ele>
        <time>2021-08-20T21:40:01Z</time>
      </trkpt>
      <trkpt lat="42.72569" lon="2.02835">
        <ele>1450</ele>
        <time>2021-08-20T21:40:02Z</time>
      </trkpt>
      <trkpt lat="42.72575" lon="2.02771">
        <ele>1446</ele>
        <time>2021-08-20T21:40:11Z</time>
      </trkpt>
      <trkpt lat="42.72584" lon="2.02745">
        <ele>1446</ele>
        <time>2021-08-20T21:40:14Z</time>
      </trkpt>
      <trkpt lat="42.72584" lon="2.02736">
        <ele>1446</ele>
        <time>2021-08-20T21:40:16Z</time>
      </trkpt>
      <trkpt lat="42.72581" lon="2.02732">
        <ele>1446</ele>
        <time>2021-08-20T21:40:16Z</time>
      </trkpt>
      <trkpt lat="42.72577" lon="2.0273">
        <ele>1445</ele>
        <time>2021-08-20T21:40:17Z</time>
      </trkpt>
      <trkpt lat="42.72572" lon="2.02737">
        <ele>1444</ele>
        <time>2021-08-20T21:40:18Z</time>
      </trkpt>
      <trkpt lat="42.72527" lon="2.02858">
        <ele>1439</ele>
        <time>2021-08-20T21:40:36Z</time>
      </trkpt>
      <trkpt lat="42.72482" lon="2.02939">
        <ele>1431</ele>
        <time>2021-08-20T21:40:49Z</time>
      </trkpt>
      <trkpt lat="42.72455" lon="2.02981">
        <ele>1427</ele>
        <time>2021-08-20T21:40:57Z</time>
      </trkpt>
      <trkpt lat="42.72447" lon="2.02998">
        <ele>1426</ele>
        <time>2021-08-20T21:40:59Z</time>
      </trkpt>
      <trkpt lat="42.72425" lon="2.03067">
        <ele>1420</ele>
        <time>2021-08-20T21:41:09Z</time>
      </trkpt>
      <trkpt lat="42.72416" lon="2.03133">
        <ele>1418</ele>
        <time>2021-08-20T21:41:18Z</time>
      </trkpt>
      <trkpt lat="42.72394" lon="2.03234">
        <ele>1417</ele>
        <time>2021-08-20T21:41:32Z</time>
      </trkpt>
      <trkpt lat="42.7239" lon="2.03264">
        <ele>1415</ele>
        <time>2021-08-20T21:41:36Z</time>
      </trkpt>
      <trkpt lat="42.72389" lon="2.03308">
        <ele>1409</ele>
        <time>2021-08-20T21:41:41Z</time>
      </trkpt>
      <trkpt lat="42.72393" lon="2.03343">
        <ele>1405</ele>
        <time>2021-08-20T21:41:46Z</time>
      </trkpt>
      <trkpt lat="42.72405" lon="2.03379">
        <ele>1400</ele>
        <time>2021-08-20T21:41:51Z</time>
      </trkpt>
      <trkpt lat="42.72412" lon="2.03392">
        <ele>1399</ele>
        <time>2021-08-20T21:41:53Z</time>
      </trkpt>
      <trkpt lat="42.72438" lon="2.03423">
        <ele>1402</ele>
        <time>2021-08-20T21:41:59Z</time>
      </trkpt>
      <trkpt lat="42.72447" lon="2.03437">
        <ele>1403</ele>
        <time>2021-08-20T21:42:02Z</time>
      </trkpt>
      <trkpt lat="42.72456" lon="2.03473">
        <ele>1398</ele>
        <time>2021-08-20T21:42:07Z</time>
      </trkpt>
      <trkpt lat="42.72459" lon="2.03498">
        <ele>1393</ele>
        <time>2021-08-20T21:42:10Z</time>
      </trkpt>
      <trkpt lat="42.7246" lon="2.03535">
        <ele>1389</ele>
        <time>2021-08-20T21:42:15Z</time>
      </trkpt>
      <trkpt lat="42.72453" lon="2.03634">
        <ele>1376</ele>
        <time>2021-08-20T21:42:28Z</time>
      </trkpt>
      <trkpt lat="42.72454" lon="2.03658">
        <ele>1373</ele>
        <time>2021-08-20T21:42:31Z</time>
      </trkpt>
      <trkpt lat="42.72458" lon="2.03673">
        <ele>1371</ele>
        <time>2021-08-20T21:42:33Z</time>
      </trkpt>
      <trkpt lat="42.72499" lon="2.03761">
        <ele>1368</ele>
        <time>2021-08-20T21:42:47Z</time>
      </trkpt>
      <trkpt lat="42.72512" lon="2.03795">
        <ele>1367</ele>
        <time>2021-08-20T21:42:52Z</time>
      </trkpt>
      <trkpt lat="42.72531" lon="2.03856">
        <ele>1362</ele>
        <time>2021-08-20T21:43:01Z</time>
      </trkpt>
      <trkpt lat="42.72548" lon="2.03881">
        <ele>1361</ele>
        <time>2021-08-20T21:43:05Z</time>
      </trkpt>
      <trkpt lat="42.7256" lon="2.03895">
        <ele>1362</ele>
        <time>2021-08-20T21:43:08Z</time>
      </trkpt>
      <trkpt lat="42.72581" lon="2.03933">
        <ele>1357</ele>
        <time>2021-08-20T21:43:14Z</time>
      </trkpt>
      <trkpt lat="42.72613" lon="2.04003">
        <ele>1351</ele>
        <time>2021-08-20T21:43:25Z</time>
      </trkpt>
      <trkpt lat="42.72638" lon="2.04072">
        <ele>1343</ele>
        <time>2021-08-20T21:43:35Z</time>
      </trkpt>
      <trkpt lat="42.72656" lon="2.04106">
        <ele>1343</ele>
        <time>2021-08-20T21:43:40Z</time>
      </trkpt>
      <trkpt lat="42.72655" lon="2.04114">
        <ele>1340</ele>
        <time>2021-08-20T21:43:41Z</time>
      </trkpt>
      <trkpt lat="42.72653" lon="2.04118">
        <ele>1338</ele>
        <time>2021-08-20T21:43:42Z</time>
      </trkpt>
      <trkpt lat="42.72648" lon="2.04119">
        <ele>1335</ele>
        <time>2021-08-20T21:43:43Z</time>
      </trkpt>
      <trkpt lat="42.72642" lon="2.04114">
        <ele>1334</ele>
        <time>2021-08-20T21:43:44Z</time>
      </trkpt>
      <trkpt lat="42.72624" lon="2.04082">
        <ele>1333</ele>
        <time>2021-08-20T21:43:49Z</time>
      </trkpt>
      <trkpt lat="42.72598" lon="2.0404">
        <ele>1332</ele>
        <time>2021-08-20T21:43:57Z</time>
      </trkpt>
      <trkpt lat="42.72578" lon="2.04013">
        <ele>1330</ele>
        <time>2021-08-20T21:44:02Z</time>
      </trkpt>
      <trkpt lat="42.72557" lon="2.03988">
        <ele>1331</ele>
        <time>2021-08-20T21:44:07Z</time>
      </trkpt>
      <trkpt lat="42.72538" lon="2.0397">
        <ele>1329</ele>
        <time>2021-08-20T21:44:11Z</time>
      </trkpt>
      <trkpt lat="42.72526" lon="2.03964">
        <ele>1327</ele>
        <time>2021-08-20T21:44:13Z</time>
      </trkpt>
      <trkpt lat="42.72511" lon="2.0396">
        <ele>1323</ele>
        <time>2021-08-20T21:44:16Z</time>
      </trkpt>
      <trkpt lat="42.72401" lon="2.03936">
        <ele>1308</ele>
        <time>2021-08-20T21:44:36Z</time>
      </trkpt>
      <trkpt lat="42.72372" lon="2.03924">
        <ele>1307</ele>
        <time>2021-08-20T21:44:41Z</time>
      </trkpt>
      <trkpt lat="42.72369" lon="2.03929">
        <ele>1306</ele>
        <time>2021-08-20T21:44:42Z</time>
      </trkpt>
      <trkpt lat="42.7237" lon="2.03936">
        <ele>1304</ele>
        <time>2021-08-20T21:44:43Z</time>
      </trkpt>
      <trkpt lat="42.72375" lon="2.03944">
        <ele>1302</ele>
        <time>2021-08-20T21:44:44Z</time>
      </trkpt>
      <trkpt lat="42.7242" lon="2.03973">
        <ele>1300</ele>
        <time>2021-08-20T21:44:53Z</time>
      </trkpt>
      <trkpt lat="42.72437" lon="2.03989">
        <ele>1298</ele>
        <time>2021-08-20T21:44:57Z</time>
      </trkpt>
      <trkpt lat="42.72511" lon="2.04089">
        <ele>1287</ele>
        <time>2021-08-20T21:45:15Z</time>
      </trkpt>
      <trkpt lat="42.72522" lon="2.04109">
        <ele>1286</ele>
        <time>2021-08-20T21:45:18Z</time>
      </trkpt>
      <trkpt lat="42.72552" lon="2.0419">
        <ele>1279</ele>
        <time>2021-08-20T21:45:30Z</time>
      </trkpt>
      <trkpt lat="42.72566" lon="2.04273">
        <ele>1269</ele>
        <time>2021-08-20T21:45:41Z</time>
      </trkpt>
      <trkpt lat="42.72587" lon="2.04325">
        <ele>1265</ele>
        <time>2021-08-20T21:45:49Z</time>
      </trkpt>
      <trkpt lat="42.72595" lon="2.04357">
        <ele>1263</ele>
        <time>2021-08-20T21:45:54Z</time>
      </trkpt>
      <trkpt lat="42.72599" lon="2.04388">
        <ele>1260</ele>
        <time>2021-08-20T21:45:58Z</time>
      </trkpt>
      <trkpt lat="42.72605" lon="2.04412">
        <ele>1258</ele>
        <time>2021-08-20T21:46:01Z</time>
      </trkpt>
      <trkpt lat="42.72668" lon="2.0456">
        <ele>1243</ele>
        <time>2021-08-20T21:46:23Z</time>
      </trkpt>
      <trkpt lat="42.72708" lon="2.0463">
        <ele>1236</ele>
        <time>2021-08-20T21:46:35Z</time>
      </trkpt>
      <trkpt lat="42.72721" lon="2.04645">
        <ele>1234</ele>
        <time>2021-08-20T21:46:38Z</time>
      </trkpt>
      <trkpt lat="42.72781" lon="2.04698">
        <ele>1231</ele>
        <time>2021-08-20T21:46:51Z</time>
      </trkpt>
      <trkpt lat="42.72792" lon="2.04703">
        <ele>1232</ele>
        <time>2021-08-20T21:46:53Z</time>
      </trkpt>
      <trkpt lat="42.72795" lon="2.04711">
        <ele>1230</ele>
        <time>2021-08-20T21:46:54Z</time>
      </trkpt>
      <trkpt lat="42.72793" lon="2.04717">
        <ele>1228</ele>
        <time>2021-08-20T21:46:55Z</time>
      </trkpt>
      <trkpt lat="42.7279" lon="2.04719">
        <ele>1227</ele>
        <time>2021-08-20T21:46:55Z</time>
      </trkpt>
      <trkpt lat="42.72782" lon="2.04719">
        <ele>1225</ele>
        <time>2021-08-20T21:46:57Z</time>
      </trkpt>
      <trkpt lat="42.7274" lon="2.04691">
        <ele>1224</ele>
        <time>2021-08-20T21:47:05Z</time>
      </trkpt>
      <trkpt lat="42.72733" lon="2.0469">
        <ele>1223</ele>
        <time>2021-08-20T21:47:06Z</time>
      </trkpt>
      <trkpt lat="42.72727" lon="2.04692">
        <ele>1221</ele>
        <time>2021-08-20T21:47:07Z</time>
      </trkpt>
      <trkpt lat="42.72724" lon="2.04695">
        <ele>1220</ele>
        <time>2021-08-20T21:47:08Z</time>
      </trkpt>
      <trkpt lat="42.72724" lon="2.04705">
        <ele>1217</ele>
        <time>2021-08-20T21:47:09Z</time>
      </trkpt>
      <trkpt lat="42.72751" lon="2.04747">
        <ele>1210</ele>
        <time>2021-08-20T21:47:17Z</time>
      </trkpt>
      <trkpt lat="42.72757" lon="2.04767">
        <ele>1208</ele>
        <time>2021-08-20T21:47:20Z</time>
      </trkpt>
      <trkpt lat="42.72777" lon="2.04873">
        <ele>1199</ele>
        <time>2021-08-20T21:47:34Z</time>
      </trkpt>
      <trkpt lat="42.72788" lon="2.04903">
        <ele>1196</ele>
        <time>2021-08-20T21:47:38Z</time>
      </trkpt>
      <trkpt lat="42.72914" lon="2.05141">
        <ele>1188</ele>
        <time>2021-08-20T21:48:17Z</time>
      </trkpt>
      <trkpt lat="42.72945" lon="2.05184">
        <ele>1189</ele>
        <time>2021-08-20T21:48:24Z</time>
      </trkpt>
      <trkpt lat="42.72957" lon="2.05206">
        <ele>1187</ele>
        <time>2021-08-20T21:48:28Z</time>
      </trkpt>
      <trkpt lat="42.72964" lon="2.05227">
        <ele>1184</ele>
        <time>2021-08-20T21:48:31Z</time>
      </trkpt>
      <trkpt lat="42.72978" lon="2.05289">
        <ele>1176</ele>
        <time>2021-08-20T21:48:40Z</time>
      </trkpt>
      <trkpt lat="42.72988" lon="2.05323">
        <ele>1173</ele>
        <time>2021-08-20T21:48:44Z</time>
      </trkpt>
      <trkpt lat="42.73033" lon="2.05437">
        <ele>1169</ele>
        <time>2021-08-20T21:49:01Z</time>
      </trkpt>
      <trkpt lat="42.73036" lon="2.05451">
        <ele>1167</ele>
        <time>2021-08-20T21:49:03Z</time>
      </trkpt>
      <trkpt lat="42.73037" lon="2.05459">
        <ele>1166</ele>
        <time>2021-08-20T21:49:04Z</time>
      </trkpt>
      <trkpt lat="42.73035" lon="2.05464">
        <ele>1164</ele>
        <time>2021-08-20T21:49:05Z</time>
      </trkpt>
      <trkpt lat="42.73025" lon="2.05474">
        <ele>1160</ele>
        <time>2021-08-20T21:49:07Z</time>
      </trkpt>
      <trkpt lat="42.73053" lon="2.05531">
        <ele>1157</ele>
        <time>2021-08-20T21:49:16Z</time>
      </trkpt>
      <trkpt lat="42.73047" lon="2.05537">
        <ele>1154</ele>
        <time>2021-08-20T21:49:17Z</time>
      </trkpt>
      <trkpt lat="42.73034" lon="2.05557">
        <ele>1148</ele>
        <time>2021-08-20T21:49:21Z</time>
      </trkpt>
      <trkpt lat="42.73022" lon="2.05589">
        <ele>1140</ele>
        <time>2021-08-20T21:49:26Z</time>
      </trkpt>
      <trkpt lat="42.73019" lon="2.05593">
        <ele>1139</ele>
        <time>2021-08-20T21:49:26Z</time>
      </trkpt>
      <trkpt lat="42.73001" lon="2.0556">
        <ele>1140</ele>
        <time>2021-08-20T21:49:32Z</time>
      </trkpt>
      <trkpt lat="42.72997" lon="2.05557">
        <ele>1140</ele>
        <time>2021-08-20T21:49:33Z</time>
      </trkpt>
      <trkpt lat="42.72976" lon="2.05553">
        <ele>1142</ele>
        <time>2021-08-20T21:49:36Z</time>
      </trkpt>
      <trkpt lat="42.72973" lon="2.05556">
        <ele>1142</ele>
        <time>2021-08-20T21:49:37Z</time>
      </trkpt>
      <trkpt lat="42.72953" lon="2.05574">
        <ele>1142</ele>
        <time>2021-08-20T21:49:41Z</time>
      </trkpt>
      <trkpt lat="42.7295" lon="2.05576">
        <ele>1142</ele>
        <time>2021-08-20T21:49:42Z</time>
      </trkpt>
      <trkpt lat="42.72947" lon="2.05591">
        <ele>1141</ele>
        <time>2021-08-20T21:49:44Z</time>
      </trkpt>
      <trkpt lat="42.7295" lon="2.05596">
        <ele>1140</ele>
        <time>2021-08-20T21:49:45Z</time>
      </trkpt>
      <trkpt lat="42.72953" lon="2.05628">
        <ele>1136</ele>
        <time>2021-08-20T21:49:49Z</time>
      </trkpt>
      <trkpt lat="42.7295" lon="2.05698">
        <ele>1130</ele>
        <time>2021-08-20T21:49:58Z</time>
      </trkpt>
      <trkpt lat="42.72951" lon="2.05709">
        <ele>1129</ele>
        <time>2021-08-20T21:50:00Z</time>
      </trkpt>
      <trkpt lat="42.72957" lon="2.05734">
        <ele>1126</ele>
        <time>2021-08-20T21:50:03Z</time>
      </trkpt>
      <trkpt lat="42.72958" lon="2.05748">
        <ele>1125</ele>
        <time>2021-08-20T21:50:05Z</time>
      </trkpt>
      <trkpt lat="42.72957" lon="2.05761">
        <ele>1124</ele>
        <time>2021-08-20T21:50:07Z</time>
      </trkpt>
      <trkpt lat="42.72951" lon="2.05793">
        <ele>1121</ele>
        <time>2021-08-20T21:50:11Z</time>
      </trkpt>
      <trkpt lat="42.7295" lon="2.05807">
        <ele>1120</ele>
        <time>2021-08-20T21:50:13Z</time>
      </trkpt>
      <trkpt lat="42.72951" lon="2.0585">
        <ele>1116</ele>
        <time>2021-08-20T21:50:18Z</time>
      </trkpt>
      <trkpt lat="42.7295" lon="2.05861">
        <ele>1116</ele>
        <time>2021-08-20T21:50:20Z</time>
      </trkpt>
      <trkpt lat="42.7293" lon="2.05919">
        <ele>1114</ele>
        <time>2021-08-20T21:50:28Z</time>
      </trkpt>
      <trkpt lat="42.72924" lon="2.05971">
        <ele>1108</ele>
        <time>2021-08-20T21:50:35Z</time>
      </trkpt>
      <trkpt lat="42.72909" lon="2.06004">
        <ele>1109</ele>
        <time>2021-08-20T21:50:40Z</time>
      </trkpt>
      <trkpt lat="42.72906" lon="2.06018">
        <ele>1109</ele>
        <time>2021-08-20T21:50:42Z</time>
      </trkpt>
      <trkpt lat="42.72901" lon="2.06061">
        <ele>1107</ele>
        <time>2021-08-20T21:50:48Z</time>
      </trkpt>
      <trkpt lat="42.72893" lon="2.06116">
        <ele>1106</ele>
        <time>2021-08-20T21:50:55Z</time>
      </trkpt>
      <trkpt lat="42.7289" lon="2.06151">
        <ele>1104</ele>
        <time>2021-08-20T21:51:00Z</time>
      </trkpt>
      <trkpt lat="42.72875" lon="2.06231">
        <ele>1100</ele>
        <time>2021-08-20T21:51:10Z</time>
      </trkpt>
      <trkpt lat="42.7287" lon="2.06283">
        <ele>1094</ele>
        <time>2021-08-20T21:51:17Z</time>
      </trkpt>
      <trkpt lat="42.72851" lon="2.06351">
        <ele>1094</ele>
        <time>2021-08-20T21:51:27Z</time>
      </trkpt>
      <trkpt lat="42.72846" lon="2.06394">
        <ele>1092</ele>
        <time>2021-08-20T21:51:33Z</time>
      </trkpt>
      <trkpt lat="42.72842" lon="2.06516">
        <ele>1085</ele>
        <time>2021-08-20T21:51:48Z</time>
      </trkpt>
      <trkpt lat="42.72843" lon="2.06953">
        <ele>1050</ele>
        <time>2021-08-20T21:52:46Z</time>
      </trkpt>
      <trkpt lat="42.72838" lon="2.06992">
        <ele>1048</ele>
        <time>2021-08-20T21:52:51Z</time>
      </trkpt>
      <trkpt lat="42.72835" lon="2.07179">
        <ele>1033</ele>
        <time>2021-08-20T21:53:15Z</time>
      </trkpt>
      <trkpt lat="42.72831" lon="2.07252">
        <ele>1029</ele>
        <time>2021-08-20T21:53:25Z</time>
      </trkpt>
      <trkpt lat="42.72818" lon="2.07354">
        <ele>1016</ele>
        <time>2021-08-20T21:53:38Z</time>
      </trkpt>
      <trkpt lat="42.72817" lon="2.07381">
        <ele>1012</ele>
        <time>2021-08-20T21:53:42Z</time>
      </trkpt>
      <trkpt lat="42.72814" lon="2.07414">
        <ele>1008</ele>
        <time>2021-08-20T21:53:46Z</time>
      </trkpt>
      <trkpt lat="42.72807" lon="2.07439">
        <ele>1005</ele>
        <time>2021-08-20T21:53:50Z</time>
      </trkpt>
      <trkpt lat="42.72796" lon="2.07455">
        <ele>1005</ele>
        <time>2021-08-20T21:53:53Z</time>
      </trkpt>
      <trkpt lat="42.72785" lon="2.07459">
        <ele>1006</ele>
        <time>2021-08-20T21:53:55Z</time>
      </trkpt>
      <trkpt lat="42.72773" lon="2.07456">
        <ele>1008</ele>
        <time>2021-08-20T21:53:57Z</time>
      </trkpt>
      <trkpt lat="42.72764" lon="2.07449">
        <ele>1011</ele>
        <time>2021-08-20T21:53:59Z</time>
      </trkpt>
      <trkpt lat="42.72752" lon="2.07443">
        <ele>1014</ele>
        <time>2021-08-20T21:54:01Z</time>
      </trkpt>
      <trkpt lat="42.72734" lon="2.07454">
        <ele>1014</ele>
        <time>2021-08-20T21:54:04Z</time>
      </trkpt>
      <trkpt lat="42.72723" lon="2.07465">
        <ele>1013</ele>
        <time>2021-08-20T21:54:07Z</time>
      </trkpt>
      <trkpt lat="42.72702" lon="2.07475">
        <ele>1012</ele>
        <time>2021-08-20T21:54:11Z</time>
      </trkpt>
      <trkpt lat="42.72692" lon="2.07484">
        <ele>1011</ele>
        <time>2021-08-20T21:54:13Z</time>
      </trkpt>
      <trkpt lat="42.72688" lon="2.07494">
        <ele>1009</ele>
        <time>2021-08-20T21:54:14Z</time>
      </trkpt>
      <trkpt lat="42.72689" lon="2.07507">
        <ele>1006</ele>
        <time>2021-08-20T21:54:16Z</time>
      </trkpt>
      <trkpt lat="42.72705" lon="2.07502">
        <ele>1007</ele>
        <time>2021-08-20T21:54:19Z</time>
      </trkpt>
      <trkpt lat="42.72716" lon="2.07496">
        <ele>1007</ele>
        <time>2021-08-20T21:54:21Z</time>
      </trkpt>
      <trkpt lat="42.72743" lon="2.0747">
        <ele>1010</ele>
        <time>2021-08-20T21:54:27Z</time>
      </trkpt>
      <trkpt lat="42.72749" lon="2.07467">
        <ele>1010</ele>
        <time>2021-08-20T21:54:28Z</time>
      </trkpt>
      <trkpt lat="42.72764" lon="2.07468">
        <ele>1008</ele>
        <time>2021-08-20T21:54:31Z</time>
      </trkpt>
      <trkpt lat="42.72784" lon="2.07478">
        <ele>1003</ele>
        <time>2021-08-20T21:54:35Z</time>
      </trkpt>
      <trkpt lat="42.72795" lon="2.07473">
        <ele>1002</ele>
        <time>2021-08-20T21:54:37Z</time>
      </trkpt>
      <trkpt lat="42.72805" lon="2.07466">
        <ele>1001</ele>
        <time>2021-08-20T21:54:39Z</time>
      </trkpt>
      <trkpt lat="42.72841" lon="2.07405">
        <ele>1003</ele>
        <time>2021-08-20T21:54:49Z</time>
      </trkpt>
      <trkpt lat="42.72872" lon="2.07341">
        <ele>1001</ele>
        <time>2021-08-20T21:54:59Z</time>
      </trkpt>
      <trkpt lat="42.72885" lon="2.07306">
        <ele>1001</ele>
        <time>2021-08-20T21:55:04Z</time>
      </trkpt>
      <trkpt lat="42.72903" lon="2.07252">
        <ele>1000</ele>
        <time>2021-08-20T21:55:12Z</time>
      </trkpt>
      <trkpt lat="42.7292" lon="2.0719">
        <ele>997</ele>
        <time>2021-08-20T21:55:20Z</time>
      </trkpt>
      <trkpt lat="42.72931" lon="2.07141">
        <ele>995</ele>
        <time>2021-08-20T21:55:27Z</time>
      </trkpt>
      <trkpt lat="42.72934" lon="2.07108">
        <ele>995</ele>
        <time>2021-08-20T21:55:31Z</time>
      </trkpt>
      <trkpt lat="42.72942" lon="2.07062">
        <ele>995</ele>
        <time>2021-08-20T21:55:38Z</time>
      </trkpt>
      <trkpt lat="42.72951" lon="2.07027">
        <ele>995</ele>
        <time>2021-08-20T21:55:43Z</time>
      </trkpt>
      <trkpt lat="42.72971" lon="2.06975">
        <ele>994</ele>
        <time>2021-08-20T21:55:50Z</time>
      </trkpt>
      <trkpt lat="42.72977" lon="2.06951">
        <ele>995</ele>
        <time>2021-08-20T21:55:53Z</time>
      </trkpt>
      <trkpt lat="42.72981" lon="2.0693">
        <ele>995</ele>
        <time>2021-08-20T21:55:56Z</time>
      </trkpt>
      <trkpt lat="42.72988" lon="2.06915">
        <ele>994</ele>
        <time>2021-08-20T21:55:59Z</time>
      </trkpt>
      <trkpt lat="42.72995" lon="2.06909">
        <ele>993</ele>
        <time>2021-08-20T21:56:00Z</time>
      </trkpt>
      <trkpt lat="42.7301" lon="2.0691">
        <ele>992</ele>
        <time>2021-08-20T21:56:03Z</time>
      </trkpt>
      <trkpt lat="42.73021" lon="2.06919">
        <ele>992</ele>
        <time>2021-08-20T21:56:05Z</time>
      </trkpt>
      <trkpt lat="42.73025" lon="2.06934">
        <ele>991</ele>
        <time>2021-08-20T21:56:07Z</time>
      </trkpt>
      <trkpt lat="42.73019" lon="2.06953">
        <ele>989</ele>
        <time>2021-08-20T21:56:10Z</time>
      </trkpt>
      <trkpt lat="42.7301" lon="2.06971">
        <ele>986</ele>
        <time>2021-08-20T21:56:13Z</time>
      </trkpt>
      <trkpt lat="42.73008" lon="2.06986">
        <ele>985</ele>
        <time>2021-08-20T21:56:15Z</time>
      </trkpt>
      <trkpt lat="42.7301" lon="2.06999">
        <ele>984</ele>
        <time>2021-08-20T21:56:16Z</time>
      </trkpt>
      <trkpt lat="42.73015" lon="2.07009">
        <ele>984</ele>
        <time>2021-08-20T21:56:18Z</time>
      </trkpt>
      <trkpt lat="42.73033" lon="2.07019">
        <ele>984</ele>
        <time>2021-08-20T21:56:21Z</time>
      </trkpt>
      <trkpt lat="42.7304" lon="2.07023">
        <ele>984</ele>
        <time>2021-08-20T21:56:23Z</time>
      </trkpt>
      <trkpt lat="42.73048" lon="2.07028">
        <ele>984</ele>
        <time>2021-08-20T21:56:24Z</time>
      </trkpt>
      <trkpt lat="42.73054" lon="2.0704">
        <ele>983</ele>
        <time>2021-08-20T21:56:26Z</time>
      </trkpt>
      <trkpt lat="42.73057" lon="2.0705">
        <ele>982</ele>
        <time>2021-08-20T21:56:28Z</time>
      </trkpt>
      <trkpt lat="42.73061" lon="2.07065">
        <ele>980</ele>
        <time>2021-08-20T21:56:30Z</time>
      </trkpt>
      <trkpt lat="42.73069" lon="2.07109">
        <ele>975</ele>
        <time>2021-08-20T21:56:36Z</time>
      </trkpt>
      <trkpt lat="42.7307" lon="2.07128">
        <ele>974</ele>
        <time>2021-08-20T21:56:38Z</time>
      </trkpt>
      <trkpt lat="42.73076" lon="2.07161">
        <ele>971</ele>
        <time>2021-08-20T21:56:43Z</time>
      </trkpt>
      <trkpt lat="42.73083" lon="2.07186">
        <ele>968</ele>
        <time>2021-08-20T21:56:46Z</time>
      </trkpt>
      <trkpt lat="42.73092" lon="2.07201">
        <ele>968</ele>
        <time>2021-08-20T21:56:49Z</time>
      </trkpt>
      <trkpt lat="42.73109" lon="2.07231">
        <ele>967</ele>
        <time>2021-08-20T21:56:54Z</time>
      </trkpt>
      <trkpt lat="42.73114" lon="2.07257">
        <ele>965</ele>
        <time>2021-08-20T21:56:57Z</time>
      </trkpt>
      <trkpt lat="42.73123" lon="2.0733">
        <ele>958</ele>
        <time>2021-08-20T21:57:07Z</time>
      </trkpt>
      <trkpt lat="42.73131" lon="2.07375">
        <ele>956</ele>
        <time>2021-08-20T21:57:13Z</time>
      </trkpt>
      <trkpt lat="42.73145" lon="2.07414">
        <ele>955</ele>
        <time>2021-08-20T21:57:19Z</time>
      </trkpt>
      <trkpt lat="42.73178" lon="2.0749">
        <ele>951</ele>
        <time>2021-08-20T21:57:30Z</time>
      </trkpt>
      <trkpt lat="42.73211" lon="2.07586">
        <ele>950</ele>
        <time>2021-08-20T21:57:44Z</time>
      </trkpt>
      <trkpt lat="42.73253" lon="2.07734">
        <ele>939</ele>
        <time>2021-08-20T21:58:05Z</time>
      </trkpt>
      <trkpt lat="42.73265" lon="2.07759">
        <ele>939</ele>
        <time>2021-08-20T21:58:09Z</time>
      </trkpt>
      <trkpt lat="42.73304" lon="2.0782">
        <ele>939</ele>
        <time>2021-08-20T21:58:19Z</time>
      </trkpt>
      <trkpt lat="42.73345" lon="2.07881">
        <ele>938</ele>
        <time>2021-08-20T21:58:30Z</time>
      </trkpt>
      <trkpt lat="42.73363" lon="2.07901">
        <ele>938</ele>
        <time>2021-08-20T21:58:34Z</time>
      </trkpt>
      <trkpt lat="42.73391" lon="2.07918">
        <ele>942</ele>
        <time>2021-08-20T21:58:40Z</time>
      </trkpt>
      <trkpt lat="42.73414" lon="2.07946">
        <ele>942</ele>
        <time>2021-08-20T21:58:45Z</time>
      </trkpt>
      <trkpt lat="42.73418" lon="2.07974">
        <ele>936</ele>
        <time>2021-08-20T21:58:49Z</time>
      </trkpt>
      <trkpt lat="42.73418" lon="2.07975">
        <ele>936</ele>
        <time>2021-08-20T21:58:49Z</time>
      </trkpt>
      <trkpt lat="42.73439" lon="2.08038">
        <ele>932</ele>
        <time>2021-08-20T21:58:58Z</time>
      </trkpt>
      <trkpt lat="42.73471" lon="2.08121">
        <ele>928</ele>
        <time>2021-08-20T21:59:10Z</time>
      </trkpt>
      <trkpt lat="42.73486" lon="2.08179">
        <ele>924</ele>
        <time>2021-08-20T21:59:18Z</time>
      </trkpt>
      <trkpt lat="42.73489" lon="2.08201">
        <ele>923</ele>
        <time>2021-08-20T21:59:21Z</time>
      </trkpt>
      <trkpt lat="42.73499" lon="2.08265">
        <ele>919</ele>
        <time>2021-08-20T21:59:30Z</time>
      </trkpt>
      <trkpt lat="42.73504" lon="2.08311">
        <ele>911</ele>
        <time>2021-08-20T21:59:36Z</time>
      </trkpt>
      <trkpt lat="42.7351" lon="2.08326">
        <ele>910</ele>
        <time>2021-08-20T21:59:38Z</time>
      </trkpt>
      <trkpt lat="42.73519" lon="2.08335">
        <ele>910</ele>
        <time>2021-08-20T21:59:40Z</time>
      </trkpt>
      <trkpt lat="42.73565" lon="2.0834">
        <ele>921</ele>
        <time>2021-08-20T21:59:48Z</time>
      </trkpt>
      <trkpt lat="42.73606" lon="2.08338">
        <ele>932</ele>
        <time>2021-08-20T21:59:55Z</time>
      </trkpt>
      <trkpt lat="42.73612" lon="2.08345">
        <ele>930</ele>
        <time>2021-08-20T21:59:57Z</time>
      </trkpt>
      <trkpt lat="42.73613" lon="2.08358">
        <ele>923</ele>
        <time>2021-08-20T21:59:59Z</time>
      </trkpt>
      <trkpt lat="42.73603" lon="2.08366">
        <ele>917</ele>
        <time>2021-08-20T22:00:01Z</time>
      </trkpt>
      <trkpt lat="42.73561" lon="2.08358">
        <ele>911</ele>
        <time>2021-08-20T22:00:08Z</time>
      </trkpt>
      <trkpt lat="42.73504" lon="2.08362">
        <ele>896</ele>
        <time>2021-08-20T22:00:18Z</time>
      </trkpt>
      <trkpt lat="42.73492" lon="2.0836">
        <ele>894</ele>
        <time>2021-08-20T22:00:21Z</time>
      </trkpt>
      <trkpt lat="42.73484" lon="2.0835">
        <ele>895</ele>
        <time>2021-08-20T22:00:22Z</time>
      </trkpt>
      <trkpt lat="42.73455" lon="2.08273">
        <ele>901</ele>
        <time>2021-08-20T22:00:34Z</time>
      </trkpt>
      <trkpt lat="42.73441" lon="2.08247">
        <ele>899</ele>
        <time>2021-08-20T22:00:38Z</time>
      </trkpt>
      <trkpt lat="42.73408" lon="2.08207">
        <ele>892</ele>
        <time>2021-08-20T22:00:46Z</time>
      </trkpt>
      <trkpt lat="42.73396" lon="2.08178">
        <ele>893</ele>
        <time>2021-08-20T22:00:50Z</time>
      </trkpt>
      <trkpt lat="42.73386" lon="2.08173">
        <ele>891</ele>
        <time>2021-08-20T22:00:52Z</time>
      </trkpt>
      <trkpt lat="42.73378" lon="2.08175">
        <ele>889</ele>
        <time>2021-08-20T22:00:54Z</time>
      </trkpt>
      <trkpt lat="42.73375" lon="2.08185">
        <ele>887</ele>
        <time>2021-08-20T22:00:55Z</time>
      </trkpt>
      <trkpt lat="42.73385" lon="2.08202">
        <ele>887</ele>
        <time>2021-08-20T22:00:58Z</time>
      </trkpt>
      <trkpt lat="42.7342" lon="2.08285">
        <ele>886</ele>
        <time>2021-08-20T22:01:10Z</time>
      </trkpt>
      <trkpt lat="42.73442" lon="2.08353">
        <ele>881</ele>
        <time>2021-08-20T22:01:20Z</time>
      </trkpt>
      <trkpt lat="42.73446" lon="2.08391">
        <ele>873</ele>
        <time>2021-08-20T22:01:25Z</time>
      </trkpt>
      <trkpt lat="42.7345" lon="2.084">
        <ele>872</ele>
        <time>2021-08-20T22:01:26Z</time>
      </trkpt>
      <trkpt lat="42.73462" lon="2.0841">
        <ele>871</ele>
        <time>2021-08-20T22:01:29Z</time>
      </trkpt>
      <trkpt lat="42.7351" lon="2.0841">
        <ele>880</ele>
        <time>2021-08-20T22:01:37Z</time>
      </trkpt>
      <trkpt lat="42.73559" lon="2.08421">
        <ele>881</ele>
        <time>2021-08-20T22:01:46Z</time>
      </trkpt>
      <trkpt lat="42.73592" lon="2.08422">
        <ele>885</ele>
        <time>2021-08-20T22:01:52Z</time>
      </trkpt>
      <trkpt lat="42.73599" lon="2.08426">
        <ele>885</ele>
        <time>2021-08-20T22:01:54Z</time>
      </trkpt>
      <trkpt lat="42.73602" lon="2.08436">
        <ele>881</ele>
        <time>2021-08-20T22:01:55Z</time>
      </trkpt>
      <trkpt lat="42.73598" lon="2.08445">
        <ele>876</ele>
        <time>2021-08-20T22:01:56Z</time>
      </trkpt>
      <trkpt lat="42.73592" lon="2.08447">
        <ele>873</ele>
        <time>2021-08-20T22:01:57Z</time>
      </trkpt>
      <trkpt lat="42.73582" lon="2.08443">
        <ele>873</ele>
        <time>2021-08-20T22:01:59Z</time>
      </trkpt>
      <trkpt lat="42.7355" lon="2.08438">
        <ele>873</ele>
        <time>2021-08-20T22:02:05Z</time>
      </trkpt>
      <trkpt lat="42.73526" lon="2.0844">
        <ele>870</ele>
        <time>2021-08-20T22:02:09Z</time>
      </trkpt>
      <trkpt lat="42.73501" lon="2.08459">
        <ele>862</ele>
        <time>2021-08-20T22:02:14Z</time>
      </trkpt>
      <trkpt lat="42.73467" lon="2.08464">
        <ele>858</ele>
        <time>2021-08-20T22:02:20Z</time>
      </trkpt>
      <trkpt lat="42.73464" lon="2.08475">
        <ele>855</ele>
        <time>2021-08-20T22:02:22Z</time>
      </trkpt>
      <trkpt lat="42.73465" lon="2.08482">
        <ele>853</ele>
        <time>2021-08-20T22:02:23Z</time>
      </trkpt>
      <trkpt lat="42.73472" lon="2.08485">
        <ele>852</ele>
        <time>2021-08-20T22:02:24Z</time>
      </trkpt>
      <trkpt lat="42.73502" lon="2.08471">
        <ele>858</ele>
        <time>2021-08-20T22:02:30Z</time>
      </trkpt>
      <trkpt lat="42.73533" lon="2.08472">
        <ele>858</ele>
        <time>2021-08-20T22:02:35Z</time>
      </trkpt>
      <trkpt lat="42.73567" lon="2.08476">
        <ele>857</ele>
        <time>2021-08-20T22:02:41Z</time>
      </trkpt>
      <trkpt lat="42.73627" lon="2.085">
        <ele>854</ele>
        <time>2021-08-20T22:02:53Z</time>
      </trkpt>
      <trkpt lat="42.73665" lon="2.08518">
        <ele>856</ele>
        <time>2021-08-20T22:03:00Z</time>
      </trkpt>
      <trkpt lat="42.73674" lon="2.08518">
        <ele>859</ele>
        <time>2021-08-20T22:03:01Z</time>
      </trkpt>
      <trkpt lat="42.7368" lon="2.08527">
        <ele>859</ele>
        <time>2021-08-20T22:03:03Z</time>
      </trkpt>
      <trkpt lat="42.73677" lon="2.08537">
        <ele>854</ele>
        <time>2021-08-20T22:03:04Z</time>
      </trkpt>
      <trkpt lat="42.7367" lon="2.08539">
        <ele>851</ele>
        <time>2021-08-20T22:03:06Z</time>
      </trkpt>
      <trkpt lat="42.73657" lon="2.08532">
        <ele>850</ele>
        <time>2021-08-20T22:03:08Z</time>
      </trkpt>
      <trkpt lat="42.73626" lon="2.08524">
        <ele>848</ele>
        <time>2021-08-20T22:03:14Z</time>
      </trkpt>
      <trkpt lat="42.73608" lon="2.08531">
        <ele>844</ele>
        <time>2021-08-20T22:03:17Z</time>
      </trkpt>
      <trkpt lat="42.73589" lon="2.08541">
        <ele>840</ele>
        <time>2021-08-20T22:03:21Z</time>
      </trkpt>
      <trkpt lat="42.73572" lon="2.08539">
        <ele>840</ele>
        <time>2021-08-20T22:03:24Z</time>
      </trkpt>
      <trkpt lat="42.73555" lon="2.08528">
        <ele>842</ele>
        <time>2021-08-20T22:03:27Z</time>
      </trkpt>
      <trkpt lat="42.73538" lon="2.08519">
        <ele>844</ele>
        <time>2021-08-20T22:03:30Z</time>
      </trkpt>
      <trkpt lat="42.73524" lon="2.08521">
        <ele>844</ele>
        <time>2021-08-20T22:03:33Z</time>
      </trkpt>
      <trkpt lat="42.73515" lon="2.08527">
        <ele>843</ele>
        <time>2021-08-20T22:03:35Z</time>
      </trkpt>
      <trkpt lat="42.73511" lon="2.08532">
        <ele>843</ele>
        <time>2021-08-20T22:03:36Z</time>
      </trkpt>
      <trkpt lat="42.73511" lon="2.08541">
        <ele>841</ele>
        <time>2021-08-20T22:03:37Z</time>
      </trkpt>
      <trkpt lat="42.73515" lon="2.08546">
        <ele>840</ele>
        <time>2021-08-20T22:03:38Z</time>
      </trkpt>
      <trkpt lat="42.7353" lon="2.08554">
        <ele>839</ele>
        <time>2021-08-20T22:03:41Z</time>
      </trkpt>
      <trkpt lat="42.73582" lon="2.08577">
        <ele>833</ele>
        <time>2021-08-20T22:03:50Z</time>
      </trkpt>
      <trkpt lat="42.7363" lon="2.0859">
        <ele>834</ele>
        <time>2021-08-20T22:03:59Z</time>
      </trkpt>
      <trkpt lat="42.73667" lon="2.08604">
        <ele>832</ele>
        <time>2021-08-20T22:04:06Z</time>
      </trkpt>
      <trkpt lat="42.73701" lon="2.08642">
        <ele>831</ele>
        <time>2021-08-20T22:04:14Z</time>
      </trkpt>
      <trkpt lat="42.73784" lon="2.08692">
        <ele>827</ele>
        <time>2021-08-20T22:04:30Z</time>
      </trkpt>
      <trkpt lat="42.73809" lon="2.08716">
        <ele>821</ele>
        <time>2021-08-20T22:04:35Z</time>
      </trkpt>
      <trkpt lat="42.73826" lon="2.08726">
        <ele>817</ele>
        <time>2021-08-20T22:04:39Z</time>
      </trkpt>
      <trkpt lat="42.73842" lon="2.08728">
        <ele>815</ele>
        <time>2021-08-20T22:04:41Z</time>
      </trkpt>
      <trkpt lat="42.73865" lon="2.08725">
        <ele>815</ele>
        <time>2021-08-20T22:04:45Z</time>
      </trkpt>
      <trkpt lat="42.73903" lon="2.08707">
        <ele>819</ele>
        <time>2021-08-20T22:04:53Z</time>
      </trkpt>
      <trkpt lat="42.73926" lon="2.08698">
        <ele>820</ele>
        <time>2021-08-20T22:04:57Z</time>
      </trkpt>
      <trkpt lat="42.7394" lon="2.08698">
        <ele>819</ele>
        <time>2021-08-20T22:04:59Z</time>
      </trkpt>
      <trkpt lat="42.73957" lon="2.08709">
        <ele>816</ele>
        <time>2021-08-20T22:05:03Z</time>
      </trkpt>
      <trkpt lat="42.73977" lon="2.08731">
        <ele>811</ele>
        <time>2021-08-20T22:05:07Z</time>
      </trkpt>
      <trkpt lat="42.73995" lon="2.08742">
        <ele>808</ele>
        <time>2021-08-20T22:05:11Z</time>
      </trkpt>
      <trkpt lat="42.74014" lon="2.08748">
        <ele>805</ele>
        <time>2021-08-20T22:05:14Z</time>
      </trkpt>
      <trkpt lat="42.7404" lon="2.08719">
        <ele>810</ele>
        <time>2021-08-20T22:05:20Z</time>
      </trkpt>
      <trkpt lat="42.7406" lon="2.0871">
        <ele>812</ele>
        <time>2021-08-20T22:05:24Z</time>
      </trkpt>
      <trkpt lat="42.74093" lon="2.08701">
        <ele>814</ele>
        <time>2021-08-20T22:05:30Z</time>
      </trkpt>
      <trkpt lat="42.74123" lon="2.08707">
        <ele>812</ele>
        <time>2021-08-20T22:05:35Z</time>
      </trkpt>
      <trkpt lat="42.74171" lon="2.08741">
        <ele>800</ele>
        <time>2021-08-20T22:05:45Z</time>
      </trkpt>
      <trkpt lat="42.74195" lon="2.08771">
        <ele>801</ele>
        <time>2021-08-20T22:05:51Z</time>
      </trkpt>
      <trkpt lat="42.74202" lon="2.08776">
        <ele>802</ele>
        <time>2021-08-20T22:05:52Z</time>
      </trkpt>
      <trkpt lat="42.74212" lon="2.08775">
        <ele>801</ele>
        <time>2021-08-20T22:05:54Z</time>
      </trkpt>
      <trkpt lat="42.74226" lon="2.08764">
        <ele>797</ele>
        <time>2021-08-20T22:05:57Z</time>
      </trkpt>
      <trkpt lat="42.74238" lon="2.08741">
        <ele>793</ele>
        <time>2021-08-20T22:06:01Z</time>
      </trkpt>
      <trkpt lat="42.7425" lon="2.087">
        <ele>797</ele>
        <time>2021-08-20T22:06:06Z</time>
      </trkpt>
      <trkpt lat="42.74258" lon="2.08683">
        <ele>798</ele>
        <time>2021-08-20T22:06:09Z</time>
      </trkpt>
      <trkpt lat="42.74268" lon="2.08676">
        <ele>797</ele>
        <time>2021-08-20T22:06:11Z</time>
      </trkpt>
      <trkpt lat="42.74288" lon="2.08675">
        <ele>794</ele>
        <time>2021-08-20T22:06:15Z</time>
      </trkpt>
      <trkpt lat="42.74313" lon="2.08679">
        <ele>790</ele>
        <time>2021-08-20T22:06:19Z</time>
      </trkpt>
      <trkpt lat="42.74325" lon="2.08686">
        <ele>788</ele>
        <time>2021-08-20T22:06:21Z</time>
      </trkpt>
      <trkpt lat="42.74338" lon="2.08687">
        <ele>788</ele>
        <time>2021-08-20T22:06:24Z</time>
      </trkpt>
      <trkpt lat="42.74349" lon="2.08677">
        <ele>788</ele>
        <time>2021-08-20T22:06:26Z</time>
      </trkpt>
      <trkpt lat="42.74371" lon="2.08624">
        <ele>802</ele>
        <time>2021-08-20T22:06:34Z</time>
      </trkpt>
      <trkpt lat="42.74383" lon="2.08612">
        <ele>804</ele>
        <time>2021-08-20T22:06:37Z</time>
      </trkpt>
      <trkpt lat="42.74388" lon="2.08606">
        <ele>805</ele>
        <time>2021-08-20T22:06:38Z</time>
      </trkpt>
      <trkpt lat="42.74408" lon="2.08596">
        <ele>804</ele>
        <time>2021-08-20T22:06:42Z</time>
      </trkpt>
      <trkpt lat="42.74452" lon="2.08597">
        <ele>795</ele>
        <time>2021-08-20T22:06:49Z</time>
      </trkpt>
      <trkpt lat="42.74486" lon="2.08607">
        <ele>789</ele>
        <time>2021-08-20T22:06:56Z</time>
      </trkpt>
      <trkpt lat="42.74531" lon="2.08598">
        <ele>780</ele>
        <time>2021-08-20T22:07:04Z</time>
      </trkpt>
      <trkpt lat="42.74574" lon="2.08579">
        <ele>773</ele>
        <time>2021-08-20T22:07:12Z</time>
      </trkpt>
      <trkpt lat="42.74589" lon="2.08565">
        <ele>776</ele>
        <time>2021-08-20T22:07:15Z</time>
      </trkpt>
      <trkpt lat="42.74635" lon="2.08515">
        <ele>779</ele>
        <time>2021-08-20T22:07:25Z</time>
      </trkpt>
      <trkpt lat="42.74661" lon="2.08501">
        <ele>774</ele>
        <time>2021-08-20T22:07:30Z</time>
      </trkpt>
      <trkpt lat="42.74719" lon="2.08485">
        <ele>772</ele>
        <time>2021-08-20T22:07:41Z</time>
      </trkpt>
      <trkpt lat="42.74738" lon="2.08475">
        <ele>773</ele>
        <time>2021-08-20T22:07:45Z</time>
      </trkpt>
      <trkpt lat="42.74758" lon="2.08456">
        <ele>777</ele>
        <time>2021-08-20T22:07:49Z</time>
      </trkpt>
      <trkpt lat="42.74772" lon="2.08446">
        <ele>779</ele>
        <time>2021-08-20T22:07:52Z</time>
      </trkpt>
      <trkpt lat="42.74782" lon="2.08442">
        <ele>780</ele>
        <time>2021-08-20T22:07:54Z</time>
      </trkpt>
      <trkpt lat="42.74809" lon="2.08439">
        <ele>780</ele>
        <time>2021-08-20T22:07:58Z</time>
      </trkpt>
      <trkpt lat="42.74824" lon="2.08442">
        <ele>778</ele>
        <time>2021-08-20T22:08:01Z</time>
      </trkpt>
      <trkpt lat="42.74863" lon="2.08458">
        <ele>770</ele>
        <time>2021-08-20T22:08:08Z</time>
      </trkpt>
      <trkpt lat="42.7488" lon="2.08469">
        <ele>765</ele>
        <time>2021-08-20T22:08:12Z</time>
      </trkpt>
      <trkpt lat="42.74917" lon="2.08465">
        <ele>765</ele>
        <time>2021-08-20T22:08:18Z</time>
      </trkpt>
      <trkpt lat="42.74941" lon="2.08469">
        <ele>763</ele>
        <time>2021-08-20T22:08:23Z</time>
      </trkpt>
      <trkpt lat="42.74984" lon="2.08485">
        <ele>757</ele>
        <time>2021-08-20T22:08:31Z</time>
      </trkpt>
      <trkpt lat="42.74998" lon="2.08486">
        <ele>756</ele>
        <time>2021-08-20T22:08:33Z</time>
      </trkpt>
      <trkpt lat="42.75026" lon="2.08479">
        <ele>755</ele>
        <time>2021-08-20T22:08:38Z</time>
      </trkpt>
      <trkpt lat="42.75058" lon="2.08465">
        <ele>756</ele>
        <time>2021-08-20T22:08:44Z</time>
      </trkpt>
      <trkpt lat="42.7508" lon="2.08459">
        <ele>755</ele>
        <time>2021-08-20T22:08:48Z</time>
      </trkpt>
      <trkpt lat="42.75091" lon="2.08456">
        <ele>755</ele>
        <time>2021-08-20T22:08:50Z</time>
      </trkpt>
      <trkpt lat="42.75107" lon="2.08456">
        <ele>754</ele>
        <time>2021-08-20T22:08:53Z</time>
      </trkpt>
      <trkpt lat="42.75164" lon="2.08478">
        <ele>748</ele>
        <time>2021-08-20T22:09:03Z</time>
      </trkpt>
      <trkpt lat="42.75193" lon="2.0849">
        <ele>755</ele>
        <time>2021-08-20T22:09:09Z</time>
      </trkpt>
      <trkpt lat="42.75205" lon="2.085">
        <ele>756</ele>
        <time>2021-08-20T22:09:11Z</time>
      </trkpt>
      <trkpt lat="42.75223" lon="2.08524">
        <ele>757</ele>
        <time>2021-08-20T22:09:16Z</time>
      </trkpt>
      <trkpt lat="42.75241" lon="2.08568">
        <ele>749</ele>
        <time>2021-08-20T22:09:22Z</time>
      </trkpt>
      <trkpt lat="42.75249" lon="2.08584">
        <ele>746</ele>
        <time>2021-08-20T22:09:25Z</time>
      </trkpt>
      <trkpt lat="42.75287" lon="2.08608">
        <ele>752</ele>
        <time>2021-08-20T22:09:32Z</time>
      </trkpt>
      <trkpt lat="42.75299" lon="2.08621">
        <ele>751</ele>
        <time>2021-08-20T22:09:35Z</time>
      </trkpt>
      <trkpt lat="42.7531" lon="2.08628">
        <ele>751</ele>
        <time>2021-08-20T22:09:37Z</time>
      </trkpt>
      <trkpt lat="42.75337" lon="2.08639">
        <ele>751</ele>
        <time>2021-08-20T22:09:42Z</time>
      </trkpt>
      <trkpt lat="42.75368" lon="2.08655">
        <ele>744</ele>
        <time>2021-08-20T22:09:48Z</time>
      </trkpt>
      <trkpt lat="42.75381" lon="2.08658">
        <ele>743</ele>
        <time>2021-08-20T22:09:51Z</time>
      </trkpt>
      <trkpt lat="42.75436" lon="2.08649">
        <ele>746</ele>
        <time>2021-08-20T22:10:00Z</time>
      </trkpt>
      <trkpt lat="42.75453" lon="2.08641">
        <ele>750</ele>
        <time>2021-08-20T22:10:04Z</time>
      </trkpt>
      <trkpt lat="42.7548" lon="2.08614">
        <ele>762</ele>
        <time>2021-08-20T22:10:10Z</time>
      </trkpt>
      <trkpt lat="42.75493" lon="2.08606">
        <ele>765</ele>
        <time>2021-08-20T22:10:12Z</time>
      </trkpt>
      <trkpt lat="42.75514" lon="2.08602">
        <ele>766</ele>
        <time>2021-08-20T22:10:16Z</time>
      </trkpt>
      <trkpt lat="42.75579" lon="2.08605">
        <ele>763</ele>
        <time>2021-08-20T22:10:27Z</time>
      </trkpt>
      <trkpt lat="42.75606" lon="2.08611">
        <ele>766</ele>
        <time>2021-08-20T22:10:32Z</time>
      </trkpt>
      <trkpt lat="42.7562" lon="2.08618">
        <ele>766</ele>
        <time>2021-08-20T22:10:35Z</time>
      </trkpt>
      <trkpt lat="42.75641" lon="2.08641">
        <ele>757</ele>
        <time>2021-08-20T22:10:40Z</time>
      </trkpt>
      <trkpt lat="42.75668" lon="2.08653">
        <ele>751</ele>
        <time>2021-08-20T22:10:45Z</time>
      </trkpt>
      <trkpt lat="42.75717" lon="2.08686">
        <ele>753</ele>
        <time>2021-08-20T22:10:55Z</time>
      </trkpt>
      <trkpt lat="42.75784" lon="2.08756">
        <ele>731</ele>
        <time>2021-08-20T22:11:10Z</time>
      </trkpt>
      <trkpt lat="42.75794" lon="2.08761">
        <ele>731</ele>
        <time>2021-08-20T22:11:11Z</time>
      </trkpt>
      <trkpt lat="42.75808" lon="2.08762">
        <ele>730</ele>
        <time>2021-08-20T22:11:14Z</time>
      </trkpt>
      <trkpt lat="42.75894" lon="2.08753">
        <ele>726</ele>
        <time>2021-08-20T22:11:29Z</time>
      </trkpt>
      <trkpt lat="42.7591" lon="2.08749">
        <ele>726</ele>
        <time>2021-08-20T22:11:32Z</time>
      </trkpt>
      <trkpt lat="42.75936" lon="2.08724">
        <ele>731</ele>
        <time>2021-08-20T22:11:38Z</time>
      </trkpt>
      <trkpt lat="42.75953" lon="2.08715">
        <ele>733</ele>
        <time>2021-08-20T22:11:41Z</time>
      </trkpt>
      <trkpt lat="42.75978" lon="2.08718">
        <ele>731</ele>
        <time>2021-08-20T22:11:46Z</time>
      </trkpt>
      <trkpt lat="42.76017" lon="2.08742">
        <ele>729</ele>
        <time>2021-08-20T22:11:53Z</time>
      </trkpt>
      <trkpt lat="42.76044" lon="2.08748">
        <ele>736</ele>
        <time>2021-08-20T22:11:58Z</time>
      </trkpt>
      <trkpt lat="42.76053" lon="2.08755">
        <ele>739</ele>
        <time>2021-08-20T22:12:00Z</time>
      </trkpt>
      <trkpt lat="42.76056" lon="2.08765">
        <ele>739</ele>
        <time>2021-08-20T22:12:01Z</time>
      </trkpt>
      <trkpt lat="42.76057" lon="2.08781">
        <ele>739</ele>
        <time>2021-08-20T22:12:03Z</time>
      </trkpt>
      <trkpt lat="42.76052" lon="2.08802">
        <ele>736</ele>
        <time>2021-08-20T22:12:06Z</time>
      </trkpt>
      <trkpt lat="42.76029" lon="2.08846">
        <ele>726</ele>
        <time>2021-08-20T22:12:13Z</time>
      </trkpt>
      <trkpt lat="42.76027" lon="2.08866">
        <ele>725</ele>
        <time>2021-08-20T22:12:16Z</time>
      </trkpt>
      <trkpt lat="42.76032" lon="2.08883">
        <ele>724</ele>
        <time>2021-08-20T22:12:18Z</time>
      </trkpt>
      <trkpt lat="42.76041" lon="2.08895">
        <ele>723</ele>
        <time>2021-08-20T22:12:21Z</time>
      </trkpt>
      <trkpt lat="42.76057" lon="2.08901">
        <ele>722</ele>
        <time>2021-08-20T22:12:24Z</time>
      </trkpt>
      <trkpt lat="42.761" lon="2.089">
        <ele>728</ele>
        <time>2021-08-20T22:12:31Z</time>
      </trkpt>
      <trkpt lat="42.76125" lon="2.08904">
        <ele>735</ele>
        <time>2021-08-20T22:12:36Z</time>
      </trkpt>
      <trkpt lat="42.76152" lon="2.08914">
        <ele>740</ele>
        <time>2021-08-20T22:12:41Z</time>
      </trkpt>
      <trkpt lat="42.76168" lon="2.08927">
        <ele>741</ele>
        <time>2021-08-20T22:12:44Z</time>
      </trkpt>
      <trkpt lat="42.76181" lon="2.08944">
        <ele>741</ele>
        <time>2021-08-20T22:12:47Z</time>
      </trkpt>
      <trkpt lat="42.76191" lon="2.08959">
        <ele>740</ele>
        <time>2021-08-20T22:12:50Z</time>
      </trkpt>
      <trkpt lat="42.76197" lon="2.08978">
        <ele>735</ele>
        <time>2021-08-20T22:12:53Z</time>
      </trkpt>
      <trkpt lat="42.76202" lon="2.09023">
        <ele>725</ele>
        <time>2021-08-20T22:12:59Z</time>
      </trkpt>
      <trkpt lat="42.76207" lon="2.09047">
        <ele>722</ele>
        <time>2021-08-20T22:13:02Z</time>
      </trkpt>
      <trkpt lat="42.76216" lon="2.09065">
        <ele>718</ele>
        <time>2021-08-20T22:13:05Z</time>
      </trkpt>
      <trkpt lat="42.76229" lon="2.09076">
        <ele>714</ele>
        <time>2021-08-20T22:13:07Z</time>
      </trkpt>
      <trkpt lat="42.7628" lon="2.0909">
        <ele>724</ele>
        <time>2021-08-20T22:13:17Z</time>
      </trkpt>
      <trkpt lat="42.76303" lon="2.09102">
        <ele>732</ele>
        <time>2021-08-20T22:13:21Z</time>
      </trkpt>
      <trkpt lat="42.76323" lon="2.09116">
        <ele>734</ele>
        <time>2021-08-20T22:13:25Z</time>
      </trkpt>
      <trkpt lat="42.76352" lon="2.0913">
        <ele>740</ele>
        <time>2021-08-20T22:13:30Z</time>
      </trkpt>
      <trkpt lat="42.76373" lon="2.0915">
        <ele>739</ele>
        <time>2021-08-20T22:13:35Z</time>
      </trkpt>
      <trkpt lat="42.76395" lon="2.09194">
        <ele>733</ele>
        <time>2021-08-20T22:13:42Z</time>
      </trkpt>
      <trkpt lat="42.76404" lon="2.09222">
        <ele>728</ele>
        <time>2021-08-20T22:13:46Z</time>
      </trkpt>
      <trkpt lat="42.76408" lon="2.09247">
        <ele>721</ele>
        <time>2021-08-20T22:13:49Z</time>
      </trkpt>
      <trkpt lat="42.76431" lon="2.09433">
        <ele>708</ele>
        <time>2021-08-20T22:14:14Z</time>
      </trkpt>
      <trkpt lat="42.76432" lon="2.09497">
        <ele>705</ele>
        <time>2021-08-20T22:14:22Z</time>
      </trkpt>
      <trkpt lat="42.76436" lon="2.09514">
        <ele>706</ele>
        <time>2021-08-20T22:14:25Z</time>
      </trkpt>
      <trkpt lat="42.76448" lon="2.09527">
        <ele>707</ele>
        <time>2021-08-20T22:14:27Z</time>
      </trkpt>
      <trkpt lat="42.76461" lon="2.09535">
        <ele>709</ele>
        <time>2021-08-20T22:14:30Z</time>
      </trkpt>
      <trkpt lat="42.76498" lon="2.09551">
        <ele>708</ele>
        <time>2021-08-20T22:14:37Z</time>
      </trkpt>
      <trkpt lat="42.76514" lon="2.0956">
        <ele>715</ele>
        <time>2021-08-20T22:14:40Z</time>
      </trkpt>
      <trkpt lat="42.76524" lon="2.09572">
        <ele>719</ele>
        <time>2021-08-20T22:14:42Z</time>
      </trkpt>
      <trkpt lat="42.76529" lon="2.09584">
        <ele>718</ele>
        <time>2021-08-20T22:14:44Z</time>
      </trkpt>
      <trkpt lat="42.76532" lon="2.09603">
        <ele>718</ele>
        <time>2021-08-20T22:14:47Z</time>
      </trkpt>
      <trkpt lat="42.76533" lon="2.0964">
        <ele>714</ele>
        <time>2021-08-20T22:14:51Z</time>
      </trkpt>
      <trkpt lat="42.7653" lon="2.09676">
        <ele>709</ele>
        <time>2021-08-20T22:14:56Z</time>
      </trkpt>
      <trkpt lat="42.76519" lon="2.09732">
        <ele>704</ele>
        <time>2021-08-20T22:15:04Z</time>
      </trkpt>
      <trkpt lat="42.76518" lon="2.09766">
        <ele>703</ele>
        <time>2021-08-20T22:15:08Z</time>
      </trkpt>
      <trkpt lat="42.76526" lon="2.0979">
        <ele>704</ele>
        <time>2021-08-20T22:15:12Z</time>
      </trkpt>
      <trkpt lat="42.7658" lon="2.09879">
        <ele>708</ele>
        <time>2021-08-20T22:15:27Z</time>
      </trkpt>
      <trkpt lat="42.76585" lon="2.09897">
        <ele>706</ele>
        <time>2021-08-20T22:15:29Z</time>
      </trkpt>
      <trkpt lat="42.76587" lon="2.09926">
        <ele>703</ele>
        <time>2021-08-20T22:15:33Z</time>
      </trkpt>
      <trkpt lat="42.76585" lon="2.0997">
        <ele>695</ele>
        <time>2021-08-20T22:15:39Z</time>
      </trkpt>
      <trkpt lat="42.7658" lon="2.1004">
        <ele>686</ele>
        <time>2021-08-20T22:15:48Z</time>
      </trkpt>
      <trkpt lat="42.76582" lon="2.10069">
        <ele>681</ele>
        <time>2021-08-20T22:15:52Z</time>
      </trkpt>
      <trkpt lat="42.76584" lon="2.10081">
        <ele>680</ele>
        <time>2021-08-20T22:15:53Z</time>
      </trkpt>
      <trkpt lat="42.76597" lon="2.10113">
        <ele>686</ele>
        <time>2021-08-20T22:15:58Z</time>
      </trkpt>
      <trkpt lat="42.76647" lon="2.10186">
        <ele>696</ele>
        <time>2021-08-20T22:16:11Z</time>
      </trkpt>
      <trkpt lat="42.76668" lon="2.10244">
        <ele>688</ele>
        <time>2021-08-20T22:16:20Z</time>
      </trkpt>
      <trkpt lat="42.7667" lon="2.10264">
        <ele>686</ele>
        <time>2021-08-20T22:16:22Z</time>
      </trkpt>
      <trkpt lat="42.76665" lon="2.10325">
        <ele>679</ele>
        <time>2021-08-20T22:16:30Z</time>
      </trkpt>
      <trkpt lat="42.76671" lon="2.10356">
        <ele>677</ele>
        <time>2021-08-20T22:16:35Z</time>
      </trkpt>
      <trkpt lat="42.7668" lon="2.10368">
        <ele>678</ele>
        <time>2021-08-20T22:16:37Z</time>
      </trkpt>
      <trkpt lat="42.76743" lon="2.10379">
        <ele>685</ele>
        <time>2021-08-20T22:16:48Z</time>
      </trkpt>
      <trkpt lat="42.76755" lon="2.10391">
        <ele>685</ele>
        <time>2021-08-20T22:16:51Z</time>
      </trkpt>
      <trkpt lat="42.76762" lon="2.10403">
        <ele>686</ele>
        <time>2021-08-20T22:16:53Z</time>
      </trkpt>
      <trkpt lat="42.76767" lon="2.10421">
        <ele>684</ele>
        <time>2021-08-20T22:16:55Z</time>
      </trkpt>
      <trkpt lat="42.7677" lon="2.10447">
        <ele>682</ele>
        <time>2021-08-20T22:16:59Z</time>
      </trkpt>
      <trkpt lat="42.76767" lon="2.10473">
        <ele>676</ele>
        <time>2021-08-20T22:17:02Z</time>
      </trkpt>
      <trkpt lat="42.76757" lon="2.10531">
        <ele>666</ele>
        <time>2021-08-20T22:17:10Z</time>
      </trkpt>
      <trkpt lat="42.7676" lon="2.10546">
        <ele>667</ele>
        <time>2021-08-20T22:17:12Z</time>
      </trkpt>
      <trkpt lat="42.76765" lon="2.10558">
        <ele>668</ele>
        <time>2021-08-20T22:17:14Z</time>
      </trkpt>
      <trkpt lat="42.76777" lon="2.10568">
        <ele>671</ele>
        <time>2021-08-20T22:17:16Z</time>
      </trkpt>
      <trkpt lat="42.76839" lon="2.10609">
        <ele>683</ele>
        <time>2021-08-20T22:17:28Z</time>
      </trkpt>
      <trkpt lat="42.76853" lon="2.10623">
        <ele>691</ele>
        <time>2021-08-20T22:17:32Z</time>
      </trkpt>
      <trkpt lat="42.76862" lon="2.10636">
        <ele>697</ele>
        <time>2021-08-20T22:17:34Z</time>
      </trkpt>
      <trkpt lat="42.7687" lon="2.10655">
        <ele>700</ele>
        <time>2021-08-20T22:17:37Z</time>
      </trkpt>
      <trkpt lat="42.76894" lon="2.10782">
        <ele>690</ele>
        <time>2021-08-20T22:17:54Z</time>
      </trkpt>
      <trkpt lat="42.76893" lon="2.10797">
        <ele>689</ele>
        <time>2021-08-20T22:17:56Z</time>
      </trkpt>
      <trkpt lat="42.76887" lon="2.1082">
        <ele>689</ele>
        <time>2021-08-20T22:17:59Z</time>
      </trkpt>
      <trkpt lat="42.76885" lon="2.10864">
        <ele>692</ele>
        <time>2021-08-20T22:18:05Z</time>
      </trkpt>
      <trkpt lat="42.76894" lon="2.10913">
        <ele>690</ele>
        <time>2021-08-20T22:18:11Z</time>
      </trkpt>
      <trkpt lat="42.76902" lon="2.10941">
        <ele>685</ele>
        <time>2021-08-20T22:18:15Z</time>
      </trkpt>
      <trkpt lat="42.76922" lon="2.11041">
        <ele>675</ele>
        <time>2021-08-20T22:18:29Z</time>
      </trkpt>
      <trkpt lat="42.76933" lon="2.1112">
        <ele>673</ele>
        <time>2021-08-20T22:18:39Z</time>
      </trkpt>
      <trkpt lat="42.7695" lon="2.11173">
        <ele>669</ele>
        <time>2021-08-20T22:18:47Z</time>
      </trkpt>
      <trkpt lat="42.76977" lon="2.11219">
        <ele>662</ele>
        <time>2021-08-20T22:18:55Z</time>
      </trkpt>
      <trkpt lat="42.76992" lon="2.11253">
        <ele>654</ele>
        <time>2021-08-20T22:19:00Z</time>
      </trkpt>
      <trkpt lat="42.77005" lon="2.11287">
        <ele>654</ele>
        <time>2021-08-20T22:19:05Z</time>
      </trkpt>
      <trkpt lat="42.77008" lon="2.11302">
        <ele>656</ele>
        <time>2021-08-20T22:19:07Z</time>
      </trkpt>
      <trkpt lat="42.77003" lon="2.11328">
        <ele>654</ele>
        <time>2021-08-20T22:19:10Z</time>
      </trkpt>
      <trkpt lat="42.76983" lon="2.11354">
        <ele>657</ele>
        <time>2021-08-20T22:19:15Z</time>
      </trkpt>
      <trkpt lat="42.76941" lon="2.11397">
        <ele>662</ele>
        <time>2021-08-20T22:19:25Z</time>
      </trkpt>
      <trkpt lat="42.76936" lon="2.11408">
        <ele>661</ele>
        <time>2021-08-20T22:19:26Z</time>
      </trkpt>
      <trkpt lat="42.76934" lon="2.11416">
        <ele>660</ele>
        <time>2021-08-20T22:19:27Z</time>
      </trkpt>
      <trkpt lat="42.76936" lon="2.11437">
        <ele>659</ele>
        <time>2021-08-20T22:19:30Z</time>
      </trkpt>
      <trkpt lat="42.76949" lon="2.11464">
        <ele>658</ele>
        <time>2021-08-20T22:19:34Z</time>
      </trkpt>
      <trkpt lat="42.76973" lon="2.11499">
        <ele>655</ele>
        <time>2021-08-20T22:19:41Z</time>
      </trkpt>
      <trkpt lat="42.76983" lon="2.11522">
        <ele>654</ele>
        <time>2021-08-20T22:19:44Z</time>
      </trkpt>
      <trkpt lat="42.76989" lon="2.11543">
        <ele>653</ele>
        <time>2021-08-20T22:19:47Z</time>
      </trkpt>
      <trkpt lat="42.76992" lon="2.11581">
        <ele>652</ele>
        <time>2021-08-20T22:19:52Z</time>
      </trkpt>
      <trkpt lat="42.76981" lon="2.11695">
        <ele>649</ele>
        <time>2021-08-20T22:20:07Z</time>
      </trkpt>
      <trkpt lat="42.76983" lon="2.11714">
        <ele>648</ele>
        <time>2021-08-20T22:20:10Z</time>
      </trkpt>
      <trkpt lat="42.76993" lon="2.11737">
        <ele>642</ele>
        <time>2021-08-20T22:20:13Z</time>
      </trkpt>
      <trkpt lat="42.77009" lon="2.11754">
        <ele>641</ele>
        <time>2021-08-20T22:20:17Z</time>
      </trkpt>
      <trkpt lat="42.77052" lon="2.11782">
        <ele>653</ele>
        <time>2021-08-20T22:20:25Z</time>
      </trkpt>
      <trkpt lat="42.77066" lon="2.11795">
        <ele>655</ele>
        <time>2021-08-20T22:20:28Z</time>
      </trkpt>
      <trkpt lat="42.77079" lon="2.11822">
        <ele>651</ele>
        <time>2021-08-20T22:20:32Z</time>
      </trkpt>
      <trkpt lat="42.7708" lon="2.11843">
        <ele>649</ele>
        <time>2021-08-20T22:20:35Z</time>
      </trkpt>
      <trkpt lat="42.77077" lon="2.11868">
        <ele>649</ele>
        <time>2021-08-20T22:20:38Z</time>
      </trkpt>
      <trkpt lat="42.77071" lon="2.1189">
        <ele>649</ele>
        <time>2021-08-20T22:20:42Z</time>
      </trkpt>
      <trkpt lat="42.77038" lon="2.11944">
        <ele>650</ele>
        <time>2021-08-20T22:20:51Z</time>
      </trkpt>
      <trkpt lat="42.77035" lon="2.11954">
        <ele>649</ele>
        <time>2021-08-20T22:20:52Z</time>
      </trkpt>
      <trkpt lat="42.77035" lon="2.11964">
        <ele>648</ele>
        <time>2021-08-20T22:20:53Z</time>
      </trkpt>
      <trkpt lat="42.77039" lon="2.11977">
        <ele>646</ele>
        <time>2021-08-20T22:20:55Z</time>
      </trkpt>
      <trkpt lat="42.77046" lon="2.11987">
        <ele>644</ele>
        <time>2021-08-20T22:20:57Z</time>
      </trkpt>
      <trkpt lat="42.77097" lon="2.12029">
        <ele>642</ele>
        <time>2021-08-20T22:21:08Z</time>
      </trkpt>
      <trkpt lat="42.77109" lon="2.12046">
        <ele>646</ele>
        <time>2021-08-20T22:21:11Z</time>
      </trkpt>
      <trkpt lat="42.77117" lon="2.12071">
        <ele>647</ele>
        <time>2021-08-20T22:21:14Z</time>
      </trkpt>
      <trkpt lat="42.77118" lon="2.12095">
        <ele>646</ele>
        <time>2021-08-20T22:21:17Z</time>
      </trkpt>
      <trkpt lat="42.77116" lon="2.12131">
        <ele>646</ele>
        <time>2021-08-20T22:21:22Z</time>
      </trkpt>
      <trkpt lat="42.77107" lon="2.12163">
        <ele>644</ele>
        <time>2021-08-20T22:21:27Z</time>
      </trkpt>
      <trkpt lat="42.77083" lon="2.12228">
        <ele>638</ele>
        <time>2021-08-20T22:21:36Z</time>
      </trkpt>
      <trkpt lat="42.77078" lon="2.12246">
        <ele>641</ele>
        <time>2021-08-20T22:21:39Z</time>
      </trkpt>
      <trkpt lat="42.77078" lon="2.12259">
        <ele>641</ele>
        <time>2021-08-20T22:21:40Z</time>
      </trkpt>
      <trkpt lat="42.77087" lon="2.12317">
        <ele>640</ele>
        <time>2021-08-20T22:21:48Z</time>
      </trkpt>
      <trkpt lat="42.77103" lon="2.12401">
        <ele>645</ele>
        <time>2021-08-20T22:21:59Z</time>
      </trkpt>
      <trkpt lat="42.77114" lon="2.1247">
        <ele>643</ele>
        <time>2021-08-20T22:22:09Z</time>
      </trkpt>
      <trkpt lat="42.77131" lon="2.12546">
        <ele>641</ele>
        <time>2021-08-20T22:22:19Z</time>
      </trkpt>
      <trkpt lat="42.77147" lon="2.12601">
        <ele>635</ele>
        <time>2021-08-20T22:22:27Z</time>
      </trkpt>
      <trkpt lat="42.77166" lon="2.12659">
        <ele>624</ele>
        <time>2021-08-20T22:22:35Z</time>
      </trkpt>
      <trkpt lat="42.7718" lon="2.12713">
        <ele>628</ele>
        <time>2021-08-20T22:22:43Z</time>
      </trkpt>
      <trkpt lat="42.77186" lon="2.12756">
        <ele>627</ele>
        <time>2021-08-20T22:22:48Z</time>
      </trkpt>
      <trkpt lat="42.77197" lon="2.12883">
        <ele>629</ele>
        <time>2021-08-20T22:23:05Z</time>
      </trkpt>
      <trkpt lat="42.77227" lon="2.13061">
        <ele>624</ele>
        <time>2021-08-20T22:23:29Z</time>
      </trkpt>
      <trkpt lat="42.77234" lon="2.13092">
        <ele>618</ele>
        <time>2021-08-20T22:23:33Z</time>
      </trkpt>
      <trkpt lat="42.77241" lon="2.13112">
        <ele>614</ele>
        <time>2021-08-20T22:23:36Z</time>
      </trkpt>
      <trkpt lat="42.7725" lon="2.13131">
        <ele>608</ele>
        <time>2021-08-20T22:23:39Z</time>
      </trkpt>
      <trkpt lat="42.77314" lon="2.13206">
        <ele>612</ele>
        <time>2021-08-20T22:23:54Z</time>
      </trkpt>
      <trkpt lat="42.77375" lon="2.13283">
        <ele>610</ele>
        <time>2021-08-20T22:24:09Z</time>
      </trkpt>
      <trkpt lat="42.77427" lon="2.13354">
        <ele>608</ele>
        <time>2021-08-20T22:24:22Z</time>
      </trkpt>
      <trkpt lat="42.77437" lon="2.13374">
        <ele>611</ele>
        <time>2021-08-20T22:24:25Z</time>
      </trkpt>
      <trkpt lat="42.77442" lon="2.13392">
        <ele>611</ele>
        <time>2021-08-20T22:24:27Z</time>
      </trkpt>
      <trkpt lat="42.77445" lon="2.13422">
        <ele>609</ele>
        <time>2021-08-20T22:24:31Z</time>
      </trkpt>
      <trkpt lat="42.77444" lon="2.13511">
        <ele>611</ele>
        <time>2021-08-20T22:24:43Z</time>
      </trkpt>
      <trkpt lat="42.77439" lon="2.1355">
        <ele>610</ele>
        <time>2021-08-20T22:24:48Z</time>
      </trkpt>
      <trkpt lat="42.77432" lon="2.13589">
        <ele>608</ele>
        <time>2021-08-20T22:24:53Z</time>
      </trkpt>
      <trkpt lat="42.77419" lon="2.13639">
        <ele>605</ele>
        <time>2021-08-20T22:25:00Z</time>
      </trkpt>
      <trkpt lat="42.77407" lon="2.13665">
        <ele>609</ele>
        <time>2021-08-20T22:25:04Z</time>
      </trkpt>
      <trkpt lat="42.77382" lon="2.13702">
        <ele>619</ele>
        <time>2021-08-20T22:25:11Z</time>
      </trkpt>
      <trkpt lat="42.77374" lon="2.13724">
        <ele>622</ele>
        <time>2021-08-20T22:25:14Z</time>
      </trkpt>
      <trkpt lat="42.77372" lon="2.13738">
        <ele>622</ele>
        <time>2021-08-20T22:25:16Z</time>
      </trkpt>
      <trkpt lat="42.77374" lon="2.13757">
        <ele>622</ele>
        <time>2021-08-20T22:25:19Z</time>
      </trkpt>
      <trkpt lat="42.77377" lon="2.13772">
        <ele>621</ele>
        <time>2021-08-20T22:25:21Z</time>
      </trkpt>
      <trkpt lat="42.77397" lon="2.13819">
        <ele>613</ele>
        <time>2021-08-20T22:25:28Z</time>
      </trkpt>
      <trkpt lat="42.77419" lon="2.13857">
        <ele>606</ele>
        <time>2021-08-20T22:25:34Z</time>
      </trkpt>
      <trkpt lat="42.77427" lon="2.13889">
        <ele>606</ele>
        <time>2021-08-20T22:25:38Z</time>
      </trkpt>
      <trkpt lat="42.77437" lon="2.1396">
        <ele>603</ele>
        <time>2021-08-20T22:25:48Z</time>
      </trkpt>
      <trkpt lat="42.77457" lon="2.14081">
        <ele>606</ele>
        <time>2021-08-20T22:26:04Z</time>
      </trkpt>
      <trkpt lat="42.77466" lon="2.14105">
        <ele>606</ele>
        <time>2021-08-20T22:26:08Z</time>
      </trkpt>
      <trkpt lat="42.77497" lon="2.14144">
        <ele>602</ele>
        <time>2021-08-20T22:26:15Z</time>
      </trkpt>
      <trkpt lat="42.77505" lon="2.14161">
        <ele>603</ele>
        <time>2021-08-20T22:26:18Z</time>
      </trkpt>
      <trkpt lat="42.77509" lon="2.14178">
        <ele>605</ele>
        <time>2021-08-20T22:26:20Z</time>
      </trkpt>
      <trkpt lat="42.77512" lon="2.14201">
        <ele>606</ele>
        <time>2021-08-20T22:26:23Z</time>
      </trkpt>
      <trkpt lat="42.7751" lon="2.1422">
        <ele>605</ele>
        <time>2021-08-20T22:26:26Z</time>
      </trkpt>
      <trkpt lat="42.77507" lon="2.14237">
        <ele>603</ele>
        <time>2021-08-20T22:26:28Z</time>
      </trkpt>
      <trkpt lat="42.77498" lon="2.1425">
        <ele>600</ele>
        <time>2021-08-20T22:26:30Z</time>
      </trkpt>
      <trkpt lat="42.77462" lon="2.14282">
        <ele>607</ele>
        <time>2021-08-20T22:26:38Z</time>
      </trkpt>
      <trkpt lat="42.77457" lon="2.14299">
        <ele>606</ele>
        <time>2021-08-20T22:26:40Z</time>
      </trkpt>
      <trkpt lat="42.77456" lon="2.14316">
        <ele>605</ele>
        <time>2021-08-20T22:26:43Z</time>
      </trkpt>
      <trkpt lat="42.7746" lon="2.14329">
        <ele>604</ele>
        <time>2021-08-20T22:26:44Z</time>
      </trkpt>
      <trkpt lat="42.77478" lon="2.14349">
        <ele>601</ele>
        <time>2021-08-20T22:26:48Z</time>
      </trkpt>
      <trkpt lat="42.77487" lon="2.14365">
        <ele>599</ele>
        <time>2021-08-20T22:26:51Z</time>
      </trkpt>
      <trkpt lat="42.7749" lon="2.14379">
        <ele>598</ele>
        <time>2021-08-20T22:26:53Z</time>
      </trkpt>
      <trkpt lat="42.7749" lon="2.14398">
        <ele>597</ele>
        <time>2021-08-20T22:26:55Z</time>
      </trkpt>
      <trkpt lat="42.77485" lon="2.14417">
        <ele>598</ele>
        <time>2021-08-20T22:26:58Z</time>
      </trkpt>
      <trkpt lat="42.77462" lon="2.14459">
        <ele>607</ele>
        <time>2021-08-20T22:27:05Z</time>
      </trkpt>
      <trkpt lat="42.7745" lon="2.1449">
        <ele>609</ele>
        <time>2021-08-20T22:27:10Z</time>
      </trkpt>
      <trkpt lat="42.7744" lon="2.14523">
        <ele>612</ele>
        <time>2021-08-20T22:27:14Z</time>
      </trkpt>
      <trkpt lat="42.77425" lon="2.14589">
        <ele>613</ele>
        <time>2021-08-20T22:27:23Z</time>
      </trkpt>
      <trkpt lat="42.77404" lon="2.14652">
        <ele>620</ele>
        <time>2021-08-20T22:27:32Z</time>
      </trkpt>
      <trkpt lat="42.77393" lon="2.14706">
        <ele>619</ele>
        <time>2021-08-20T22:27:40Z</time>
      </trkpt>
      <trkpt lat="42.7739" lon="2.14756">
        <ele>616</ele>
        <time>2021-08-20T22:27:46Z</time>
      </trkpt>
      <trkpt lat="42.77392" lon="2.14775">
        <ele>616</ele>
        <time>2021-08-20T22:27:49Z</time>
      </trkpt>
      <trkpt lat="42.77397" lon="2.14788">
        <ele>613</ele>
        <time>2021-08-20T22:27:51Z</time>
      </trkpt>
      <trkpt lat="42.77402" lon="2.14794">
        <ele>610</ele>
        <time>2021-08-20T22:27:52Z</time>
      </trkpt>
      <trkpt lat="42.77416" lon="2.14801">
        <ele>600</ele>
        <time>2021-08-20T22:27:54Z</time>
      </trkpt>
      <trkpt lat="42.7743" lon="2.14804">
        <ele>598</ele>
        <time>2021-08-20T22:27:57Z</time>
      </trkpt>
      <trkpt lat="42.77484" lon="2.14803">
        <ele>594</ele>
        <time>2021-08-20T22:28:07Z</time>
      </trkpt>
      <trkpt lat="42.77513" lon="2.14807">
        <ele>591</ele>
        <time>2021-08-20T22:28:12Z</time>
      </trkpt>
      <trkpt lat="42.77536" lon="2.14814">
        <ele>589</ele>
        <time>2021-08-20T22:28:16Z</time>
      </trkpt>
      <trkpt lat="42.77549" lon="2.14826">
        <ele>586</ele>
        <time>2021-08-20T22:28:19Z</time>
      </trkpt>
      <trkpt lat="42.77588" lon="2.14879">
        <ele>579</ele>
        <time>2021-08-20T22:28:29Z</time>
      </trkpt>
      <trkpt lat="42.77596" lon="2.14894">
        <ele>579</ele>
        <time>2021-08-20T22:28:31Z</time>
      </trkpt>
      <trkpt lat="42.77599" lon="2.1491">
        <ele>578</ele>
        <time>2021-08-20T22:28:33Z</time>
      </trkpt>
      <trkpt lat="42.77602" lon="2.15002">
        <ele>573</ele>
        <time>2021-08-20T22:28:45Z</time>
      </trkpt>
      <trkpt lat="42.77617" lon="2.15138">
        <ele>572</ele>
        <time>2021-08-20T22:29:03Z</time>
      </trkpt>
      <trkpt lat="42.77618" lon="2.15219">
        <ele>570</ele>
        <time>2021-08-20T22:29:14Z</time>
      </trkpt>
      <trkpt lat="42.77613" lon="2.15291">
        <ele>565</ele>
        <time>2021-08-20T22:29:23Z</time>
      </trkpt>
      <trkpt lat="42.77613" lon="2.15316">
        <ele>563</ele>
        <time>2021-08-20T22:29:26Z</time>
      </trkpt>
      <trkpt lat="42.77615" lon="2.15335">
        <ele>563</ele>
        <time>2021-08-20T22:29:29Z</time>
      </trkpt>
      <trkpt lat="42.77626" lon="2.15403">
        <ele>564</ele>
        <time>2021-08-20T22:29:38Z</time>
      </trkpt>
      <trkpt lat="42.77634" lon="2.15437">
        <ele>565</ele>
        <time>2021-08-20T22:29:43Z</time>
      </trkpt>
      <trkpt lat="42.77652" lon="2.15483">
        <ele>565</ele>
        <time>2021-08-20T22:29:49Z</time>
      </trkpt>
      <trkpt lat="42.77666" lon="2.15532">
        <ele>561</ele>
        <time>2021-08-20T22:29:56Z</time>
      </trkpt>
      <trkpt lat="42.77672" lon="2.15559">
        <ele>561</ele>
        <time>2021-08-20T22:30:00Z</time>
      </trkpt>
      <trkpt lat="42.77672" lon="2.15579">
        <ele>559</ele>
        <time>2021-08-20T22:30:03Z</time>
      </trkpt>
      <trkpt lat="42.77644" lon="2.15729">
        <ele>552</ele>
        <time>2021-08-20T22:30:23Z</time>
      </trkpt>
      <trkpt lat="42.77639" lon="2.15771">
        <ele>552</ele>
        <time>2021-08-20T22:30:28Z</time>
      </trkpt>
      <trkpt lat="42.7763" lon="2.15807">
        <ele>550</ele>
        <time>2021-08-20T22:30:33Z</time>
      </trkpt>
      <trkpt lat="42.77585" lon="2.15908">
        <ele>546</ele>
        <time>2021-08-20T22:30:49Z</time>
      </trkpt>
      <trkpt lat="42.77575" lon="2.15935">
        <ele>546</ele>
        <time>2021-08-20T22:30:53Z</time>
      </trkpt>
      <trkpt lat="42.77561" lon="2.15994">
        <ele>545</ele>
        <time>2021-08-20T22:31:01Z</time>
      </trkpt>
      <trkpt lat="42.77513" lon="2.16236">
        <ele>541</ele>
        <time>2021-08-20T22:31:34Z</time>
      </trkpt>
      <trkpt lat="42.77515" lon="2.16267">
        <ele>542</ele>
        <time>2021-08-20T22:31:38Z</time>
      </trkpt>
      <trkpt lat="42.77524" lon="2.16295">
        <ele>544</ele>
        <time>2021-08-20T22:31:42Z</time>
      </trkpt>
      <trkpt lat="42.77549" lon="2.16348">
        <ele>550</ele>
        <time>2021-08-20T22:31:50Z</time>
      </trkpt>
      <trkpt lat="42.77554" lon="2.16371">
        <ele>553</ele>
        <time>2021-08-20T22:31:53Z</time>
      </trkpt>
      <trkpt lat="42.77553" lon="2.16403">
        <ele>556</ele>
        <time>2021-08-20T22:31:57Z</time>
      </trkpt>
      <trkpt lat="42.77546" lon="2.1645">
        <ele>558</ele>
        <time>2021-08-20T22:32:03Z</time>
      </trkpt>
      <trkpt lat="42.77513" lon="2.16562">
        <ele>553</ele>
        <time>2021-08-20T22:32:19Z</time>
      </trkpt>
      <trkpt lat="42.77492" lon="2.16622">
        <ele>549</ele>
        <time>2021-08-20T22:32:28Z</time>
      </trkpt>
      <trkpt lat="42.7746" lon="2.16691">
        <ele>548</ele>
        <time>2021-08-20T22:32:39Z</time>
      </trkpt>
      <trkpt lat="42.77448" lon="2.16706">
        <ele>546</ele>
        <time>2021-08-20T22:32:41Z</time>
      </trkpt>
      <trkpt lat="42.77415" lon="2.16732">
        <ele>538</ele>
        <time>2021-08-20T22:32:48Z</time>
      </trkpt>
      <trkpt lat="42.77406" lon="2.16745">
        <ele>539</ele>
        <time>2021-08-20T22:32:51Z</time>
      </trkpt>
      <trkpt lat="42.77402" lon="2.16756">
        <ele>539</ele>
        <time>2021-08-20T22:32:52Z</time>
      </trkpt>
      <trkpt lat="42.7739" lon="2.16812">
        <ele>542</ele>
        <time>2021-08-20T22:33:00Z</time>
      </trkpt>
      <trkpt lat="42.77371" lon="2.16859">
        <ele>542</ele>
        <time>2021-08-20T22:33:07Z</time>
      </trkpt>
      <trkpt lat="42.77368" lon="2.16871">
        <ele>542</ele>
        <time>2021-08-20T22:33:08Z</time>
      </trkpt>
      <trkpt lat="42.77368" lon="2.16893">
        <ele>542</ele>
        <time>2021-08-20T22:33:11Z</time>
      </trkpt>
      <trkpt lat="42.77371" lon="2.16904">
        <ele>543</ele>
        <time>2021-08-20T22:33:13Z</time>
      </trkpt>
      <trkpt lat="42.77385" lon="2.16936">
        <ele>546</ele>
        <time>2021-08-20T22:33:18Z</time>
      </trkpt>
      <trkpt lat="42.7739" lon="2.16954">
        <ele>549</ele>
        <time>2021-08-20T22:33:20Z</time>
      </trkpt>
      <trkpt lat="42.7739" lon="2.17008">
        <ele>554</ele>
        <time>2021-08-20T22:33:27Z</time>
      </trkpt>
      <trkpt lat="42.77391" lon="2.17051">
        <ele>558</ele>
        <time>2021-08-20T22:33:33Z</time>
      </trkpt>
      <trkpt lat="42.7739" lon="2.17077">
        <ele>560</ele>
        <time>2021-08-20T22:33:36Z</time>
      </trkpt>
      <trkpt lat="42.7737" lon="2.17176">
        <ele>563</ele>
        <time>2021-08-20T22:33:50Z</time>
      </trkpt>
      <trkpt lat="42.77367" lon="2.17204">
        <ele>560</ele>
        <time>2021-08-20T22:33:53Z</time>
      </trkpt>
      <trkpt lat="42.7736" lon="2.17284">
        <ele>555</ele>
        <time>2021-08-20T22:34:04Z</time>
      </trkpt>
      <trkpt lat="42.77356" lon="2.17302">
        <ele>553</ele>
        <time>2021-08-20T22:34:06Z</time>
      </trkpt>
      <trkpt lat="42.7734" lon="2.17342">
        <ele>545</ele>
        <time>2021-08-20T22:34:12Z</time>
      </trkpt>
      <trkpt lat="42.77321" lon="2.17381">
        <ele>545</ele>
        <time>2021-08-20T22:34:18Z</time>
      </trkpt>
      <trkpt lat="42.77314" lon="2.17402">
        <ele>547</ele>
        <time>2021-08-20T22:34:21Z</time>
      </trkpt>
      <trkpt lat="42.77313" lon="2.17421">
        <ele>546</ele>
        <time>2021-08-20T22:34:24Z</time>
      </trkpt>
      <trkpt lat="42.77318" lon="2.17441">
        <ele>544</ele>
        <time>2021-08-20T22:34:27Z</time>
      </trkpt>
      <trkpt lat="42.77326" lon="2.1745">
        <ele>540</ele>
        <time>2021-08-20T22:34:29Z</time>
      </trkpt>
      <trkpt lat="42.77397" lon="2.1748">
        <ele>548</ele>
        <time>2021-08-20T22:34:42Z</time>
      </trkpt>
      <trkpt lat="42.77422" lon="2.17493">
        <ele>549</ele>
        <time>2021-08-20T22:34:47Z</time>
      </trkpt>
      <trkpt lat="42.77453" lon="2.17524">
        <ele>558</ele>
        <time>2021-08-20T22:34:53Z</time>
      </trkpt>
      <trkpt lat="42.77464" lon="2.17538">
        <ele>560</ele>
        <time>2021-08-20T22:34:56Z</time>
      </trkpt>
      <trkpt lat="42.77468" lon="2.17555">
        <ele>559</ele>
        <time>2021-08-20T22:34:58Z</time>
      </trkpt>
      <trkpt lat="42.7747" lon="2.17575">
        <ele>555</ele>
        <time>2021-08-20T22:35:01Z</time>
      </trkpt>
      <trkpt lat="42.77446" lon="2.17679">
        <ele>547</ele>
        <time>2021-08-20T22:35:15Z</time>
      </trkpt>
      <trkpt lat="42.77444" lon="2.17704">
        <ele>546</ele>
        <time>2021-08-20T22:35:19Z</time>
      </trkpt>
      <trkpt lat="42.77442" lon="2.17806">
        <ele>542</ele>
        <time>2021-08-20T22:35:32Z</time>
      </trkpt>
      <trkpt lat="42.77454" lon="2.17905">
        <ele>542</ele>
        <time>2021-08-20T22:35:45Z</time>
      </trkpt>
      <trkpt lat="42.77466" lon="2.1797">
        <ele>544</ele>
        <time>2021-08-20T22:35:54Z</time>
      </trkpt>
      <trkpt lat="42.77478" lon="2.1803">
        <ele>540</ele>
        <time>2021-08-20T22:36:02Z</time>
      </trkpt>
      <trkpt lat="42.7748" lon="2.18053">
        <ele>536</ele>
        <time>2021-08-20T22:36:05Z</time>
      </trkpt>
      <trkpt lat="42.77469" lon="2.18163">
        <ele>529</ele>
        <time>2021-08-20T22:36:19Z</time>
      </trkpt>
      <trkpt lat="42.77461" lon="2.18189">
        <ele>532</ele>
        <time>2021-08-20T22:36:23Z</time>
      </trkpt>
      <trkpt lat="42.77443" lon="2.18231">
        <ele>531</ele>
        <time>2021-08-20T22:36:29Z</time>
      </trkpt>
      <trkpt lat="42.77427" lon="2.18263">
        <ele>527</ele>
        <time>2021-08-20T22:36:34Z</time>
      </trkpt>
      <trkpt lat="42.77359" lon="2.18339">
        <ele>528</ele>
        <time>2021-08-20T22:36:50Z</time>
      </trkpt>
      <trkpt lat="42.77346" lon="2.1836">
        <ele>526</ele>
        <time>2021-08-20T22:36:54Z</time>
      </trkpt>
      <trkpt lat="42.77344" lon="2.18377">
        <ele>525</ele>
        <time>2021-08-20T22:36:56Z</time>
      </trkpt>
      <trkpt lat="42.77348" lon="2.18399">
        <ele>525</ele>
        <time>2021-08-20T22:36:59Z</time>
      </trkpt>
      <trkpt lat="42.77381" lon="2.18483">
        <ele>530</ele>
        <time>2021-08-20T22:37:11Z</time>
      </trkpt>
      <trkpt lat="42.77392" lon="2.18498">
        <ele>529</ele>
        <time>2021-08-20T22:37:14Z</time>
      </trkpt>
      <trkpt lat="42.77434" lon="2.18544">
        <ele>530</ele>
        <time>2021-08-20T22:37:24Z</time>
      </trkpt>
      <trkpt lat="42.77447" lon="2.18562">
        <ele>532</ele>
        <time>2021-08-20T22:37:27Z</time>
      </trkpt>
      <trkpt lat="42.7746" lon="2.18586">
        <ele>531</ele>
        <time>2021-08-20T22:37:31Z</time>
      </trkpt>
      <trkpt lat="42.77473" lon="2.18616">
        <ele>534</ele>
        <time>2021-08-20T22:37:35Z</time>
      </trkpt>
      <trkpt lat="42.77481" lon="2.18645">
        <ele>532</ele>
        <time>2021-08-20T22:37:40Z</time>
      </trkpt>
      <trkpt lat="42.77484" lon="2.18675">
        <ele>530</ele>
        <time>2021-08-20T22:37:43Z</time>
      </trkpt>
      <trkpt lat="42.77484" lon="2.18717">
        <ele>532</ele>
        <time>2021-08-20T22:37:49Z</time>
      </trkpt>
      <trkpt lat="42.7748" lon="2.18739">
        <ele>532</ele>
        <time>2021-08-20T22:37:52Z</time>
      </trkpt>
      <trkpt lat="42.77468" lon="2.18765">
        <ele>534</ele>
        <time>2021-08-20T22:37:56Z</time>
      </trkpt>
      <trkpt lat="42.77452" lon="2.18787">
        <ele>535</ele>
        <time>2021-08-20T22:38:00Z</time>
      </trkpt>
      <trkpt lat="42.77436" lon="2.18797">
        <ele>534</ele>
        <time>2021-08-20T22:38:03Z</time>
      </trkpt>
      <trkpt lat="42.77416" lon="2.18804">
        <ele>530</ele>
        <time>2021-08-20T22:38:07Z</time>
      </trkpt>
      <trkpt lat="42.77403" lon="2.18812">
        <ele>536</ele>
        <time>2021-08-20T22:38:09Z</time>
      </trkpt>
      <trkpt lat="42.77397" lon="2.1882">
        <ele>539</ele>
        <time>2021-08-20T22:38:11Z</time>
      </trkpt>
      <trkpt lat="42.77392" lon="2.1883">
        <ele>541</ele>
        <time>2021-08-20T22:38:12Z</time>
      </trkpt>
      <trkpt lat="42.77393" lon="2.18843">
        <ele>542</ele>
        <time>2021-08-20T22:38:14Z</time>
      </trkpt>
      <trkpt lat="42.77396" lon="2.18855">
        <ele>542</ele>
        <time>2021-08-20T22:38:16Z</time>
      </trkpt>
      <trkpt lat="42.77409" lon="2.1888">
        <ele>540</ele>
        <time>2021-08-20T22:38:20Z</time>
      </trkpt>
      <trkpt lat="42.77461" lon="2.18967">
        <ele>540</ele>
        <time>2021-08-20T22:38:34Z</time>
      </trkpt>
      <trkpt lat="42.77483" lon="2.18992">
        <ele>529</ele>
        <time>2021-08-20T22:38:39Z</time>
      </trkpt>
      <trkpt lat="42.77498" lon="2.19014">
        <ele>521</ele>
        <time>2021-08-20T22:38:43Z</time>
      </trkpt>
      <trkpt lat="42.77529" lon="2.19064">
        <ele>528</ele>
        <time>2021-08-20T22:38:52Z</time>
      </trkpt>
      <trkpt lat="42.77544" lon="2.19097">
        <ele>530</ele>
        <time>2021-08-20T22:38:57Z</time>
      </trkpt>
      <trkpt lat="42.77553" lon="2.1912">
        <ele>532</ele>
        <time>2021-08-20T22:39:00Z</time>
      </trkpt>
      <trkpt lat="42.77561" lon="2.1915">
        <ele>531</ele>
        <time>2021-08-20T22:39:05Z</time>
      </trkpt>
      <trkpt lat="42.77563" lon="2.19168">
        <ele>530</ele>
        <time>2021-08-20T22:39:07Z</time>
      </trkpt>
      <trkpt lat="42.7756" lon="2.19182">
        <ele>530</ele>
        <time>2021-08-20T22:39:09Z</time>
      </trkpt>
      <trkpt lat="42.77539" lon="2.19214">
        <ele>524</ele>
        <time>2021-08-20T22:39:14Z</time>
      </trkpt>
      <trkpt lat="42.77513" lon="2.19261">
        <ele>514</ele>
        <time>2021-08-20T22:39:22Z</time>
      </trkpt>
      <trkpt lat="42.77496" lon="2.1928">
        <ele>512</ele>
        <time>2021-08-20T22:39:26Z</time>
      </trkpt>
      <trkpt lat="42.77485" lon="2.19297">
        <ele>517</ele>
        <time>2021-08-20T22:39:29Z</time>
      </trkpt>
      <trkpt lat="42.77475" lon="2.19317">
        <ele>521</ele>
        <time>2021-08-20T22:39:32Z</time>
      </trkpt>
      <trkpt lat="42.77445" lon="2.1941">
        <ele>523</ele>
        <time>2021-08-20T22:39:45Z</time>
      </trkpt>
      <trkpt lat="42.77425" lon="2.19447">
        <ele>516</ele>
        <time>2021-08-20T22:39:51Z</time>
      </trkpt>
      <trkpt lat="42.77407" lon="2.19474">
        <ele>520</ele>
        <time>2021-08-20T22:39:56Z</time>
      </trkpt>
      <trkpt lat="42.77385" lon="2.19527">
        <ele>534</ele>
        <time>2021-08-20T22:40:04Z</time>
      </trkpt>
      <trkpt lat="42.77374" lon="2.19549">
        <ele>540</ele>
        <time>2021-08-20T22:40:08Z</time>
      </trkpt>
      <trkpt lat="42.77363" lon="2.19566">
        <ele>545</ele>
        <time>2021-08-20T22:40:11Z</time>
      </trkpt>
      <trkpt lat="42.77359" lon="2.19578">
        <ele>546</ele>
        <time>2021-08-20T22:40:12Z</time>
      </trkpt>
      <trkpt lat="42.77356" lon="2.19596">
        <ele>546</ele>
        <time>2021-08-20T22:40:15Z</time>
      </trkpt>
      <trkpt lat="42.77355" lon="2.19633">
        <ele>543</ele>
        <time>2021-08-20T22:40:20Z</time>
      </trkpt>
      <trkpt lat="42.77368" lon="2.19741">
        <ele>532</ele>
        <time>2021-08-20T22:40:34Z</time>
      </trkpt>
      <trkpt lat="42.77401" lon="2.19878">
        <ele>509</ele>
        <time>2021-08-20T22:40:53Z</time>
      </trkpt>
      <trkpt lat="42.77408" lon="2.19917">
        <ele>502</ele>
        <time>2021-08-20T22:40:58Z</time>
      </trkpt>
      <trkpt lat="42.7741" lon="2.1996">
        <ele>502</ele>
        <time>2021-08-20T22:41:04Z</time>
      </trkpt>
      <trkpt lat="42.77409" lon="2.1997">
        <ele>502</ele>
        <time>2021-08-20T22:41:05Z</time>
      </trkpt>
      <trkpt lat="42.77399" lon="2.19998">
        <ele>501</ele>
        <time>2021-08-20T22:41:09Z</time>
      </trkpt>
      <trkpt lat="42.77385" lon="2.20027">
        <ele>504</ele>
        <time>2021-08-20T22:41:14Z</time>
      </trkpt>
      <trkpt lat="42.77313" lon="2.20114">
        <ele>500</ele>
        <time>2021-08-20T22:41:31Z</time>
      </trkpt>
      <trkpt lat="42.77299" lon="2.20125">
        <ele>502</ele>
        <time>2021-08-20T22:41:34Z</time>
      </trkpt>
      <trkpt lat="42.77279" lon="2.20135">
        <ele>503</ele>
        <time>2021-08-20T22:41:37Z</time>
      </trkpt>
      <trkpt lat="42.77226" lon="2.20149">
        <ele>500</ele>
        <time>2021-08-20T22:41:47Z</time>
      </trkpt>
      <trkpt lat="42.77199" lon="2.20161">
        <ele>495</ele>
        <time>2021-08-20T22:41:52Z</time>
      </trkpt>
      <trkpt lat="42.7718" lon="2.20174">
        <ele>491</ele>
        <time>2021-08-20T22:41:56Z</time>
      </trkpt>
      <trkpt lat="42.7716" lon="2.20202">
        <ele>489</ele>
        <time>2021-08-20T22:42:01Z</time>
      </trkpt>
      <trkpt lat="42.7715" lon="2.2023">
        <ele>490</ele>
        <time>2021-08-20T22:42:05Z</time>
      </trkpt>
      <trkpt lat="42.77141" lon="2.20269">
        <ele>493</ele>
        <time>2021-08-20T22:42:10Z</time>
      </trkpt>
      <trkpt lat="42.7714" lon="2.20303">
        <ele>495</ele>
        <time>2021-08-20T22:42:15Z</time>
      </trkpt>
      <trkpt lat="42.77143" lon="2.20339">
        <ele>497</ele>
        <time>2021-08-20T22:42:19Z</time>
      </trkpt>
      <trkpt lat="42.77165" lon="2.20413">
        <ele>487</ele>
        <time>2021-08-20T22:42:30Z</time>
      </trkpt>
      <trkpt lat="42.77183" lon="2.20454">
        <ele>495</ele>
        <time>2021-08-20T22:42:36Z</time>
      </trkpt>
      <trkpt lat="42.77202" lon="2.20481">
        <ele>504</ele>
        <time>2021-08-20T22:42:41Z</time>
      </trkpt>
      <trkpt lat="42.77225" lon="2.20506">
        <ele>514</ele>
        <time>2021-08-20T22:42:46Z</time>
      </trkpt>
      <trkpt lat="42.7723" lon="2.20522">
        <ele>514</ele>
        <time>2021-08-20T22:42:48Z</time>
      </trkpt>
      <trkpt lat="42.77233" lon="2.20538">
        <ele>512</ele>
        <time>2021-08-20T22:42:51Z</time>
      </trkpt>
      <trkpt lat="42.77231" lon="2.20569">
        <ele>507</ele>
        <time>2021-08-20T22:42:55Z</time>
      </trkpt>
      <trkpt lat="42.77233" lon="2.20606">
        <ele>506</ele>
        <time>2021-08-20T22:43:00Z</time>
      </trkpt>
      <trkpt lat="42.77232" lon="2.20623">
        <ele>506</ele>
        <time>2021-08-20T22:43:02Z</time>
      </trkpt>
      <trkpt lat="42.77209" lon="2.2069">
        <ele>502</ele>
        <time>2021-08-20T22:43:11Z</time>
      </trkpt>
      <trkpt lat="42.77203" lon="2.20713">
        <ele>500</ele>
        <time>2021-08-20T22:43:15Z</time>
      </trkpt>
      <trkpt lat="42.77194" lon="2.20774">
        <ele>495</ele>
        <time>2021-08-20T22:43:23Z</time>
      </trkpt>
      <trkpt lat="42.7719" lon="2.2083">
        <ele>492</ele>
        <time>2021-08-20T22:43:30Z</time>
      </trkpt>
      <trkpt lat="42.7719" lon="2.20876">
        <ele>492</ele>
        <time>2021-08-20T22:43:36Z</time>
      </trkpt>
      <trkpt lat="42.77193" lon="2.20903">
        <ele>492</ele>
        <time>2021-08-20T22:43:40Z</time>
      </trkpt>
      <trkpt lat="42.77202" lon="2.20945">
        <ele>492</ele>
        <time>2021-08-20T22:43:45Z</time>
      </trkpt>
      <trkpt lat="42.77205" lon="2.20967">
        <ele>491</ele>
        <time>2021-08-20T22:43:48Z</time>
      </trkpt>
      <trkpt lat="42.77209" lon="2.21043">
        <ele>487</ele>
        <time>2021-08-20T22:43:58Z</time>
      </trkpt>
      <trkpt lat="42.77222" lon="2.21153">
        <ele>488</ele>
        <time>2021-08-20T22:44:13Z</time>
      </trkpt>
      <trkpt lat="42.77223" lon="2.21167">
        <ele>488</ele>
        <time>2021-08-20T22:44:15Z</time>
      </trkpt>
      <trkpt lat="42.7722" lon="2.21199">
        <ele>484</ele>
        <time>2021-08-20T22:44:19Z</time>
      </trkpt>
      <trkpt lat="42.7721" lon="2.21293">
        <ele>474</ele>
        <time>2021-08-20T22:44:31Z</time>
      </trkpt>
      <trkpt lat="42.77212" lon="2.21305">
        <ele>474</ele>
        <time>2021-08-20T22:44:33Z</time>
      </trkpt>
      <trkpt lat="42.77217" lon="2.21315">
        <ele>474</ele>
        <time>2021-08-20T22:44:34Z</time>
      </trkpt>
      <trkpt lat="42.77224" lon="2.21321">
        <ele>474</ele>
        <time>2021-08-20T22:44:36Z</time>
      </trkpt>
      <trkpt lat="42.77233" lon="2.21323">
        <ele>474</ele>
        <time>2021-08-20T22:44:38Z</time>
      </trkpt>
      <trkpt lat="42.77249" lon="2.21318">
        <ele>475</ele>
        <time>2021-08-20T22:44:40Z</time>
      </trkpt>
      <trkpt lat="42.77267" lon="2.2131">
        <ele>478</ele>
        <time>2021-08-20T22:44:44Z</time>
      </trkpt>
      <trkpt lat="42.77287" lon="2.21306">
        <ele>481</ele>
        <time>2021-08-20T22:44:47Z</time>
      </trkpt>
      <trkpt lat="42.77319" lon="2.21303">
        <ele>486</ele>
        <time>2021-08-20T22:44:53Z</time>
      </trkpt>
      <trkpt lat="42.77333" lon="2.21304">
        <ele>487</ele>
        <time>2021-08-20T22:44:56Z</time>
      </trkpt>
      <trkpt lat="42.77343" lon="2.21308">
        <ele>487</ele>
        <time>2021-08-20T22:44:58Z</time>
      </trkpt>
      <trkpt lat="42.7736" lon="2.2132">
        <ele>484</ele>
        <time>2021-08-20T22:45:01Z</time>
      </trkpt>
      <trkpt lat="42.77378" lon="2.21338">
        <ele>481</ele>
        <time>2021-08-20T22:45:05Z</time>
      </trkpt>
      <trkpt lat="42.77402" lon="2.21366">
        <ele>482</ele>
        <time>2021-08-20T22:45:11Z</time>
      </trkpt>
      <trkpt lat="42.77411" lon="2.21377">
        <ele>480</ele>
        <time>2021-08-20T22:45:13Z</time>
      </trkpt>
      <trkpt lat="42.77418" lon="2.2139">
        <ele>476</ele>
        <time>2021-08-20T22:45:15Z</time>
      </trkpt>
      <trkpt lat="42.77451" lon="2.21473">
        <ele>484</ele>
        <time>2021-08-20T22:45:27Z</time>
      </trkpt>
      <trkpt lat="42.77468" lon="2.21526">
        <ele>486</ele>
        <time>2021-08-20T22:45:35Z</time>
      </trkpt>
      <trkpt lat="42.77482" lon="2.21584">
        <ele>481</ele>
        <time>2021-08-20T22:45:43Z</time>
      </trkpt>
      <trkpt lat="42.7749" lon="2.21604">
        <ele>480</ele>
        <time>2021-08-20T22:45:46Z</time>
      </trkpt>
      <trkpt lat="42.77497" lon="2.21616">
        <ele>478</ele>
        <time>2021-08-20T22:45:48Z</time>
      </trkpt>
      <trkpt lat="42.77513" lon="2.21629">
        <ele>479</ele>
        <time>2021-08-20T22:45:51Z</time>
      </trkpt>
      <trkpt lat="42.77595" lon="2.21643">
        <ele>484</ele>
        <time>2021-08-20T22:46:06Z</time>
      </trkpt>
      <trkpt lat="42.77633" lon="2.21656">
        <ele>481</ele>
        <time>2021-08-20T22:46:13Z</time>
      </trkpt>
      <trkpt lat="42.77643" lon="2.21663">
        <ele>476</ele>
        <time>2021-08-20T22:46:15Z</time>
      </trkpt>
      <trkpt lat="42.77656" lon="2.21676">
        <ele>474</ele>
        <time>2021-08-20T22:46:17Z</time>
      </trkpt>
      <trkpt lat="42.77686" lon="2.21715">
        <ele>470</ele>
        <time>2021-08-20T22:46:25Z</time>
      </trkpt>
      <trkpt lat="42.77696" lon="2.21732">
        <ele>466</ele>
        <time>2021-08-20T22:46:28Z</time>
      </trkpt>
      <trkpt lat="42.77703" lon="2.21749">
        <ele>461</ele>
        <time>2021-08-20T22:46:30Z</time>
      </trkpt>
      <trkpt lat="42.7771" lon="2.21775">
        <ele>464</ele>
        <time>2021-08-20T22:46:34Z</time>
      </trkpt>
      <trkpt lat="42.77718" lon="2.21794">
        <ele>464</ele>
        <time>2021-08-20T22:46:37Z</time>
      </trkpt>
      <trkpt lat="42.77728" lon="2.21806">
        <ele>462</ele>
        <time>2021-08-20T22:46:39Z</time>
      </trkpt>
      <trkpt lat="42.77744" lon="2.21821">
        <ele>456</ele>
        <time>2021-08-20T22:46:43Z</time>
      </trkpt>
      <trkpt lat="42.77757" lon="2.21841">
        <ele>455</ele>
        <time>2021-08-20T22:46:46Z</time>
      </trkpt>
      <trkpt lat="42.77763" lon="2.2185">
        <ele>459</ele>
        <time>2021-08-20T22:46:48Z</time>
      </trkpt>
      <trkpt lat="42.77767" lon="2.21852">
        <ele>460</ele>
        <time>2021-08-20T22:46:48Z</time>
      </trkpt>
      <trkpt lat="42.77803" lon="2.21858">
        <ele>461</ele>
        <time>2021-08-20T22:46:55Z</time>
      </trkpt>
      <trkpt lat="42.77831" lon="2.21872">
        <ele>462</ele>
        <time>2021-08-20T22:47:00Z</time>
      </trkpt>
      <trkpt lat="42.77884" lon="2.21907">
        <ele>459</ele>
        <time>2021-08-20T22:47:11Z</time>
      </trkpt>
      <trkpt lat="42.77928" lon="2.21922">
        <ele>453</ele>
        <time>2021-08-20T22:47:19Z</time>
      </trkpt>
      <trkpt lat="42.77949" lon="2.21932">
        <ele>454</ele>
        <time>2021-08-20T22:47:23Z</time>
      </trkpt>
      <trkpt lat="42.77976" lon="2.21951">
        <ele>453</ele>
        <time>2021-08-20T22:47:28Z</time>
      </trkpt>
      <trkpt lat="42.77989" lon="2.21965">
        <ele>451</ele>
        <time>2021-08-20T22:47:31Z</time>
      </trkpt>
      <trkpt lat="42.78027" lon="2.22012">
        <ele>447</ele>
        <time>2021-08-20T22:47:40Z</time>
      </trkpt>
      <trkpt lat="42.78047" lon="2.22024">
        <ele>450</ele>
        <time>2021-08-20T22:47:44Z</time>
      </trkpt>
      <trkpt lat="42.78071" lon="2.22032">
        <ele>451</ele>
        <time>2021-08-20T22:47:48Z</time>
      </trkpt>
      <trkpt lat="42.78105" lon="2.22039">
        <ele>451</ele>
        <time>2021-08-20T22:47:55Z</time>
      </trkpt>
      <trkpt lat="42.78199" lon="2.22065">
        <ele>444</ele>
        <time>2021-08-20T22:48:12Z</time>
      </trkpt>
      <trkpt lat="42.78265" lon="2.22079">
        <ele>442</ele>
        <time>2021-08-20T22:48:23Z</time>
      </trkpt>
      <trkpt lat="42.78299" lon="2.22083">
        <ele>449</ele>
        <time>2021-08-20T22:48:30Z</time>
      </trkpt>
      <trkpt lat="42.78318" lon="2.22089">
        <ele>456</ele>
        <time>2021-08-20T22:48:33Z</time>
      </trkpt>
      <trkpt lat="42.78333" lon="2.22096">
        <ele>463</ele>
        <time>2021-08-20T22:48:36Z</time>
      </trkpt>
      <trkpt lat="42.78355" lon="2.22116">
        <ele>480</ele>
        <time>2021-08-20T22:48:41Z</time>
      </trkpt>
      <trkpt lat="42.78374" lon="2.22141">
        <ele>494</ele>
        <time>2021-08-20T22:48:45Z</time>
      </trkpt>
      <trkpt lat="42.7844" lon="2.22268">
        <ele>554</ele>
        <time>2021-08-20T22:49:06Z</time>
      </trkpt>
      <trkpt lat="42.78451" lon="2.22278">
        <ele>558</ele>
        <time>2021-08-20T22:49:08Z</time>
      </trkpt>
      <trkpt lat="42.78466" lon="2.22288">
        <ele>560</ele>
        <time>2021-08-20T22:49:11Z</time>
      </trkpt>
      <trkpt lat="42.78482" lon="2.22291">
        <ele>560</ele>
        <time>2021-08-20T22:49:14Z</time>
      </trkpt>
      <trkpt lat="42.78499" lon="2.22289">
        <ele>557</ele>
        <time>2021-08-20T22:49:17Z</time>
      </trkpt>
      <trkpt lat="42.78521" lon="2.22283">
        <ele>558</ele>
        <time>2021-08-20T22:49:21Z</time>
      </trkpt>
      <trkpt lat="42.78539" lon="2.22273">
        <ele>557</ele>
        <time>2021-08-20T22:49:24Z</time>
      </trkpt>
      <trkpt lat="42.78589" lon="2.22221">
        <ele>543</ele>
        <time>2021-08-20T22:49:35Z</time>
      </trkpt>
      <trkpt lat="42.78603" lon="2.22211">
        <ele>533</ele>
        <time>2021-08-20T22:49:38Z</time>
      </trkpt>
      <trkpt lat="42.78621" lon="2.22209">
        <ele>525</ele>
        <time>2021-08-20T22:49:41Z</time>
      </trkpt>
      <trkpt lat="42.7864" lon="2.22216">
        <ele>517</ele>
        <time>2021-08-20T22:49:45Z</time>
      </trkpt>
      <trkpt lat="42.78686" lon="2.22252">
        <ele>496</ele>
        <time>2021-08-20T22:49:54Z</time>
      </trkpt>
      <trkpt lat="42.78709" lon="2.2226">
        <ele>480</ele>
        <time>2021-08-20T22:49:59Z</time>
      </trkpt>
      <trkpt lat="42.78731" lon="2.22265">
        <ele>463</ele>
        <time>2021-08-20T22:50:03Z</time>
      </trkpt>
      <trkpt lat="42.78759" lon="2.22265">
        <ele>447</ele>
        <time>2021-08-20T22:50:08Z</time>
      </trkpt>
      <trkpt lat="42.78796" lon="2.22258">
        <ele>440</ele>
        <time>2021-08-20T22:50:14Z</time>
      </trkpt>
      <trkpt lat="42.78904" lon="2.22223">
        <ele>434</ele>
        <time>2021-08-20T22:50:34Z</time>
      </trkpt>
      <trkpt lat="42.78929" lon="2.2221">
        <ele>432</ele>
        <time>2021-08-20T22:50:39Z</time>
      </trkpt>
      <trkpt lat="42.78948" lon="2.22204">
        <ele>431</ele>
        <time>2021-08-20T22:50:42Z</time>
      </trkpt>
      <trkpt lat="42.78985" lon="2.22204">
        <ele>429</ele>
        <time>2021-08-20T22:50:49Z</time>
      </trkpt>
      <trkpt lat="42.79016" lon="2.22195">
        <ele>428</ele>
        <time>2021-08-20T22:50:54Z</time>
      </trkpt>
      <trkpt lat="42.79041" lon="2.22192">
        <ele>427</ele>
        <time>2021-08-20T22:50:59Z</time>
      </trkpt>
      <trkpt lat="42.79067" lon="2.22197">
        <ele>426</ele>
        <time>2021-08-20T22:51:04Z</time>
      </trkpt>
      <trkpt lat="42.79081" lon="2.22208">
        <ele>425</ele>
        <time>2021-08-20T22:51:06Z</time>
      </trkpt>
      <trkpt lat="42.79455" lon="2.22553">
        <ele>416</ele>
        <time>2021-08-20T22:52:27Z</time>
      </trkpt>
      <trkpt lat="42.79478" lon="2.22556">
        <ele>415</ele>
        <time>2021-08-20T22:52:31Z</time>
      </trkpt>
      <trkpt lat="42.79495" lon="2.22537">
        <ele>414</ele>
        <time>2021-08-20T22:52:35Z</time>
      </trkpt>
      <trkpt lat="42.79512" lon="2.2251">
        <ele>416</ele>
        <time>2021-08-20T22:52:39Z</time>
      </trkpt>
      <trkpt lat="42.79526" lon="2.22498">
        <ele>418</ele>
        <time>2021-08-20T22:52:42Z</time>
      </trkpt>
      <trkpt lat="42.79543" lon="2.22496">
        <ele>422</ele>
        <time>2021-08-20T22:52:45Z</time>
      </trkpt>
      <trkpt lat="42.7956" lon="2.22508">
        <ele>423</ele>
        <time>2021-08-20T22:52:49Z</time>
      </trkpt>
      <trkpt lat="42.79618" lon="2.22574">
        <ele>425</ele>
        <time>2021-08-20T22:53:02Z</time>
      </trkpt>
      <trkpt lat="42.79643" lon="2.22594">
        <ele>426</ele>
        <time>2021-08-20T22:53:07Z</time>
      </trkpt>
      <trkpt lat="42.79696" lon="2.22622">
        <ele>427</ele>
        <time>2021-08-20T22:53:18Z</time>
      </trkpt>
      <trkpt lat="42.79736" lon="2.22634">
        <ele>427</ele>
        <time>2021-08-20T22:53:25Z</time>
      </trkpt>
      <trkpt lat="42.79806" lon="2.22675">
        <ele>420</ele>
        <time>2021-08-20T22:53:38Z</time>
      </trkpt>
      <trkpt lat="42.79823" lon="2.22683">
        <ele>420</ele>
        <time>2021-08-20T22:53:42Z</time>
      </trkpt>
      <trkpt lat="42.79851" lon="2.2269">
        <ele>419</ele>
        <time>2021-08-20T22:53:47Z</time>
      </trkpt>
      <trkpt lat="42.79906" lon="2.22695">
        <ele>415</ele>
        <time>2021-08-20T22:53:56Z</time>
      </trkpt>
      <trkpt lat="42.79955" lon="2.22703">
        <ele>412</ele>
        <time>2021-08-20T22:54:05Z</time>
      </trkpt>
      <trkpt lat="42.79968" lon="2.22701">
        <ele>411</ele>
        <time>2021-08-20T22:54:08Z</time>
      </trkpt>
      <trkpt lat="42.79983" lon="2.22697">
        <ele>411</ele>
        <time>2021-08-20T22:54:10Z</time>
      </trkpt>
      <trkpt lat="42.80027" lon="2.22668">
        <ele>412</ele>
        <time>2021-08-20T22:54:19Z</time>
      </trkpt>
      <trkpt lat="42.80054" lon="2.22664">
        <ele>412</ele>
        <time>2021-08-20T22:54:24Z</time>
      </trkpt>
      <trkpt lat="42.80068" lon="2.22665">
        <ele>411</ele>
        <time>2021-08-20T22:54:26Z</time>
      </trkpt>
      <trkpt lat="42.80084" lon="2.22671">
        <ele>411</ele>
        <time>2021-08-20T22:54:29Z</time>
      </trkpt>
      <trkpt lat="42.80099" lon="2.22682">
        <ele>411</ele>
        <time>2021-08-20T22:54:32Z</time>
      </trkpt>
      <trkpt lat="42.80118" lon="2.227">
        <ele>410</ele>
        <time>2021-08-20T22:54:36Z</time>
      </trkpt>
      <trkpt lat="42.80125" lon="2.22699">
        <ele>411</ele>
        <time>2021-08-20T22:54:38Z</time>
      </trkpt>
      <trkpt lat="42.80135" lon="2.22706">
        <ele>411</ele>
        <time>2021-08-20T22:54:40Z</time>
      </trkpt>
      <trkpt lat="42.80264" lon="2.22812">
        <ele>413</ele>
        <time>2021-08-20T22:55:07Z</time>
      </trkpt>
      <trkpt lat="42.80277" lon="2.22818">
        <ele>414</ele>
        <time>2021-08-20T22:55:09Z</time>
      </trkpt>
      <trkpt lat="42.80286" lon="2.22821">
        <ele>415</ele>
        <time>2021-08-20T22:55:11Z</time>
      </trkpt>
      <trkpt lat="42.80289" lon="2.22851">
        <ele>413</ele>
        <time>2021-08-20T22:55:15Z</time>
      </trkpt>
      <trkpt lat="42.80296" lon="2.2288">
        <ele>412</ele>
        <time>2021-08-20T22:55:19Z</time>
      </trkpt>
      <trkpt lat="42.80344" lon="2.23018">
        <ele>410</ele>
        <time>2021-08-20T22:55:38Z</time>
      </trkpt>
      <trkpt lat="42.80404" lon="2.23127">
        <ele>414</ele>
        <time>2021-08-20T22:55:56Z</time>
      </trkpt>
      <trkpt lat="42.80407" lon="2.23136">
        <ele>414</ele>
        <time>2021-08-20T22:55:58Z</time>
      </trkpt>
      <trkpt lat="42.80406" lon="2.23143">
        <ele>413</ele>
        <time>2021-08-20T22:55:58Z</time>
      </trkpt>
      <trkpt lat="42.80403" lon="2.23147">
        <ele>412</ele>
        <time>2021-08-20T22:55:59Z</time>
      </trkpt>
      <trkpt lat="42.80414" lon="2.2318">
        <ele>411</ele>
        <time>2021-08-20T22:56:04Z</time>
      </trkpt>
      <trkpt lat="42.80418" lon="2.23206">
        <ele>411</ele>
        <time>2021-08-20T22:56:07Z</time>
      </trkpt>
      <trkpt lat="42.80419" lon="2.23246">
        <ele>409</ele>
        <time>2021-08-20T22:56:13Z</time>
      </trkpt>
      <trkpt lat="42.80422" lon="2.23274">
        <ele>410</ele>
        <time>2021-08-20T22:56:16Z</time>
      </trkpt>
      <trkpt lat="42.80428" lon="2.23311">
        <ele>411</ele>
        <time>2021-08-20T22:56:21Z</time>
      </trkpt>
      <trkpt lat="42.80434" lon="2.23334">
        <ele>412</ele>
        <time>2021-08-20T22:56:24Z</time>
      </trkpt>
      <trkpt lat="42.80508" lon="2.23519">
        <ele>411</ele>
        <time>2021-08-20T22:56:52Z</time>
      </trkpt>
      <trkpt lat="42.80559" lon="2.23599">
        <ele>416</ele>
        <time>2021-08-20T22:57:06Z</time>
      </trkpt>
      <trkpt lat="42.80594" lon="2.23643">
        <ele>415</ele>
        <time>2021-08-20T22:57:14Z</time>
      </trkpt>
      <trkpt lat="42.80618" lon="2.23662">
        <ele>415</ele>
        <time>2021-08-20T22:57:19Z</time>
      </trkpt>
      <trkpt lat="42.80643" lon="2.23678">
        <ele>418</ele>
        <time>2021-08-20T22:57:24Z</time>
      </trkpt>
      <trkpt lat="42.80664" lon="2.23688">
        <ele>421</ele>
        <time>2021-08-20T22:57:28Z</time>
      </trkpt>
      <trkpt lat="42.80673" lon="2.2369">
        <ele>421</ele>
        <time>2021-08-20T22:57:30Z</time>
      </trkpt>
      <trkpt lat="42.80691" lon="2.23688">
        <ele>422</ele>
        <time>2021-08-20T22:57:33Z</time>
      </trkpt>
      <trkpt lat="42.80803" lon="2.23624">
        <ele>428</ele>
        <time>2021-08-20T22:57:55Z</time>
      </trkpt>
      <trkpt lat="42.80861" lon="2.23582">
        <ele>421</ele>
        <time>2021-08-20T22:58:06Z</time>
      </trkpt>
      <trkpt lat="42.80886" lon="2.23571">
        <ele>422</ele>
        <time>2021-08-20T22:58:11Z</time>
      </trkpt>
      <trkpt lat="42.80911" lon="2.23562">
        <ele>421</ele>
        <time>2021-08-20T22:58:16Z</time>
      </trkpt>
      <trkpt lat="42.80931" lon="2.23561">
        <ele>422</ele>
        <time>2021-08-20T22:58:19Z</time>
      </trkpt>
      <trkpt lat="42.80955" lon="2.23566">
        <ele>423</ele>
        <time>2021-08-20T22:58:23Z</time>
      </trkpt>
      <trkpt lat="42.80976" lon="2.23578">
        <ele>420</ele>
        <time>2021-08-20T22:58:27Z</time>
      </trkpt>
      <trkpt lat="42.81041" lon="2.23634">
        <ele>425</ele>
        <time>2021-08-20T22:58:41Z</time>
      </trkpt>
      <trkpt lat="42.8105" lon="2.23644">
        <ele>424</ele>
        <time>2021-08-20T22:58:43Z</time>
      </trkpt>
      <trkpt lat="42.81094" lon="2.23718">
        <ele>413</ele>
        <time>2021-08-20T22:58:56Z</time>
      </trkpt>
      <trkpt lat="42.81114" lon="2.23749">
        <ele>409</ele>
        <time>2021-08-20T22:59:01Z</time>
      </trkpt>
      <trkpt lat="42.8116" lon="2.23807">
        <ele>406</ele>
        <time>2021-08-20T22:59:12Z</time>
      </trkpt>
      <trkpt lat="42.81177" lon="2.23818">
        <ele>402</ele>
        <time>2021-08-20T22:59:16Z</time>
      </trkpt>
      <trkpt lat="42.81209" lon="2.23829">
        <ele>399</ele>
        <time>2021-08-20T22:59:21Z</time>
      </trkpt>
      <trkpt lat="42.81206" lon="2.23839">
        <ele>398</ele>
        <time>2021-08-20T22:59:23Z</time>
      </trkpt>
      <trkpt lat="42.81209" lon="2.23848">
        <ele>398</ele>
        <time>2021-08-20T22:59:24Z</time>
      </trkpt>
      <trkpt lat="42.81216" lon="2.23852">
        <ele>397</ele>
        <time>2021-08-20T22:59:25Z</time>
      </trkpt>
      <trkpt lat="42.81223" lon="2.2385">
        <ele>397</ele>
        <time>2021-08-20T22:59:27Z</time>
      </trkpt>
      <trkpt lat="42.81225" lon="2.23847">
        <ele>397</ele>
        <time>2021-08-20T22:59:27Z</time>
      </trkpt>
    </trkseg>
  </trk>
</gpx>